<?xml version="1.0" encoding="UTF-8" standalone="no" ?>
<gpx xmlns="http://www.topografix.com/GPX/1/1" xmlns:xsi="http://www.w3.org/2001/XMLSchema-instance" xsi:schemaLocation="http://www.topografix.com/GPX/1/1 http://www.topografix.com/GPX/1/1/gpx.xsd" version="1.1" creator="VisuGPX - https://www.visugpx.com">
  <metadata>
    <name>Lac de Kruth </name>
  </metadata>
  <trk>
    <name><![CDATA[2022-10-31 10:24:42]]></name>
    <extensions>
      <line xmlns="http://www.topografix.com/GPX/gpx_style/0/2">
        <color>0000FF</color>
        <width>4</width>
      </line>
    </extensions>
    <trkseg>
      <trkpt lat="47.95378" lon="6.9599">
        <ele>561.59997558594</ele>
        <time>2022-10-31T09:24:42.000Z</time>
      </trkpt>
      <trkpt lat="47.95378" lon="6.95992">
        <ele>561.59997558594</ele>
        <time>2022-10-31T09:24:43.000Z</time>
      </trkpt>
      <trkpt lat="47.9538" lon="6.95998">
        <ele>562</ele>
        <time>2022-10-31T09:24:48.000Z</time>
      </trkpt>
      <trkpt lat="47.95381" lon="6.96">
        <ele>562</ele>
        <time>2022-10-31T09:24:50.000Z</time>
      </trkpt>
      <trkpt lat="47.95381" lon="6.96003">
        <ele>562.19995117188</ele>
        <time>2022-10-31T09:24:52.000Z</time>
      </trkpt>
      <trkpt lat="47.95381" lon="6.96007">
        <ele>562.40002441406</ele>
        <time>2022-10-31T09:24:55.000Z</time>
      </trkpt>
      <trkpt lat="47.95383" lon="6.96012">
        <ele>562.40002441406</ele>
        <time>2022-10-31T09:24:59.000Z</time>
      </trkpt>
      <trkpt lat="47.95383" lon="6.96014">
        <ele>562.40002441406</ele>
        <time>2022-10-31T09:25:00.000Z</time>
      </trkpt>
      <trkpt lat="47.95385" lon="6.96017">
        <ele>562.40002441406</ele>
        <time>2022-10-31T09:25:03.000Z</time>
      </trkpt>
      <trkpt lat="47.95385" lon="6.9602">
        <ele>562.59997558594</ele>
        <time>2022-10-31T09:25:05.000Z</time>
      </trkpt>
      <trkpt lat="47.95387" lon="6.96026">
        <ele>562.59997558594</ele>
        <time>2022-10-31T09:25:09.000Z</time>
      </trkpt>
      <trkpt lat="47.95389" lon="6.96035">
        <ele>562.80004882812</ele>
        <time>2022-10-31T09:25:16.000Z</time>
      </trkpt>
      <trkpt lat="47.95391" lon="6.96039">
        <ele>562.59997558594</ele>
        <time>2022-10-31T09:25:19.000Z</time>
      </trkpt>
      <trkpt lat="47.95394" lon="6.96045">
        <ele>562.59997558594</ele>
        <time>2022-10-31T09:25:24.000Z</time>
      </trkpt>
      <trkpt lat="47.95395" lon="6.96048">
        <ele>562.59997558594</ele>
        <time>2022-10-31T09:25:26.000Z</time>
      </trkpt>
      <trkpt lat="47.95394" lon="6.96048">
        <ele>562.59997558594</ele>
        <time>2022-10-31T09:25:27.000Z</time>
      </trkpt>
      <trkpt lat="47.95396" lon="6.96063">
        <ele>562.40002441406</ele>
        <time>2022-10-31T09:25:37.000Z</time>
      </trkpt>
      <trkpt lat="47.95397" lon="6.96067">
        <ele>562.19995117188</ele>
        <time>2022-10-31T09:25:43.000Z</time>
      </trkpt>
      <trkpt lat="47.95396" lon="6.96069">
        <ele>562.19995117188</ele>
        <time>2022-10-31T09:25:50.000Z</time>
      </trkpt>
      <trkpt lat="47.95397" lon="6.96076">
        <ele>562</ele>
        <time>2022-10-31T09:25:56.000Z</time>
      </trkpt>
      <trkpt lat="47.95398" lon="6.96079">
        <ele>562</ele>
        <time>2022-10-31T09:26:00.000Z</time>
      </trkpt>
      <trkpt lat="47.954" lon="6.96081">
        <ele>562.19995117188</ele>
        <time>2022-10-31T09:26:02.000Z</time>
      </trkpt>
      <trkpt lat="47.95402" lon="6.96079">
        <ele>562</ele>
        <time>2022-10-31T09:26:09.000Z</time>
      </trkpt>
      <trkpt lat="47.95401" lon="6.96079">
        <ele>562</ele>
        <time>2022-10-31T09:26:15.000Z</time>
      </trkpt>
      <trkpt lat="47.95401" lon="6.96079">
        <ele>562</ele>
        <time>2022-10-31T09:26:23.000Z</time>
      </trkpt>
      <trkpt lat="47.954" lon="6.9608">
        <ele>561.80004882812</ele>
        <time>2022-10-31T09:26:30.000Z</time>
      </trkpt>
      <trkpt lat="47.954" lon="6.9608">
        <ele>561.80004882812</ele>
        <time>2022-10-31T09:26:34.000Z</time>
      </trkpt>
      <trkpt lat="47.95397" lon="6.96081">
        <ele>561.80004882812</ele>
        <time>2022-10-31T09:26:38.000Z</time>
      </trkpt>
      <trkpt lat="47.95397" lon="6.96082">
        <ele>561.80004882812</ele>
        <time>2022-10-31T09:26:41.000Z</time>
      </trkpt>
      <trkpt lat="47.95398" lon="6.96085">
        <ele>561.59997558594</ele>
        <time>2022-10-31T09:26:57.000Z</time>
      </trkpt>
      <trkpt lat="47.95403" lon="6.96073">
        <ele>561.59997558594</ele>
        <time>2022-10-31T09:27:03.000Z</time>
      </trkpt>
      <trkpt lat="47.95406" lon="6.96067">
        <ele>561.80004882812</ele>
        <time>2022-10-31T09:27:05.000Z</time>
      </trkpt>
      <trkpt lat="47.95409" lon="6.96055">
        <ele>561.80004882812</ele>
        <time>2022-10-31T09:27:10.000Z</time>
      </trkpt>
      <trkpt lat="47.95409" lon="6.96052">
        <ele>561.80004882812</ele>
        <time>2022-10-31T09:27:12.000Z</time>
      </trkpt>
      <trkpt lat="47.95411" lon="6.96047">
        <ele>561.80004882812</ele>
        <time>2022-10-31T09:27:16.000Z</time>
      </trkpt>
      <trkpt lat="47.95411" lon="6.96046">
        <ele>561.80004882812</ele>
        <time>2022-10-31T09:27:18.000Z</time>
      </trkpt>
      <trkpt lat="47.9541" lon="6.96044">
        <ele>561.59997558594</ele>
        <time>2022-10-31T09:27:31.000Z</time>
      </trkpt>
      <trkpt lat="47.95414" lon="6.96036">
        <ele>561.19995117188</ele>
        <time>2022-10-31T09:28:04.000Z</time>
      </trkpt>
      <trkpt lat="47.95416" lon="6.96022">
        <ele>561</ele>
        <time>2022-10-31T09:28:12.000Z</time>
      </trkpt>
      <trkpt lat="47.95411" lon="6.96014">
        <ele>561</ele>
        <time>2022-10-31T09:28:20.000Z</time>
      </trkpt>
      <trkpt lat="47.95406" lon="6.96005">
        <ele>561.19995117188</ele>
        <time>2022-10-31T09:28:29.000Z</time>
      </trkpt>
      <trkpt lat="47.95405" lon="6.96005">
        <ele>561.59997558594</ele>
        <time>2022-10-31T09:28:35.000Z</time>
      </trkpt>
      <trkpt lat="47.95405" lon="6.96005">
        <ele>561.59997558594</ele>
        <time>2022-10-31T09:28:38.000Z</time>
      </trkpt>
      <trkpt lat="47.95407" lon="6.95996">
        <ele>561.19995117188</ele>
        <time>2022-10-31T09:28:44.000Z</time>
      </trkpt>
      <trkpt lat="47.95409" lon="6.95992">
        <ele>561.40002441406</ele>
        <time>2022-10-31T09:28:50.000Z</time>
      </trkpt>
      <trkpt lat="47.9541" lon="6.95991">
        <ele>561.40002441406</ele>
        <time>2022-10-31T09:28:51.000Z</time>
      </trkpt>
      <trkpt lat="47.9541" lon="6.95988">
        <ele>561.40002441406</ele>
        <time>2022-10-31T09:28:53.000Z</time>
      </trkpt>
      <trkpt lat="47.95411" lon="6.95982">
        <ele>561.19995117188</ele>
        <time>2022-10-31T09:28:56.000Z</time>
      </trkpt>
      <trkpt lat="47.95411" lon="6.95971">
        <ele>561.40002441406</ele>
        <time>2022-10-31T09:29:04.000Z</time>
      </trkpt>
      <trkpt lat="47.95411" lon="6.95961">
        <ele>561.59997558594</ele>
        <time>2022-10-31T09:29:10.000Z</time>
      </trkpt>
      <trkpt lat="47.95411" lon="6.9596">
        <ele>561.59997558594</ele>
        <time>2022-10-31T09:29:11.000Z</time>
      </trkpt>
      <trkpt lat="47.95413" lon="6.95948">
        <ele>561.59997558594</ele>
        <time>2022-10-31T09:29:18.000Z</time>
      </trkpt>
      <trkpt lat="47.95415" lon="6.95944">
        <ele>561.80004882812</ele>
        <time>2022-10-31T09:29:21.000Z</time>
      </trkpt>
      <trkpt lat="47.95417" lon="6.95942">
        <ele>562</ele>
        <time>2022-10-31T09:29:24.000Z</time>
      </trkpt>
      <trkpt lat="47.95422" lon="6.95934">
        <ele>562</ele>
        <time>2022-10-31T09:29:29.000Z</time>
      </trkpt>
      <trkpt lat="47.95425" lon="6.95929">
        <ele>562</ele>
        <time>2022-10-31T09:29:31.000Z</time>
      </trkpt>
      <trkpt lat="47.95426" lon="6.95924">
        <ele>562.19995117188</ele>
        <time>2022-10-31T09:29:35.000Z</time>
      </trkpt>
      <trkpt lat="47.95428" lon="6.9592">
        <ele>562.19995117188</ele>
        <time>2022-10-31T09:29:37.000Z</time>
      </trkpt>
      <trkpt lat="47.95431" lon="6.95913">
        <ele>562.19995117188</ele>
        <time>2022-10-31T09:29:40.000Z</time>
      </trkpt>
      <trkpt lat="47.95433" lon="6.95911">
        <ele>562.40002441406</ele>
        <time>2022-10-31T09:29:43.000Z</time>
      </trkpt>
      <trkpt lat="47.95437" lon="6.95905">
        <ele>562.59997558594</ele>
        <time>2022-10-31T09:29:49.000Z</time>
      </trkpt>
      <trkpt lat="47.95438" lon="6.95897">
        <ele>562.59997558594</ele>
        <time>2022-10-31T09:29:54.000Z</time>
      </trkpt>
      <trkpt lat="47.95439" lon="6.95894">
        <ele>562.80004882812</ele>
        <time>2022-10-31T09:29:56.000Z</time>
      </trkpt>
      <trkpt lat="47.95441" lon="6.95887">
        <ele>562.80004882812</ele>
        <time>2022-10-31T09:30:01.000Z</time>
      </trkpt>
      <trkpt lat="47.95442" lon="6.95885">
        <ele>562.80004882812</ele>
        <time>2022-10-31T09:30:03.000Z</time>
      </trkpt>
      <trkpt lat="47.95448" lon="6.9588">
        <ele>562.80004882812</ele>
        <time>2022-10-31T09:30:07.000Z</time>
      </trkpt>
      <trkpt lat="47.95452" lon="6.95875">
        <ele>562.40002441406</ele>
        <time>2022-10-31T09:30:13.000Z</time>
      </trkpt>
      <trkpt lat="47.95453" lon="6.9588">
        <ele>562.40002441406</ele>
        <time>2022-10-31T09:30:18.000Z</time>
      </trkpt>
      <trkpt lat="47.95452" lon="6.95881">
        <ele>562.40002441406</ele>
        <time>2022-10-31T09:30:19.000Z</time>
      </trkpt>
      <trkpt lat="47.95451" lon="6.95882">
        <ele>562.80004882812</ele>
        <time>2022-10-31T09:30:25.000Z</time>
      </trkpt>
      <trkpt lat="47.9545" lon="6.95883">
        <ele>562.80004882812</ele>
        <time>2022-10-31T09:30:39.000Z</time>
      </trkpt>
      <trkpt lat="47.9545" lon="6.95884">
        <ele>562.80004882812</ele>
        <time>2022-10-31T09:30:44.000Z</time>
      </trkpt>
      <trkpt lat="47.95449" lon="6.95884">
        <ele>562.80004882812</ele>
        <time>2022-10-31T09:30:47.000Z</time>
      </trkpt>
      <trkpt lat="47.95443" lon="6.95888">
        <ele>562.80004882812</ele>
        <time>2022-10-31T09:31:05.000Z</time>
      </trkpt>
      <trkpt lat="47.95444" lon="6.95887">
        <ele>562.80004882812</ele>
        <time>2022-10-31T09:31:12.000Z</time>
      </trkpt>
      <trkpt lat="47.95444" lon="6.9588">
        <ele>562.80004882812</ele>
        <time>2022-10-31T09:31:15.000Z</time>
      </trkpt>
      <trkpt lat="47.95445" lon="6.95867">
        <ele>562.40002441406</ele>
        <time>2022-10-31T09:31:20.000Z</time>
      </trkpt>
      <trkpt lat="47.95445" lon="6.95864">
        <ele>562.40002441406</ele>
        <time>2022-10-31T09:31:22.000Z</time>
      </trkpt>
      <trkpt lat="47.95444" lon="6.95851">
        <ele>562.59997558594</ele>
        <time>2022-10-31T09:31:30.000Z</time>
      </trkpt>
      <trkpt lat="47.95444" lon="6.9585">
        <ele>562.59997558594</ele>
        <time>2022-10-31T09:31:31.000Z</time>
      </trkpt>
      <trkpt lat="47.95445" lon="6.95841">
        <ele>562.80004882812</ele>
        <time>2022-10-31T09:31:37.000Z</time>
      </trkpt>
      <trkpt lat="47.95449" lon="6.95837">
        <ele>562.80004882812</ele>
        <time>2022-10-31T09:31:38.000Z</time>
      </trkpt>
      <trkpt lat="47.95457" lon="6.95838">
        <ele>562.80004882812</ele>
        <time>2022-10-31T09:31:43.000Z</time>
      </trkpt>
      <trkpt lat="47.95458" lon="6.95837">
        <ele>562.80004882812</ele>
        <time>2022-10-31T09:31:49.000Z</time>
      </trkpt>
      <trkpt lat="47.95459" lon="6.95836">
        <ele>563</ele>
        <time>2022-10-31T09:31:53.000Z</time>
      </trkpt>
      <trkpt lat="47.95461" lon="6.95834">
        <ele>563</ele>
        <time>2022-10-31T09:31:57.000Z</time>
      </trkpt>
      <trkpt lat="47.95461" lon="6.95831">
        <ele>563</ele>
        <time>2022-10-31T09:32:16.000Z</time>
      </trkpt>
      <trkpt lat="47.95463" lon="6.9583">
        <ele>562.80004882812</ele>
        <time>2022-10-31T09:32:26.000Z</time>
      </trkpt>
      <trkpt lat="47.95463" lon="6.9583">
        <ele>563</ele>
        <time>2022-10-31T09:32:29.000Z</time>
      </trkpt>
      <trkpt lat="47.95464" lon="6.95829">
        <ele>563</ele>
        <time>2022-10-31T09:32:36.000Z</time>
      </trkpt>
      <trkpt lat="47.95464" lon="6.9583">
        <ele>563</ele>
        <time>2022-10-31T09:32:40.000Z</time>
      </trkpt>
      <trkpt lat="47.95464" lon="6.9583">
        <ele>562.80004882812</ele>
        <time>2022-10-31T09:32:48.000Z</time>
      </trkpt>
      <trkpt lat="47.95464" lon="6.9583">
        <ele>563</ele>
        <time>2022-10-31T09:32:51.000Z</time>
      </trkpt>
      <trkpt lat="47.95464" lon="6.9583">
        <ele>563</ele>
        <time>2022-10-31T09:32:56.000Z</time>
      </trkpt>
      <trkpt lat="47.9546" lon="6.95826">
        <ele>563</ele>
        <time>2022-10-31T09:33:05.000Z</time>
      </trkpt>
      <trkpt lat="47.95451" lon="6.95819">
        <ele>563.40002441406</ele>
        <time>2022-10-31T09:33:14.000Z</time>
      </trkpt>
      <trkpt lat="47.95449" lon="6.95817">
        <ele>563.40002441406</ele>
        <time>2022-10-31T09:33:16.000Z</time>
      </trkpt>
      <trkpt lat="47.95449" lon="6.95815">
        <ele>563.80004882812</ele>
        <time>2022-10-31T09:33:21.000Z</time>
      </trkpt>
      <trkpt lat="47.95447" lon="6.95812">
        <ele>563.80004882812</ele>
        <time>2022-10-31T09:33:23.000Z</time>
      </trkpt>
      <trkpt lat="47.95446" lon="6.95811">
        <ele>563.80004882812</ele>
        <time>2022-10-31T09:33:25.000Z</time>
      </trkpt>
      <trkpt lat="47.95444" lon="6.95809">
        <ele>564</ele>
        <time>2022-10-31T09:33:29.000Z</time>
      </trkpt>
      <trkpt lat="47.95443" lon="6.95809">
        <ele>564</ele>
        <time>2022-10-31T09:33:30.000Z</time>
      </trkpt>
      <trkpt lat="47.95442" lon="6.95808">
        <ele>564.19995117188</ele>
        <time>2022-10-31T09:33:31.000Z</time>
      </trkpt>
      <trkpt lat="47.95442" lon="6.95807">
        <ele>564.19995117188</ele>
        <time>2022-10-31T09:33:34.000Z</time>
      </trkpt>
      <trkpt lat="47.9544" lon="6.95806">
        <ele>564.19995117188</ele>
        <time>2022-10-31T09:33:36.000Z</time>
      </trkpt>
      <trkpt lat="47.95433" lon="6.95804">
        <ele>564.40002441406</ele>
        <time>2022-10-31T09:33:42.000Z</time>
      </trkpt>
      <trkpt lat="47.95429" lon="6.95795">
        <ele>564.40002441406</ele>
        <time>2022-10-31T09:33:47.000Z</time>
      </trkpt>
      <trkpt lat="47.95426" lon="6.95791">
        <ele>564.59997558594</ele>
        <time>2022-10-31T09:33:53.000Z</time>
      </trkpt>
      <trkpt lat="47.95425" lon="6.9579">
        <ele>564.80004882812</ele>
        <time>2022-10-31T09:33:56.000Z</time>
      </trkpt>
      <trkpt lat="47.95423" lon="6.95787">
        <ele>564.80004882812</ele>
        <time>2022-10-31T09:33:59.000Z</time>
      </trkpt>
      <trkpt lat="47.9542" lon="6.95783">
        <ele>565</ele>
        <time>2022-10-31T09:34:06.000Z</time>
      </trkpt>
      <trkpt lat="47.95415" lon="6.95782">
        <ele>565.19995117188</ele>
        <time>2022-10-31T09:34:11.000Z</time>
      </trkpt>
      <trkpt lat="47.9541" lon="6.95778">
        <ele>565.19995117188</ele>
        <time>2022-10-31T09:34:17.000Z</time>
      </trkpt>
      <trkpt lat="47.95404" lon="6.95772">
        <ele>565.40002441406</ele>
        <time>2022-10-31T09:34:23.000Z</time>
      </trkpt>
      <trkpt lat="47.95396" lon="6.95766">
        <ele>565.80004882812</ele>
        <time>2022-10-31T09:34:30.000Z</time>
      </trkpt>
      <trkpt lat="47.95394" lon="6.95765">
        <ele>565.80004882812</ele>
        <time>2022-10-31T09:34:31.000Z</time>
      </trkpt>
      <trkpt lat="47.95391" lon="6.95763">
        <ele>565.80004882812</ele>
        <time>2022-10-31T09:34:34.000Z</time>
      </trkpt>
      <trkpt lat="47.95383" lon="6.95757">
        <ele>565.80004882812</ele>
        <time>2022-10-31T09:34:39.000Z</time>
      </trkpt>
      <trkpt lat="47.95377" lon="6.95747">
        <ele>565.80004882812</ele>
        <time>2022-10-31T09:34:46.000Z</time>
      </trkpt>
      <trkpt lat="47.95368" lon="6.95744">
        <ele>566.19995117188</ele>
        <time>2022-10-31T09:34:52.000Z</time>
      </trkpt>
      <trkpt lat="47.95367" lon="6.95744">
        <ele>566.19995117188</ele>
        <time>2022-10-31T09:34:53.000Z</time>
      </trkpt>
      <trkpt lat="47.95363" lon="6.95746">
        <ele>566.19995117188</ele>
        <time>2022-10-31T09:34:58.000Z</time>
      </trkpt>
      <trkpt lat="47.95361" lon="6.95748">
        <ele>566.19995117188</ele>
        <time>2022-10-31T09:35:03.000Z</time>
      </trkpt>
      <trkpt lat="47.95357" lon="6.95748">
        <ele>566.40002441406</ele>
        <time>2022-10-31T09:35:09.000Z</time>
      </trkpt>
      <trkpt lat="47.95353" lon="6.9575">
        <ele>566.59997558594</ele>
        <time>2022-10-31T09:35:15.000Z</time>
      </trkpt>
      <trkpt lat="47.9535" lon="6.95748">
        <ele>566.80004882812</ele>
        <time>2022-10-31T09:35:20.000Z</time>
      </trkpt>
      <trkpt lat="47.95344" lon="6.95742">
        <ele>566.80004882812</ele>
        <time>2022-10-31T09:35:24.000Z</time>
      </trkpt>
      <trkpt lat="47.95342" lon="6.95739">
        <ele>566.80004882812</ele>
        <time>2022-10-31T09:35:26.000Z</time>
      </trkpt>
      <trkpt lat="47.95336" lon="6.95736">
        <ele>566.80004882812</ele>
        <time>2022-10-31T09:35:31.000Z</time>
      </trkpt>
      <trkpt lat="47.95335" lon="6.95734">
        <ele>566.80004882812</ele>
        <time>2022-10-31T09:35:32.000Z</time>
      </trkpt>
      <trkpt lat="47.95331" lon="6.95729">
        <ele>567</ele>
        <time>2022-10-31T09:35:37.000Z</time>
      </trkpt>
      <trkpt lat="47.95328" lon="6.9573">
        <ele>567</ele>
        <time>2022-10-31T09:35:39.000Z</time>
      </trkpt>
      <trkpt lat="47.95326" lon="6.95729">
        <ele>567</ele>
        <time>2022-10-31T09:35:40.000Z</time>
      </trkpt>
      <trkpt lat="47.95325" lon="6.95725">
        <ele>567</ele>
        <time>2022-10-31T09:35:42.000Z</time>
      </trkpt>
      <trkpt lat="47.95325" lon="6.95722">
        <ele>567</ele>
        <time>2022-10-31T09:35:43.000Z</time>
      </trkpt>
      <trkpt lat="47.95322" lon="6.95718">
        <ele>567</ele>
        <time>2022-10-31T09:35:46.000Z</time>
      </trkpt>
      <trkpt lat="47.95319" lon="6.95715">
        <ele>567.19995117188</ele>
        <time>2022-10-31T09:35:50.000Z</time>
      </trkpt>
      <trkpt lat="47.95318" lon="6.95714">
        <ele>567.19995117188</ele>
        <time>2022-10-31T09:35:51.000Z</time>
      </trkpt>
      <trkpt lat="47.95313" lon="6.95709">
        <ele>567.19995117188</ele>
        <time>2022-10-31T09:35:58.000Z</time>
      </trkpt>
      <trkpt lat="47.95311" lon="6.95707">
        <ele>567.40002441406</ele>
        <time>2022-10-31T09:36:03.000Z</time>
      </trkpt>
      <trkpt lat="47.95307" lon="6.95702">
        <ele>567.19995117188</ele>
        <time>2022-10-31T09:36:09.000Z</time>
      </trkpt>
      <trkpt lat="47.95302" lon="6.957">
        <ele>567.40002441406</ele>
        <time>2022-10-31T09:36:15.000Z</time>
      </trkpt>
      <trkpt lat="47.95299" lon="6.957">
        <ele>567.40002441406</ele>
        <time>2022-10-31T09:36:17.000Z</time>
      </trkpt>
      <trkpt lat="47.95294" lon="6.95698">
        <ele>567.59997558594</ele>
        <time>2022-10-31T09:36:20.000Z</time>
      </trkpt>
      <trkpt lat="47.95292" lon="6.95698">
        <ele>567.59997558594</ele>
        <time>2022-10-31T09:36:21.000Z</time>
      </trkpt>
      <trkpt lat="47.95285" lon="6.95695">
        <ele>567.40002441406</ele>
        <time>2022-10-31T09:36:26.000Z</time>
      </trkpt>
      <trkpt lat="47.95279" lon="6.95693">
        <ele>567.40002441406</ele>
        <time>2022-10-31T09:36:33.000Z</time>
      </trkpt>
      <trkpt lat="47.95275" lon="6.95692">
        <ele>567.40002441406</ele>
        <time>2022-10-31T09:36:38.000Z</time>
      </trkpt>
      <trkpt lat="47.95273" lon="6.9569">
        <ele>567.19995117188</ele>
        <time>2022-10-31T09:36:40.000Z</time>
      </trkpt>
      <trkpt lat="47.9527" lon="6.95689">
        <ele>567.19995117188</ele>
        <time>2022-10-31T09:36:42.000Z</time>
      </trkpt>
      <trkpt lat="47.95264" lon="6.95687">
        <ele>567.40002441406</ele>
        <time>2022-10-31T09:36:47.000Z</time>
      </trkpt>
      <trkpt lat="47.95256" lon="6.95682">
        <ele>567.19995117188</ele>
        <time>2022-10-31T09:36:53.000Z</time>
      </trkpt>
      <trkpt lat="47.95251" lon="6.95681">
        <ele>567.19995117188</ele>
        <time>2022-10-31T09:36:58.000Z</time>
      </trkpt>
      <trkpt lat="47.95243" lon="6.9568">
        <ele>567.19995117188</ele>
        <time>2022-10-31T09:37:04.000Z</time>
      </trkpt>
      <trkpt lat="47.95242" lon="6.95679">
        <ele>567.19995117188</ele>
        <time>2022-10-31T09:37:05.000Z</time>
      </trkpt>
      <trkpt lat="47.95235" lon="6.95676">
        <ele>567.19995117188</ele>
        <time>2022-10-31T09:37:11.000Z</time>
      </trkpt>
      <trkpt lat="47.95234" lon="6.95676">
        <ele>567.19995117188</ele>
        <time>2022-10-31T09:37:12.000Z</time>
      </trkpt>
      <trkpt lat="47.95232" lon="6.95676">
        <ele>567.19995117188</ele>
        <time>2022-10-31T09:37:14.000Z</time>
      </trkpt>
      <trkpt lat="47.95229" lon="6.95674">
        <ele>567.19995117188</ele>
        <time>2022-10-31T09:37:16.000Z</time>
      </trkpt>
      <trkpt lat="47.95225" lon="6.95675">
        <ele>567.19995117188</ele>
        <time>2022-10-31T09:37:21.000Z</time>
      </trkpt>
      <trkpt lat="47.95215" lon="6.95667">
        <ele>567.19995117188</ele>
        <time>2022-10-31T09:37:29.000Z</time>
      </trkpt>
      <trkpt lat="47.95211" lon="6.95664">
        <ele>567</ele>
        <time>2022-10-31T09:37:34.000Z</time>
      </trkpt>
      <trkpt lat="47.95204" lon="6.95664">
        <ele>567</ele>
        <time>2022-10-31T09:37:41.000Z</time>
      </trkpt>
      <trkpt lat="47.95202" lon="6.95659">
        <ele>567</ele>
        <time>2022-10-31T09:37:46.000Z</time>
      </trkpt>
      <trkpt lat="47.95197" lon="6.95657">
        <ele>567</ele>
        <time>2022-10-31T09:37:51.000Z</time>
      </trkpt>
      <trkpt lat="47.9519" lon="6.95657">
        <ele>566.80004882812</ele>
        <time>2022-10-31T09:37:58.000Z</time>
      </trkpt>
      <trkpt lat="47.95181" lon="6.95655">
        <ele>566.80004882812</ele>
        <time>2022-10-31T09:38:04.000Z</time>
      </trkpt>
      <trkpt lat="47.9517" lon="6.95652">
        <ele>566.80004882812</ele>
        <time>2022-10-31T09:38:10.000Z</time>
      </trkpt>
      <trkpt lat="47.95164" lon="6.95648">
        <ele>566.80004882812</ele>
        <time>2022-10-31T09:38:15.000Z</time>
      </trkpt>
      <trkpt lat="47.95162" lon="6.95644">
        <ele>567.19995117188</ele>
        <time>2022-10-31T09:38:21.000Z</time>
      </trkpt>
      <trkpt lat="47.95157" lon="6.95642">
        <ele>567</ele>
        <time>2022-10-31T09:38:28.000Z</time>
      </trkpt>
      <trkpt lat="47.95153" lon="6.95639">
        <ele>567</ele>
        <time>2022-10-31T09:38:33.000Z</time>
      </trkpt>
      <trkpt lat="47.95153" lon="6.95638">
        <ele>567</ele>
        <time>2022-10-31T09:38:34.000Z</time>
      </trkpt>
      <trkpt lat="47.95148" lon="6.95636">
        <ele>566.80004882812</ele>
        <time>2022-10-31T09:38:39.000Z</time>
      </trkpt>
      <trkpt lat="47.95143" lon="6.9563">
        <ele>566.80004882812</ele>
        <time>2022-10-31T09:38:43.000Z</time>
      </trkpt>
      <trkpt lat="47.95141" lon="6.95629">
        <ele>566.80004882812</ele>
        <time>2022-10-31T09:38:44.000Z</time>
      </trkpt>
      <trkpt lat="47.95137" lon="6.9563">
        <ele>567</ele>
        <time>2022-10-31T09:38:49.000Z</time>
      </trkpt>
      <trkpt lat="47.95132" lon="6.95629">
        <ele>566.80004882812</ele>
        <time>2022-10-31T09:38:54.000Z</time>
      </trkpt>
      <trkpt lat="47.95126" lon="6.95627">
        <ele>566.80004882812</ele>
        <time>2022-10-31T09:38:59.000Z</time>
      </trkpt>
      <trkpt lat="47.95125" lon="6.95626">
        <ele>566.80004882812</ele>
        <time>2022-10-31T09:39:00.000Z</time>
      </trkpt>
      <trkpt lat="47.95124" lon="6.95625">
        <ele>566.80004882812</ele>
        <time>2022-10-31T09:39:01.000Z</time>
      </trkpt>
      <trkpt lat="47.95121" lon="6.95624">
        <ele>566.80004882812</ele>
        <time>2022-10-31T09:39:04.000Z</time>
      </trkpt>
      <trkpt lat="47.9511" lon="6.95624">
        <ele>566.80004882812</ele>
        <time>2022-10-31T09:39:11.000Z</time>
      </trkpt>
      <trkpt lat="47.95105" lon="6.95629">
        <ele>566.80004882812</ele>
        <time>2022-10-31T09:39:16.000Z</time>
      </trkpt>
      <trkpt lat="47.95099" lon="6.95626">
        <ele>566.80004882812</ele>
        <time>2022-10-31T09:39:22.000Z</time>
      </trkpt>
      <trkpt lat="47.95093" lon="6.95625">
        <ele>566.59997558594</ele>
        <time>2022-10-31T09:39:29.000Z</time>
      </trkpt>
      <trkpt lat="47.95091" lon="6.95624">
        <ele>566.59997558594</ele>
        <time>2022-10-31T09:39:30.000Z</time>
      </trkpt>
      <trkpt lat="47.95083" lon="6.95626">
        <ele>566.59997558594</ele>
        <time>2022-10-31T09:39:36.000Z</time>
      </trkpt>
      <trkpt lat="47.95078" lon="6.95624">
        <ele>566.40002441406</ele>
        <time>2022-10-31T09:39:42.000Z</time>
      </trkpt>
      <trkpt lat="47.95075" lon="6.95623">
        <ele>566.40002441406</ele>
        <time>2022-10-31T09:39:46.000Z</time>
      </trkpt>
      <trkpt lat="47.95066" lon="6.95621">
        <ele>566.40002441406</ele>
        <time>2022-10-31T09:39:51.000Z</time>
      </trkpt>
      <trkpt lat="47.95064" lon="6.9562">
        <ele>566.40002441406</ele>
        <time>2022-10-31T09:39:52.000Z</time>
      </trkpt>
      <trkpt lat="47.95063" lon="6.95619">
        <ele>566.40002441406</ele>
        <time>2022-10-31T09:39:53.000Z</time>
      </trkpt>
      <trkpt lat="47.95059" lon="6.95618">
        <ele>566.40002441406</ele>
        <time>2022-10-31T09:39:56.000Z</time>
      </trkpt>
      <trkpt lat="47.95058" lon="6.95618">
        <ele>566.19995117188</ele>
        <time>2022-10-31T09:39:57.000Z</time>
      </trkpt>
      <trkpt lat="47.95053" lon="6.95619">
        <ele>566.19995117188</ele>
        <time>2022-10-31T09:39:59.000Z</time>
      </trkpt>
      <trkpt lat="47.95045" lon="6.95619">
        <ele>566.19995117188</ele>
        <time>2022-10-31T09:40:03.000Z</time>
      </trkpt>
      <trkpt lat="47.9504" lon="6.95622">
        <ele>566.19995117188</ele>
        <time>2022-10-31T09:40:07.000Z</time>
      </trkpt>
      <trkpt lat="47.95037" lon="6.95623">
        <ele>566.19995117188</ele>
        <time>2022-10-31T09:40:09.000Z</time>
      </trkpt>
      <trkpt lat="47.95036" lon="6.95624">
        <ele>566.19995117188</ele>
        <time>2022-10-31T09:40:10.000Z</time>
      </trkpt>
      <trkpt lat="47.95035" lon="6.95621">
        <ele>566.40002441406</ele>
        <time>2022-10-31T09:40:15.000Z</time>
      </trkpt>
      <trkpt lat="47.95036" lon="6.95618">
        <ele>566.40002441406</ele>
        <time>2022-10-31T09:40:20.000Z</time>
      </trkpt>
      <trkpt lat="47.95037" lon="6.95617">
        <ele>566.59997558594</ele>
        <time>2022-10-31T09:40:28.000Z</time>
      </trkpt>
      <trkpt lat="47.95036" lon="6.95615">
        <ele>566.59997558594</ele>
        <time>2022-10-31T09:40:48.000Z</time>
      </trkpt>
      <trkpt lat="47.95038" lon="6.95614">
        <ele>566.59997558594</ele>
        <time>2022-10-31T09:40:50.000Z</time>
      </trkpt>
      <trkpt lat="47.95035" lon="6.95609">
        <ele>566.80004882812</ele>
        <time>2022-10-31T09:40:55.000Z</time>
      </trkpt>
      <trkpt lat="47.95036" lon="6.95607">
        <ele>566.80004882812</ele>
        <time>2022-10-31T09:41:00.000Z</time>
      </trkpt>
      <trkpt lat="47.95042" lon="6.95608">
        <ele>566.59997558594</ele>
        <time>2022-10-31T09:41:06.000Z</time>
      </trkpt>
      <trkpt lat="47.95048" lon="6.9561">
        <ele>566.80004882812</ele>
        <time>2022-10-31T09:41:11.000Z</time>
      </trkpt>
      <trkpt lat="47.95051" lon="6.95609">
        <ele>567</ele>
        <time>2022-10-31T09:41:16.000Z</time>
      </trkpt>
      <trkpt lat="47.95056" lon="6.95608">
        <ele>567</ele>
        <time>2022-10-31T09:41:19.000Z</time>
      </trkpt>
      <trkpt lat="47.9506" lon="6.95606">
        <ele>566.19995117188</ele>
        <time>2022-10-31T09:41:23.000Z</time>
      </trkpt>
      <trkpt lat="47.95064" lon="6.95604">
        <ele>566.40002441406</ele>
        <time>2022-10-31T09:41:29.000Z</time>
      </trkpt>
      <trkpt lat="47.95065" lon="6.95604">
        <ele>566.40002441406</ele>
        <time>2022-10-31T09:41:30.000Z</time>
      </trkpt>
      <trkpt lat="47.95072" lon="6.95604">
        <ele>566.59997558594</ele>
        <time>2022-10-31T09:41:36.000Z</time>
      </trkpt>
      <trkpt lat="47.95074" lon="6.95605">
        <ele>566.59997558594</ele>
        <time>2022-10-31T09:41:38.000Z</time>
      </trkpt>
      <trkpt lat="47.95076" lon="6.95605">
        <ele>566.59997558594</ele>
        <time>2022-10-31T09:41:40.000Z</time>
      </trkpt>
      <trkpt lat="47.95078" lon="6.95604">
        <ele>566.59997558594</ele>
        <time>2022-10-31T09:41:42.000Z</time>
      </trkpt>
      <trkpt lat="47.95083" lon="6.95604">
        <ele>566.40002441406</ele>
        <time>2022-10-31T09:41:46.000Z</time>
      </trkpt>
      <trkpt lat="47.95085" lon="6.95605">
        <ele>566.40002441406</ele>
        <time>2022-10-31T09:41:48.000Z</time>
      </trkpt>
      <trkpt lat="47.95088" lon="6.95606">
        <ele>566.40002441406</ele>
        <time>2022-10-31T09:41:51.000Z</time>
      </trkpt>
      <trkpt lat="47.9509" lon="6.95608">
        <ele>566.40002441406</ele>
        <time>2022-10-31T09:41:53.000Z</time>
      </trkpt>
      <trkpt lat="47.95092" lon="6.9561">
        <ele>566.40002441406</ele>
        <time>2022-10-31T09:41:55.000Z</time>
      </trkpt>
      <trkpt lat="47.95093" lon="6.9561">
        <ele>566.40002441406</ele>
        <time>2022-10-31T09:41:56.000Z</time>
      </trkpt>
      <trkpt lat="47.95097" lon="6.95611">
        <ele>566.59997558594</ele>
        <time>2022-10-31T09:41:59.000Z</time>
      </trkpt>
      <trkpt lat="47.95099" lon="6.95611">
        <ele>566.59997558594</ele>
        <time>2022-10-31T09:42:00.000Z</time>
      </trkpt>
      <trkpt lat="47.95101" lon="6.95612">
        <ele>566.80004882812</ele>
        <time>2022-10-31T09:42:03.000Z</time>
      </trkpt>
      <trkpt lat="47.95102" lon="6.95612">
        <ele>566.59997558594</ele>
        <time>2022-10-31T09:42:04.000Z</time>
      </trkpt>
      <trkpt lat="47.95107" lon="6.95613">
        <ele>566.59997558594</ele>
        <time>2022-10-31T09:42:11.000Z</time>
      </trkpt>
      <trkpt lat="47.95115" lon="6.95618">
        <ele>566.59997558594</ele>
        <time>2022-10-31T09:42:17.000Z</time>
      </trkpt>
      <trkpt lat="47.95117" lon="6.95618">
        <ele>566.59997558594</ele>
        <time>2022-10-31T09:42:19.000Z</time>
      </trkpt>
      <trkpt lat="47.95121" lon="6.9562">
        <ele>566.59997558594</ele>
        <time>2022-10-31T09:42:24.000Z</time>
      </trkpt>
      <trkpt lat="47.95122" lon="6.95621">
        <ele>566.59997558594</ele>
        <time>2022-10-31T09:42:25.000Z</time>
      </trkpt>
      <trkpt lat="47.95123" lon="6.95623">
        <ele>566.59997558594</ele>
        <time>2022-10-31T09:42:26.000Z</time>
      </trkpt>
      <trkpt lat="47.95128" lon="6.9562">
        <ele>566.59997558594</ele>
        <time>2022-10-31T09:42:30.000Z</time>
      </trkpt>
      <trkpt lat="47.95134" lon="6.95622">
        <ele>566.59997558594</ele>
        <time>2022-10-31T09:42:34.000Z</time>
      </trkpt>
      <trkpt lat="47.95138" lon="6.95626">
        <ele>566.80004882812</ele>
        <time>2022-10-31T09:42:37.000Z</time>
      </trkpt>
      <trkpt lat="47.9514" lon="6.95628">
        <ele>566.80004882812</ele>
        <time>2022-10-31T09:42:39.000Z</time>
      </trkpt>
      <trkpt lat="47.95141" lon="6.95629">
        <ele>567</ele>
        <time>2022-10-31T09:42:40.000Z</time>
      </trkpt>
      <trkpt lat="47.95145" lon="6.95631">
        <ele>567</ele>
        <time>2022-10-31T09:42:44.000Z</time>
      </trkpt>
      <trkpt lat="47.9515" lon="6.95631">
        <ele>567</ele>
        <time>2022-10-31T09:42:49.000Z</time>
      </trkpt>
      <trkpt lat="47.95152" lon="6.9563">
        <ele>567</ele>
        <time>2022-10-31T09:42:51.000Z</time>
      </trkpt>
      <trkpt lat="47.95153" lon="6.9563">
        <ele>566.80004882812</ele>
        <time>2022-10-31T09:42:52.000Z</time>
      </trkpt>
      <trkpt lat="47.95164" lon="6.95627">
        <ele>567.19995117188</ele>
        <time>2022-10-31T09:43:00.000Z</time>
      </trkpt>
      <trkpt lat="47.95168" lon="6.95628">
        <ele>567.19995117188</ele>
        <time>2022-10-31T09:43:04.000Z</time>
      </trkpt>
      <trkpt lat="47.9517" lon="6.95627">
        <ele>567.19995117188</ele>
        <time>2022-10-31T09:43:06.000Z</time>
      </trkpt>
      <trkpt lat="47.95176" lon="6.95627">
        <ele>567.19995117188</ele>
        <time>2022-10-31T09:43:11.000Z</time>
      </trkpt>
      <trkpt lat="47.95179" lon="6.95629">
        <ele>567.19995117188</ele>
        <time>2022-10-31T09:43:13.000Z</time>
      </trkpt>
      <trkpt lat="47.95185" lon="6.95629">
        <ele>567.19995117188</ele>
        <time>2022-10-31T09:43:18.000Z</time>
      </trkpt>
      <trkpt lat="47.95186" lon="6.95629">
        <ele>567.19995117188</ele>
        <time>2022-10-31T09:43:19.000Z</time>
      </trkpt>
      <trkpt lat="47.95191" lon="6.95626">
        <ele>567.40002441406</ele>
        <time>2022-10-31T09:43:24.000Z</time>
      </trkpt>
      <trkpt lat="47.95197" lon="6.9563">
        <ele>567.40002441406</ele>
        <time>2022-10-31T09:43:30.000Z</time>
      </trkpt>
      <trkpt lat="47.95202" lon="6.9563">
        <ele>567.40002441406</ele>
        <time>2022-10-31T09:43:34.000Z</time>
      </trkpt>
      <trkpt lat="47.95203" lon="6.95631">
        <ele>567.40002441406</ele>
        <time>2022-10-31T09:43:36.000Z</time>
      </trkpt>
      <trkpt lat="47.95205" lon="6.95633">
        <ele>567.59997558594</ele>
        <time>2022-10-31T09:43:38.000Z</time>
      </trkpt>
      <trkpt lat="47.95209" lon="6.95635">
        <ele>567.59997558594</ele>
        <time>2022-10-31T09:43:42.000Z</time>
      </trkpt>
      <trkpt lat="47.95213" lon="6.95642">
        <ele>567.80004882812</ele>
        <time>2022-10-31T09:43:46.000Z</time>
      </trkpt>
      <trkpt lat="47.95216" lon="6.95647">
        <ele>567.80004882812</ele>
        <time>2022-10-31T09:43:48.000Z</time>
      </trkpt>
      <trkpt lat="47.95218" lon="6.95648">
        <ele>567.19995117188</ele>
        <time>2022-10-31T09:43:50.000Z</time>
      </trkpt>
      <trkpt lat="47.95228" lon="6.95654">
        <ele>567.80004882812</ele>
        <time>2022-10-31T09:44:00.000Z</time>
      </trkpt>
      <trkpt lat="47.9523" lon="6.95657">
        <ele>567.80004882812</ele>
        <time>2022-10-31T09:44:02.000Z</time>
      </trkpt>
      <trkpt lat="47.95235" lon="6.95662">
        <ele>567.19995117188</ele>
        <time>2022-10-31T09:44:06.000Z</time>
      </trkpt>
      <trkpt lat="47.95238" lon="6.95661">
        <ele>567.19995117188</ele>
        <time>2022-10-31T09:44:09.000Z</time>
      </trkpt>
      <trkpt lat="47.95241" lon="6.95659">
        <ele>567.19995117188</ele>
        <time>2022-10-31T09:44:12.000Z</time>
      </trkpt>
      <trkpt lat="47.95242" lon="6.9566">
        <ele>567.19995117188</ele>
        <time>2022-10-31T09:44:13.000Z</time>
      </trkpt>
      <trkpt lat="47.95253" lon="6.95663">
        <ele>567.19995117188</ele>
        <time>2022-10-31T09:44:22.000Z</time>
      </trkpt>
      <trkpt lat="47.95263" lon="6.95667">
        <ele>567.19995117188</ele>
        <time>2022-10-31T09:44:30.000Z</time>
      </trkpt>
      <trkpt lat="47.95271" lon="6.95671">
        <ele>567.59997558594</ele>
        <time>2022-10-31T09:44:36.000Z</time>
      </trkpt>
      <trkpt lat="47.95275" lon="6.95675">
        <ele>567.40002441406</ele>
        <time>2022-10-31T09:44:39.000Z</time>
      </trkpt>
      <trkpt lat="47.95283" lon="6.95679">
        <ele>567.59997558594</ele>
        <time>2022-10-31T09:44:46.000Z</time>
      </trkpt>
      <trkpt lat="47.95286" lon="6.95678">
        <ele>567.40002441406</ele>
        <time>2022-10-31T09:44:49.000Z</time>
      </trkpt>
      <trkpt lat="47.95288" lon="6.95677">
        <ele>567.40002441406</ele>
        <time>2022-10-31T09:44:52.000Z</time>
      </trkpt>
      <trkpt lat="47.95294" lon="6.95681">
        <ele>567.40002441406</ele>
        <time>2022-10-31T09:44:58.000Z</time>
      </trkpt>
      <trkpt lat="47.95295" lon="6.95683">
        <ele>567.40002441406</ele>
        <time>2022-10-31T09:44:59.000Z</time>
      </trkpt>
      <trkpt lat="47.95297" lon="6.95687">
        <ele>567.40002441406</ele>
        <time>2022-10-31T09:45:01.000Z</time>
      </trkpt>
      <trkpt lat="47.95299" lon="6.95688">
        <ele>567.40002441406</ele>
        <time>2022-10-31T09:45:03.000Z</time>
      </trkpt>
      <trkpt lat="47.95301" lon="6.95687">
        <ele>567.40002441406</ele>
        <time>2022-10-31T09:45:04.000Z</time>
      </trkpt>
      <trkpt lat="47.95301" lon="6.95688">
        <ele>567.19995117188</ele>
        <time>2022-10-31T09:45:05.000Z</time>
      </trkpt>
      <trkpt lat="47.95306" lon="6.9569">
        <ele>567.40002441406</ele>
        <time>2022-10-31T09:45:08.000Z</time>
      </trkpt>
      <trkpt lat="47.95309" lon="6.95691">
        <ele>567.40002441406</ele>
        <time>2022-10-31T09:45:10.000Z</time>
      </trkpt>
      <trkpt lat="47.95312" lon="6.95694">
        <ele>567.40002441406</ele>
        <time>2022-10-31T09:45:13.000Z</time>
      </trkpt>
      <trkpt lat="47.95316" lon="6.95698">
        <ele>567.40002441406</ele>
        <time>2022-10-31T09:45:16.000Z</time>
      </trkpt>
      <trkpt lat="47.95319" lon="6.957">
        <ele>567.19995117188</ele>
        <time>2022-10-31T09:45:20.000Z</time>
      </trkpt>
      <trkpt lat="47.95325" lon="6.95705">
        <ele>567.40002441406</ele>
        <time>2022-10-31T09:45:26.000Z</time>
      </trkpt>
      <trkpt lat="47.95333" lon="6.9571">
        <ele>567.19995117188</ele>
        <time>2022-10-31T09:45:33.000Z</time>
      </trkpt>
      <trkpt lat="47.9534" lon="6.95716">
        <ele>567</ele>
        <time>2022-10-31T09:45:38.000Z</time>
      </trkpt>
      <trkpt lat="47.95341" lon="6.95717">
        <ele>567</ele>
        <time>2022-10-31T09:45:39.000Z</time>
      </trkpt>
      <trkpt lat="47.95348" lon="6.95715">
        <ele>566.80004882812</ele>
        <time>2022-10-31T09:45:44.000Z</time>
      </trkpt>
      <trkpt lat="47.9535" lon="6.95716">
        <ele>566.80004882812</ele>
        <time>2022-10-31T09:45:45.000Z</time>
      </trkpt>
      <trkpt lat="47.95358" lon="6.95723">
        <ele>566.80004882812</ele>
        <time>2022-10-31T09:45:51.000Z</time>
      </trkpt>
      <trkpt lat="47.95362" lon="6.95726">
        <ele>566.59997558594</ele>
        <time>2022-10-31T09:45:55.000Z</time>
      </trkpt>
      <trkpt lat="47.95363" lon="6.95727">
        <ele>566.80004882812</ele>
        <time>2022-10-31T09:45:57.000Z</time>
      </trkpt>
      <trkpt lat="47.95364" lon="6.95727">
        <ele>566.80004882812</ele>
        <time>2022-10-31T09:45:58.000Z</time>
      </trkpt>
      <trkpt lat="47.95366" lon="6.95727">
        <ele>566.80004882812</ele>
        <time>2022-10-31T09:45:59.000Z</time>
      </trkpt>
      <trkpt lat="47.95367" lon="6.95729">
        <ele>566.80004882812</ele>
        <time>2022-10-31T09:46:01.000Z</time>
      </trkpt>
      <trkpt lat="47.9537" lon="6.9573">
        <ele>566.19995117188</ele>
        <time>2022-10-31T09:46:05.000Z</time>
      </trkpt>
      <trkpt lat="47.95371" lon="6.95731">
        <ele>566.19995117188</ele>
        <time>2022-10-31T09:46:06.000Z</time>
      </trkpt>
      <trkpt lat="47.95375" lon="6.95733">
        <ele>566.19995117188</ele>
        <time>2022-10-31T09:46:10.000Z</time>
      </trkpt>
      <trkpt lat="47.95379" lon="6.95736">
        <ele>566.19995117188</ele>
        <time>2022-10-31T09:46:13.000Z</time>
      </trkpt>
      <trkpt lat="47.95386" lon="6.95739">
        <ele>566</ele>
        <time>2022-10-31T09:46:20.000Z</time>
      </trkpt>
      <trkpt lat="47.95389" lon="6.95739">
        <ele>565.80004882812</ele>
        <time>2022-10-31T09:46:23.000Z</time>
      </trkpt>
      <trkpt lat="47.9539" lon="6.95741">
        <ele>565.80004882812</ele>
        <time>2022-10-31T09:46:24.000Z</time>
      </trkpt>
      <trkpt lat="47.95395" lon="6.95745">
        <ele>565.80004882812</ele>
        <time>2022-10-31T09:46:28.000Z</time>
      </trkpt>
      <trkpt lat="47.95397" lon="6.95745">
        <ele>565.80004882812</ele>
        <time>2022-10-31T09:46:30.000Z</time>
      </trkpt>
      <trkpt lat="47.95399" lon="6.95745">
        <ele>565.59997558594</ele>
        <time>2022-10-31T09:46:32.000Z</time>
      </trkpt>
      <trkpt lat="47.95402" lon="6.95747">
        <ele>565.59997558594</ele>
        <time>2022-10-31T09:46:35.000Z</time>
      </trkpt>
      <trkpt lat="47.95406" lon="6.9575">
        <ele>565.59997558594</ele>
        <time>2022-10-31T09:46:39.000Z</time>
      </trkpt>
      <trkpt lat="47.95408" lon="6.95753">
        <ele>565.59997558594</ele>
        <time>2022-10-31T09:46:41.000Z</time>
      </trkpt>
      <trkpt lat="47.95414" lon="6.95758">
        <ele>565.40002441406</ele>
        <time>2022-10-31T09:46:46.000Z</time>
      </trkpt>
      <trkpt lat="47.95415" lon="6.95758">
        <ele>565.40002441406</ele>
        <time>2022-10-31T09:46:47.000Z</time>
      </trkpt>
      <trkpt lat="47.9542" lon="6.95763">
        <ele>565.40002441406</ele>
        <time>2022-10-31T09:46:51.000Z</time>
      </trkpt>
      <trkpt lat="47.95423" lon="6.95767">
        <ele>565.19995117188</ele>
        <time>2022-10-31T09:46:53.000Z</time>
      </trkpt>
      <trkpt lat="47.9543" lon="6.95775">
        <ele>565.19995117188</ele>
        <time>2022-10-31T09:47:00.000Z</time>
      </trkpt>
      <trkpt lat="47.95435" lon="6.95783">
        <ele>565.19995117188</ele>
        <time>2022-10-31T09:47:05.000Z</time>
      </trkpt>
      <trkpt lat="47.95437" lon="6.95784">
        <ele>565</ele>
        <time>2022-10-31T09:47:08.000Z</time>
      </trkpt>
      <trkpt lat="47.95441" lon="6.95792">
        <ele>565</ele>
        <time>2022-10-31T09:47:13.000Z</time>
      </trkpt>
      <trkpt lat="47.95443" lon="6.95794">
        <ele>564.80004882812</ele>
        <time>2022-10-31T09:47:15.000Z</time>
      </trkpt>
      <trkpt lat="47.95445" lon="6.95797">
        <ele>564.80004882812</ele>
        <time>2022-10-31T09:47:18.000Z</time>
      </trkpt>
      <trkpt lat="47.95448" lon="6.95803">
        <ele>564.80004882812</ele>
        <time>2022-10-31T09:47:21.000Z</time>
      </trkpt>
      <trkpt lat="47.95451" lon="6.9581">
        <ele>564.59997558594</ele>
        <time>2022-10-31T09:47:25.000Z</time>
      </trkpt>
      <trkpt lat="47.95452" lon="6.95811">
        <ele>564.59997558594</ele>
        <time>2022-10-31T09:47:26.000Z</time>
      </trkpt>
      <trkpt lat="47.95453" lon="6.95814">
        <ele>564.40002441406</ele>
        <time>2022-10-31T09:47:27.000Z</time>
      </trkpt>
      <trkpt lat="47.95453" lon="6.95822">
        <ele>564.19995117188</ele>
        <time>2022-10-31T09:47:30.000Z</time>
      </trkpt>
      <trkpt lat="47.95453" lon="6.95826">
        <ele>564.19995117188</ele>
        <time>2022-10-31T09:47:33.000Z</time>
      </trkpt>
      <trkpt lat="47.95454" lon="6.95831">
        <ele>564.40002441406</ele>
        <time>2022-10-31T09:47:38.000Z</time>
      </trkpt>
      <trkpt lat="47.95453" lon="6.95831">
        <ele>564.80004882812</ele>
        <time>2022-10-31T09:47:45.000Z</time>
      </trkpt>
      <trkpt lat="47.95452" lon="6.95834">
        <ele>564.59997558594</ele>
        <time>2022-10-31T09:47:52.000Z</time>
      </trkpt>
      <trkpt lat="47.95451" lon="6.95835">
        <ele>564.40002441406</ele>
        <time>2022-10-31T09:47:59.000Z</time>
      </trkpt>
      <trkpt lat="47.95451" lon="6.95832">
        <ele>564.40002441406</ele>
        <time>2022-10-31T09:48:21.000Z</time>
      </trkpt>
      <trkpt lat="47.95451" lon="6.95829">
        <ele>564.40002441406</ele>
        <time>2022-10-31T09:48:25.000Z</time>
      </trkpt>
      <trkpt lat="47.95451" lon="6.95827">
        <ele>564.40002441406</ele>
        <time>2022-10-31T09:48:28.000Z</time>
      </trkpt>
      <trkpt lat="47.9545" lon="6.95824">
        <ele>564.40002441406</ele>
        <time>2022-10-31T09:48:33.000Z</time>
      </trkpt>
      <trkpt lat="47.95448" lon="6.95822">
        <ele>564.80004882812</ele>
        <time>2022-10-31T09:48:38.000Z</time>
      </trkpt>
      <trkpt lat="47.95442" lon="6.9582">
        <ele>565.40002441406</ele>
        <time>2022-10-31T09:48:45.000Z</time>
      </trkpt>
      <trkpt lat="47.95438" lon="6.95818">
        <ele>565.80004882812</ele>
        <time>2022-10-31T09:48:49.000Z</time>
      </trkpt>
      <trkpt lat="47.95435" lon="6.95818">
        <ele>566.40002441406</ele>
        <time>2022-10-31T09:48:52.000Z</time>
      </trkpt>
      <trkpt lat="47.95429" lon="6.95815">
        <ele>567</ele>
        <time>2022-10-31T09:48:57.000Z</time>
      </trkpt>
      <trkpt lat="47.95428" lon="6.95815">
        <ele>567.19995117188</ele>
        <time>2022-10-31T09:48:59.000Z</time>
      </trkpt>
      <trkpt lat="47.95424" lon="6.95814">
        <ele>568.19995117188</ele>
        <time>2022-10-31T09:49:05.000Z</time>
      </trkpt>
      <trkpt lat="47.95424" lon="6.95814">
        <ele>568.19995117188</ele>
        <time>2022-10-31T09:49:07.000Z</time>
      </trkpt>
      <trkpt lat="47.9542" lon="6.95814">
        <ele>569</ele>
        <time>2022-10-31T09:49:14.000Z</time>
      </trkpt>
      <trkpt lat="47.95419" lon="6.95814">
        <ele>569.19995117188</ele>
        <time>2022-10-31T09:49:16.000Z</time>
      </trkpt>
      <trkpt lat="47.95419" lon="6.95813">
        <ele>569.19995117188</ele>
        <time>2022-10-31T09:49:17.000Z</time>
      </trkpt>
      <trkpt lat="47.9542" lon="6.95813">
        <ele>569.59997558594</ele>
        <time>2022-10-31T09:49:19.000Z</time>
      </trkpt>
      <trkpt lat="47.9542" lon="6.95813">
        <ele>569.59997558594</ele>
        <time>2022-10-31T09:49:24.000Z</time>
      </trkpt>
      <trkpt lat="47.95419" lon="6.95812">
        <ele>569.80004882812</ele>
        <time>2022-10-31T09:49:34.000Z</time>
      </trkpt>
      <trkpt lat="47.95421" lon="6.95812">
        <ele>569.80004882812</ele>
        <time>2022-10-31T09:49:50.000Z</time>
      </trkpt>
      <trkpt lat="47.95421" lon="6.95812">
        <ele>569.80004882812</ele>
        <time>2022-10-31T09:49:51.000Z</time>
      </trkpt>
      <trkpt lat="47.95421" lon="6.95812">
        <ele>570.19995117188</ele>
        <time>2022-10-31T09:49:53.000Z</time>
      </trkpt>
      <trkpt lat="47.95421" lon="6.95811">
        <ele>571.19995117188</ele>
        <time>2022-10-31T09:50:00.000Z</time>
      </trkpt>
      <trkpt lat="47.9542" lon="6.95811">
        <ele>571.59997558594</ele>
        <time>2022-10-31T09:50:04.000Z</time>
      </trkpt>
      <trkpt lat="47.9541" lon="6.95813">
        <ele>572</ele>
        <time>2022-10-31T09:50:10.000Z</time>
      </trkpt>
      <trkpt lat="47.95402" lon="6.95815">
        <ele>572.19995117188</ele>
        <time>2022-10-31T09:50:15.000Z</time>
      </trkpt>
      <trkpt lat="47.95402" lon="6.95816">
        <ele>572.19995117188</ele>
        <time>2022-10-31T09:50:16.000Z</time>
      </trkpt>
      <trkpt lat="47.95402" lon="6.95818">
        <ele>572.19995117188</ele>
        <time>2022-10-31T09:50:23.000Z</time>
      </trkpt>
      <trkpt lat="47.95398" lon="6.95815">
        <ele>572.59997558594</ele>
        <time>2022-10-31T09:50:28.000Z</time>
      </trkpt>
      <trkpt lat="47.95396" lon="6.95813">
        <ele>573</ele>
        <time>2022-10-31T09:50:31.000Z</time>
      </trkpt>
      <trkpt lat="47.95395" lon="6.95814">
        <ele>573.19995117188</ele>
        <time>2022-10-31T09:50:34.000Z</time>
      </trkpt>
      <trkpt lat="47.95393" lon="6.95814">
        <ele>573.59997558594</ele>
        <time>2022-10-31T09:50:37.000Z</time>
      </trkpt>
      <trkpt lat="47.9539" lon="6.95811">
        <ele>574.40002441406</ele>
        <time>2022-10-31T09:50:42.000Z</time>
      </trkpt>
      <trkpt lat="47.9539" lon="6.9581">
        <ele>574.40002441406</ele>
        <time>2022-10-31T09:50:43.000Z</time>
      </trkpt>
      <trkpt lat="47.95388" lon="6.95808">
        <ele>574.59997558594</ele>
        <time>2022-10-31T09:50:47.000Z</time>
      </trkpt>
      <trkpt lat="47.95387" lon="6.95806">
        <ele>575</ele>
        <time>2022-10-31T09:50:50.000Z</time>
      </trkpt>
      <trkpt lat="47.95389" lon="6.95798">
        <ele>575.19995117188</ele>
        <time>2022-10-31T09:50:55.000Z</time>
      </trkpt>
      <trkpt lat="47.95388" lon="6.95798">
        <ele>575.19995117188</ele>
        <time>2022-10-31T09:50:56.000Z</time>
      </trkpt>
      <trkpt lat="47.95388" lon="6.95798">
        <ele>575.19995117188</ele>
        <time>2022-10-31T09:51:00.000Z</time>
      </trkpt>
      <trkpt lat="47.95388" lon="6.95798">
        <ele>575.19995117188</ele>
        <time>2022-10-31T09:51:02.000Z</time>
      </trkpt>
      <trkpt lat="47.95388" lon="6.95796">
        <ele>575</ele>
        <time>2022-10-31T09:51:07.000Z</time>
      </trkpt>
      <trkpt lat="47.95385" lon="6.95796">
        <ele>575.19995117188</ele>
        <time>2022-10-31T09:51:11.000Z</time>
      </trkpt>
      <trkpt lat="47.95383" lon="6.95795">
        <ele>575.19995117188</ele>
        <time>2022-10-31T09:51:13.000Z</time>
      </trkpt>
      <trkpt lat="47.95382" lon="6.95796">
        <ele>575.19995117188</ele>
        <time>2022-10-31T09:51:14.000Z</time>
      </trkpt>
      <trkpt lat="47.95382" lon="6.95796">
        <ele>575.40002441406</ele>
        <time>2022-10-31T09:51:15.000Z</time>
      </trkpt>
      <trkpt lat="47.9538" lon="6.95797">
        <ele>576</ele>
        <time>2022-10-31T09:51:20.000Z</time>
      </trkpt>
      <trkpt lat="47.9538" lon="6.95797">
        <ele>576.40002441406</ele>
        <time>2022-10-31T09:51:22.000Z</time>
      </trkpt>
      <trkpt lat="47.9538" lon="6.95796">
        <ele>576.40002441406</ele>
        <time>2022-10-31T09:51:23.000Z</time>
      </trkpt>
      <trkpt lat="47.95378" lon="6.95796">
        <ele>576.80004882812</ele>
        <time>2022-10-31T09:51:26.000Z</time>
      </trkpt>
      <trkpt lat="47.95377" lon="6.95797">
        <ele>576.80004882812</ele>
        <time>2022-10-31T09:51:27.000Z</time>
      </trkpt>
      <trkpt lat="47.95376" lon="6.95797">
        <ele>577</ele>
        <time>2022-10-31T09:51:29.000Z</time>
      </trkpt>
      <trkpt lat="47.95376" lon="6.95797">
        <ele>577.19995117188</ele>
        <time>2022-10-31T09:51:30.000Z</time>
      </trkpt>
      <trkpt lat="47.95375" lon="6.95797">
        <ele>577.19995117188</ele>
        <time>2022-10-31T09:51:31.000Z</time>
      </trkpt>
      <trkpt lat="47.95374" lon="6.95796">
        <ele>577.40002441406</ele>
        <time>2022-10-31T09:51:32.000Z</time>
      </trkpt>
      <trkpt lat="47.95372" lon="6.95798">
        <ele>577.80004882812</ele>
        <time>2022-10-31T09:51:35.000Z</time>
      </trkpt>
      <trkpt lat="47.95372" lon="6.958">
        <ele>578</ele>
        <time>2022-10-31T09:51:37.000Z</time>
      </trkpt>
      <trkpt lat="47.95372" lon="6.958">
        <ele>578</ele>
        <time>2022-10-31T09:51:38.000Z</time>
      </trkpt>
      <trkpt lat="47.95374" lon="6.958">
        <ele>578</ele>
        <time>2022-10-31T09:51:42.000Z</time>
      </trkpt>
      <trkpt lat="47.95373" lon="6.958">
        <ele>578</ele>
        <time>2022-10-31T09:51:43.000Z</time>
      </trkpt>
      <trkpt lat="47.95375" lon="6.95801">
        <ele>578</ele>
        <time>2022-10-31T09:51:45.000Z</time>
      </trkpt>
      <trkpt lat="47.95376" lon="6.95801">
        <ele>578</ele>
        <time>2022-10-31T09:51:47.000Z</time>
      </trkpt>
      <trkpt lat="47.95374" lon="6.95801">
        <ele>578.40002441406</ele>
        <time>2022-10-31T09:52:00.000Z</time>
      </trkpt>
      <trkpt lat="47.9537" lon="6.958">
        <ele>578.59997558594</ele>
        <time>2022-10-31T09:52:03.000Z</time>
      </trkpt>
      <trkpt lat="47.95369" lon="6.95799">
        <ele>578.59997558594</ele>
        <time>2022-10-31T09:52:05.000Z</time>
      </trkpt>
      <trkpt lat="47.95368" lon="6.95798">
        <ele>579</ele>
        <time>2022-10-31T09:52:07.000Z</time>
      </trkpt>
      <trkpt lat="47.95367" lon="6.95797">
        <ele>579.19995117188</ele>
        <time>2022-10-31T09:52:08.000Z</time>
      </trkpt>
      <trkpt lat="47.95365" lon="6.95799">
        <ele>579.59997558594</ele>
        <time>2022-10-31T09:52:12.000Z</time>
      </trkpt>
      <trkpt lat="47.9536" lon="6.95795">
        <ele>580.19995117188</ele>
        <time>2022-10-31T09:52:17.000Z</time>
      </trkpt>
      <trkpt lat="47.95358" lon="6.95795">
        <ele>580.19995117188</ele>
        <time>2022-10-31T09:52:21.000Z</time>
      </trkpt>
      <trkpt lat="47.95355" lon="6.95797">
        <ele>580.40002441406</ele>
        <time>2022-10-31T09:52:26.000Z</time>
      </trkpt>
      <trkpt lat="47.95355" lon="6.95797">
        <ele>580.40002441406</ele>
        <time>2022-10-31T09:52:27.000Z</time>
      </trkpt>
      <trkpt lat="47.95351" lon="6.95797">
        <ele>580.40002441406</ele>
        <time>2022-10-31T09:52:31.000Z</time>
      </trkpt>
      <trkpt lat="47.95349" lon="6.95798">
        <ele>580.40002441406</ele>
        <time>2022-10-31T09:52:32.000Z</time>
      </trkpt>
      <trkpt lat="47.95346" lon="6.95797">
        <ele>580.40002441406</ele>
        <time>2022-10-31T09:52:36.000Z</time>
      </trkpt>
      <trkpt lat="47.95345" lon="6.95797">
        <ele>580.40002441406</ele>
        <time>2022-10-31T09:52:41.000Z</time>
      </trkpt>
      <trkpt lat="47.95344" lon="6.95796">
        <ele>580.40002441406</ele>
        <time>2022-10-31T09:52:45.000Z</time>
      </trkpt>
      <trkpt lat="47.9534" lon="6.95796">
        <ele>580.59997558594</ele>
        <time>2022-10-31T09:52:49.000Z</time>
      </trkpt>
      <trkpt lat="47.95338" lon="6.95796">
        <ele>580.80004882812</ele>
        <time>2022-10-31T09:52:51.000Z</time>
      </trkpt>
      <trkpt lat="47.9533" lon="6.95792">
        <ele>581.19995117188</ele>
        <time>2022-10-31T09:52:57.000Z</time>
      </trkpt>
      <trkpt lat="47.95324" lon="6.95789">
        <ele>581.59997558594</ele>
        <time>2022-10-31T09:53:02.000Z</time>
      </trkpt>
      <trkpt lat="47.95323" lon="6.95789">
        <ele>581.80004882812</ele>
        <time>2022-10-31T09:53:04.000Z</time>
      </trkpt>
      <trkpt lat="47.95322" lon="6.95787">
        <ele>581.80004882812</ele>
        <time>2022-10-31T09:53:07.000Z</time>
      </trkpt>
      <trkpt lat="47.95319" lon="6.95785">
        <ele>582</ele>
        <time>2022-10-31T09:53:10.000Z</time>
      </trkpt>
      <trkpt lat="47.95317" lon="6.95783">
        <ele>582</ele>
        <time>2022-10-31T09:53:13.000Z</time>
      </trkpt>
      <trkpt lat="47.95311" lon="6.95783">
        <ele>582.59997558594</ele>
        <time>2022-10-31T09:53:20.000Z</time>
      </trkpt>
      <trkpt lat="47.95306" lon="6.95782">
        <ele>582.59997558594</ele>
        <time>2022-10-31T09:53:23.000Z</time>
      </trkpt>
      <trkpt lat="47.95302" lon="6.95777">
        <ele>582.80004882812</ele>
        <time>2022-10-31T09:53:26.000Z</time>
      </trkpt>
      <trkpt lat="47.95301" lon="6.95777">
        <ele>583</ele>
        <time>2022-10-31T09:53:27.000Z</time>
      </trkpt>
      <trkpt lat="47.95291" lon="6.95773">
        <ele>583.40002441406</ele>
        <time>2022-10-31T09:53:34.000Z</time>
      </trkpt>
      <trkpt lat="47.95289" lon="6.95772">
        <ele>583.59997558594</ele>
        <time>2022-10-31T09:53:36.000Z</time>
      </trkpt>
      <trkpt lat="47.95288" lon="6.95771">
        <ele>583.59997558594</ele>
        <time>2022-10-31T09:53:37.000Z</time>
      </trkpt>
      <trkpt lat="47.95283" lon="6.95767">
        <ele>583.80004882812</ele>
        <time>2022-10-31T09:53:40.000Z</time>
      </trkpt>
      <trkpt lat="47.95282" lon="6.95767">
        <ele>583.80004882812</ele>
        <time>2022-10-31T09:53:41.000Z</time>
      </trkpt>
      <trkpt lat="47.95278" lon="6.95764">
        <ele>584.19995117188</ele>
        <time>2022-10-31T09:53:46.000Z</time>
      </trkpt>
      <trkpt lat="47.95277" lon="6.95764">
        <ele>584.40002441406</ele>
        <time>2022-10-31T09:53:48.000Z</time>
      </trkpt>
      <trkpt lat="47.95274" lon="6.95763">
        <ele>584.59997558594</ele>
        <time>2022-10-31T09:53:52.000Z</time>
      </trkpt>
      <trkpt lat="47.95275" lon="6.95762">
        <ele>585</ele>
        <time>2022-10-31T09:53:55.000Z</time>
      </trkpt>
      <trkpt lat="47.95274" lon="6.95761">
        <ele>585</ele>
        <time>2022-10-31T09:53:57.000Z</time>
      </trkpt>
      <trkpt lat="47.95272" lon="6.95759">
        <ele>585.19995117188</ele>
        <time>2022-10-31T09:54:03.000Z</time>
      </trkpt>
      <trkpt lat="47.95271" lon="6.95759">
        <ele>585.19995117188</ele>
        <time>2022-10-31T09:54:04.000Z</time>
      </trkpt>
      <trkpt lat="47.95269" lon="6.95759">
        <ele>585.19995117188</ele>
        <time>2022-10-31T09:54:06.000Z</time>
      </trkpt>
      <trkpt lat="47.95265" lon="6.95758">
        <ele>585.19995117188</ele>
        <time>2022-10-31T09:54:09.000Z</time>
      </trkpt>
      <trkpt lat="47.95265" lon="6.95757">
        <ele>585.40002441406</ele>
        <time>2022-10-31T09:54:10.000Z</time>
      </trkpt>
      <trkpt lat="47.95261" lon="6.95755">
        <ele>585.80004882812</ele>
        <time>2022-10-31T09:54:15.000Z</time>
      </trkpt>
      <trkpt lat="47.9526" lon="6.95755">
        <ele>586</ele>
        <time>2022-10-31T09:54:16.000Z</time>
      </trkpt>
      <trkpt lat="47.95255" lon="6.95751">
        <ele>586.19995117188</ele>
        <time>2022-10-31T09:54:20.000Z</time>
      </trkpt>
      <trkpt lat="47.9525" lon="6.95748">
        <ele>586.40002441406</ele>
        <time>2022-10-31T09:54:25.000Z</time>
      </trkpt>
      <trkpt lat="47.95245" lon="6.9575">
        <ele>586.59997558594</ele>
        <time>2022-10-31T09:54:29.000Z</time>
      </trkpt>
      <trkpt lat="47.95243" lon="6.95751">
        <ele>586.80004882812</ele>
        <time>2022-10-31T09:54:32.000Z</time>
      </trkpt>
      <trkpt lat="47.95243" lon="6.9575">
        <ele>587</ele>
        <time>2022-10-31T09:54:37.000Z</time>
      </trkpt>
      <trkpt lat="47.95242" lon="6.9575">
        <ele>587</ele>
        <time>2022-10-31T09:54:39.000Z</time>
      </trkpt>
      <trkpt lat="47.9524" lon="6.95747">
        <ele>587.19995117188</ele>
        <time>2022-10-31T09:54:46.000Z</time>
      </trkpt>
      <trkpt lat="47.95237" lon="6.95746">
        <ele>587.40002441406</ele>
        <time>2022-10-31T09:54:52.000Z</time>
      </trkpt>
      <trkpt lat="47.95234" lon="6.95745">
        <ele>588</ele>
        <time>2022-10-31T09:55:08.000Z</time>
      </trkpt>
      <trkpt lat="47.95233" lon="6.95744">
        <ele>588.19995117188</ele>
        <time>2022-10-31T09:55:09.000Z</time>
      </trkpt>
      <trkpt lat="47.95227" lon="6.95744">
        <ele>588.59997558594</ele>
        <time>2022-10-31T09:55:14.000Z</time>
      </trkpt>
      <trkpt lat="47.95223" lon="6.95743">
        <ele>589</ele>
        <time>2022-10-31T09:55:19.000Z</time>
      </trkpt>
      <trkpt lat="47.95222" lon="6.95742">
        <ele>589.19995117188</ele>
        <time>2022-10-31T09:55:20.000Z</time>
      </trkpt>
      <trkpt lat="47.95222" lon="6.95742">
        <ele>589.19995117188</ele>
        <time>2022-10-31T09:55:21.000Z</time>
      </trkpt>
      <trkpt lat="47.95219" lon="6.9574">
        <ele>589.80004882812</ele>
        <time>2022-10-31T09:55:26.000Z</time>
      </trkpt>
      <trkpt lat="47.95214" lon="6.95739">
        <ele>590.40002441406</ele>
        <time>2022-10-31T09:55:29.000Z</time>
      </trkpt>
      <trkpt lat="47.95209" lon="6.95739">
        <ele>590.59997558594</ele>
        <time>2022-10-31T09:55:32.000Z</time>
      </trkpt>
      <trkpt lat="47.95204" lon="6.95737">
        <ele>591.19995117188</ele>
        <time>2022-10-31T09:55:37.000Z</time>
      </trkpt>
      <trkpt lat="47.95201" lon="6.95737">
        <ele>591.40002441406</ele>
        <time>2022-10-31T09:55:39.000Z</time>
      </trkpt>
      <trkpt lat="47.95199" lon="6.95736">
        <ele>591.80004882812</ele>
        <time>2022-10-31T09:55:43.000Z</time>
      </trkpt>
      <trkpt lat="47.95199" lon="6.95734">
        <ele>592</ele>
        <time>2022-10-31T09:55:44.000Z</time>
      </trkpt>
      <trkpt lat="47.95204" lon="6.95732">
        <ele>592</ele>
        <time>2022-10-31T09:55:48.000Z</time>
      </trkpt>
      <trkpt lat="47.95202" lon="6.95733">
        <ele>592.19995117188</ele>
        <time>2022-10-31T09:55:55.000Z</time>
      </trkpt>
      <trkpt lat="47.95199" lon="6.95731">
        <ele>592.40002441406</ele>
        <time>2022-10-31T09:55:59.000Z</time>
      </trkpt>
      <trkpt lat="47.95198" lon="6.95732">
        <ele>592.59997558594</ele>
        <time>2022-10-31T09:56:01.000Z</time>
      </trkpt>
      <trkpt lat="47.95193" lon="6.95734">
        <ele>593.19995117188</ele>
        <time>2022-10-31T09:56:08.000Z</time>
      </trkpt>
      <trkpt lat="47.95193" lon="6.95733">
        <ele>593.19995117188</ele>
        <time>2022-10-31T09:56:09.000Z</time>
      </trkpt>
      <trkpt lat="47.95193" lon="6.95732">
        <ele>593.40002441406</ele>
        <time>2022-10-31T09:56:13.000Z</time>
      </trkpt>
      <trkpt lat="47.95195" lon="6.95731">
        <ele>593.40002441406</ele>
        <time>2022-10-31T09:56:16.000Z</time>
      </trkpt>
      <trkpt lat="47.95196" lon="6.9573">
        <ele>593.59997558594</ele>
        <time>2022-10-31T09:56:19.000Z</time>
      </trkpt>
      <trkpt lat="47.95197" lon="6.95731">
        <ele>593.59997558594</ele>
        <time>2022-10-31T09:56:20.000Z</time>
      </trkpt>
      <trkpt lat="47.95196" lon="6.95731">
        <ele>594.59997558594</ele>
        <time>2022-10-31T09:56:35.000Z</time>
      </trkpt>
      <trkpt lat="47.95196" lon="6.95731">
        <ele>594.80004882812</ele>
        <time>2022-10-31T09:56:36.000Z</time>
      </trkpt>
      <trkpt lat="47.95184" lon="6.95739">
        <ele>595.19995117188</ele>
        <time>2022-10-31T09:56:48.000Z</time>
      </trkpt>
      <trkpt lat="47.95175" lon="6.95743">
        <ele>595.80004882812</ele>
        <time>2022-10-31T09:56:52.000Z</time>
      </trkpt>
      <trkpt lat="47.95174" lon="6.95743">
        <ele>595.80004882812</ele>
        <time>2022-10-31T09:56:53.000Z</time>
      </trkpt>
      <trkpt lat="47.95171" lon="6.95743">
        <ele>596.40002441406</ele>
        <time>2022-10-31T09:56:56.000Z</time>
      </trkpt>
      <trkpt lat="47.95169" lon="6.95743">
        <ele>596.40002441406</ele>
        <time>2022-10-31T09:56:58.000Z</time>
      </trkpt>
      <trkpt lat="47.95167" lon="6.95745">
        <ele>596.80004882812</ele>
        <time>2022-10-31T09:57:00.000Z</time>
      </trkpt>
      <trkpt lat="47.95163" lon="6.95747">
        <ele>597.40002441406</ele>
        <time>2022-10-31T09:57:04.000Z</time>
      </trkpt>
      <trkpt lat="47.9516" lon="6.95751">
        <ele>597.80004882812</ele>
        <time>2022-10-31T09:57:08.000Z</time>
      </trkpt>
      <trkpt lat="47.95157" lon="6.95754">
        <ele>598.19995117188</ele>
        <time>2022-10-31T09:57:11.000Z</time>
      </trkpt>
      <trkpt lat="47.9516" lon="6.95752">
        <ele>598.59997558594</ele>
        <time>2022-10-31T09:57:15.000Z</time>
      </trkpt>
      <trkpt lat="47.95161" lon="6.95749">
        <ele>598.59997558594</ele>
        <time>2022-10-31T09:57:18.000Z</time>
      </trkpt>
      <trkpt lat="47.95161" lon="6.9575">
        <ele>598.59997558594</ele>
        <time>2022-10-31T09:57:21.000Z</time>
      </trkpt>
      <trkpt lat="47.9516" lon="6.9575">
        <ele>598.59997558594</ele>
        <time>2022-10-31T09:57:27.000Z</time>
      </trkpt>
      <trkpt lat="47.95159" lon="6.9575">
        <ele>598.59997558594</ele>
        <time>2022-10-31T09:57:32.000Z</time>
      </trkpt>
      <trkpt lat="47.95157" lon="6.95751">
        <ele>599</ele>
        <time>2022-10-31T09:57:36.000Z</time>
      </trkpt>
      <trkpt lat="47.95154" lon="6.95753">
        <ele>599.19995117188</ele>
        <time>2022-10-31T09:57:40.000Z</time>
      </trkpt>
      <trkpt lat="47.95149" lon="6.95757">
        <ele>600</ele>
        <time>2022-10-31T09:57:45.000Z</time>
      </trkpt>
      <trkpt lat="47.95148" lon="6.95758">
        <ele>600.80004882812</ele>
        <time>2022-10-31T09:57:51.000Z</time>
      </trkpt>
      <trkpt lat="47.95153" lon="6.95753">
        <ele>601</ele>
        <time>2022-10-31T09:57:56.000Z</time>
      </trkpt>
      <trkpt lat="47.95154" lon="6.95753">
        <ele>601</ele>
        <time>2022-10-31T09:57:57.000Z</time>
      </trkpt>
      <trkpt lat="47.95154" lon="6.95753">
        <ele>601</ele>
        <time>2022-10-31T09:58:07.000Z</time>
      </trkpt>
      <trkpt lat="47.95153" lon="6.95753">
        <ele>601</ele>
        <time>2022-10-31T09:58:09.000Z</time>
      </trkpt>
      <trkpt lat="47.95149" lon="6.95757">
        <ele>602</ele>
        <time>2022-10-31T09:58:15.000Z</time>
      </trkpt>
      <trkpt lat="47.9514" lon="6.95755">
        <ele>603.19995117188</ele>
        <time>2022-10-31T09:58:21.000Z</time>
      </trkpt>
      <trkpt lat="47.95138" lon="6.95757">
        <ele>603.59997558594</ele>
        <time>2022-10-31T09:58:23.000Z</time>
      </trkpt>
      <trkpt lat="47.95136" lon="6.95758">
        <ele>604.19995117188</ele>
        <time>2022-10-31T09:58:27.000Z</time>
      </trkpt>
      <trkpt lat="47.95135" lon="6.95759">
        <ele>604.40002441406</ele>
        <time>2022-10-31T09:58:29.000Z</time>
      </trkpt>
      <trkpt lat="47.95129" lon="6.95759">
        <ele>605.19995117188</ele>
        <time>2022-10-31T09:58:35.000Z</time>
      </trkpt>
      <trkpt lat="47.95128" lon="6.95759">
        <ele>605.59997558594</ele>
        <time>2022-10-31T09:58:37.000Z</time>
      </trkpt>
      <trkpt lat="47.95127" lon="6.95757">
        <ele>605.80004882812</ele>
        <time>2022-10-31T09:58:39.000Z</time>
      </trkpt>
      <trkpt lat="47.95125" lon="6.95752">
        <ele>606.19995117188</ele>
        <time>2022-10-31T09:58:42.000Z</time>
      </trkpt>
      <trkpt lat="47.95125" lon="6.9575">
        <ele>606.40002441406</ele>
        <time>2022-10-31T09:58:43.000Z</time>
      </trkpt>
      <trkpt lat="47.95125" lon="6.95747">
        <ele>606.40002441406</ele>
        <time>2022-10-31T09:58:44.000Z</time>
      </trkpt>
      <trkpt lat="47.95125" lon="6.95746">
        <ele>606.40002441406</ele>
        <time>2022-10-31T09:58:45.000Z</time>
      </trkpt>
      <trkpt lat="47.95125" lon="6.95741">
        <ele>606.40002441406</ele>
        <time>2022-10-31T09:58:50.000Z</time>
      </trkpt>
      <trkpt lat="47.95125" lon="6.9574">
        <ele>606.40002441406</ele>
        <time>2022-10-31T09:58:52.000Z</time>
      </trkpt>
      <trkpt lat="47.95126" lon="6.95741">
        <ele>606.40002441406</ele>
        <time>2022-10-31T09:58:56.000Z</time>
      </trkpt>
      <trkpt lat="47.95128" lon="6.95739">
        <ele>606.40002441406</ele>
        <time>2022-10-31T09:59:01.000Z</time>
      </trkpt>
      <trkpt lat="47.9513" lon="6.95743">
        <ele>606.40002441406</ele>
        <time>2022-10-31T09:59:09.000Z</time>
      </trkpt>
      <trkpt lat="47.9513" lon="6.95743">
        <ele>606.40002441406</ele>
        <time>2022-10-31T09:59:10.000Z</time>
      </trkpt>
      <trkpt lat="47.95128" lon="6.95744">
        <ele>606.19995117188</ele>
        <time>2022-10-31T09:59:20.000Z</time>
      </trkpt>
      <trkpt lat="47.95126" lon="6.95748">
        <ele>607.40002441406</ele>
        <time>2022-10-31T09:59:37.000Z</time>
      </trkpt>
      <trkpt lat="47.95123" lon="6.95753">
        <ele>607.59997558594</ele>
        <time>2022-10-31T09:59:44.000Z</time>
      </trkpt>
      <trkpt lat="47.95119" lon="6.95757">
        <ele>607.80004882812</ele>
        <time>2022-10-31T09:59:46.000Z</time>
      </trkpt>
      <trkpt lat="47.95113" lon="6.95761">
        <ele>608.19995117188</ele>
        <time>2022-10-31T09:59:50.000Z</time>
      </trkpt>
      <trkpt lat="47.95111" lon="6.95762">
        <ele>608.40002441406</ele>
        <time>2022-10-31T09:59:51.000Z</time>
      </trkpt>
      <trkpt lat="47.9511" lon="6.95763">
        <ele>608.40002441406</ele>
        <time>2022-10-31T09:59:52.000Z</time>
      </trkpt>
      <trkpt lat="47.95109" lon="6.95766">
        <ele>609.40002441406</ele>
        <time>2022-10-31T09:59:57.000Z</time>
      </trkpt>
      <trkpt lat="47.95109" lon="6.95765">
        <ele>609.59997558594</ele>
        <time>2022-10-31T09:59:58.000Z</time>
      </trkpt>
      <trkpt lat="47.95102" lon="6.95764">
        <ele>610.40002441406</ele>
        <time>2022-10-31T10:00:04.000Z</time>
      </trkpt>
      <trkpt lat="47.95101" lon="6.95765">
        <ele>610.59997558594</ele>
        <time>2022-10-31T10:00:05.000Z</time>
      </trkpt>
      <trkpt lat="47.95093" lon="6.9577">
        <ele>611.40002441406</ele>
        <time>2022-10-31T10:00:11.000Z</time>
      </trkpt>
      <trkpt lat="47.95091" lon="6.95771">
        <ele>611.59997558594</ele>
        <time>2022-10-31T10:00:12.000Z</time>
      </trkpt>
      <trkpt lat="47.95086" lon="6.95772">
        <ele>612.40002441406</ele>
        <time>2022-10-31T10:00:18.000Z</time>
      </trkpt>
      <trkpt lat="47.95085" lon="6.95772">
        <ele>612.40002441406</ele>
        <time>2022-10-31T10:00:19.000Z</time>
      </trkpt>
      <trkpt lat="47.95084" lon="6.95774">
        <ele>613</ele>
        <time>2022-10-31T10:00:22.000Z</time>
      </trkpt>
      <trkpt lat="47.95084" lon="6.95775">
        <ele>613.19995117188</ele>
        <time>2022-10-31T10:00:23.000Z</time>
      </trkpt>
      <trkpt lat="47.95084" lon="6.95776">
        <ele>613.40002441406</ele>
        <time>2022-10-31T10:00:24.000Z</time>
      </trkpt>
      <trkpt lat="47.95086" lon="6.95774">
        <ele>613.59997558594</ele>
        <time>2022-10-31T10:00:26.000Z</time>
      </trkpt>
      <trkpt lat="47.95087" lon="6.95772">
        <ele>613.80004882812</ele>
        <time>2022-10-31T10:00:30.000Z</time>
      </trkpt>
      <trkpt lat="47.95087" lon="6.95772">
        <ele>614</ele>
        <time>2022-10-31T10:00:31.000Z</time>
      </trkpt>
      <trkpt lat="47.95087" lon="6.95772">
        <ele>614</ele>
        <time>2022-10-31T10:00:32.000Z</time>
      </trkpt>
      <trkpt lat="47.95088" lon="6.95771">
        <ele>614</ele>
        <time>2022-10-31T10:00:35.000Z</time>
      </trkpt>
      <trkpt lat="47.95089" lon="6.95769">
        <ele>614</ele>
        <time>2022-10-31T10:00:38.000Z</time>
      </trkpt>
      <trkpt lat="47.95089" lon="6.9577">
        <ele>614</ele>
        <time>2022-10-31T10:00:44.000Z</time>
      </trkpt>
      <trkpt lat="47.95089" lon="6.9577">
        <ele>614</ele>
        <time>2022-10-31T10:00:56.000Z</time>
      </trkpt>
      <trkpt lat="47.95089" lon="6.95769">
        <ele>614</ele>
        <time>2022-10-31T10:00:58.000Z</time>
      </trkpt>
      <trkpt lat="47.9509" lon="6.95769">
        <ele>614.59997558594</ele>
        <time>2022-10-31T10:01:04.000Z</time>
      </trkpt>
      <trkpt lat="47.9509" lon="6.95768">
        <ele>615</ele>
        <time>2022-10-31T10:01:18.000Z</time>
      </trkpt>
      <trkpt lat="47.95088" lon="6.95768">
        <ele>615</ele>
        <time>2022-10-31T10:01:26.000Z</time>
      </trkpt>
      <trkpt lat="47.95087" lon="6.95768">
        <ele>615.19995117188</ele>
        <time>2022-10-31T10:01:30.000Z</time>
      </trkpt>
      <trkpt lat="47.95087" lon="6.95769">
        <ele>615.59997558594</ele>
        <time>2022-10-31T10:01:35.000Z</time>
      </trkpt>
      <trkpt lat="47.95087" lon="6.95769">
        <ele>615.59997558594</ele>
        <time>2022-10-31T10:01:37.000Z</time>
      </trkpt>
      <trkpt lat="47.95086" lon="6.95772">
        <ele>615.59997558594</ele>
        <time>2022-10-31T10:01:45.000Z</time>
      </trkpt>
      <trkpt lat="47.95086" lon="6.95772">
        <ele>615.80004882812</ele>
        <time>2022-10-31T10:01:48.000Z</time>
      </trkpt>
      <trkpt lat="47.95089" lon="6.95774">
        <ele>616.40002441406</ele>
        <time>2022-10-31T10:01:58.000Z</time>
      </trkpt>
      <trkpt lat="47.95094" lon="6.95777">
        <ele>616.80004882812</ele>
        <time>2022-10-31T10:02:03.000Z</time>
      </trkpt>
      <trkpt lat="47.95097" lon="6.95781">
        <ele>617</ele>
        <time>2022-10-31T10:02:08.000Z</time>
      </trkpt>
      <trkpt lat="47.95102" lon="6.95782">
        <ele>617.59997558594</ele>
        <time>2022-10-31T10:02:13.000Z</time>
      </trkpt>
      <trkpt lat="47.95103" lon="6.95783">
        <ele>617.80004882812</ele>
        <time>2022-10-31T10:02:14.000Z</time>
      </trkpt>
      <trkpt lat="47.95104" lon="6.95782">
        <ele>618.40002441406</ele>
        <time>2022-10-31T10:02:18.000Z</time>
      </trkpt>
      <trkpt lat="47.95105" lon="6.95782">
        <ele>619</ele>
        <time>2022-10-31T10:02:21.000Z</time>
      </trkpt>
      <trkpt lat="47.95107" lon="6.95783">
        <ele>619.40002441406</ele>
        <time>2022-10-31T10:02:23.000Z</time>
      </trkpt>
      <trkpt lat="47.9511" lon="6.95784">
        <ele>620.19995117188</ele>
        <time>2022-10-31T10:02:26.000Z</time>
      </trkpt>
      <trkpt lat="47.95111" lon="6.95786">
        <ele>620.59997558594</ele>
        <time>2022-10-31T10:02:29.000Z</time>
      </trkpt>
      <trkpt lat="47.95112" lon="6.95788">
        <ele>620.80004882812</ele>
        <time>2022-10-31T10:02:31.000Z</time>
      </trkpt>
      <trkpt lat="47.95113" lon="6.95791">
        <ele>621.19995117188</ele>
        <time>2022-10-31T10:02:34.000Z</time>
      </trkpt>
      <trkpt lat="47.95114" lon="6.95791">
        <ele>621.40002441406</ele>
        <time>2022-10-31T10:02:35.000Z</time>
      </trkpt>
      <trkpt lat="47.95114" lon="6.95798">
        <ele>621.80004882812</ele>
        <time>2022-10-31T10:02:40.000Z</time>
      </trkpt>
      <trkpt lat="47.95113" lon="6.95801">
        <ele>621.80004882812</ele>
        <time>2022-10-31T10:02:44.000Z</time>
      </trkpt>
      <trkpt lat="47.95113" lon="6.95799">
        <ele>621.80004882812</ele>
        <time>2022-10-31T10:02:49.000Z</time>
      </trkpt>
      <trkpt lat="47.95118" lon="6.95798">
        <ele>622.40002441406</ele>
        <time>2022-10-31T10:02:58.000Z</time>
      </trkpt>
      <trkpt lat="47.95119" lon="6.95798">
        <ele>622.40002441406</ele>
        <time>2022-10-31T10:02:59.000Z</time>
      </trkpt>
      <trkpt lat="47.9512" lon="6.95799">
        <ele>623</ele>
        <time>2022-10-31T10:03:05.000Z</time>
      </trkpt>
      <trkpt lat="47.9512" lon="6.95798">
        <ele>623.40002441406</ele>
        <time>2022-10-31T10:03:11.000Z</time>
      </trkpt>
      <trkpt lat="47.95124" lon="6.95801">
        <ele>623.40002441406</ele>
        <time>2022-10-31T10:03:16.000Z</time>
      </trkpt>
      <trkpt lat="47.95125" lon="6.95802">
        <ele>623.19995117188</ele>
        <time>2022-10-31T10:03:36.000Z</time>
      </trkpt>
      <trkpt lat="47.95125" lon="6.95802">
        <ele>623.19995117188</ele>
        <time>2022-10-31T10:03:37.000Z</time>
      </trkpt>
      <trkpt lat="47.95126" lon="6.95802">
        <ele>623.19995117188</ele>
        <time>2022-10-31T10:03:39.000Z</time>
      </trkpt>
      <trkpt lat="47.95126" lon="6.95802">
        <ele>623.40002441406</ele>
        <time>2022-10-31T10:03:42.000Z</time>
      </trkpt>
      <trkpt lat="47.95126" lon="6.95802">
        <ele>623.40002441406</ele>
        <time>2022-10-31T10:03:44.000Z</time>
      </trkpt>
      <trkpt lat="47.95127" lon="6.95802">
        <ele>623.59997558594</ele>
        <time>2022-10-31T10:03:51.000Z</time>
      </trkpt>
      <trkpt lat="47.95127" lon="6.95802">
        <ele>624</ele>
        <time>2022-10-31T10:03:56.000Z</time>
      </trkpt>
      <trkpt lat="47.95127" lon="6.95802">
        <ele>624.40002441406</ele>
        <time>2022-10-31T10:03:58.000Z</time>
      </trkpt>
      <trkpt lat="47.9513" lon="6.95802">
        <ele>625.59997558594</ele>
        <time>2022-10-31T10:04:04.000Z</time>
      </trkpt>
      <trkpt lat="47.95134" lon="6.95805">
        <ele>626.40002441406</ele>
        <time>2022-10-31T10:04:09.000Z</time>
      </trkpt>
      <trkpt lat="47.95138" lon="6.95808">
        <ele>626.80004882812</ele>
        <time>2022-10-31T10:04:13.000Z</time>
      </trkpt>
      <trkpt lat="47.95138" lon="6.95809">
        <ele>626.80004882812</ele>
        <time>2022-10-31T10:04:14.000Z</time>
      </trkpt>
      <trkpt lat="47.95141" lon="6.95813">
        <ele>627.19995117188</ele>
        <time>2022-10-31T10:04:20.000Z</time>
      </trkpt>
      <trkpt lat="47.95139" lon="6.95812">
        <ele>627.19995117188</ele>
        <time>2022-10-31T10:04:24.000Z</time>
      </trkpt>
      <trkpt lat="47.95139" lon="6.95811">
        <ele>627.19995117188</ele>
        <time>2022-10-31T10:04:29.000Z</time>
      </trkpt>
      <trkpt lat="47.95139" lon="6.95811">
        <ele>627.19995117188</ele>
        <time>2022-10-31T10:04:42.000Z</time>
      </trkpt>
      <trkpt lat="47.95139" lon="6.9581">
        <ele>627.80004882812</ele>
        <time>2022-10-31T10:04:57.000Z</time>
      </trkpt>
      <trkpt lat="47.95139" lon="6.95813">
        <ele>628</ele>
        <time>2022-10-31T10:05:06.000Z</time>
      </trkpt>
      <trkpt lat="47.95134" lon="6.95813">
        <ele>627.80004882812</ele>
        <time>2022-10-31T10:05:14.000Z</time>
      </trkpt>
      <trkpt lat="47.95132" lon="6.95816">
        <ele>627.80004882812</ele>
        <time>2022-10-31T10:05:22.000Z</time>
      </trkpt>
      <trkpt lat="47.95132" lon="6.95822">
        <ele>628.19995117188</ele>
        <time>2022-10-31T10:05:29.000Z</time>
      </trkpt>
      <trkpt lat="47.95132" lon="6.95825">
        <ele>628.80004882812</ele>
        <time>2022-10-31T10:05:32.000Z</time>
      </trkpt>
      <trkpt lat="47.95131" lon="6.95831">
        <ele>629.80004882812</ele>
        <time>2022-10-31T10:05:37.000Z</time>
      </trkpt>
      <trkpt lat="47.9513" lon="6.95833">
        <ele>630</ele>
        <time>2022-10-31T10:05:39.000Z</time>
      </trkpt>
      <trkpt lat="47.95126" lon="6.95837">
        <ele>630.80004882812</ele>
        <time>2022-10-31T10:05:44.000Z</time>
      </trkpt>
      <trkpt lat="47.95125" lon="6.95838">
        <ele>630.80004882812</ele>
        <time>2022-10-31T10:05:45.000Z</time>
      </trkpt>
      <trkpt lat="47.9512" lon="6.95847">
        <ele>631.80004882812</ele>
        <time>2022-10-31T10:05:52.000Z</time>
      </trkpt>
      <trkpt lat="47.95119" lon="6.95848">
        <ele>632</ele>
        <time>2022-10-31T10:05:54.000Z</time>
      </trkpt>
      <trkpt lat="47.95117" lon="6.95852">
        <ele>633.19995117188</ele>
        <time>2022-10-31T10:06:00.000Z</time>
      </trkpt>
      <trkpt lat="47.95115" lon="6.95857">
        <ele>633.80004882812</ele>
        <time>2022-10-31T10:06:05.000Z</time>
      </trkpt>
      <trkpt lat="47.95114" lon="6.95858">
        <ele>634.40002441406</ele>
        <time>2022-10-31T10:06:08.000Z</time>
      </trkpt>
      <trkpt lat="47.95114" lon="6.95859">
        <ele>634.80004882812</ele>
        <time>2022-10-31T10:06:11.000Z</time>
      </trkpt>
      <trkpt lat="47.95118" lon="6.95861">
        <ele>635.19995117188</ele>
        <time>2022-10-31T10:06:17.000Z</time>
      </trkpt>
      <trkpt lat="47.9512" lon="6.95859">
        <ele>635</ele>
        <time>2022-10-31T10:06:23.000Z</time>
      </trkpt>
      <trkpt lat="47.9512" lon="6.95858">
        <ele>634.80004882812</ele>
        <time>2022-10-31T10:06:26.000Z</time>
      </trkpt>
      <trkpt lat="47.95117" lon="6.9586">
        <ele>635</ele>
        <time>2022-10-31T10:06:37.000Z</time>
      </trkpt>
      <trkpt lat="47.95111" lon="6.95857">
        <ele>635.40002441406</ele>
        <time>2022-10-31T10:06:42.000Z</time>
      </trkpt>
      <trkpt lat="47.95109" lon="6.95857">
        <ele>635.80004882812</ele>
        <time>2022-10-31T10:06:44.000Z</time>
      </trkpt>
      <trkpt lat="47.95107" lon="6.95857">
        <ele>636.59997558594</ele>
        <time>2022-10-31T10:06:48.000Z</time>
      </trkpt>
      <trkpt lat="47.95106" lon="6.95857">
        <ele>637</ele>
        <time>2022-10-31T10:06:50.000Z</time>
      </trkpt>
      <trkpt lat="47.95104" lon="6.95857">
        <ele>637.40002441406</ele>
        <time>2022-10-31T10:06:52.000Z</time>
      </trkpt>
      <trkpt lat="47.95103" lon="6.95858">
        <ele>637.59997558594</ele>
        <time>2022-10-31T10:06:53.000Z</time>
      </trkpt>
      <trkpt lat="47.95101" lon="6.95859">
        <ele>638.40002441406</ele>
        <time>2022-10-31T10:06:57.000Z</time>
      </trkpt>
      <trkpt lat="47.951" lon="6.95858">
        <ele>638.80004882812</ele>
        <time>2022-10-31T10:06:59.000Z</time>
      </trkpt>
      <trkpt lat="47.951" lon="6.95854">
        <ele>639.40002441406</ele>
        <time>2022-10-31T10:07:03.000Z</time>
      </trkpt>
      <trkpt lat="47.95103" lon="6.95854">
        <ele>639.59997558594</ele>
        <time>2022-10-31T10:07:05.000Z</time>
      </trkpt>
      <trkpt lat="47.951" lon="6.95853">
        <ele>639.80004882812</ele>
        <time>2022-10-31T10:07:10.000Z</time>
      </trkpt>
      <trkpt lat="47.95096" lon="6.95852">
        <ele>641</ele>
        <time>2022-10-31T10:07:16.000Z</time>
      </trkpt>
      <trkpt lat="47.95094" lon="6.95851">
        <ele>641.59997558594</ele>
        <time>2022-10-31T10:07:19.000Z</time>
      </trkpt>
      <trkpt lat="47.9509" lon="6.95851">
        <ele>642.19995117188</ele>
        <time>2022-10-31T10:07:22.000Z</time>
      </trkpt>
      <trkpt lat="47.9509" lon="6.95851">
        <ele>642.59997558594</ele>
        <time>2022-10-31T10:07:25.000Z</time>
      </trkpt>
      <trkpt lat="47.95092" lon="6.9585">
        <ele>643</ele>
        <time>2022-10-31T10:07:31.000Z</time>
      </trkpt>
      <trkpt lat="47.95092" lon="6.9585">
        <ele>643.19995117188</ele>
        <time>2022-10-31T10:07:41.000Z</time>
      </trkpt>
      <trkpt lat="47.95092" lon="6.9585">
        <ele>643.19995117188</ele>
        <time>2022-10-31T10:07:45.000Z</time>
      </trkpt>
      <trkpt lat="47.9509" lon="6.9585">
        <ele>643.40002441406</ele>
        <time>2022-10-31T10:07:55.000Z</time>
      </trkpt>
      <trkpt lat="47.95089" lon="6.9585">
        <ele>643.40002441406</ele>
        <time>2022-10-31T10:07:57.000Z</time>
      </trkpt>
      <trkpt lat="47.95087" lon="6.95851">
        <ele>643.80004882812</ele>
        <time>2022-10-31T10:08:03.000Z</time>
      </trkpt>
      <trkpt lat="47.95084" lon="6.95849">
        <ele>644.19995117188</ele>
        <time>2022-10-31T10:08:06.000Z</time>
      </trkpt>
      <trkpt lat="47.9508" lon="6.95849">
        <ele>644.19995117188</ele>
        <time>2022-10-31T10:08:09.000Z</time>
      </trkpt>
      <trkpt lat="47.95078" lon="6.95851">
        <ele>644.59997558594</ele>
        <time>2022-10-31T10:08:12.000Z</time>
      </trkpt>
      <trkpt lat="47.95078" lon="6.9585">
        <ele>645</ele>
        <time>2022-10-31T10:08:16.000Z</time>
      </trkpt>
      <trkpt lat="47.95077" lon="6.9585">
        <ele>645.19995117188</ele>
        <time>2022-10-31T10:08:17.000Z</time>
      </trkpt>
      <trkpt lat="47.95077" lon="6.95851">
        <ele>645.40002441406</ele>
        <time>2022-10-31T10:08:18.000Z</time>
      </trkpt>
      <trkpt lat="47.95073" lon="6.95846">
        <ele>646.19995117188</ele>
        <time>2022-10-31T10:08:24.000Z</time>
      </trkpt>
      <trkpt lat="47.95072" lon="6.95845">
        <ele>646.40002441406</ele>
        <time>2022-10-31T10:08:25.000Z</time>
      </trkpt>
      <trkpt lat="47.95069" lon="6.95844">
        <ele>646.80004882812</ele>
        <time>2022-10-31T10:08:28.000Z</time>
      </trkpt>
      <trkpt lat="47.95067" lon="6.95843">
        <ele>647</ele>
        <time>2022-10-31T10:08:33.000Z</time>
      </trkpt>
      <trkpt lat="47.95068" lon="6.95842">
        <ele>647</ele>
        <time>2022-10-31T10:08:38.000Z</time>
      </trkpt>
      <trkpt lat="47.95068" lon="6.95843">
        <ele>647</ele>
        <time>2022-10-31T10:08:44.000Z</time>
      </trkpt>
      <trkpt lat="47.95069" lon="6.95845">
        <ele>647</ele>
        <time>2022-10-31T10:08:48.000Z</time>
      </trkpt>
      <trkpt lat="47.95069" lon="6.95844">
        <ele>647</ele>
        <time>2022-10-31T10:09:01.000Z</time>
      </trkpt>
      <trkpt lat="47.95069" lon="6.95843">
        <ele>647</ele>
        <time>2022-10-31T10:09:03.000Z</time>
      </trkpt>
      <trkpt lat="47.95069" lon="6.95843">
        <ele>647</ele>
        <time>2022-10-31T10:09:17.000Z</time>
      </trkpt>
      <trkpt lat="47.95069" lon="6.95843">
        <ele>647.19995117188</ele>
        <time>2022-10-31T10:09:20.000Z</time>
      </trkpt>
      <trkpt lat="47.95068" lon="6.95843">
        <ele>647.59997558594</ele>
        <time>2022-10-31T10:09:23.000Z</time>
      </trkpt>
      <trkpt lat="47.95064" lon="6.95844">
        <ele>648</ele>
        <time>2022-10-31T10:09:38.000Z</time>
      </trkpt>
      <trkpt lat="47.95063" lon="6.95844">
        <ele>648.59997558594</ele>
        <time>2022-10-31T10:09:44.000Z</time>
      </trkpt>
      <trkpt lat="47.95062" lon="6.95844">
        <ele>649.19995117188</ele>
        <time>2022-10-31T10:09:48.000Z</time>
      </trkpt>
      <trkpt lat="47.95062" lon="6.95844">
        <ele>649.80004882812</ele>
        <time>2022-10-31T10:09:50.000Z</time>
      </trkpt>
      <trkpt lat="47.95062" lon="6.95844">
        <ele>650.19995117188</ele>
        <time>2022-10-31T10:09:53.000Z</time>
      </trkpt>
      <trkpt lat="47.95062" lon="6.95844">
        <ele>650.59997558594</ele>
        <time>2022-10-31T10:09:56.000Z</time>
      </trkpt>
      <trkpt lat="47.95062" lon="6.95844">
        <ele>650.80004882812</ele>
        <time>2022-10-31T10:09:57.000Z</time>
      </trkpt>
      <trkpt lat="47.95061" lon="6.95844">
        <ele>651.19995117188</ele>
        <time>2022-10-31T10:10:00.000Z</time>
      </trkpt>
      <trkpt lat="47.9506" lon="6.95845">
        <ele>651.40002441406</ele>
        <time>2022-10-31T10:10:03.000Z</time>
      </trkpt>
      <trkpt lat="47.95058" lon="6.95845">
        <ele>651.80004882812</ele>
        <time>2022-10-31T10:10:07.000Z</time>
      </trkpt>
      <trkpt lat="47.95054" lon="6.95853">
        <ele>653</ele>
        <time>2022-10-31T10:10:21.000Z</time>
      </trkpt>
      <trkpt lat="47.95048" lon="6.95855">
        <ele>654</ele>
        <time>2022-10-31T10:10:28.000Z</time>
      </trkpt>
      <trkpt lat="47.95041" lon="6.95859">
        <ele>654.59997558594</ele>
        <time>2022-10-31T10:10:32.000Z</time>
      </trkpt>
      <trkpt lat="47.95038" lon="6.9586">
        <ele>654.80004882812</ele>
        <time>2022-10-31T10:10:33.000Z</time>
      </trkpt>
      <trkpt lat="47.95033" lon="6.95864">
        <ele>655</ele>
        <time>2022-10-31T10:10:36.000Z</time>
      </trkpt>
      <trkpt lat="47.95029" lon="6.95866">
        <ele>655.40002441406</ele>
        <time>2022-10-31T10:10:39.000Z</time>
      </trkpt>
      <trkpt lat="47.95024" lon="6.95867">
        <ele>656.19995117188</ele>
        <time>2022-10-31T10:10:44.000Z</time>
      </trkpt>
      <trkpt lat="47.95022" lon="6.95865">
        <ele>656.59997558594</ele>
        <time>2022-10-31T10:10:47.000Z</time>
      </trkpt>
      <trkpt lat="47.9502" lon="6.95858">
        <ele>657.19995117188</ele>
        <time>2022-10-31T10:10:53.000Z</time>
      </trkpt>
      <trkpt lat="47.9502" lon="6.95857">
        <ele>657.19995117188</ele>
        <time>2022-10-31T10:10:54.000Z</time>
      </trkpt>
      <trkpt lat="47.9502" lon="6.95858">
        <ele>657.19995117188</ele>
        <time>2022-10-31T10:10:59.000Z</time>
      </trkpt>
      <trkpt lat="47.9502" lon="6.95857">
        <ele>657.19995117188</ele>
        <time>2022-10-31T10:11:01.000Z</time>
      </trkpt>
      <trkpt lat="47.95019" lon="6.9586">
        <ele>657</ele>
        <time>2022-10-31T10:11:07.000Z</time>
      </trkpt>
      <trkpt lat="47.95014" lon="6.95862">
        <ele>657.40002441406</ele>
        <time>2022-10-31T10:11:15.000Z</time>
      </trkpt>
      <trkpt lat="47.95012" lon="6.95867">
        <ele>658</ele>
        <time>2022-10-31T10:11:24.000Z</time>
      </trkpt>
      <trkpt lat="47.95011" lon="6.95869">
        <ele>658</ele>
        <time>2022-10-31T10:11:29.000Z</time>
      </trkpt>
      <trkpt lat="47.95011" lon="6.95868">
        <ele>658</ele>
        <time>2022-10-31T10:11:31.000Z</time>
      </trkpt>
      <trkpt lat="47.95011" lon="6.95868">
        <ele>658</ele>
        <time>2022-10-31T10:11:33.000Z</time>
      </trkpt>
      <trkpt lat="47.95012" lon="6.95869">
        <ele>658</ele>
        <time>2022-10-31T10:11:41.000Z</time>
      </trkpt>
      <trkpt lat="47.95013" lon="6.95869">
        <ele>658</ele>
        <time>2022-10-31T10:11:45.000Z</time>
      </trkpt>
      <trkpt lat="47.95008" lon="6.95868">
        <ele>658</ele>
        <time>2022-10-31T10:12:08.000Z</time>
      </trkpt>
      <trkpt lat="47.95004" lon="6.95868">
        <ele>658.19995117188</ele>
        <time>2022-10-31T10:12:13.000Z</time>
      </trkpt>
      <trkpt lat="47.94999" lon="6.95865">
        <ele>658</ele>
        <time>2022-10-31T10:12:19.000Z</time>
      </trkpt>
      <trkpt lat="47.94997" lon="6.95864">
        <ele>657.40002441406</ele>
        <time>2022-10-31T10:12:25.000Z</time>
      </trkpt>
      <trkpt lat="47.94997" lon="6.95866">
        <ele>657.40002441406</ele>
        <time>2022-10-31T10:12:30.000Z</time>
      </trkpt>
      <trkpt lat="47.94998" lon="6.95865">
        <ele>657.59997558594</ele>
        <time>2022-10-31T10:12:34.000Z</time>
      </trkpt>
      <trkpt lat="47.94997" lon="6.95862">
        <ele>657.59997558594</ele>
        <time>2022-10-31T10:12:38.000Z</time>
      </trkpt>
      <trkpt lat="47.94995" lon="6.95866">
        <ele>657.59997558594</ele>
        <time>2022-10-31T10:13:05.000Z</time>
      </trkpt>
      <trkpt lat="47.94995" lon="6.95867">
        <ele>657.59997558594</ele>
        <time>2022-10-31T10:13:06.000Z</time>
      </trkpt>
      <trkpt lat="47.94993" lon="6.95872">
        <ele>657.40002441406</ele>
        <time>2022-10-31T10:13:23.000Z</time>
      </trkpt>
      <trkpt lat="47.94994" lon="6.95873">
        <ele>657.40002441406</ele>
        <time>2022-10-31T10:13:42.000Z</time>
      </trkpt>
      <trkpt lat="47.94997" lon="6.95873">
        <ele>657.19995117188</ele>
        <time>2022-10-31T10:13:53.000Z</time>
      </trkpt>
      <trkpt lat="47.94998" lon="6.95873">
        <ele>657.19995117188</ele>
        <time>2022-10-31T10:14:04.000Z</time>
      </trkpt>
      <trkpt lat="47.94998" lon="6.95873">
        <ele>657.19995117188</ele>
        <time>2022-10-31T10:14:15.000Z</time>
      </trkpt>
      <trkpt lat="47.95002" lon="6.95867">
        <ele>657</ele>
        <time>2022-10-31T10:14:46.000Z</time>
      </trkpt>
      <trkpt lat="47.95002" lon="6.95865">
        <ele>657</ele>
        <time>2022-10-31T10:14:48.000Z</time>
      </trkpt>
      <trkpt lat="47.95002" lon="6.95859">
        <ele>657.19995117188</ele>
        <time>2022-10-31T10:14:53.000Z</time>
      </trkpt>
      <trkpt lat="47.95002" lon="6.95861">
        <ele>656.80004882812</ele>
        <time>2022-10-31T10:14:59.000Z</time>
      </trkpt>
      <trkpt lat="47.95002" lon="6.9586">
        <ele>657.40002441406</ele>
        <time>2022-10-31T10:15:12.000Z</time>
      </trkpt>
      <trkpt lat="47.94998" lon="6.95856">
        <ele>657</ele>
        <time>2022-10-31T10:15:46.000Z</time>
      </trkpt>
      <trkpt lat="47.94996" lon="6.95853">
        <ele>657.19995117188</ele>
        <time>2022-10-31T10:15:52.000Z</time>
      </trkpt>
      <trkpt lat="47.94996" lon="6.95852">
        <ele>657.40002441406</ele>
        <time>2022-10-31T10:16:02.000Z</time>
      </trkpt>
      <trkpt lat="47.94996" lon="6.95852">
        <ele>657.40002441406</ele>
        <time>2022-10-31T10:16:07.000Z</time>
      </trkpt>
      <trkpt lat="47.94997" lon="6.95857">
        <ele>657.19995117188</ele>
        <time>2022-10-31T10:16:15.000Z</time>
      </trkpt>
      <trkpt lat="47.94997" lon="6.95859">
        <ele>657.40002441406</ele>
        <time>2022-10-31T10:16:18.000Z</time>
      </trkpt>
      <trkpt lat="47.94997" lon="6.9586">
        <ele>657.40002441406</ele>
        <time>2022-10-31T10:16:19.000Z</time>
      </trkpt>
      <trkpt lat="47.94998" lon="6.95861">
        <ele>657.59997558594</ele>
        <time>2022-10-31T10:16:26.000Z</time>
      </trkpt>
      <trkpt lat="47.94999" lon="6.95864">
        <ele>657.40002441406</ele>
        <time>2022-10-31T10:16:39.000Z</time>
      </trkpt>
      <trkpt lat="47.94999" lon="6.95865">
        <ele>657</ele>
        <time>2022-10-31T10:16:47.000Z</time>
      </trkpt>
      <trkpt lat="47.94999" lon="6.95866">
        <ele>656</ele>
        <time>2022-10-31T10:16:54.000Z</time>
      </trkpt>
      <trkpt lat="47.94998" lon="6.95866">
        <ele>655</ele>
        <time>2022-10-31T10:16:59.000Z</time>
      </trkpt>
      <trkpt lat="47.94996" lon="6.95866">
        <ele>653.80004882812</ele>
        <time>2022-10-31T10:17:05.000Z</time>
      </trkpt>
      <trkpt lat="47.94994" lon="6.95867">
        <ele>652.80004882812</ele>
        <time>2022-10-31T10:17:11.000Z</time>
      </trkpt>
      <trkpt lat="47.94991" lon="6.95867">
        <ele>651.80004882812</ele>
        <time>2022-10-31T10:17:16.000Z</time>
      </trkpt>
      <trkpt lat="47.94988" lon="6.95869">
        <ele>651.59997558594</ele>
        <time>2022-10-31T10:17:19.000Z</time>
      </trkpt>
      <trkpt lat="47.94985" lon="6.9587">
        <ele>652</ele>
        <time>2022-10-31T10:17:25.000Z</time>
      </trkpt>
      <trkpt lat="47.94985" lon="6.95869">
        <ele>652.80004882812</ele>
        <time>2022-10-31T10:17:28.000Z</time>
      </trkpt>
      <trkpt lat="47.94985" lon="6.95867">
        <ele>653.19995117188</ele>
        <time>2022-10-31T10:17:30.000Z</time>
      </trkpt>
      <trkpt lat="47.94983" lon="6.95864">
        <ele>653.80004882812</ele>
        <time>2022-10-31T10:17:35.000Z</time>
      </trkpt>
      <trkpt lat="47.94983" lon="6.95863">
        <ele>654</ele>
        <time>2022-10-31T10:17:36.000Z</time>
      </trkpt>
      <trkpt lat="47.94979" lon="6.95865">
        <ele>654.59997558594</ele>
        <time>2022-10-31T10:17:42.000Z</time>
      </trkpt>
      <trkpt lat="47.94978" lon="6.95865">
        <ele>654.80004882812</ele>
        <time>2022-10-31T10:17:44.000Z</time>
      </trkpt>
      <trkpt lat="47.94979" lon="6.95863">
        <ele>655.19995117188</ele>
        <time>2022-10-31T10:17:47.000Z</time>
      </trkpt>
      <trkpt lat="47.94981" lon="6.95857">
        <ele>655.19995117188</ele>
        <time>2022-10-31T10:17:53.000Z</time>
      </trkpt>
      <trkpt lat="47.94981" lon="6.95856">
        <ele>654.80004882812</ele>
        <time>2022-10-31T10:17:57.000Z</time>
      </trkpt>
      <trkpt lat="47.94982" lon="6.95856">
        <ele>654.59997558594</ele>
        <time>2022-10-31T10:17:59.000Z</time>
      </trkpt>
      <trkpt lat="47.94982" lon="6.95854">
        <ele>654.59997558594</ele>
        <time>2022-10-31T10:18:01.000Z</time>
      </trkpt>
      <trkpt lat="47.94982" lon="6.95852">
        <ele>654.59997558594</ele>
        <time>2022-10-31T10:18:07.000Z</time>
      </trkpt>
      <trkpt lat="47.94981" lon="6.95855">
        <ele>654.59997558594</ele>
        <time>2022-10-31T10:18:10.000Z</time>
      </trkpt>
      <trkpt lat="47.9498" lon="6.95857">
        <ele>654.59997558594</ele>
        <time>2022-10-31T10:18:12.000Z</time>
      </trkpt>
      <trkpt lat="47.94979" lon="6.95858">
        <ele>654.59997558594</ele>
        <time>2022-10-31T10:18:13.000Z</time>
      </trkpt>
      <trkpt lat="47.94979" lon="6.95859">
        <ele>654.40002441406</ele>
        <time>2022-10-31T10:18:23.000Z</time>
      </trkpt>
      <trkpt lat="47.9498" lon="6.95859">
        <ele>654.59997558594</ele>
        <time>2022-10-31T10:18:37.000Z</time>
      </trkpt>
      <trkpt lat="47.94979" lon="6.95861">
        <ele>654.80004882812</ele>
        <time>2022-10-31T10:18:42.000Z</time>
      </trkpt>
      <trkpt lat="47.94978" lon="6.95859">
        <ele>655.59997558594</ele>
        <time>2022-10-31T10:18:45.000Z</time>
      </trkpt>
      <trkpt lat="47.94977" lon="6.95858">
        <ele>656</ele>
        <time>2022-10-31T10:18:46.000Z</time>
      </trkpt>
      <trkpt lat="47.94977" lon="6.95857">
        <ele>656.40002441406</ele>
        <time>2022-10-31T10:18:50.000Z</time>
      </trkpt>
      <trkpt lat="47.94978" lon="6.95855">
        <ele>656.40002441406</ele>
        <time>2022-10-31T10:18:55.000Z</time>
      </trkpt>
      <trkpt lat="47.94973" lon="6.95853">
        <ele>656.40002441406</ele>
        <time>2022-10-31T10:19:00.000Z</time>
      </trkpt>
      <trkpt lat="47.94972" lon="6.95853">
        <ele>656.40002441406</ele>
        <time>2022-10-31T10:19:07.000Z</time>
      </trkpt>
      <trkpt lat="47.94972" lon="6.95853">
        <ele>656.40002441406</ele>
        <time>2022-10-31T10:19:12.000Z</time>
      </trkpt>
      <trkpt lat="47.94972" lon="6.95854">
        <ele>656.40002441406</ele>
        <time>2022-10-31T10:19:19.000Z</time>
      </trkpt>
      <trkpt lat="47.94972" lon="6.95854">
        <ele>656.40002441406</ele>
        <time>2022-10-31T10:19:27.000Z</time>
      </trkpt>
      <trkpt lat="47.94972" lon="6.95854">
        <ele>656.40002441406</ele>
        <time>2022-10-31T10:19:34.000Z</time>
      </trkpt>
      <trkpt lat="47.94974" lon="6.95854">
        <ele>656.40002441406</ele>
        <time>2022-10-31T10:19:38.000Z</time>
      </trkpt>
      <trkpt lat="47.94977" lon="6.95855">
        <ele>656.59997558594</ele>
        <time>2022-10-31T10:19:53.000Z</time>
      </trkpt>
      <trkpt lat="47.94978" lon="6.95854">
        <ele>656.59997558594</ele>
        <time>2022-10-31T10:19:57.000Z</time>
      </trkpt>
      <trkpt lat="47.94978" lon="6.95854">
        <ele>656.59997558594</ele>
        <time>2022-10-31T10:19:59.000Z</time>
      </trkpt>
      <trkpt lat="47.94978" lon="6.95854">
        <ele>656.59997558594</ele>
        <time>2022-10-31T10:20:00.000Z</time>
      </trkpt>
      <trkpt lat="47.94979" lon="6.95855">
        <ele>656.80004882812</ele>
        <time>2022-10-31T10:20:08.000Z</time>
      </trkpt>
      <trkpt lat="47.94979" lon="6.95855">
        <ele>657</ele>
        <time>2022-10-31T10:20:09.000Z</time>
      </trkpt>
      <trkpt lat="47.94981" lon="6.95854">
        <ele>657</ele>
        <time>2022-10-31T10:20:13.000Z</time>
      </trkpt>
      <trkpt lat="47.94981" lon="6.95854">
        <ele>657.19995117188</ele>
        <time>2022-10-31T10:20:21.000Z</time>
      </trkpt>
      <trkpt lat="47.94984" lon="6.95856">
        <ele>657.40002441406</ele>
        <time>2022-10-31T10:20:40.000Z</time>
      </trkpt>
      <trkpt lat="47.94986" lon="6.95858">
        <ele>658.19995117188</ele>
        <time>2022-10-31T10:20:44.000Z</time>
      </trkpt>
      <trkpt lat="47.94986" lon="6.95858">
        <ele>658.80004882812</ele>
        <time>2022-10-31T10:20:50.000Z</time>
      </trkpt>
      <trkpt lat="47.94987" lon="6.9586">
        <ele>659.19995117188</ele>
        <time>2022-10-31T10:20:54.000Z</time>
      </trkpt>
      <trkpt lat="47.94988" lon="6.95859">
        <ele>660.19995117188</ele>
        <time>2022-10-31T10:20:57.000Z</time>
      </trkpt>
      <trkpt lat="47.94988" lon="6.95859">
        <ele>660.40002441406</ele>
        <time>2022-10-31T10:20:58.000Z</time>
      </trkpt>
      <trkpt lat="47.94987" lon="6.95859">
        <ele>660.59997558594</ele>
        <time>2022-10-31T10:20:59.000Z</time>
      </trkpt>
      <trkpt lat="47.94986" lon="6.95859">
        <ele>660.80004882812</ele>
        <time>2022-10-31T10:21:01.000Z</time>
      </trkpt>
      <trkpt lat="47.94985" lon="6.95855">
        <ele>660.80004882812</ele>
        <time>2022-10-31T10:21:04.000Z</time>
      </trkpt>
      <trkpt lat="47.94984" lon="6.95853">
        <ele>661</ele>
        <time>2022-10-31T10:21:06.000Z</time>
      </trkpt>
      <trkpt lat="47.94984" lon="6.95854">
        <ele>661</ele>
        <time>2022-10-31T10:21:07.000Z</time>
      </trkpt>
      <trkpt lat="47.9498" lon="6.9585">
        <ele>661</ele>
        <time>2022-10-31T10:21:13.000Z</time>
      </trkpt>
      <trkpt lat="47.9498" lon="6.95851">
        <ele>661</ele>
        <time>2022-10-31T10:21:18.000Z</time>
      </trkpt>
      <trkpt lat="47.94945" lon="6.95898">
        <ele>669.59997558594</ele>
        <time>2022-10-31T10:26:16.000Z</time>
      </trkpt>
      <trkpt lat="47.94941" lon="6.9589">
        <ele>669.80004882812</ele>
        <time>2022-10-31T10:26:18.000Z</time>
      </trkpt>
      <trkpt lat="47.9494" lon="6.95887">
        <ele>669.80004882812</ele>
        <time>2022-10-31T10:26:23.000Z</time>
      </trkpt>
      <trkpt lat="47.94939" lon="6.95884">
        <ele>669.59997558594</ele>
        <time>2022-10-31T10:26:34.000Z</time>
      </trkpt>
      <trkpt lat="47.94939" lon="6.95883">
        <ele>669.59997558594</ele>
        <time>2022-10-31T10:26:40.000Z</time>
      </trkpt>
      <trkpt lat="47.94939" lon="6.95883">
        <ele>669.40002441406</ele>
        <time>2022-10-31T10:26:43.000Z</time>
      </trkpt>
      <trkpt lat="47.94939" lon="6.95883">
        <ele>669.40002441406</ele>
        <time>2022-10-31T10:26:53.000Z</time>
      </trkpt>
      <trkpt lat="47.94939" lon="6.95884">
        <ele>669.80004882812</ele>
        <time>2022-10-31T10:27:00.000Z</time>
      </trkpt>
      <trkpt lat="47.94939" lon="6.95885">
        <ele>670</ele>
        <time>2022-10-31T10:27:04.000Z</time>
      </trkpt>
      <trkpt lat="47.94941" lon="6.95884">
        <ele>670.19995117188</ele>
        <time>2022-10-31T10:27:11.000Z</time>
      </trkpt>
      <trkpt lat="47.94941" lon="6.95884">
        <ele>670.19995117188</ele>
        <time>2022-10-31T10:27:12.000Z</time>
      </trkpt>
      <trkpt lat="47.94946" lon="6.95883">
        <ele>670.80004882812</ele>
        <time>2022-10-31T10:27:19.000Z</time>
      </trkpt>
      <trkpt lat="47.94947" lon="6.95883">
        <ele>671</ele>
        <time>2022-10-31T10:27:20.000Z</time>
      </trkpt>
      <trkpt lat="47.94945" lon="6.95881">
        <ele>671.19995117188</ele>
        <time>2022-10-31T10:27:24.000Z</time>
      </trkpt>
      <trkpt lat="47.94945" lon="6.95876">
        <ele>671.40002441406</ele>
        <time>2022-10-31T10:27:29.000Z</time>
      </trkpt>
      <trkpt lat="47.94946" lon="6.95875">
        <ele>671.40002441406</ele>
        <time>2022-10-31T10:27:32.000Z</time>
      </trkpt>
      <trkpt lat="47.94946" lon="6.95874">
        <ele>671.59997558594</ele>
        <time>2022-10-31T10:27:41.000Z</time>
      </trkpt>
      <trkpt lat="47.94946" lon="6.95875">
        <ele>670.40002441406</ele>
        <time>2022-10-31T10:27:56.000Z</time>
      </trkpt>
      <trkpt lat="47.94946" lon="6.95875">
        <ele>670.19995117188</ele>
        <time>2022-10-31T10:27:59.000Z</time>
      </trkpt>
      <trkpt lat="47.94945" lon="6.95878">
        <ele>669.80004882812</ele>
        <time>2022-10-31T10:28:02.000Z</time>
      </trkpt>
      <trkpt lat="47.94945" lon="6.95878">
        <ele>669.80004882812</ele>
        <time>2022-10-31T10:28:03.000Z</time>
      </trkpt>
      <trkpt lat="47.94943" lon="6.95886">
        <ele>669</ele>
        <time>2022-10-31T10:28:23.000Z</time>
      </trkpt>
      <trkpt lat="47.94941" lon="6.95888">
        <ele>669</ele>
        <time>2022-10-31T10:28:27.000Z</time>
      </trkpt>
      <trkpt lat="47.9494" lon="6.95891">
        <ele>669</ele>
        <time>2022-10-31T10:28:30.000Z</time>
      </trkpt>
      <trkpt lat="47.94939" lon="6.95892">
        <ele>668.80004882812</ele>
        <time>2022-10-31T10:28:31.000Z</time>
      </trkpt>
      <trkpt lat="47.94939" lon="6.95892">
        <ele>668.80004882812</ele>
        <time>2022-10-31T10:28:32.000Z</time>
      </trkpt>
      <trkpt lat="47.94939" lon="6.95895">
        <ele>668.40002441406</ele>
        <time>2022-10-31T10:28:36.000Z</time>
      </trkpt>
      <trkpt lat="47.9494" lon="6.95896">
        <ele>668.19995117188</ele>
        <time>2022-10-31T10:28:37.000Z</time>
      </trkpt>
      <trkpt lat="47.94941" lon="6.95898">
        <ele>668.19995117188</ele>
        <time>2022-10-31T10:28:39.000Z</time>
      </trkpt>
      <trkpt lat="47.94941" lon="6.95898">
        <ele>668.19995117188</ele>
        <time>2022-10-31T10:28:42.000Z</time>
      </trkpt>
      <trkpt lat="47.94941" lon="6.95898">
        <ele>668.40002441406</ele>
        <time>2022-10-31T10:28:45.000Z</time>
      </trkpt>
      <trkpt lat="47.94942" lon="6.95899">
        <ele>668.40002441406</ele>
        <time>2022-10-31T10:28:47.000Z</time>
      </trkpt>
      <trkpt lat="47.94942" lon="6.959">
        <ele>668.40002441406</ele>
        <time>2022-10-31T10:28:52.000Z</time>
      </trkpt>
      <trkpt lat="47.94942" lon="6.959">
        <ele>668.40002441406</ele>
        <time>2022-10-31T10:28:58.000Z</time>
      </trkpt>
      <trkpt lat="47.94942" lon="6.95904">
        <ele>668.19995117188</ele>
        <time>2022-10-31T10:29:16.000Z</time>
      </trkpt>
      <trkpt lat="47.94942" lon="6.95905">
        <ele>667.59997558594</ele>
        <time>2022-10-31T10:29:25.000Z</time>
      </trkpt>
      <trkpt lat="47.9494" lon="6.95909">
        <ele>667.40002441406</ele>
        <time>2022-10-31T10:29:28.000Z</time>
      </trkpt>
      <trkpt lat="47.94938" lon="6.9591">
        <ele>667.19995117188</ele>
        <time>2022-10-31T10:29:30.000Z</time>
      </trkpt>
      <trkpt lat="47.94935" lon="6.9591">
        <ele>667.40002441406</ele>
        <time>2022-10-31T10:29:34.000Z</time>
      </trkpt>
      <trkpt lat="47.94934" lon="6.95908">
        <ele>668</ele>
        <time>2022-10-31T10:29:39.000Z</time>
      </trkpt>
      <trkpt lat="47.94934" lon="6.95906">
        <ele>668.40002441406</ele>
        <time>2022-10-31T10:29:43.000Z</time>
      </trkpt>
      <trkpt lat="47.94933" lon="6.95906">
        <ele>668.19995117188</ele>
        <time>2022-10-31T10:29:44.000Z</time>
      </trkpt>
      <trkpt lat="47.94933" lon="6.95907">
        <ele>668.40002441406</ele>
        <time>2022-10-31T10:29:46.000Z</time>
      </trkpt>
      <trkpt lat="47.94933" lon="6.95908">
        <ele>668.59997558594</ele>
        <time>2022-10-31T10:29:52.000Z</time>
      </trkpt>
      <trkpt lat="47.94933" lon="6.95907">
        <ele>669.40002441406</ele>
        <time>2022-10-31T10:30:06.000Z</time>
      </trkpt>
      <trkpt lat="47.94933" lon="6.95907">
        <ele>669.40002441406</ele>
        <time>2022-10-31T10:30:09.000Z</time>
      </trkpt>
      <trkpt lat="47.94933" lon="6.95907">
        <ele>669.40002441406</ele>
        <time>2022-10-31T10:30:12.000Z</time>
      </trkpt>
      <trkpt lat="47.94933" lon="6.95905">
        <ele>669.40002441406</ele>
        <time>2022-10-31T10:30:18.000Z</time>
      </trkpt>
      <trkpt lat="47.94933" lon="6.95905">
        <ele>669.40002441406</ele>
        <time>2022-10-31T10:30:21.000Z</time>
      </trkpt>
      <trkpt lat="47.94935" lon="6.95905">
        <ele>669.40002441406</ele>
        <time>2022-10-31T10:30:31.000Z</time>
      </trkpt>
      <trkpt lat="47.94935" lon="6.95905">
        <ele>669.40002441406</ele>
        <time>2022-10-31T10:30:34.000Z</time>
      </trkpt>
      <trkpt lat="47.94935" lon="6.95905">
        <ele>669.40002441406</ele>
        <time>2022-10-31T10:30:45.000Z</time>
      </trkpt>
      <trkpt lat="47.94935" lon="6.95904">
        <ele>669.40002441406</ele>
        <time>2022-10-31T10:30:48.000Z</time>
      </trkpt>
      <trkpt lat="47.94935" lon="6.95904">
        <ele>669.19995117188</ele>
        <time>2022-10-31T10:30:50.000Z</time>
      </trkpt>
      <trkpt lat="47.94935" lon="6.95904">
        <ele>669.19995117188</ele>
        <time>2022-10-31T10:30:53.000Z</time>
      </trkpt>
      <trkpt lat="47.94936" lon="6.959">
        <ele>669.19995117188</ele>
        <time>2022-10-31T10:31:25.000Z</time>
      </trkpt>
      <trkpt lat="47.94936" lon="6.959">
        <ele>669</ele>
        <time>2022-10-31T10:31:37.000Z</time>
      </trkpt>
      <trkpt lat="47.94933" lon="6.95906">
        <ele>669.80004882812</ele>
        <time>2022-10-31T10:31:47.000Z</time>
      </trkpt>
      <trkpt lat="47.94931" lon="6.95907">
        <ele>670</ele>
        <time>2022-10-31T10:31:52.000Z</time>
      </trkpt>
      <trkpt lat="47.94932" lon="6.95907">
        <ele>670</ele>
        <time>2022-10-31T10:31:55.000Z</time>
      </trkpt>
      <trkpt lat="47.94932" lon="6.95907">
        <ele>670</ele>
        <time>2022-10-31T10:32:03.000Z</time>
      </trkpt>
      <trkpt lat="47.94931" lon="6.95907">
        <ele>670.19995117188</ele>
        <time>2022-10-31T10:32:10.000Z</time>
      </trkpt>
      <trkpt lat="47.94931" lon="6.95908">
        <ele>671</ele>
        <time>2022-10-31T10:32:14.000Z</time>
      </trkpt>
      <trkpt lat="47.94927" lon="6.9591">
        <ele>671.40002441406</ele>
        <time>2022-10-31T10:32:17.000Z</time>
      </trkpt>
      <trkpt lat="47.94923" lon="6.95913">
        <ele>671.59997558594</ele>
        <time>2022-10-31T10:32:21.000Z</time>
      </trkpt>
      <trkpt lat="47.94922" lon="6.95915">
        <ele>671.59997558594</ele>
        <time>2022-10-31T10:32:23.000Z</time>
      </trkpt>
      <trkpt lat="47.94921" lon="6.95914">
        <ele>671.59997558594</ele>
        <time>2022-10-31T10:32:30.000Z</time>
      </trkpt>
      <trkpt lat="47.94921" lon="6.95913">
        <ele>671.59997558594</ele>
        <time>2022-10-31T10:32:38.000Z</time>
      </trkpt>
      <trkpt lat="47.9492" lon="6.95913">
        <ele>672.19995117188</ele>
        <time>2022-10-31T10:32:54.000Z</time>
      </trkpt>
      <trkpt lat="47.94916" lon="6.95912">
        <ele>672.59997558594</ele>
        <time>2022-10-31T10:33:16.000Z</time>
      </trkpt>
      <trkpt lat="47.94916" lon="6.95912">
        <ele>672.59997558594</ele>
        <time>2022-10-31T10:33:25.000Z</time>
      </trkpt>
      <trkpt lat="47.94916" lon="6.95912">
        <ele>672.59997558594</ele>
        <time>2022-10-31T10:33:28.000Z</time>
      </trkpt>
      <trkpt lat="47.94916" lon="6.95914">
        <ele>672.59997558594</ele>
        <time>2022-10-31T10:33:31.000Z</time>
      </trkpt>
      <trkpt lat="47.94916" lon="6.95914">
        <ele>672.40002441406</ele>
        <time>2022-10-31T10:33:41.000Z</time>
      </trkpt>
      <trkpt lat="47.94915" lon="6.95918">
        <ele>672.40002441406</ele>
        <time>2022-10-31T10:34:01.000Z</time>
      </trkpt>
      <trkpt lat="47.94911" lon="6.95918">
        <ele>672.59997558594</ele>
        <time>2022-10-31T10:34:05.000Z</time>
      </trkpt>
      <trkpt lat="47.94908" lon="6.95918">
        <ele>672.59997558594</ele>
        <time>2022-10-31T10:34:11.000Z</time>
      </trkpt>
      <trkpt lat="47.94908" lon="6.95917">
        <ele>672.80004882812</ele>
        <time>2022-10-31T10:34:17.000Z</time>
      </trkpt>
      <trkpt lat="47.94907" lon="6.95915">
        <ele>672.59997558594</ele>
        <time>2022-10-31T10:34:24.000Z</time>
      </trkpt>
      <trkpt lat="47.94905" lon="6.95915">
        <ele>672.59997558594</ele>
        <time>2022-10-31T10:34:32.000Z</time>
      </trkpt>
      <trkpt lat="47.94902" lon="6.95908">
        <ele>672.40002441406</ele>
        <time>2022-10-31T10:34:46.000Z</time>
      </trkpt>
      <trkpt lat="47.94903" lon="6.95907">
        <ele>672.40002441406</ele>
        <time>2022-10-31T10:34:47.000Z</time>
      </trkpt>
      <trkpt lat="47.94903" lon="6.95905">
        <ele>672.40002441406</ele>
        <time>2022-10-31T10:34:50.000Z</time>
      </trkpt>
      <trkpt lat="47.94903" lon="6.95903">
        <ele>672.59997558594</ele>
        <time>2022-10-31T10:34:52.000Z</time>
      </trkpt>
      <trkpt lat="47.94904" lon="6.95905">
        <ele>672.59997558594</ele>
        <time>2022-10-31T10:34:54.000Z</time>
      </trkpt>
      <trkpt lat="47.94904" lon="6.95905">
        <ele>672.59997558594</ele>
        <time>2022-10-31T10:34:55.000Z</time>
      </trkpt>
      <trkpt lat="47.94905" lon="6.95906">
        <ele>672.59997558594</ele>
        <time>2022-10-31T10:34:57.000Z</time>
      </trkpt>
      <trkpt lat="47.94905" lon="6.95908">
        <ele>673</ele>
        <time>2022-10-31T10:35:08.000Z</time>
      </trkpt>
      <trkpt lat="47.94904" lon="6.95908">
        <ele>673.19995117188</ele>
        <time>2022-10-31T10:35:09.000Z</time>
      </trkpt>
      <trkpt lat="47.94904" lon="6.95912">
        <ele>673.40002441406</ele>
        <time>2022-10-31T10:35:13.000Z</time>
      </trkpt>
      <trkpt lat="47.94904" lon="6.95912">
        <ele>673.40002441406</ele>
        <time>2022-10-31T10:35:14.000Z</time>
      </trkpt>
      <trkpt lat="47.94904" lon="6.95913">
        <ele>673.40002441406</ele>
        <time>2022-10-31T10:35:15.000Z</time>
      </trkpt>
      <trkpt lat="47.94903" lon="6.9592">
        <ele>673.40002441406</ele>
        <time>2022-10-31T10:35:21.000Z</time>
      </trkpt>
      <trkpt lat="47.94903" lon="6.95922">
        <ele>673.59997558594</ele>
        <time>2022-10-31T10:35:24.000Z</time>
      </trkpt>
      <trkpt lat="47.94903" lon="6.95922">
        <ele>673.80004882812</ele>
        <time>2022-10-31T10:35:27.000Z</time>
      </trkpt>
      <trkpt lat="47.94902" lon="6.95922">
        <ele>673.80004882812</ele>
        <time>2022-10-31T10:35:28.000Z</time>
      </trkpt>
      <trkpt lat="47.94901" lon="6.95923">
        <ele>673.80004882812</ele>
        <time>2022-10-31T10:35:34.000Z</time>
      </trkpt>
      <trkpt lat="47.94901" lon="6.95923">
        <ele>673.80004882812</ele>
        <time>2022-10-31T10:35:48.000Z</time>
      </trkpt>
      <trkpt lat="47.94901" lon="6.95924">
        <ele>673.59997558594</ele>
        <time>2022-10-31T10:35:54.000Z</time>
      </trkpt>
      <trkpt lat="47.94901" lon="6.95924">
        <ele>673.59997558594</ele>
        <time>2022-10-31T10:35:58.000Z</time>
      </trkpt>
      <trkpt lat="47.94901" lon="6.95924">
        <ele>673.59997558594</ele>
        <time>2022-10-31T10:35:59.000Z</time>
      </trkpt>
      <trkpt lat="47.94901" lon="6.95929">
        <ele>673.40002441406</ele>
        <time>2022-10-31T10:36:13.000Z</time>
      </trkpt>
      <trkpt lat="47.949" lon="6.9593">
        <ele>674.19995117188</ele>
        <time>2022-10-31T10:36:23.000Z</time>
      </trkpt>
      <trkpt lat="47.94899" lon="6.95927">
        <ele>674.19995117188</ele>
        <time>2022-10-31T10:36:25.000Z</time>
      </trkpt>
      <trkpt lat="47.94897" lon="6.9593">
        <ele>674.40002441406</ele>
        <time>2022-10-31T10:36:31.000Z</time>
      </trkpt>
      <trkpt lat="47.94895" lon="6.95927">
        <ele>674.59997558594</ele>
        <time>2022-10-31T10:36:48.000Z</time>
      </trkpt>
      <trkpt lat="47.94896" lon="6.95932">
        <ele>675.19995117188</ele>
        <time>2022-10-31T10:36:53.000Z</time>
      </trkpt>
      <trkpt lat="47.94896" lon="6.95933">
        <ele>675.19995117188</ele>
        <time>2022-10-31T10:36:55.000Z</time>
      </trkpt>
      <trkpt lat="47.94893" lon="6.95934">
        <ele>675.40002441406</ele>
        <time>2022-10-31T10:37:00.000Z</time>
      </trkpt>
      <trkpt lat="47.94893" lon="6.95933">
        <ele>675.19995117188</ele>
        <time>2022-10-31T10:37:56.000Z</time>
      </trkpt>
      <trkpt lat="47.94892" lon="6.95933">
        <ele>675.19995117188</ele>
        <time>2022-10-31T10:37:58.000Z</time>
      </trkpt>
      <trkpt lat="47.94892" lon="6.95933">
        <ele>675.19995117188</ele>
        <time>2022-10-31T10:38:01.000Z</time>
      </trkpt>
      <trkpt lat="47.94891" lon="6.95933">
        <ele>675.19995117188</ele>
        <time>2022-10-31T10:38:17.000Z</time>
      </trkpt>
      <trkpt lat="47.94886" lon="6.95933">
        <ele>675</ele>
        <time>2022-10-31T10:38:27.000Z</time>
      </trkpt>
      <trkpt lat="47.94885" lon="6.95933">
        <ele>675</ele>
        <time>2022-10-31T10:38:29.000Z</time>
      </trkpt>
      <trkpt lat="47.94881" lon="6.95929">
        <ele>675</ele>
        <time>2022-10-31T10:38:37.000Z</time>
      </trkpt>
      <trkpt lat="47.9488" lon="6.95928">
        <ele>675</ele>
        <time>2022-10-31T10:38:40.000Z</time>
      </trkpt>
      <trkpt lat="47.9488" lon="6.95928">
        <ele>675</ele>
        <time>2022-10-31T10:38:51.000Z</time>
      </trkpt>
      <trkpt lat="47.9488" lon="6.95928">
        <ele>675</ele>
        <time>2022-10-31T10:38:56.000Z</time>
      </trkpt>
      <trkpt lat="47.9488" lon="6.95929">
        <ele>674.80004882812</ele>
        <time>2022-10-31T10:39:22.000Z</time>
      </trkpt>
      <trkpt lat="47.9488" lon="6.95929">
        <ele>675</ele>
        <time>2022-10-31T10:39:30.000Z</time>
      </trkpt>
      <trkpt lat="47.9488" lon="6.95928">
        <ele>675</ele>
        <time>2022-10-31T10:39:33.000Z</time>
      </trkpt>
      <trkpt lat="47.9488" lon="6.95928">
        <ele>675</ele>
        <time>2022-10-31T10:39:35.000Z</time>
      </trkpt>
      <trkpt lat="47.94879" lon="6.95927">
        <ele>674.80004882812</ele>
        <time>2022-10-31T10:39:44.000Z</time>
      </trkpt>
      <trkpt lat="47.94879" lon="6.95927">
        <ele>674.80004882812</ele>
        <time>2022-10-31T10:39:46.000Z</time>
      </trkpt>
      <trkpt lat="47.94879" lon="6.95921">
        <ele>674.80004882812</ele>
        <time>2022-10-31T10:39:56.000Z</time>
      </trkpt>
      <trkpt lat="47.9488" lon="6.95921">
        <ele>674.80004882812</ele>
        <time>2022-10-31T10:40:01.000Z</time>
      </trkpt>
      <trkpt lat="47.9488" lon="6.95925">
        <ele>674.40002441406</ele>
        <time>2022-10-31T10:40:28.000Z</time>
      </trkpt>
      <trkpt lat="47.94879" lon="6.95926">
        <ele>674.19995117188</ele>
        <time>2022-10-31T10:40:31.000Z</time>
      </trkpt>
      <trkpt lat="47.94873" lon="6.95933">
        <ele>673.80004882812</ele>
        <time>2022-10-31T10:40:51.000Z</time>
      </trkpt>
      <trkpt lat="47.94871" lon="6.95933">
        <ele>673.40002441406</ele>
        <time>2022-10-31T10:41:06.000Z</time>
      </trkpt>
      <trkpt lat="47.94869" lon="6.95933">
        <ele>673.19995117188</ele>
        <time>2022-10-31T10:41:11.000Z</time>
      </trkpt>
      <trkpt lat="47.94867" lon="6.95933">
        <ele>673</ele>
        <time>2022-10-31T10:41:14.000Z</time>
      </trkpt>
      <trkpt lat="47.94865" lon="6.95931">
        <ele>672.59997558594</ele>
        <time>2022-10-31T10:41:16.000Z</time>
      </trkpt>
      <trkpt lat="47.94862" lon="6.95928">
        <ele>672.40002441406</ele>
        <time>2022-10-31T10:41:19.000Z</time>
      </trkpt>
      <trkpt lat="47.94855" lon="6.95927">
        <ele>672</ele>
        <time>2022-10-31T10:41:25.000Z</time>
      </trkpt>
      <trkpt lat="47.9485" lon="6.95929">
        <ele>671</ele>
        <time>2022-10-31T10:41:31.000Z</time>
      </trkpt>
      <trkpt lat="47.94848" lon="6.95929">
        <ele>670.80004882812</ele>
        <time>2022-10-31T10:41:32.000Z</time>
      </trkpt>
      <trkpt lat="47.94846" lon="6.95928">
        <ele>670.80004882812</ele>
        <time>2022-10-31T10:41:34.000Z</time>
      </trkpt>
      <trkpt lat="47.94846" lon="6.95927">
        <ele>670.59997558594</ele>
        <time>2022-10-31T10:41:35.000Z</time>
      </trkpt>
      <trkpt lat="47.94844" lon="6.95926">
        <ele>670.59997558594</ele>
        <time>2022-10-31T10:41:37.000Z</time>
      </trkpt>
      <trkpt lat="47.9484" lon="6.95928">
        <ele>670.80004882812</ele>
        <time>2022-10-31T10:41:42.000Z</time>
      </trkpt>
      <trkpt lat="47.94839" lon="6.95928">
        <ele>670.80004882812</ele>
        <time>2022-10-31T10:41:43.000Z</time>
      </trkpt>
      <trkpt lat="47.94838" lon="6.95928">
        <ele>670.80004882812</ele>
        <time>2022-10-31T10:41:44.000Z</time>
      </trkpt>
      <trkpt lat="47.94837" lon="6.95929">
        <ele>670.80004882812</ele>
        <time>2022-10-31T10:41:50.000Z</time>
      </trkpt>
      <trkpt lat="47.94837" lon="6.95929">
        <ele>670.80004882812</ele>
        <time>2022-10-31T10:41:56.000Z</time>
      </trkpt>
      <trkpt lat="47.94836" lon="6.95929">
        <ele>670.59997558594</ele>
        <time>2022-10-31T10:41:59.000Z</time>
      </trkpt>
      <trkpt lat="47.94837" lon="6.95928">
        <ele>670.59997558594</ele>
        <time>2022-10-31T10:42:06.000Z</time>
      </trkpt>
      <trkpt lat="47.94837" lon="6.95928">
        <ele>670.59997558594</ele>
        <time>2022-10-31T10:42:15.000Z</time>
      </trkpt>
      <trkpt lat="47.94837" lon="6.95928">
        <ele>670.59997558594</ele>
        <time>2022-10-31T10:42:19.000Z</time>
      </trkpt>
      <trkpt lat="47.94835" lon="6.95928">
        <ele>670.19995117188</ele>
        <time>2022-10-31T10:42:28.000Z</time>
      </trkpt>
      <trkpt lat="47.94835" lon="6.95928">
        <ele>670.19995117188</ele>
        <time>2022-10-31T10:42:31.000Z</time>
      </trkpt>
      <trkpt lat="47.94835" lon="6.95928">
        <ele>670.19995117188</ele>
        <time>2022-10-31T10:42:36.000Z</time>
      </trkpt>
      <trkpt lat="47.94836" lon="6.95922">
        <ele>670</ele>
        <time>2022-10-31T10:42:47.000Z</time>
      </trkpt>
      <trkpt lat="47.94835" lon="6.95921">
        <ele>670</ele>
        <time>2022-10-31T10:42:52.000Z</time>
      </trkpt>
      <trkpt lat="47.94838" lon="6.95922">
        <ele>670</ele>
        <time>2022-10-31T10:43:01.000Z</time>
      </trkpt>
      <trkpt lat="47.94839" lon="6.95921">
        <ele>670</ele>
        <time>2022-10-31T10:43:03.000Z</time>
      </trkpt>
      <trkpt lat="47.9484" lon="6.9592">
        <ele>670</ele>
        <time>2022-10-31T10:43:04.000Z</time>
      </trkpt>
      <trkpt lat="47.94841" lon="6.95919">
        <ele>670</ele>
        <time>2022-10-31T10:43:06.000Z</time>
      </trkpt>
      <trkpt lat="47.94841" lon="6.95917">
        <ele>670</ele>
        <time>2022-10-31T10:43:08.000Z</time>
      </trkpt>
      <trkpt lat="47.94842" lon="6.95914">
        <ele>670</ele>
        <time>2022-10-31T10:43:11.000Z</time>
      </trkpt>
      <trkpt lat="47.94844" lon="6.95914">
        <ele>670</ele>
        <time>2022-10-31T10:43:14.000Z</time>
      </trkpt>
      <trkpt lat="47.94843" lon="6.95914">
        <ele>670</ele>
        <time>2022-10-31T10:43:15.000Z</time>
      </trkpt>
      <trkpt lat="47.94844" lon="6.95911">
        <ele>670</ele>
        <time>2022-10-31T10:43:19.000Z</time>
      </trkpt>
      <trkpt lat="47.94845" lon="6.95909">
        <ele>670.19995117188</ele>
        <time>2022-10-31T10:43:21.000Z</time>
      </trkpt>
      <trkpt lat="47.94845" lon="6.95908">
        <ele>670.40002441406</ele>
        <time>2022-10-31T10:43:22.000Z</time>
      </trkpt>
      <trkpt lat="47.94846" lon="6.95904">
        <ele>670.80004882812</ele>
        <time>2022-10-31T10:43:26.000Z</time>
      </trkpt>
      <trkpt lat="47.94846" lon="6.95903">
        <ele>670.80004882812</ele>
        <time>2022-10-31T10:43:27.000Z</time>
      </trkpt>
      <trkpt lat="47.94845" lon="6.95903">
        <ele>670.80004882812</ele>
        <time>2022-10-31T10:43:28.000Z</time>
      </trkpt>
      <trkpt lat="47.94847" lon="6.95902">
        <ele>670.59997558594</ele>
        <time>2022-10-31T10:43:34.000Z</time>
      </trkpt>
      <trkpt lat="47.94846" lon="6.95903">
        <ele>670.80004882812</ele>
        <time>2022-10-31T10:43:44.000Z</time>
      </trkpt>
      <trkpt lat="47.94845" lon="6.95897">
        <ele>671</ele>
        <time>2022-10-31T10:43:52.000Z</time>
      </trkpt>
      <trkpt lat="47.94845" lon="6.95895">
        <ele>671.19995117188</ele>
        <time>2022-10-31T10:43:53.000Z</time>
      </trkpt>
      <trkpt lat="47.94845" lon="6.95894">
        <ele>671.59997558594</ele>
        <time>2022-10-31T10:43:57.000Z</time>
      </trkpt>
      <trkpt lat="47.94845" lon="6.95894">
        <ele>671.80004882812</ele>
        <time>2022-10-31T10:43:58.000Z</time>
      </trkpt>
      <trkpt lat="47.94844" lon="6.95896">
        <ele>673</ele>
        <time>2022-10-31T10:44:02.000Z</time>
      </trkpt>
      <trkpt lat="47.94843" lon="6.95898">
        <ele>673.59997558594</ele>
        <time>2022-10-31T10:44:07.000Z</time>
      </trkpt>
      <trkpt lat="47.94844" lon="6.95898">
        <ele>673.80004882812</ele>
        <time>2022-10-31T10:44:21.000Z</time>
      </trkpt>
      <trkpt lat="47.94846" lon="6.95898">
        <ele>674</ele>
        <time>2022-10-31T10:44:26.000Z</time>
      </trkpt>
      <trkpt lat="47.94846" lon="6.95902">
        <ele>674</ele>
        <time>2022-10-31T10:44:31.000Z</time>
      </trkpt>
      <trkpt lat="47.94847" lon="6.95907">
        <ele>674</ele>
        <time>2022-10-31T10:44:36.000Z</time>
      </trkpt>
      <trkpt lat="47.94843" lon="6.95909">
        <ele>674</ele>
        <time>2022-10-31T10:44:44.000Z</time>
      </trkpt>
      <trkpt lat="47.94844" lon="6.95907">
        <ele>673.59997558594</ele>
        <time>2022-10-31T10:44:54.000Z</time>
      </trkpt>
      <trkpt lat="47.94844" lon="6.95906">
        <ele>673.59997558594</ele>
        <time>2022-10-31T10:44:56.000Z</time>
      </trkpt>
      <trkpt lat="47.9484" lon="6.95907">
        <ele>673.59997558594</ele>
        <time>2022-10-31T10:45:18.000Z</time>
      </trkpt>
      <trkpt lat="47.94844" lon="6.959">
        <ele>673.80004882812</ele>
        <time>2022-10-31T10:45:25.000Z</time>
      </trkpt>
      <trkpt lat="47.94843" lon="6.95903">
        <ele>673.80004882812</ele>
        <time>2022-10-31T10:45:30.000Z</time>
      </trkpt>
      <trkpt lat="47.94844" lon="6.95904">
        <ele>673.59997558594</ele>
        <time>2022-10-31T10:45:34.000Z</time>
      </trkpt>
      <trkpt lat="47.94843" lon="6.95904">
        <ele>673.59997558594</ele>
        <time>2022-10-31T10:45:38.000Z</time>
      </trkpt>
      <trkpt lat="47.94838" lon="6.95905">
        <ele>673.80004882812</ele>
        <time>2022-10-31T10:45:44.000Z</time>
      </trkpt>
      <trkpt lat="47.94838" lon="6.95902">
        <ele>673.80004882812</ele>
        <time>2022-10-31T10:45:52.000Z</time>
      </trkpt>
      <trkpt lat="47.94833" lon="6.95907">
        <ele>673.80004882812</ele>
        <time>2022-10-31T10:45:56.000Z</time>
      </trkpt>
      <trkpt lat="47.94832" lon="6.95905">
        <ele>673.80004882812</ele>
        <time>2022-10-31T10:45:59.000Z</time>
      </trkpt>
      <trkpt lat="47.94831" lon="6.95907">
        <ele>673.59997558594</ele>
        <time>2022-10-31T10:46:03.000Z</time>
      </trkpt>
      <trkpt lat="47.94832" lon="6.95907">
        <ele>673.59997558594</ele>
        <time>2022-10-31T10:46:04.000Z</time>
      </trkpt>
      <trkpt lat="47.94833" lon="6.9591">
        <ele>673.59997558594</ele>
        <time>2022-10-31T10:46:09.000Z</time>
      </trkpt>
      <trkpt lat="47.94833" lon="6.95908">
        <ele>673.59997558594</ele>
        <time>2022-10-31T10:46:12.000Z</time>
      </trkpt>
      <trkpt lat="47.94833" lon="6.95908">
        <ele>673.80004882812</ele>
        <time>2022-10-31T10:46:14.000Z</time>
      </trkpt>
      <trkpt lat="47.94835" lon="6.95908">
        <ele>673.80004882812</ele>
        <time>2022-10-31T10:46:15.000Z</time>
      </trkpt>
      <trkpt lat="47.94841" lon="6.95902">
        <ele>674</ele>
        <time>2022-10-31T10:46:20.000Z</time>
      </trkpt>
      <trkpt lat="47.94842" lon="6.95902">
        <ele>674</ele>
        <time>2022-10-31T10:46:25.000Z</time>
      </trkpt>
      <trkpt lat="47.94845" lon="6.95901">
        <ele>674.19995117188</ele>
        <time>2022-10-31T10:46:32.000Z</time>
      </trkpt>
      <trkpt lat="47.94847" lon="6.959">
        <ele>674.19995117188</ele>
        <time>2022-10-31T10:46:43.000Z</time>
      </trkpt>
      <trkpt lat="47.94852" lon="6.95896">
        <ele>673</ele>
        <time>2022-10-31T10:46:59.000Z</time>
      </trkpt>
      <trkpt lat="47.94854" lon="6.95895">
        <ele>674</ele>
        <time>2022-10-31T10:47:20.000Z</time>
      </trkpt>
      <trkpt lat="47.94855" lon="6.95895">
        <ele>674.59997558594</ele>
        <time>2022-10-31T10:47:22.000Z</time>
      </trkpt>
      <trkpt lat="47.94855" lon="6.95894">
        <ele>675.19995117188</ele>
        <time>2022-10-31T10:47:24.000Z</time>
      </trkpt>
      <trkpt lat="47.94857" lon="6.95892">
        <ele>675.59997558594</ele>
        <time>2022-10-31T10:47:27.000Z</time>
      </trkpt>
      <trkpt lat="47.94859" lon="6.95886">
        <ele>676.40002441406</ele>
        <time>2022-10-31T10:47:39.000Z</time>
      </trkpt>
      <trkpt lat="47.94859" lon="6.95886">
        <ele>677.40002441406</ele>
        <time>2022-10-31T10:47:49.000Z</time>
      </trkpt>
      <trkpt lat="47.94861" lon="6.95882">
        <ele>678</ele>
        <time>2022-10-31T10:47:57.000Z</time>
      </trkpt>
      <trkpt lat="47.94861" lon="6.95881">
        <ele>678.59997558594</ele>
        <time>2022-10-31T10:47:59.000Z</time>
      </trkpt>
      <trkpt lat="47.94861" lon="6.95878">
        <ele>679</ele>
        <time>2022-10-31T10:48:03.000Z</time>
      </trkpt>
      <trkpt lat="47.94861" lon="6.95876">
        <ele>679</ele>
        <time>2022-10-31T10:48:08.000Z</time>
      </trkpt>
      <trkpt lat="47.94861" lon="6.95874">
        <ele>678.80004882812</ele>
        <time>2022-10-31T10:48:10.000Z</time>
      </trkpt>
      <trkpt lat="47.94861" lon="6.95868">
        <ele>678.40002441406</ele>
        <time>2022-10-31T10:48:16.000Z</time>
      </trkpt>
      <trkpt lat="47.9486" lon="6.95861">
        <ele>678.40002441406</ele>
        <time>2022-10-31T10:48:25.000Z</time>
      </trkpt>
      <trkpt lat="47.94858" lon="6.95856">
        <ele>678.40002441406</ele>
        <time>2022-10-31T10:48:40.000Z</time>
      </trkpt>
      <trkpt lat="47.94858" lon="6.95854">
        <ele>678.59997558594</ele>
        <time>2022-10-31T10:48:47.000Z</time>
      </trkpt>
      <trkpt lat="47.9486" lon="6.95854">
        <ele>679.59997558594</ele>
        <time>2022-10-31T10:48:58.000Z</time>
      </trkpt>
      <trkpt lat="47.94861" lon="6.95857">
        <ele>680.59997558594</ele>
        <time>2022-10-31T10:49:04.000Z</time>
      </trkpt>
      <trkpt lat="47.94853" lon="6.95869">
        <ele>681</ele>
        <time>2022-10-31T10:49:13.000Z</time>
      </trkpt>
      <trkpt lat="47.94847" lon="6.95877">
        <ele>681.40002441406</ele>
        <time>2022-10-31T10:49:17.000Z</time>
      </trkpt>
      <trkpt lat="47.94846" lon="6.95877">
        <ele>681.59997558594</ele>
        <time>2022-10-31T10:49:18.000Z</time>
      </trkpt>
      <trkpt lat="47.94845" lon="6.95877">
        <ele>681.80004882812</ele>
        <time>2022-10-31T10:49:19.000Z</time>
      </trkpt>
      <trkpt lat="47.94843" lon="6.95875">
        <ele>681.80004882812</ele>
        <time>2022-10-31T10:49:21.000Z</time>
      </trkpt>
      <trkpt lat="47.9484" lon="6.95875">
        <ele>682.19995117188</ele>
        <time>2022-10-31T10:49:25.000Z</time>
      </trkpt>
      <trkpt lat="47.9484" lon="6.95876">
        <ele>682.19995117188</ele>
        <time>2022-10-31T10:49:28.000Z</time>
      </trkpt>
      <trkpt lat="47.94837" lon="6.95876">
        <ele>682</ele>
        <time>2022-10-31T10:49:35.000Z</time>
      </trkpt>
      <trkpt lat="47.94837" lon="6.95875">
        <ele>682</ele>
        <time>2022-10-31T10:49:36.000Z</time>
      </trkpt>
      <trkpt lat="47.94834" lon="6.95868">
        <ele>682</ele>
        <time>2022-10-31T10:49:41.000Z</time>
      </trkpt>
      <trkpt lat="47.94834" lon="6.95869">
        <ele>682.19995117188</ele>
        <time>2022-10-31T10:49:48.000Z</time>
      </trkpt>
      <trkpt lat="47.94835" lon="6.95869">
        <ele>682.19995117188</ele>
        <time>2022-10-31T10:49:56.000Z</time>
      </trkpt>
      <trkpt lat="47.94835" lon="6.95869">
        <ele>682.19995117188</ele>
        <time>2022-10-31T10:49:59.000Z</time>
      </trkpt>
      <trkpt lat="47.94835" lon="6.95869">
        <ele>682.19995117188</ele>
        <time>2022-10-31T10:50:01.000Z</time>
      </trkpt>
      <trkpt lat="47.94835" lon="6.95869">
        <ele>682.19995117188</ele>
        <time>2022-10-31T10:50:05.000Z</time>
      </trkpt>
      <trkpt lat="47.94833" lon="6.95871">
        <ele>682.19995117188</ele>
        <time>2022-10-31T10:50:30.000Z</time>
      </trkpt>
      <trkpt lat="47.94833" lon="6.95872">
        <ele>682.19995117188</ele>
        <time>2022-10-31T10:50:33.000Z</time>
      </trkpt>
      <trkpt lat="47.94832" lon="6.95873">
        <ele>681.40002441406</ele>
        <time>2022-10-31T10:50:44.000Z</time>
      </trkpt>
      <trkpt lat="47.94832" lon="6.95874">
        <ele>681.19995117188</ele>
        <time>2022-10-31T10:50:46.000Z</time>
      </trkpt>
      <trkpt lat="47.94832" lon="6.95874">
        <ele>680.80004882812</ele>
        <time>2022-10-31T10:50:54.000Z</time>
      </trkpt>
      <trkpt lat="47.94832" lon="6.95874">
        <ele>680.59997558594</ele>
        <time>2022-10-31T10:50:57.000Z</time>
      </trkpt>
      <trkpt lat="47.94833" lon="6.95876">
        <ele>681.19995117188</ele>
        <time>2022-10-31T10:51:15.000Z</time>
      </trkpt>
      <trkpt lat="47.94833" lon="6.95876">
        <ele>681</ele>
        <time>2022-10-31T10:51:18.000Z</time>
      </trkpt>
      <trkpt lat="47.94832" lon="6.95876">
        <ele>681</ele>
        <time>2022-10-31T10:51:25.000Z</time>
      </trkpt>
      <trkpt lat="47.94831" lon="6.95876">
        <ele>681</ele>
        <time>2022-10-31T10:51:29.000Z</time>
      </trkpt>
      <trkpt lat="47.94829" lon="6.95874">
        <ele>680.59997558594</ele>
        <time>2022-10-31T10:51:57.000Z</time>
      </trkpt>
      <trkpt lat="47.94829" lon="6.95875">
        <ele>680.80004882812</ele>
        <time>2022-10-31T10:52:02.000Z</time>
      </trkpt>
      <trkpt lat="47.94829" lon="6.95874">
        <ele>680.80004882812</ele>
        <time>2022-10-31T10:52:20.000Z</time>
      </trkpt>
      <trkpt lat="47.94838" lon="6.9587">
        <ele>681.40002441406</ele>
        <time>2022-10-31T10:52:30.000Z</time>
      </trkpt>
      <trkpt lat="47.94843" lon="6.95871">
        <ele>681.59997558594</ele>
        <time>2022-10-31T10:52:35.000Z</time>
      </trkpt>
      <trkpt lat="47.94844" lon="6.95871">
        <ele>681.40002441406</ele>
        <time>2022-10-31T10:52:40.000Z</time>
      </trkpt>
      <trkpt lat="47.94844" lon="6.95871">
        <ele>681.19995117188</ele>
        <time>2022-10-31T10:52:41.000Z</time>
      </trkpt>
      <trkpt lat="47.94845" lon="6.9587">
        <ele>681.19995117188</ele>
        <time>2022-10-31T10:52:44.000Z</time>
      </trkpt>
      <trkpt lat="47.94847" lon="6.95868">
        <ele>680.80004882812</ele>
        <time>2022-10-31T10:52:48.000Z</time>
      </trkpt>
      <trkpt lat="47.94847" lon="6.95868">
        <ele>680.80004882812</ele>
        <time>2022-10-31T10:52:49.000Z</time>
      </trkpt>
      <trkpt lat="47.94851" lon="6.95866">
        <ele>680.19995117188</ele>
        <time>2022-10-31T10:52:55.000Z</time>
      </trkpt>
      <trkpt lat="47.94852" lon="6.95868">
        <ele>680.40002441406</ele>
        <time>2022-10-31T10:53:01.000Z</time>
      </trkpt>
      <trkpt lat="47.94853" lon="6.95863">
        <ele>680.19995117188</ele>
        <time>2022-10-31T10:53:07.000Z</time>
      </trkpt>
      <trkpt lat="47.94855" lon="6.95859">
        <ele>679.40002441406</ele>
        <time>2022-10-31T10:53:12.000Z</time>
      </trkpt>
      <trkpt lat="47.94857" lon="6.95859">
        <ele>679</ele>
        <time>2022-10-31T10:53:14.000Z</time>
      </trkpt>
      <trkpt lat="47.94865" lon="6.95859">
        <ele>679.19995117188</ele>
        <time>2022-10-31T10:53:22.000Z</time>
      </trkpt>
      <trkpt lat="47.94864" lon="6.95859">
        <ele>679.40002441406</ele>
        <time>2022-10-31T10:53:23.000Z</time>
      </trkpt>
      <trkpt lat="47.94864" lon="6.95858">
        <ele>679.40002441406</ele>
        <time>2022-10-31T10:53:25.000Z</time>
      </trkpt>
      <trkpt lat="47.94865" lon="6.95858">
        <ele>679.40002441406</ele>
        <time>2022-10-31T10:53:27.000Z</time>
      </trkpt>
      <trkpt lat="47.94867" lon="6.95859">
        <ele>679.19995117188</ele>
        <time>2022-10-31T10:53:33.000Z</time>
      </trkpt>
      <trkpt lat="47.94868" lon="6.95859">
        <ele>679.19995117188</ele>
        <time>2022-10-31T10:53:34.000Z</time>
      </trkpt>
      <trkpt lat="47.94868" lon="6.95859">
        <ele>679</ele>
        <time>2022-10-31T10:53:35.000Z</time>
      </trkpt>
      <trkpt lat="47.94869" lon="6.95859">
        <ele>679</ele>
        <time>2022-10-31T10:53:36.000Z</time>
      </trkpt>
      <trkpt lat="47.94871" lon="6.95861">
        <ele>678.59997558594</ele>
        <time>2022-10-31T10:53:40.000Z</time>
      </trkpt>
      <trkpt lat="47.94874" lon="6.95863">
        <ele>678.59997558594</ele>
        <time>2022-10-31T10:53:43.000Z</time>
      </trkpt>
      <trkpt lat="47.94876" lon="6.9586">
        <ele>678.59997558594</ele>
        <time>2022-10-31T10:53:46.000Z</time>
      </trkpt>
      <trkpt lat="47.94877" lon="6.95858">
        <ele>678.59997558594</ele>
        <time>2022-10-31T10:53:48.000Z</time>
      </trkpt>
      <trkpt lat="47.94881" lon="6.95858">
        <ele>678.80004882812</ele>
        <time>2022-10-31T10:53:57.000Z</time>
      </trkpt>
      <trkpt lat="47.94881" lon="6.95858">
        <ele>678.80004882812</ele>
        <time>2022-10-31T10:54:05.000Z</time>
      </trkpt>
      <trkpt lat="47.94881" lon="6.95859">
        <ele>678.80004882812</ele>
        <time>2022-10-31T10:54:06.000Z</time>
      </trkpt>
      <trkpt lat="47.9488" lon="6.95861">
        <ele>678.80004882812</ele>
        <time>2022-10-31T10:54:08.000Z</time>
      </trkpt>
      <trkpt lat="47.94881" lon="6.95867">
        <ele>679</ele>
        <time>2022-10-31T10:54:12.000Z</time>
      </trkpt>
      <trkpt lat="47.94882" lon="6.95868">
        <ele>679</ele>
        <time>2022-10-31T10:54:13.000Z</time>
      </trkpt>
      <trkpt lat="47.94883" lon="6.95869">
        <ele>679.19995117188</ele>
        <time>2022-10-31T10:54:15.000Z</time>
      </trkpt>
      <trkpt lat="47.94886" lon="6.95868">
        <ele>679.40002441406</ele>
        <time>2022-10-31T10:54:21.000Z</time>
      </trkpt>
      <trkpt lat="47.94886" lon="6.95868">
        <ele>679.40002441406</ele>
        <time>2022-10-31T10:54:22.000Z</time>
      </trkpt>
      <trkpt lat="47.9489" lon="6.95866">
        <ele>679.59997558594</ele>
        <time>2022-10-31T10:54:27.000Z</time>
      </trkpt>
      <trkpt lat="47.94895" lon="6.95867">
        <ele>679.59997558594</ele>
        <time>2022-10-31T10:54:31.000Z</time>
      </trkpt>
      <trkpt lat="47.94903" lon="6.95863">
        <ele>680.19995117188</ele>
        <time>2022-10-31T10:54:41.000Z</time>
      </trkpt>
      <trkpt lat="47.94909" lon="6.9586">
        <ele>680.40002441406</ele>
        <time>2022-10-31T10:54:50.000Z</time>
      </trkpt>
      <trkpt lat="47.94911" lon="6.95859">
        <ele>680.40002441406</ele>
        <time>2022-10-31T10:54:52.000Z</time>
      </trkpt>
      <trkpt lat="47.94911" lon="6.95855">
        <ele>680.59997558594</ele>
        <time>2022-10-31T10:54:59.000Z</time>
      </trkpt>
      <trkpt lat="47.94914" lon="6.95857">
        <ele>680.80004882812</ele>
        <time>2022-10-31T10:55:03.000Z</time>
      </trkpt>
      <trkpt lat="47.94914" lon="6.95858">
        <ele>681.19995117188</ele>
        <time>2022-10-31T10:55:06.000Z</time>
      </trkpt>
      <trkpt lat="47.94915" lon="6.9586">
        <ele>681.59997558594</ele>
        <time>2022-10-31T10:55:14.000Z</time>
      </trkpt>
      <trkpt lat="47.94916" lon="6.95864">
        <ele>681.59997558594</ele>
        <time>2022-10-31T10:55:17.000Z</time>
      </trkpt>
      <trkpt lat="47.94917" lon="6.9587">
        <ele>681.80004882812</ele>
        <time>2022-10-31T10:55:24.000Z</time>
      </trkpt>
      <trkpt lat="47.94916" lon="6.9587">
        <ele>681.59997558594</ele>
        <time>2022-10-31T10:55:35.000Z</time>
      </trkpt>
      <trkpt lat="47.94918" lon="6.95868">
        <ele>681.40002441406</ele>
        <time>2022-10-31T10:55:42.000Z</time>
      </trkpt>
      <trkpt lat="47.94919" lon="6.95868">
        <ele>681.40002441406</ele>
        <time>2022-10-31T10:55:43.000Z</time>
      </trkpt>
      <trkpt lat="47.94925" lon="6.95868">
        <ele>682</ele>
        <time>2022-10-31T10:55:51.000Z</time>
      </trkpt>
      <trkpt lat="47.94926" lon="6.95868">
        <ele>682.19995117188</ele>
        <time>2022-10-31T10:55:57.000Z</time>
      </trkpt>
      <trkpt lat="47.94926" lon="6.95871">
        <ele>682.40002441406</ele>
        <time>2022-10-31T10:56:08.000Z</time>
      </trkpt>
      <trkpt lat="47.94931" lon="6.95867">
        <ele>681.80004882812</ele>
        <time>2022-10-31T10:56:30.000Z</time>
      </trkpt>
      <trkpt lat="47.94934" lon="6.95866">
        <ele>681.59997558594</ele>
        <time>2022-10-31T10:56:32.000Z</time>
      </trkpt>
      <trkpt lat="47.9494" lon="6.95866">
        <ele>681.40002441406</ele>
        <time>2022-10-31T10:56:36.000Z</time>
      </trkpt>
      <trkpt lat="47.94941" lon="6.95866">
        <ele>681.40002441406</ele>
        <time>2022-10-31T10:56:37.000Z</time>
      </trkpt>
      <trkpt lat="47.94942" lon="6.95866">
        <ele>681.40002441406</ele>
        <time>2022-10-31T10:56:38.000Z</time>
      </trkpt>
      <trkpt lat="47.94943" lon="6.95864">
        <ele>681.80004882812</ele>
        <time>2022-10-31T10:56:41.000Z</time>
      </trkpt>
      <trkpt lat="47.94945" lon="6.95861">
        <ele>682.19995117188</ele>
        <time>2022-10-31T10:56:49.000Z</time>
      </trkpt>
      <trkpt lat="47.94946" lon="6.95861">
        <ele>682.59997558594</ele>
        <time>2022-10-31T10:56:59.000Z</time>
      </trkpt>
      <trkpt lat="47.94945" lon="6.95862">
        <ele>682.19995117188</ele>
        <time>2022-10-31T10:57:28.000Z</time>
      </trkpt>
      <trkpt lat="47.94941" lon="6.95866">
        <ele>681.59997558594</ele>
        <time>2022-10-31T10:57:40.000Z</time>
      </trkpt>
      <trkpt lat="47.94938" lon="6.95868">
        <ele>681.59997558594</ele>
        <time>2022-10-31T10:57:42.000Z</time>
      </trkpt>
      <trkpt lat="47.94935" lon="6.9587">
        <ele>681.59997558594</ele>
        <time>2022-10-31T10:57:44.000Z</time>
      </trkpt>
      <trkpt lat="47.94931" lon="6.95874">
        <ele>680.19995117188</ele>
        <time>2022-10-31T10:57:49.000Z</time>
      </trkpt>
      <trkpt lat="47.94929" lon="6.95879">
        <ele>680.19995117188</ele>
        <time>2022-10-31T10:57:55.000Z</time>
      </trkpt>
      <trkpt lat="47.94928" lon="6.9588">
        <ele>680.80004882812</ele>
        <time>2022-10-31T10:58:01.000Z</time>
      </trkpt>
      <trkpt lat="47.94927" lon="6.95878">
        <ele>680.59997558594</ele>
        <time>2022-10-31T10:58:07.000Z</time>
      </trkpt>
      <trkpt lat="47.94927" lon="6.95877">
        <ele>680.59997558594</ele>
        <time>2022-10-31T10:58:09.000Z</time>
      </trkpt>
      <trkpt lat="47.94928" lon="6.95876">
        <ele>680.59997558594</ele>
        <time>2022-10-31T10:58:11.000Z</time>
      </trkpt>
      <trkpt lat="47.94927" lon="6.95876">
        <ele>680.80004882812</ele>
        <time>2022-10-31T10:58:15.000Z</time>
      </trkpt>
      <trkpt lat="47.94921" lon="6.95874">
        <ele>680.19995117188</ele>
        <time>2022-10-31T10:58:21.000Z</time>
      </trkpt>
      <trkpt lat="47.94913" lon="6.95874">
        <ele>679.80004882812</ele>
        <time>2022-10-31T10:58:28.000Z</time>
      </trkpt>
      <trkpt lat="47.94912" lon="6.95872">
        <ele>679.40002441406</ele>
        <time>2022-10-31T10:58:33.000Z</time>
      </trkpt>
      <trkpt lat="47.94912" lon="6.95872">
        <ele>679.40002441406</ele>
        <time>2022-10-31T10:58:34.000Z</time>
      </trkpt>
      <trkpt lat="47.94912" lon="6.95872">
        <ele>679.19995117188</ele>
        <time>2022-10-31T10:58:37.000Z</time>
      </trkpt>
      <trkpt lat="47.94912" lon="6.95873">
        <ele>679.19995117188</ele>
        <time>2022-10-31T10:58:38.000Z</time>
      </trkpt>
      <trkpt lat="47.94912" lon="6.95873">
        <ele>679.19995117188</ele>
        <time>2022-10-31T10:58:39.000Z</time>
      </trkpt>
      <trkpt lat="47.94911" lon="6.95871">
        <ele>679.19995117188</ele>
        <time>2022-10-31T10:58:51.000Z</time>
      </trkpt>
      <trkpt lat="47.94912" lon="6.95869">
        <ele>679</ele>
        <time>2022-10-31T10:58:54.000Z</time>
      </trkpt>
      <trkpt lat="47.94913" lon="6.95866">
        <ele>678.80004882812</ele>
        <time>2022-10-31T10:58:56.000Z</time>
      </trkpt>
      <trkpt lat="47.94915" lon="6.95865">
        <ele>678.40002441406</ele>
        <time>2022-10-31T10:59:01.000Z</time>
      </trkpt>
      <trkpt lat="47.94914" lon="6.95865">
        <ele>678.19995117188</ele>
        <time>2022-10-31T10:59:06.000Z</time>
      </trkpt>
      <trkpt lat="47.94914" lon="6.95865">
        <ele>678.19995117188</ele>
        <time>2022-10-31T10:59:18.000Z</time>
      </trkpt>
      <trkpt lat="47.94914" lon="6.95865">
        <ele>678</ele>
        <time>2022-10-31T10:59:19.000Z</time>
      </trkpt>
      <trkpt lat="47.94915" lon="6.95864">
        <ele>677</ele>
        <time>2022-10-31T10:59:26.000Z</time>
      </trkpt>
      <trkpt lat="47.94916" lon="6.95862">
        <ele>676.19995117188</ele>
        <time>2022-10-31T10:59:29.000Z</time>
      </trkpt>
      <trkpt lat="47.9492" lon="6.9586">
        <ele>676</ele>
        <time>2022-10-31T10:59:32.000Z</time>
      </trkpt>
      <trkpt lat="47.94926" lon="6.95857">
        <ele>675.59997558594</ele>
        <time>2022-10-31T10:59:38.000Z</time>
      </trkpt>
      <trkpt lat="47.94925" lon="6.95857">
        <ele>675.59997558594</ele>
        <time>2022-10-31T10:59:43.000Z</time>
      </trkpt>
      <trkpt lat="47.94925" lon="6.95856">
        <ele>675.59997558594</ele>
        <time>2022-10-31T10:59:44.000Z</time>
      </trkpt>
      <trkpt lat="47.94925" lon="6.95855">
        <ele>674.80004882812</ele>
        <time>2022-10-31T10:59:48.000Z</time>
      </trkpt>
      <trkpt lat="47.94928" lon="6.95854">
        <ele>676</ele>
        <time>2022-10-31T10:59:59.000Z</time>
      </trkpt>
      <trkpt lat="47.94932" lon="6.95855">
        <ele>676.19995117188</ele>
        <time>2022-10-31T11:00:01.000Z</time>
      </trkpt>
      <trkpt lat="47.94933" lon="6.95856">
        <ele>676.40002441406</ele>
        <time>2022-10-31T11:00:02.000Z</time>
      </trkpt>
      <trkpt lat="47.94935" lon="6.95855">
        <ele>676.59997558594</ele>
        <time>2022-10-31T11:00:03.000Z</time>
      </trkpt>
      <trkpt lat="47.94941" lon="6.95855">
        <ele>676.80004882812</ele>
        <time>2022-10-31T11:00:08.000Z</time>
      </trkpt>
      <trkpt lat="47.94943" lon="6.95855">
        <ele>676.80004882812</ele>
        <time>2022-10-31T11:00:09.000Z</time>
      </trkpt>
      <trkpt lat="47.94947" lon="6.95855">
        <ele>677.19995117188</ele>
        <time>2022-10-31T11:00:16.000Z</time>
      </trkpt>
      <trkpt lat="47.94947" lon="6.95855">
        <ele>677.19995117188</ele>
        <time>2022-10-31T11:00:17.000Z</time>
      </trkpt>
      <trkpt lat="47.94944" lon="6.95857">
        <ele>677.40002441406</ele>
        <time>2022-10-31T11:00:21.000Z</time>
      </trkpt>
      <trkpt lat="47.94945" lon="6.95856">
        <ele>677.59997558594</ele>
        <time>2022-10-31T11:00:24.000Z</time>
      </trkpt>
      <trkpt lat="47.94947" lon="6.95854">
        <ele>677.59997558594</ele>
        <time>2022-10-31T11:00:28.000Z</time>
      </trkpt>
      <trkpt lat="47.94947" lon="6.95854">
        <ele>677.80004882812</ele>
        <time>2022-10-31T11:00:34.000Z</time>
      </trkpt>
      <trkpt lat="47.94947" lon="6.95853">
        <ele>677.80004882812</ele>
        <time>2022-10-31T11:00:35.000Z</time>
      </trkpt>
      <trkpt lat="47.94946" lon="6.95853">
        <ele>677.59997558594</ele>
        <time>2022-10-31T11:00:43.000Z</time>
      </trkpt>
      <trkpt lat="47.94945" lon="6.95854">
        <ele>677.59997558594</ele>
        <time>2022-10-31T11:00:53.000Z</time>
      </trkpt>
      <trkpt lat="47.94945" lon="6.95856">
        <ele>677.59997558594</ele>
        <time>2022-10-31T11:01:05.000Z</time>
      </trkpt>
      <trkpt lat="47.94944" lon="6.95857">
        <ele>677.59997558594</ele>
        <time>2022-10-31T11:01:07.000Z</time>
      </trkpt>
      <trkpt lat="47.94944" lon="6.95857">
        <ele>677.80004882812</ele>
        <time>2022-10-31T11:01:12.000Z</time>
      </trkpt>
      <trkpt lat="47.94944" lon="6.95857">
        <ele>677.80004882812</ele>
        <time>2022-10-31T11:01:22.000Z</time>
      </trkpt>
      <trkpt lat="47.94944" lon="6.95857">
        <ele>677.80004882812</ele>
        <time>2022-10-31T11:01:29.000Z</time>
      </trkpt>
      <trkpt lat="47.94945" lon="6.95856">
        <ele>678</ele>
        <time>2022-10-31T11:01:39.000Z</time>
      </trkpt>
      <trkpt lat="47.94946" lon="6.95856">
        <ele>678</ele>
        <time>2022-10-31T11:01:45.000Z</time>
      </trkpt>
      <trkpt lat="47.94946" lon="6.95856">
        <ele>678</ele>
        <time>2022-10-31T11:01:59.000Z</time>
      </trkpt>
      <trkpt lat="47.94946" lon="6.95857">
        <ele>678</ele>
        <time>2022-10-31T11:02:09.000Z</time>
      </trkpt>
      <trkpt lat="47.94946" lon="6.95857">
        <ele>678.19995117188</ele>
        <time>2022-10-31T11:02:11.000Z</time>
      </trkpt>
      <trkpt lat="47.94943" lon="6.95852">
        <ele>678</ele>
        <time>2022-10-31T11:02:50.000Z</time>
      </trkpt>
      <trkpt lat="47.94943" lon="6.95853">
        <ele>678.19995117188</ele>
        <time>2022-10-31T11:02:58.000Z</time>
      </trkpt>
      <trkpt lat="47.94945" lon="6.95859">
        <ele>677.59997558594</ele>
        <time>2022-10-31T11:03:47.000Z</time>
      </trkpt>
      <trkpt lat="47.94944" lon="6.95859">
        <ele>677.40002441406</ele>
        <time>2022-10-31T11:03:54.000Z</time>
      </trkpt>
      <trkpt lat="47.9494" lon="6.95859">
        <ele>677.19995117188</ele>
        <time>2022-10-31T11:03:56.000Z</time>
      </trkpt>
      <trkpt lat="47.94934" lon="6.95859">
        <ele>676.80004882812</ele>
        <time>2022-10-31T11:03:59.000Z</time>
      </trkpt>
      <trkpt lat="47.94923" lon="6.95853">
        <ele>677.59997558594</ele>
        <time>2022-10-31T11:04:06.000Z</time>
      </trkpt>
      <trkpt lat="47.94923" lon="6.95853">
        <ele>677.59997558594</ele>
        <time>2022-10-31T11:04:09.000Z</time>
      </trkpt>
      <trkpt lat="47.94922" lon="6.95854">
        <ele>677.59997558594</ele>
        <time>2022-10-31T11:04:12.000Z</time>
      </trkpt>
      <trkpt lat="47.94919" lon="6.95854">
        <ele>677.80004882812</ele>
        <time>2022-10-31T11:04:18.000Z</time>
      </trkpt>
      <trkpt lat="47.94919" lon="6.95854">
        <ele>678</ele>
        <time>2022-10-31T11:04:19.000Z</time>
      </trkpt>
      <trkpt lat="47.94919" lon="6.95856">
        <ele>678.19995117188</ele>
        <time>2022-10-31T11:04:21.000Z</time>
      </trkpt>
      <trkpt lat="47.94918" lon="6.95857">
        <ele>679.40002441406</ele>
        <time>2022-10-31T11:04:25.000Z</time>
      </trkpt>
      <trkpt lat="47.94917" lon="6.95857">
        <ele>680</ele>
        <time>2022-10-31T11:04:27.000Z</time>
      </trkpt>
      <trkpt lat="47.94916" lon="6.95858">
        <ele>680.40002441406</ele>
        <time>2022-10-31T11:04:31.000Z</time>
      </trkpt>
      <trkpt lat="47.94916" lon="6.95859">
        <ele>680.59997558594</ele>
        <time>2022-10-31T11:04:33.000Z</time>
      </trkpt>
      <trkpt lat="47.94916" lon="6.95859">
        <ele>681.40002441406</ele>
        <time>2022-10-31T11:04:50.000Z</time>
      </trkpt>
      <trkpt lat="47.9491" lon="6.95865">
        <ele>681.40002441406</ele>
        <time>2022-10-31T11:05:00.000Z</time>
      </trkpt>
      <trkpt lat="47.94907" lon="6.95867">
        <ele>681.59997558594</ele>
        <time>2022-10-31T11:05:02.000Z</time>
      </trkpt>
      <trkpt lat="47.94895" lon="6.95877">
        <ele>681.40002441406</ele>
        <time>2022-10-31T11:05:12.000Z</time>
      </trkpt>
      <trkpt lat="47.94888" lon="6.95879">
        <ele>681</ele>
        <time>2022-10-31T11:05:19.000Z</time>
      </trkpt>
      <trkpt lat="47.94884" lon="6.95882">
        <ele>680.80004882812</ele>
        <time>2022-10-31T11:05:22.000Z</time>
      </trkpt>
      <trkpt lat="47.9488" lon="6.95885">
        <ele>680.80004882812</ele>
        <time>2022-10-31T11:05:25.000Z</time>
      </trkpt>
      <trkpt lat="47.94878" lon="6.9588">
        <ele>681.59997558594</ele>
        <time>2022-10-31T11:05:30.000Z</time>
      </trkpt>
      <trkpt lat="47.9488" lon="6.95869">
        <ele>681.19995117188</ele>
        <time>2022-10-31T11:05:34.000Z</time>
      </trkpt>
      <trkpt lat="47.94881" lon="6.95866">
        <ele>681.19995117188</ele>
        <time>2022-10-31T11:05:36.000Z</time>
      </trkpt>
      <trkpt lat="47.94882" lon="6.95865">
        <ele>681</ele>
        <time>2022-10-31T11:05:37.000Z</time>
      </trkpt>
      <trkpt lat="47.94886" lon="6.95865">
        <ele>680.80004882812</ele>
        <time>2022-10-31T11:05:44.000Z</time>
      </trkpt>
      <trkpt lat="47.94887" lon="6.95865">
        <ele>680.40002441406</ele>
        <time>2022-10-31T11:05:46.000Z</time>
      </trkpt>
      <trkpt lat="47.9489" lon="6.95862">
        <ele>679.19995117188</ele>
        <time>2022-10-31T11:05:52.000Z</time>
      </trkpt>
      <trkpt lat="47.94891" lon="6.95861">
        <ele>678.80004882812</ele>
        <time>2022-10-31T11:05:54.000Z</time>
      </trkpt>
      <trkpt lat="47.94892" lon="6.9586">
        <ele>678.19995117188</ele>
        <time>2022-10-31T11:05:58.000Z</time>
      </trkpt>
      <trkpt lat="47.94893" lon="6.95858">
        <ele>677.80004882812</ele>
        <time>2022-10-31T11:06:01.000Z</time>
      </trkpt>
      <trkpt lat="47.94892" lon="6.95858">
        <ele>677.40002441406</ele>
        <time>2022-10-31T11:06:04.000Z</time>
      </trkpt>
      <trkpt lat="47.94892" lon="6.95858">
        <ele>677</ele>
        <time>2022-10-31T11:06:06.000Z</time>
      </trkpt>
      <trkpt lat="47.94891" lon="6.95855">
        <ele>676.40002441406</ele>
        <time>2022-10-31T11:06:11.000Z</time>
      </trkpt>
      <trkpt lat="47.94889" lon="6.95856">
        <ele>676</ele>
        <time>2022-10-31T11:06:14.000Z</time>
      </trkpt>
      <trkpt lat="47.94887" lon="6.95856">
        <ele>675.80004882812</ele>
        <time>2022-10-31T11:06:16.000Z</time>
      </trkpt>
      <trkpt lat="47.94886" lon="6.95853">
        <ele>675</ele>
        <time>2022-10-31T11:06:20.000Z</time>
      </trkpt>
      <trkpt lat="47.94885" lon="6.95854">
        <ele>674.80004882812</ele>
        <time>2022-10-31T11:06:22.000Z</time>
      </trkpt>
      <trkpt lat="47.94883" lon="6.95849">
        <ele>674</ele>
        <time>2022-10-31T11:06:28.000Z</time>
      </trkpt>
      <trkpt lat="47.94883" lon="6.95848">
        <ele>673.80004882812</ele>
        <time>2022-10-31T11:06:29.000Z</time>
      </trkpt>
      <trkpt lat="47.94883" lon="6.95848">
        <ele>673.40002441406</ele>
        <time>2022-10-31T11:06:33.000Z</time>
      </trkpt>
      <trkpt lat="47.94883" lon="6.95848">
        <ele>673.40002441406</ele>
        <time>2022-10-31T11:06:39.000Z</time>
      </trkpt>
      <trkpt lat="47.94884" lon="6.95847">
        <ele>673.59997558594</ele>
        <time>2022-10-31T11:06:41.000Z</time>
      </trkpt>
      <trkpt lat="47.94885" lon="6.95846">
        <ele>673.59997558594</ele>
        <time>2022-10-31T11:06:46.000Z</time>
      </trkpt>
      <trkpt lat="47.94885" lon="6.95846">
        <ele>673.59997558594</ele>
        <time>2022-10-31T11:06:47.000Z</time>
      </trkpt>
      <trkpt lat="47.94887" lon="6.95846">
        <ele>672.80004882812</ele>
        <time>2022-10-31T11:06:54.000Z</time>
      </trkpt>
      <trkpt lat="47.94888" lon="6.95846">
        <ele>672.59997558594</ele>
        <time>2022-10-31T11:06:55.000Z</time>
      </trkpt>
      <trkpt lat="47.94888" lon="6.95845">
        <ele>672.40002441406</ele>
        <time>2022-10-31T11:06:57.000Z</time>
      </trkpt>
      <trkpt lat="47.94889" lon="6.95841">
        <ele>671.80004882812</ele>
        <time>2022-10-31T11:07:01.000Z</time>
      </trkpt>
      <trkpt lat="47.94889" lon="6.95839">
        <ele>671.40002441406</ele>
        <time>2022-10-31T11:07:03.000Z</time>
      </trkpt>
      <trkpt lat="47.9489" lon="6.95833">
        <ele>670.59997558594</ele>
        <time>2022-10-31T11:07:09.000Z</time>
      </trkpt>
      <trkpt lat="47.94891" lon="6.95832">
        <ele>670.19995117188</ele>
        <time>2022-10-31T11:07:11.000Z</time>
      </trkpt>
      <trkpt lat="47.94894" lon="6.9583">
        <ele>669.59997558594</ele>
        <time>2022-10-31T11:07:15.000Z</time>
      </trkpt>
      <trkpt lat="47.94897" lon="6.95829">
        <ele>669.40002441406</ele>
        <time>2022-10-31T11:07:18.000Z</time>
      </trkpt>
      <trkpt lat="47.94898" lon="6.95829">
        <ele>669.40002441406</ele>
        <time>2022-10-31T11:07:19.000Z</time>
      </trkpt>
      <trkpt lat="47.94901" lon="6.95829">
        <ele>668.80004882812</ele>
        <time>2022-10-31T11:07:23.000Z</time>
      </trkpt>
      <trkpt lat="47.94901" lon="6.9583">
        <ele>668.59997558594</ele>
        <time>2022-10-31T11:07:25.000Z</time>
      </trkpt>
      <trkpt lat="47.94901" lon="6.95831">
        <ele>668.59997558594</ele>
        <time>2022-10-31T11:07:26.000Z</time>
      </trkpt>
      <trkpt lat="47.94901" lon="6.95832">
        <ele>668.40002441406</ele>
        <time>2022-10-31T11:07:36.000Z</time>
      </trkpt>
      <trkpt lat="47.94905" lon="6.95832">
        <ele>668</ele>
        <time>2022-10-31T11:07:43.000Z</time>
      </trkpt>
      <trkpt lat="47.94904" lon="6.95833">
        <ele>667.80004882812</ele>
        <time>2022-10-31T11:07:48.000Z</time>
      </trkpt>
      <trkpt lat="47.94904" lon="6.95832">
        <ele>667.80004882812</ele>
        <time>2022-10-31T11:07:49.000Z</time>
      </trkpt>
      <trkpt lat="47.94901" lon="6.95829">
        <ele>667.40002441406</ele>
        <time>2022-10-31T11:07:54.000Z</time>
      </trkpt>
      <trkpt lat="47.949" lon="6.95828">
        <ele>667</ele>
        <time>2022-10-31T11:07:56.000Z</time>
      </trkpt>
      <trkpt lat="47.94902" lon="6.95827">
        <ele>666.80004882812</ele>
        <time>2022-10-31T11:08:01.000Z</time>
      </trkpt>
      <trkpt lat="47.94901" lon="6.95827">
        <ele>665.19995117188</ele>
        <time>2022-10-31T11:08:15.000Z</time>
      </trkpt>
      <trkpt lat="47.94898" lon="6.95825">
        <ele>664</ele>
        <time>2022-10-31T11:08:21.000Z</time>
      </trkpt>
      <trkpt lat="47.94892" lon="6.95825">
        <ele>663.59997558594</ele>
        <time>2022-10-31T11:08:25.000Z</time>
      </trkpt>
      <trkpt lat="47.94886" lon="6.95825">
        <ele>663</ele>
        <time>2022-10-31T11:08:30.000Z</time>
      </trkpt>
      <trkpt lat="47.94883" lon="6.95825">
        <ele>662.19995117188</ele>
        <time>2022-10-31T11:08:34.000Z</time>
      </trkpt>
      <trkpt lat="47.94881" lon="6.95824">
        <ele>661.80004882812</ele>
        <time>2022-10-31T11:08:37.000Z</time>
      </trkpt>
      <trkpt lat="47.94881" lon="6.95823">
        <ele>661.59997558594</ele>
        <time>2022-10-31T11:08:38.000Z</time>
      </trkpt>
      <trkpt lat="47.9488" lon="6.95823">
        <ele>661.59997558594</ele>
        <time>2022-10-31T11:08:39.000Z</time>
      </trkpt>
      <trkpt lat="47.94879" lon="6.95823">
        <ele>661.40002441406</ele>
        <time>2022-10-31T11:08:40.000Z</time>
      </trkpt>
      <trkpt lat="47.94879" lon="6.95822">
        <ele>661.19995117188</ele>
        <time>2022-10-31T11:08:41.000Z</time>
      </trkpt>
      <trkpt lat="47.94879" lon="6.95821">
        <ele>660.80004882812</ele>
        <time>2022-10-31T11:08:45.000Z</time>
      </trkpt>
      <trkpt lat="47.94876" lon="6.95821">
        <ele>660.59997558594</ele>
        <time>2022-10-31T11:08:48.000Z</time>
      </trkpt>
      <trkpt lat="47.94873" lon="6.95819">
        <ele>659.80004882812</ele>
        <time>2022-10-31T11:08:56.000Z</time>
      </trkpt>
      <trkpt lat="47.94872" lon="6.95819">
        <ele>659.59997558594</ele>
        <time>2022-10-31T11:08:57.000Z</time>
      </trkpt>
      <trkpt lat="47.94871" lon="6.95819">
        <ele>659.40002441406</ele>
        <time>2022-10-31T11:09:00.000Z</time>
      </trkpt>
      <trkpt lat="47.94865" lon="6.9582">
        <ele>658.59997558594</ele>
        <time>2022-10-31T11:09:07.000Z</time>
      </trkpt>
      <trkpt lat="47.94862" lon="6.95821">
        <ele>658.19995117188</ele>
        <time>2022-10-31T11:09:11.000Z</time>
      </trkpt>
      <trkpt lat="47.9486" lon="6.95821">
        <ele>657.59997558594</ele>
        <time>2022-10-31T11:09:16.000Z</time>
      </trkpt>
      <trkpt lat="47.94854" lon="6.95821">
        <ele>657.19995117188</ele>
        <time>2022-10-31T11:09:23.000Z</time>
      </trkpt>
      <trkpt lat="47.94853" lon="6.9582">
        <ele>656.80004882812</ele>
        <time>2022-10-31T11:09:25.000Z</time>
      </trkpt>
      <trkpt lat="47.94849" lon="6.9582">
        <ele>656.59997558594</ele>
        <time>2022-10-31T11:09:30.000Z</time>
      </trkpt>
      <trkpt lat="47.94845" lon="6.95821">
        <ele>656</ele>
        <time>2022-10-31T11:09:36.000Z</time>
      </trkpt>
      <trkpt lat="47.94843" lon="6.9582">
        <ele>655.40002441406</ele>
        <time>2022-10-31T11:09:38.000Z</time>
      </trkpt>
      <trkpt lat="47.9484" lon="6.95819">
        <ele>654.59997558594</ele>
        <time>2022-10-31T11:09:42.000Z</time>
      </trkpt>
      <trkpt lat="47.94839" lon="6.95818">
        <ele>654.40002441406</ele>
        <time>2022-10-31T11:09:44.000Z</time>
      </trkpt>
      <trkpt lat="47.94837" lon="6.95817">
        <ele>653.59997558594</ele>
        <time>2022-10-31T11:09:48.000Z</time>
      </trkpt>
      <trkpt lat="47.94836" lon="6.95817">
        <ele>653.19995117188</ele>
        <time>2022-10-31T11:09:50.000Z</time>
      </trkpt>
      <trkpt lat="47.94832" lon="6.95816">
        <ele>652.40002441406</ele>
        <time>2022-10-31T11:09:56.000Z</time>
      </trkpt>
      <trkpt lat="47.94831" lon="6.95816">
        <ele>652.19995117188</ele>
        <time>2022-10-31T11:09:57.000Z</time>
      </trkpt>
      <trkpt lat="47.94829" lon="6.95813">
        <ele>651.40002441406</ele>
        <time>2022-10-31T11:10:03.000Z</time>
      </trkpt>
      <trkpt lat="47.94828" lon="6.95811">
        <ele>651.19995117188</ele>
        <time>2022-10-31T11:10:09.000Z</time>
      </trkpt>
      <trkpt lat="47.94827" lon="6.95813">
        <ele>651.19995117188</ele>
        <time>2022-10-31T11:10:12.000Z</time>
      </trkpt>
      <trkpt lat="47.94826" lon="6.95814">
        <ele>651.19995117188</ele>
        <time>2022-10-31T11:10:13.000Z</time>
      </trkpt>
      <trkpt lat="47.94826" lon="6.95814">
        <ele>651.19995117188</ele>
        <time>2022-10-31T11:10:14.000Z</time>
      </trkpt>
      <trkpt lat="47.94825" lon="6.95815">
        <ele>651</ele>
        <time>2022-10-31T11:10:16.000Z</time>
      </trkpt>
      <trkpt lat="47.94822" lon="6.95813">
        <ele>650.19995117188</ele>
        <time>2022-10-31T11:10:22.000Z</time>
      </trkpt>
      <trkpt lat="47.94822" lon="6.95813">
        <ele>650</ele>
        <time>2022-10-31T11:10:23.000Z</time>
      </trkpt>
      <trkpt lat="47.94821" lon="6.95811">
        <ele>649.80004882812</ele>
        <time>2022-10-31T11:10:24.000Z</time>
      </trkpt>
      <trkpt lat="47.94819" lon="6.95806">
        <ele>649.59997558594</ele>
        <time>2022-10-31T11:10:29.000Z</time>
      </trkpt>
      <trkpt lat="47.9482" lon="6.95801">
        <ele>649.80004882812</ele>
        <time>2022-10-31T11:10:34.000Z</time>
      </trkpt>
      <trkpt lat="47.94821" lon="6.95801">
        <ele>649.59997558594</ele>
        <time>2022-10-31T11:10:41.000Z</time>
      </trkpt>
      <trkpt lat="47.94822" lon="6.95801">
        <ele>649.59997558594</ele>
        <time>2022-10-31T11:10:43.000Z</time>
      </trkpt>
      <trkpt lat="47.94822" lon="6.95799">
        <ele>649.59997558594</ele>
        <time>2022-10-31T11:10:47.000Z</time>
      </trkpt>
      <trkpt lat="47.94821" lon="6.95798">
        <ele>649.80004882812</ele>
        <time>2022-10-31T11:10:49.000Z</time>
      </trkpt>
      <trkpt lat="47.94821" lon="6.95794">
        <ele>649.19995117188</ele>
        <time>2022-10-31T11:10:54.000Z</time>
      </trkpt>
      <trkpt lat="47.94823" lon="6.95794">
        <ele>649</ele>
        <time>2022-10-31T11:10:57.000Z</time>
      </trkpt>
      <trkpt lat="47.94826" lon="6.95793">
        <ele>648.80004882812</ele>
        <time>2022-10-31T11:11:01.000Z</time>
      </trkpt>
      <trkpt lat="47.94828" lon="6.95792">
        <ele>648.80004882812</ele>
        <time>2022-10-31T11:11:06.000Z</time>
      </trkpt>
      <trkpt lat="47.94827" lon="6.95792">
        <ele>648.80004882812</ele>
        <time>2022-10-31T11:11:08.000Z</time>
      </trkpt>
      <trkpt lat="47.94828" lon="6.95793">
        <ele>648.59997558594</ele>
        <time>2022-10-31T11:11:13.000Z</time>
      </trkpt>
      <trkpt lat="47.94826" lon="6.95793">
        <ele>648.59997558594</ele>
        <time>2022-10-31T11:11:15.000Z</time>
      </trkpt>
      <trkpt lat="47.94825" lon="6.95792">
        <ele>648.59997558594</ele>
        <time>2022-10-31T11:11:18.000Z</time>
      </trkpt>
      <trkpt lat="47.94824" lon="6.9579">
        <ele>648</ele>
        <time>2022-10-31T11:11:23.000Z</time>
      </trkpt>
      <trkpt lat="47.94825" lon="6.95789">
        <ele>647.80004882812</ele>
        <time>2022-10-31T11:11:25.000Z</time>
      </trkpt>
      <trkpt lat="47.94826" lon="6.95785">
        <ele>647.19995117188</ele>
        <time>2022-10-31T11:11:30.000Z</time>
      </trkpt>
      <trkpt lat="47.94826" lon="6.95783">
        <ele>647</ele>
        <time>2022-10-31T11:11:32.000Z</time>
      </trkpt>
      <trkpt lat="47.94826" lon="6.95782">
        <ele>646.59997558594</ele>
        <time>2022-10-31T11:11:33.000Z</time>
      </trkpt>
      <trkpt lat="47.94826" lon="6.95779">
        <ele>646</ele>
        <time>2022-10-31T11:11:39.000Z</time>
      </trkpt>
      <trkpt lat="47.94827" lon="6.95779">
        <ele>645.59997558594</ele>
        <time>2022-10-31T11:11:42.000Z</time>
      </trkpt>
      <trkpt lat="47.94829" lon="6.9578">
        <ele>645.40002441406</ele>
        <time>2022-10-31T11:11:45.000Z</time>
      </trkpt>
      <trkpt lat="47.94831" lon="6.95779">
        <ele>644.59997558594</ele>
        <time>2022-10-31T11:11:51.000Z</time>
      </trkpt>
      <trkpt lat="47.94832" lon="6.95778">
        <ele>643.80004882812</ele>
        <time>2022-10-31T11:11:58.000Z</time>
      </trkpt>
      <trkpt lat="47.94833" lon="6.95778">
        <ele>643.40002441406</ele>
        <time>2022-10-31T11:12:00.000Z</time>
      </trkpt>
      <trkpt lat="47.94833" lon="6.95778">
        <ele>643.19995117188</ele>
        <time>2022-10-31T11:12:04.000Z</time>
      </trkpt>
      <trkpt lat="47.94835" lon="6.95779">
        <ele>642.40002441406</ele>
        <time>2022-10-31T11:12:18.000Z</time>
      </trkpt>
      <trkpt lat="47.94836" lon="6.95778">
        <ele>642</ele>
        <time>2022-10-31T11:12:20.000Z</time>
      </trkpt>
      <trkpt lat="47.94839" lon="6.9578">
        <ele>641.80004882812</ele>
        <time>2022-10-31T11:12:22.000Z</time>
      </trkpt>
      <trkpt lat="47.9484" lon="6.95781">
        <ele>641.80004882812</ele>
        <time>2022-10-31T11:12:23.000Z</time>
      </trkpt>
      <trkpt lat="47.94844" lon="6.95781">
        <ele>641.59997558594</ele>
        <time>2022-10-31T11:12:26.000Z</time>
      </trkpt>
      <trkpt lat="47.94845" lon="6.9578">
        <ele>641.40002441406</ele>
        <time>2022-10-31T11:12:28.000Z</time>
      </trkpt>
      <trkpt lat="47.94847" lon="6.95779">
        <ele>641.19995117188</ele>
        <time>2022-10-31T11:12:30.000Z</time>
      </trkpt>
      <trkpt lat="47.94847" lon="6.95782">
        <ele>640.40002441406</ele>
        <time>2022-10-31T11:12:38.000Z</time>
      </trkpt>
      <trkpt lat="47.94847" lon="6.95783">
        <ele>640.40002441406</ele>
        <time>2022-10-31T11:12:39.000Z</time>
      </trkpt>
      <trkpt lat="47.94848" lon="6.95785">
        <ele>640.40002441406</ele>
        <time>2022-10-31T11:12:45.000Z</time>
      </trkpt>
      <trkpt lat="47.94849" lon="6.95784">
        <ele>640.19995117188</ele>
        <time>2022-10-31T11:12:51.000Z</time>
      </trkpt>
      <trkpt lat="47.9485" lon="6.95785">
        <ele>640</ele>
        <time>2022-10-31T11:12:57.000Z</time>
      </trkpt>
      <trkpt lat="47.94849" lon="6.95785">
        <ele>639.80004882812</ele>
        <time>2022-10-31T11:13:04.000Z</time>
      </trkpt>
      <trkpt lat="47.94848" lon="6.95785">
        <ele>639.80004882812</ele>
        <time>2022-10-31T11:13:05.000Z</time>
      </trkpt>
      <trkpt lat="47.94843" lon="6.95781">
        <ele>639.19995117188</ele>
        <time>2022-10-31T11:13:10.000Z</time>
      </trkpt>
      <trkpt lat="47.94839" lon="6.95778">
        <ele>638.80004882812</ele>
        <time>2022-10-31T11:13:16.000Z</time>
      </trkpt>
      <trkpt lat="47.94838" lon="6.95776">
        <ele>638.19995117188</ele>
        <time>2022-10-31T11:13:20.000Z</time>
      </trkpt>
      <trkpt lat="47.94836" lon="6.95775">
        <ele>637.80004882812</ele>
        <time>2022-10-31T11:13:22.000Z</time>
      </trkpt>
      <trkpt lat="47.94836" lon="6.9577">
        <ele>637.40002441406</ele>
        <time>2022-10-31T11:13:29.000Z</time>
      </trkpt>
      <trkpt lat="47.94832" lon="6.95766">
        <ele>637.40002441406</ele>
        <time>2022-10-31T11:13:35.000Z</time>
      </trkpt>
      <trkpt lat="47.94834" lon="6.95767">
        <ele>637.19995117188</ele>
        <time>2022-10-31T11:13:42.000Z</time>
      </trkpt>
      <trkpt lat="47.94834" lon="6.95766">
        <ele>637</ele>
        <time>2022-10-31T11:13:43.000Z</time>
      </trkpt>
      <trkpt lat="47.94833" lon="6.95764">
        <ele>636.80004882812</ele>
        <time>2022-10-31T11:13:46.000Z</time>
      </trkpt>
      <trkpt lat="47.94832" lon="6.95766">
        <ele>636.59997558594</ele>
        <time>2022-10-31T11:13:50.000Z</time>
      </trkpt>
      <trkpt lat="47.94832" lon="6.95765">
        <ele>635.80004882812</ele>
        <time>2022-10-31T11:13:55.000Z</time>
      </trkpt>
      <trkpt lat="47.94833" lon="6.95764">
        <ele>635.59997558594</ele>
        <time>2022-10-31T11:13:57.000Z</time>
      </trkpt>
      <trkpt lat="47.94835" lon="6.95761">
        <ele>634.80004882812</ele>
        <time>2022-10-31T11:14:02.000Z</time>
      </trkpt>
      <trkpt lat="47.94837" lon="6.95763">
        <ele>634.19995117188</ele>
        <time>2022-10-31T11:14:09.000Z</time>
      </trkpt>
      <trkpt lat="47.94837" lon="6.9576">
        <ele>634.19995117188</ele>
        <time>2022-10-31T11:14:15.000Z</time>
      </trkpt>
      <trkpt lat="47.94837" lon="6.9576">
        <ele>634</ele>
        <time>2022-10-31T11:14:26.000Z</time>
      </trkpt>
      <trkpt lat="47.94838" lon="6.9576">
        <ele>632.59997558594</ele>
        <time>2022-10-31T11:14:37.000Z</time>
      </trkpt>
      <trkpt lat="47.94839" lon="6.9576">
        <ele>632.40002441406</ele>
        <time>2022-10-31T11:14:39.000Z</time>
      </trkpt>
      <trkpt lat="47.9484" lon="6.95758">
        <ele>631.59997558594</ele>
        <time>2022-10-31T11:14:46.000Z</time>
      </trkpt>
      <trkpt lat="47.94845" lon="6.95754">
        <ele>631</ele>
        <time>2022-10-31T11:14:49.000Z</time>
      </trkpt>
      <trkpt lat="47.94851" lon="6.95749">
        <ele>630.59997558594</ele>
        <time>2022-10-31T11:14:53.000Z</time>
      </trkpt>
      <trkpt lat="47.94854" lon="6.95749">
        <ele>630.19995117188</ele>
        <time>2022-10-31T11:14:56.000Z</time>
      </trkpt>
      <trkpt lat="47.94858" lon="6.95752">
        <ele>630</ele>
        <time>2022-10-31T11:15:02.000Z</time>
      </trkpt>
      <trkpt lat="47.94858" lon="6.95752">
        <ele>630</ele>
        <time>2022-10-31T11:15:04.000Z</time>
      </trkpt>
      <trkpt lat="47.94858" lon="6.95751">
        <ele>630</ele>
        <time>2022-10-31T11:15:05.000Z</time>
      </trkpt>
      <trkpt lat="47.9486" lon="6.95753">
        <ele>629.80004882812</ele>
        <time>2022-10-31T11:15:08.000Z</time>
      </trkpt>
      <trkpt lat="47.94862" lon="6.95752">
        <ele>629.40002441406</ele>
        <time>2022-10-31T11:15:10.000Z</time>
      </trkpt>
      <trkpt lat="47.94864" lon="6.95753">
        <ele>628.80004882812</ele>
        <time>2022-10-31T11:15:14.000Z</time>
      </trkpt>
      <trkpt lat="47.94865" lon="6.95753">
        <ele>628.80004882812</ele>
        <time>2022-10-31T11:15:15.000Z</time>
      </trkpt>
      <trkpt lat="47.94865" lon="6.95752">
        <ele>628.59997558594</ele>
        <time>2022-10-31T11:15:16.000Z</time>
      </trkpt>
      <trkpt lat="47.94866" lon="6.95751">
        <ele>628.19995117188</ele>
        <time>2022-10-31T11:15:18.000Z</time>
      </trkpt>
      <trkpt lat="47.94867" lon="6.9575">
        <ele>628</ele>
        <time>2022-10-31T11:15:20.000Z</time>
      </trkpt>
      <trkpt lat="47.94869" lon="6.95752">
        <ele>627.40002441406</ele>
        <time>2022-10-31T11:15:24.000Z</time>
      </trkpt>
      <trkpt lat="47.9487" lon="6.95754">
        <ele>627.19995117188</ele>
        <time>2022-10-31T11:15:26.000Z</time>
      </trkpt>
      <trkpt lat="47.94869" lon="6.95754">
        <ele>627</ele>
        <time>2022-10-31T11:15:32.000Z</time>
      </trkpt>
      <trkpt lat="47.94865" lon="6.95747">
        <ele>626.40002441406</ele>
        <time>2022-10-31T11:15:39.000Z</time>
      </trkpt>
      <trkpt lat="47.94864" lon="6.95746">
        <ele>626.19995117188</ele>
        <time>2022-10-31T11:15:41.000Z</time>
      </trkpt>
      <trkpt lat="47.94864" lon="6.95743">
        <ele>625.59997558594</ele>
        <time>2022-10-31T11:15:46.000Z</time>
      </trkpt>
      <trkpt lat="47.94863" lon="6.95741">
        <ele>625.19995117188</ele>
        <time>2022-10-31T11:15:49.000Z</time>
      </trkpt>
      <trkpt lat="47.9486" lon="6.95739">
        <ele>624.19995117188</ele>
        <time>2022-10-31T11:15:54.000Z</time>
      </trkpt>
      <trkpt lat="47.94859" lon="6.95739">
        <ele>624</ele>
        <time>2022-10-31T11:15:56.000Z</time>
      </trkpt>
      <trkpt lat="47.94855" lon="6.95742">
        <ele>623</ele>
        <time>2022-10-31T11:16:01.000Z</time>
      </trkpt>
      <trkpt lat="47.94852" lon="6.95744">
        <ele>621.80004882812</ele>
        <time>2022-10-31T11:16:08.000Z</time>
      </trkpt>
      <trkpt lat="47.94851" lon="6.95744">
        <ele>621.40002441406</ele>
        <time>2022-10-31T11:16:09.000Z</time>
      </trkpt>
      <trkpt lat="47.9485" lon="6.95746">
        <ele>620.80004882812</ele>
        <time>2022-10-31T11:16:12.000Z</time>
      </trkpt>
      <trkpt lat="47.94851" lon="6.95744">
        <ele>620.59997558594</ele>
        <time>2022-10-31T11:16:16.000Z</time>
      </trkpt>
      <trkpt lat="47.94853" lon="6.95745">
        <ele>620.80004882812</ele>
        <time>2022-10-31T11:16:24.000Z</time>
      </trkpt>
      <trkpt lat="47.94852" lon="6.95746">
        <ele>620.59997558594</ele>
        <time>2022-10-31T11:16:27.000Z</time>
      </trkpt>
      <trkpt lat="47.94849" lon="6.95745">
        <ele>620.19995117188</ele>
        <time>2022-10-31T11:16:32.000Z</time>
      </trkpt>
      <trkpt lat="47.94847" lon="6.95745">
        <ele>619.59997558594</ele>
        <time>2022-10-31T11:16:36.000Z</time>
      </trkpt>
      <trkpt lat="47.94844" lon="6.95746">
        <ele>619.40002441406</ele>
        <time>2022-10-31T11:16:39.000Z</time>
      </trkpt>
      <trkpt lat="47.94842" lon="6.95745">
        <ele>619.19995117188</ele>
        <time>2022-10-31T11:16:41.000Z</time>
      </trkpt>
      <trkpt lat="47.94839" lon="6.95741">
        <ele>618.59997558594</ele>
        <time>2022-10-31T11:16:47.000Z</time>
      </trkpt>
      <trkpt lat="47.94837" lon="6.95741">
        <ele>618.40002441406</ele>
        <time>2022-10-31T11:16:51.000Z</time>
      </trkpt>
      <trkpt lat="47.94836" lon="6.9574">
        <ele>618.40002441406</ele>
        <time>2022-10-31T11:16:52.000Z</time>
      </trkpt>
      <trkpt lat="47.94832" lon="6.95738">
        <ele>617.59997558594</ele>
        <time>2022-10-31T11:16:57.000Z</time>
      </trkpt>
      <trkpt lat="47.94831" lon="6.95737">
        <ele>617.19995117188</ele>
        <time>2022-10-31T11:16:59.000Z</time>
      </trkpt>
      <trkpt lat="47.94829" lon="6.95737">
        <ele>616.59997558594</ele>
        <time>2022-10-31T11:17:02.000Z</time>
      </trkpt>
      <trkpt lat="47.94828" lon="6.95736">
        <ele>616</ele>
        <time>2022-10-31T11:17:04.000Z</time>
      </trkpt>
      <trkpt lat="47.94828" lon="6.95737">
        <ele>616</ele>
        <time>2022-10-31T11:17:05.000Z</time>
      </trkpt>
      <trkpt lat="47.94827" lon="6.95739">
        <ele>616</ele>
        <time>2022-10-31T11:17:10.000Z</time>
      </trkpt>
      <trkpt lat="47.94827" lon="6.95739">
        <ele>616</ele>
        <time>2022-10-31T11:17:12.000Z</time>
      </trkpt>
      <trkpt lat="47.94825" lon="6.9574">
        <ele>615.80004882812</ele>
        <time>2022-10-31T11:17:17.000Z</time>
      </trkpt>
      <trkpt lat="47.94823" lon="6.95739">
        <ele>615.59997558594</ele>
        <time>2022-10-31T11:17:19.000Z</time>
      </trkpt>
      <trkpt lat="47.94823" lon="6.95739">
        <ele>615.59997558594</ele>
        <time>2022-10-31T11:17:20.000Z</time>
      </trkpt>
      <trkpt lat="47.94821" lon="6.95735">
        <ele>615</ele>
        <time>2022-10-31T11:17:25.000Z</time>
      </trkpt>
      <trkpt lat="47.94819" lon="6.95732">
        <ele>614.59997558594</ele>
        <time>2022-10-31T11:17:31.000Z</time>
      </trkpt>
      <trkpt lat="47.94818" lon="6.95731">
        <ele>614.19995117188</ele>
        <time>2022-10-31T11:17:34.000Z</time>
      </trkpt>
      <trkpt lat="47.94813" lon="6.95729">
        <ele>613.40002441406</ele>
        <time>2022-10-31T11:17:39.000Z</time>
      </trkpt>
      <trkpt lat="47.94813" lon="6.95726">
        <ele>613.40002441406</ele>
        <time>2022-10-31T11:17:40.000Z</time>
      </trkpt>
      <trkpt lat="47.94814" lon="6.95721">
        <ele>613</ele>
        <time>2022-10-31T11:17:44.000Z</time>
      </trkpt>
      <trkpt lat="47.94816" lon="6.95719">
        <ele>612.40002441406</ele>
        <time>2022-10-31T11:17:47.000Z</time>
      </trkpt>
      <trkpt lat="47.94818" lon="6.95718">
        <ele>612</ele>
        <time>2022-10-31T11:17:49.000Z</time>
      </trkpt>
      <trkpt lat="47.94821" lon="6.95716">
        <ele>611.19995117188</ele>
        <time>2022-10-31T11:17:56.000Z</time>
      </trkpt>
      <trkpt lat="47.94821" lon="6.95714">
        <ele>610.80004882812</ele>
        <time>2022-10-31T11:17:58.000Z</time>
      </trkpt>
      <trkpt lat="47.94823" lon="6.95711">
        <ele>610.40002441406</ele>
        <time>2022-10-31T11:18:01.000Z</time>
      </trkpt>
      <trkpt lat="47.94823" lon="6.95706">
        <ele>610.19995117188</ele>
        <time>2022-10-31T11:18:04.000Z</time>
      </trkpt>
      <trkpt lat="47.94822" lon="6.95706">
        <ele>610.19995117188</ele>
        <time>2022-10-31T11:18:05.000Z</time>
      </trkpt>
      <trkpt lat="47.94818" lon="6.95711">
        <ele>610</ele>
        <time>2022-10-31T11:18:12.000Z</time>
      </trkpt>
      <trkpt lat="47.94819" lon="6.95712">
        <ele>610</ele>
        <time>2022-10-31T11:18:18.000Z</time>
      </trkpt>
      <trkpt lat="47.94818" lon="6.9571">
        <ele>609.59997558594</ele>
        <time>2022-10-31T11:18:24.000Z</time>
      </trkpt>
      <trkpt lat="47.94817" lon="6.95712">
        <ele>609.19995117188</ele>
        <time>2022-10-31T11:18:29.000Z</time>
      </trkpt>
      <trkpt lat="47.94816" lon="6.95711">
        <ele>608.80004882812</ele>
        <time>2022-10-31T11:18:32.000Z</time>
      </trkpt>
      <trkpt lat="47.94815" lon="6.95707">
        <ele>608</ele>
        <time>2022-10-31T11:18:38.000Z</time>
      </trkpt>
      <trkpt lat="47.94814" lon="6.95704">
        <ele>607.80004882812</ele>
        <time>2022-10-31T11:18:40.000Z</time>
      </trkpt>
      <trkpt lat="47.94813" lon="6.95702">
        <ele>607</ele>
        <time>2022-10-31T11:18:43.000Z</time>
      </trkpt>
      <trkpt lat="47.94814" lon="6.95699">
        <ele>606.40002441406</ele>
        <time>2022-10-31T11:18:47.000Z</time>
      </trkpt>
      <trkpt lat="47.94815" lon="6.95697">
        <ele>606</ele>
        <time>2022-10-31T11:18:51.000Z</time>
      </trkpt>
      <trkpt lat="47.94816" lon="6.95694">
        <ele>605</ele>
        <time>2022-10-31T11:18:55.000Z</time>
      </trkpt>
      <trkpt lat="47.94816" lon="6.95693">
        <ele>604.80004882812</ele>
        <time>2022-10-31T11:18:56.000Z</time>
      </trkpt>
      <trkpt lat="47.94818" lon="6.9569">
        <ele>603.80004882812</ele>
        <time>2022-10-31T11:19:01.000Z</time>
      </trkpt>
      <trkpt lat="47.94819" lon="6.9569">
        <ele>603.40002441406</ele>
        <time>2022-10-31T11:19:03.000Z</time>
      </trkpt>
      <trkpt lat="47.94821" lon="6.95689">
        <ele>602.80004882812</ele>
        <time>2022-10-31T11:19:09.000Z</time>
      </trkpt>
      <trkpt lat="47.94821" lon="6.9569">
        <ele>602.59997558594</ele>
        <time>2022-10-31T11:19:14.000Z</time>
      </trkpt>
      <trkpt lat="47.94821" lon="6.9569">
        <ele>602.59997558594</ele>
        <time>2022-10-31T11:19:17.000Z</time>
      </trkpt>
      <trkpt lat="47.94822" lon="6.9569">
        <ele>602.59997558594</ele>
        <time>2022-10-31T11:19:34.000Z</time>
      </trkpt>
      <trkpt lat="47.94822" lon="6.95694">
        <ele>602.40002441406</ele>
        <time>2022-10-31T11:19:58.000Z</time>
      </trkpt>
      <trkpt lat="47.94828" lon="6.95696">
        <ele>602</ele>
        <time>2022-10-31T11:20:08.000Z</time>
      </trkpt>
      <trkpt lat="47.94832" lon="6.95694">
        <ele>601.80004882812</ele>
        <time>2022-10-31T11:20:16.000Z</time>
      </trkpt>
      <trkpt lat="47.94833" lon="6.95694">
        <ele>601.80004882812</ele>
        <time>2022-10-31T11:20:20.000Z</time>
      </trkpt>
      <trkpt lat="47.94836" lon="6.95692">
        <ele>601.59997558594</ele>
        <time>2022-10-31T11:20:24.000Z</time>
      </trkpt>
      <trkpt lat="47.94838" lon="6.95693">
        <ele>601</ele>
        <time>2022-10-31T11:20:29.000Z</time>
      </trkpt>
      <trkpt lat="47.94841" lon="6.95693">
        <ele>600.80004882812</ele>
        <time>2022-10-31T11:20:35.000Z</time>
      </trkpt>
      <trkpt lat="47.94842" lon="6.95693">
        <ele>600.59997558594</ele>
        <time>2022-10-31T11:20:37.000Z</time>
      </trkpt>
      <trkpt lat="47.94844" lon="6.9569">
        <ele>600</ele>
        <time>2022-10-31T11:20:40.000Z</time>
      </trkpt>
      <trkpt lat="47.94844" lon="6.95689">
        <ele>599.59997558594</ele>
        <time>2022-10-31T11:20:46.000Z</time>
      </trkpt>
      <trkpt lat="47.94845" lon="6.95688">
        <ele>599.40002441406</ele>
        <time>2022-10-31T11:20:47.000Z</time>
      </trkpt>
      <trkpt lat="47.94847" lon="6.95687">
        <ele>599.19995117188</ele>
        <time>2022-10-31T11:20:51.000Z</time>
      </trkpt>
      <trkpt lat="47.94849" lon="6.95685">
        <ele>598.80004882812</ele>
        <time>2022-10-31T11:20:54.000Z</time>
      </trkpt>
      <trkpt lat="47.9485" lon="6.95684">
        <ele>598.59997558594</ele>
        <time>2022-10-31T11:20:56.000Z</time>
      </trkpt>
      <trkpt lat="47.94851" lon="6.95683">
        <ele>598.40002441406</ele>
        <time>2022-10-31T11:20:57.000Z</time>
      </trkpt>
      <trkpt lat="47.94853" lon="6.95684">
        <ele>598.19995117188</ele>
        <time>2022-10-31T11:21:02.000Z</time>
      </trkpt>
      <trkpt lat="47.94854" lon="6.95685">
        <ele>598.19995117188</ele>
        <time>2022-10-31T11:21:03.000Z</time>
      </trkpt>
      <trkpt lat="47.94854" lon="6.95686">
        <ele>598.19995117188</ele>
        <time>2022-10-31T11:21:04.000Z</time>
      </trkpt>
      <trkpt lat="47.94853" lon="6.95686">
        <ele>598.19995117188</ele>
        <time>2022-10-31T11:21:08.000Z</time>
      </trkpt>
      <trkpt lat="47.94849" lon="6.95685">
        <ele>598.19995117188</ele>
        <time>2022-10-31T11:21:12.000Z</time>
      </trkpt>
      <trkpt lat="47.94848" lon="6.95686">
        <ele>598.19995117188</ele>
        <time>2022-10-31T11:21:14.000Z</time>
      </trkpt>
      <trkpt lat="47.94851" lon="6.95687">
        <ele>597.80004882812</ele>
        <time>2022-10-31T11:21:20.000Z</time>
      </trkpt>
      <trkpt lat="47.94854" lon="6.95686">
        <ele>597.40002441406</ele>
        <time>2022-10-31T11:21:25.000Z</time>
      </trkpt>
      <trkpt lat="47.94855" lon="6.95686">
        <ele>597</ele>
        <time>2022-10-31T11:21:28.000Z</time>
      </trkpt>
      <trkpt lat="47.94859" lon="6.95684">
        <ele>596.40002441406</ele>
        <time>2022-10-31T11:21:34.000Z</time>
      </trkpt>
      <trkpt lat="47.94861" lon="6.95684">
        <ele>596.19995117188</ele>
        <time>2022-10-31T11:21:36.000Z</time>
      </trkpt>
      <trkpt lat="47.94866" lon="6.95685">
        <ele>596.19995117188</ele>
        <time>2022-10-31T11:21:42.000Z</time>
      </trkpt>
      <trkpt lat="47.94868" lon="6.95682">
        <ele>596.59997558594</ele>
        <time>2022-10-31T11:21:47.000Z</time>
      </trkpt>
      <trkpt lat="47.94868" lon="6.95683">
        <ele>596.40002441406</ele>
        <time>2022-10-31T11:21:53.000Z</time>
      </trkpt>
      <trkpt lat="47.9487" lon="6.95678">
        <ele>596.40002441406</ele>
        <time>2022-10-31T11:21:58.000Z</time>
      </trkpt>
      <trkpt lat="47.94874" lon="6.95671">
        <ele>595.80004882812</ele>
        <time>2022-10-31T11:22:05.000Z</time>
      </trkpt>
      <trkpt lat="47.94879" lon="6.95668">
        <ele>595.40002441406</ele>
        <time>2022-10-31T11:22:12.000Z</time>
      </trkpt>
      <trkpt lat="47.9488" lon="6.95669">
        <ele>595.40002441406</ele>
        <time>2022-10-31T11:22:13.000Z</time>
      </trkpt>
      <trkpt lat="47.94881" lon="6.9567">
        <ele>595.19995117188</ele>
        <time>2022-10-31T11:22:14.000Z</time>
      </trkpt>
      <trkpt lat="47.94883" lon="6.9567">
        <ele>595</ele>
        <time>2022-10-31T11:22:18.000Z</time>
      </trkpt>
      <trkpt lat="47.94887" lon="6.95669">
        <ele>594.59997558594</ele>
        <time>2022-10-31T11:22:23.000Z</time>
      </trkpt>
      <trkpt lat="47.94888" lon="6.95667">
        <ele>594.40002441406</ele>
        <time>2022-10-31T11:22:25.000Z</time>
      </trkpt>
      <trkpt lat="47.9489" lon="6.95665">
        <ele>594.19995117188</ele>
        <time>2022-10-31T11:22:28.000Z</time>
      </trkpt>
      <trkpt lat="47.94893" lon="6.95671">
        <ele>593.80004882812</ele>
        <time>2022-10-31T11:22:32.000Z</time>
      </trkpt>
      <trkpt lat="47.94892" lon="6.95678">
        <ele>593.80004882812</ele>
        <time>2022-10-31T11:22:37.000Z</time>
      </trkpt>
      <trkpt lat="47.94892" lon="6.95679">
        <ele>593.80004882812</ele>
        <time>2022-10-31T11:22:38.000Z</time>
      </trkpt>
      <trkpt lat="47.94894" lon="6.95681">
        <ele>593.59997558594</ele>
        <time>2022-10-31T11:22:46.000Z</time>
      </trkpt>
      <trkpt lat="47.94896" lon="6.95681">
        <ele>593.40002441406</ele>
        <time>2022-10-31T11:22:53.000Z</time>
      </trkpt>
      <trkpt lat="47.94898" lon="6.95681">
        <ele>593.19995117188</ele>
        <time>2022-10-31T11:22:55.000Z</time>
      </trkpt>
      <trkpt lat="47.94903" lon="6.95678">
        <ele>592.80004882812</ele>
        <time>2022-10-31T11:23:13.000Z</time>
      </trkpt>
      <trkpt lat="47.94909" lon="6.95676">
        <ele>592.40002441406</ele>
        <time>2022-10-31T11:23:18.000Z</time>
      </trkpt>
      <trkpt lat="47.94912" lon="6.95674">
        <ele>592.19995117188</ele>
        <time>2022-10-31T11:23:24.000Z</time>
      </trkpt>
      <trkpt lat="47.94918" lon="6.95672">
        <ele>591.59997558594</ele>
        <time>2022-10-31T11:23:32.000Z</time>
      </trkpt>
      <trkpt lat="47.94922" lon="6.95674">
        <ele>591.59997558594</ele>
        <time>2022-10-31T11:23:37.000Z</time>
      </trkpt>
      <trkpt lat="47.94924" lon="6.95674">
        <ele>591.40002441406</ele>
        <time>2022-10-31T11:23:42.000Z</time>
      </trkpt>
      <trkpt lat="47.94926" lon="6.95673">
        <ele>591.19995117188</ele>
        <time>2022-10-31T11:23:46.000Z</time>
      </trkpt>
      <trkpt lat="47.94927" lon="6.95673">
        <ele>591</ele>
        <time>2022-10-31T11:23:47.000Z</time>
      </trkpt>
      <trkpt lat="47.94934" lon="6.9567">
        <ele>590</ele>
        <time>2022-10-31T11:23:55.000Z</time>
      </trkpt>
      <trkpt lat="47.94936" lon="6.95669">
        <ele>589.80004882812</ele>
        <time>2022-10-31T11:23:56.000Z</time>
      </trkpt>
      <trkpt lat="47.9494" lon="6.95662">
        <ele>589.19995117188</ele>
        <time>2022-10-31T11:24:04.000Z</time>
      </trkpt>
      <trkpt lat="47.94941" lon="6.95662">
        <ele>589</ele>
        <time>2022-10-31T11:24:05.000Z</time>
      </trkpt>
      <trkpt lat="47.94943" lon="6.9566">
        <ele>588.59997558594</ele>
        <time>2022-10-31T11:24:09.000Z</time>
      </trkpt>
      <trkpt lat="47.94948" lon="6.95662">
        <ele>588.19995117188</ele>
        <time>2022-10-31T11:24:15.000Z</time>
      </trkpt>
      <trkpt lat="47.94961" lon="6.95663">
        <ele>588</ele>
        <time>2022-10-31T11:24:24.000Z</time>
      </trkpt>
      <trkpt lat="47.94962" lon="6.95664">
        <ele>588</ele>
        <time>2022-10-31T11:24:25.000Z</time>
      </trkpt>
      <trkpt lat="47.94963" lon="6.95664">
        <ele>587.80004882812</ele>
        <time>2022-10-31T11:24:27.000Z</time>
      </trkpt>
      <trkpt lat="47.94965" lon="6.95663">
        <ele>587.80004882812</ele>
        <time>2022-10-31T11:24:28.000Z</time>
      </trkpt>
      <trkpt lat="47.94968" lon="6.95659">
        <ele>587.80004882812</ele>
        <time>2022-10-31T11:24:33.000Z</time>
      </trkpt>
      <trkpt lat="47.9497" lon="6.95659">
        <ele>587.80004882812</ele>
        <time>2022-10-31T11:24:34.000Z</time>
      </trkpt>
      <trkpt lat="47.94971" lon="6.9566">
        <ele>588</ele>
        <time>2022-10-31T11:24:35.000Z</time>
      </trkpt>
      <trkpt lat="47.94974" lon="6.95661">
        <ele>588</ele>
        <time>2022-10-31T11:24:37.000Z</time>
      </trkpt>
      <trkpt lat="47.9498" lon="6.95663">
        <ele>587.59997558594</ele>
        <time>2022-10-31T11:24:41.000Z</time>
      </trkpt>
      <trkpt lat="47.94982" lon="6.95662">
        <ele>587.59997558594</ele>
        <time>2022-10-31T11:24:43.000Z</time>
      </trkpt>
      <trkpt lat="47.94983" lon="6.95659">
        <ele>587.40002441406</ele>
        <time>2022-10-31T11:24:46.000Z</time>
      </trkpt>
      <trkpt lat="47.94986" lon="6.95656">
        <ele>586.80004882812</ele>
        <time>2022-10-31T11:24:49.000Z</time>
      </trkpt>
      <trkpt lat="47.94987" lon="6.95655">
        <ele>586.80004882812</ele>
        <time>2022-10-31T11:24:50.000Z</time>
      </trkpt>
      <trkpt lat="47.94988" lon="6.95655">
        <ele>586.59997558594</ele>
        <time>2022-10-31T11:24:51.000Z</time>
      </trkpt>
      <trkpt lat="47.9499" lon="6.95652">
        <ele>586.59997558594</ele>
        <time>2022-10-31T11:24:56.000Z</time>
      </trkpt>
      <trkpt lat="47.94995" lon="6.95655">
        <ele>586</ele>
        <time>2022-10-31T11:25:03.000Z</time>
      </trkpt>
      <trkpt lat="47.94996" lon="6.95655">
        <ele>585.80004882812</ele>
        <time>2022-10-31T11:25:05.000Z</time>
      </trkpt>
      <trkpt lat="47.94996" lon="6.95652">
        <ele>585.59997558594</ele>
        <time>2022-10-31T11:25:08.000Z</time>
      </trkpt>
      <trkpt lat="47.94994" lon="6.95652">
        <ele>584.59997558594</ele>
        <time>2022-10-31T11:25:14.000Z</time>
      </trkpt>
      <trkpt lat="47.94994" lon="6.95652">
        <ele>583.40002441406</ele>
        <time>2022-10-31T11:25:30.000Z</time>
      </trkpt>
      <trkpt lat="47.94994" lon="6.95652">
        <ele>582.40002441406</ele>
        <time>2022-10-31T11:25:35.000Z</time>
      </trkpt>
      <trkpt lat="47.94993" lon="6.95652">
        <ele>581.40002441406</ele>
        <time>2022-10-31T11:25:41.000Z</time>
      </trkpt>
      <trkpt lat="47.94993" lon="6.95639">
        <ele>581.19995117188</ele>
        <time>2022-10-31T11:25:48.000Z</time>
      </trkpt>
      <trkpt lat="47.94995" lon="6.95625">
        <ele>580.80004882812</ele>
        <time>2022-10-31T11:25:55.000Z</time>
      </trkpt>
      <trkpt lat="47.94994" lon="6.95622">
        <ele>580.40002441406</ele>
        <time>2022-10-31T11:25:58.000Z</time>
      </trkpt>
      <trkpt lat="47.94995" lon="6.95622">
        <ele>580.40002441406</ele>
        <time>2022-10-31T11:25:59.000Z</time>
      </trkpt>
      <trkpt lat="47.94996" lon="6.95621">
        <ele>580</ele>
        <time>2022-10-31T11:26:01.000Z</time>
      </trkpt>
      <trkpt lat="47.94999" lon="6.95616">
        <ele>579.19995117188</ele>
        <time>2022-10-31T11:26:07.000Z</time>
      </trkpt>
      <trkpt lat="47.95" lon="6.95617">
        <ele>579</ele>
        <time>2022-10-31T11:26:08.000Z</time>
      </trkpt>
      <trkpt lat="47.95003" lon="6.95616">
        <ele>578.80004882812</ele>
        <time>2022-10-31T11:26:11.000Z</time>
      </trkpt>
      <trkpt lat="47.95003" lon="6.95616">
        <ele>578.80004882812</ele>
        <time>2022-10-31T11:26:12.000Z</time>
      </trkpt>
      <trkpt lat="47.95003" lon="6.95613">
        <ele>578.40002441406</ele>
        <time>2022-10-31T11:26:16.000Z</time>
      </trkpt>
      <trkpt lat="47.95003" lon="6.95612">
        <ele>578.19995117188</ele>
        <time>2022-10-31T11:26:18.000Z</time>
      </trkpt>
      <trkpt lat="47.95007" lon="6.95609">
        <ele>577.59997558594</ele>
        <time>2022-10-31T11:26:23.000Z</time>
      </trkpt>
      <trkpt lat="47.95009" lon="6.95609">
        <ele>577</ele>
        <time>2022-10-31T11:26:26.000Z</time>
      </trkpt>
      <trkpt lat="47.95012" lon="6.9561">
        <ele>576.59997558594</ele>
        <time>2022-10-31T11:26:30.000Z</time>
      </trkpt>
      <trkpt lat="47.95018" lon="6.95615">
        <ele>576</ele>
        <time>2022-10-31T11:26:35.000Z</time>
      </trkpt>
      <trkpt lat="47.95019" lon="6.95616">
        <ele>576</ele>
        <time>2022-10-31T11:26:36.000Z</time>
      </trkpt>
      <trkpt lat="47.95023" lon="6.95612">
        <ele>575.80004882812</ele>
        <time>2022-10-31T11:26:42.000Z</time>
      </trkpt>
      <trkpt lat="47.95025" lon="6.9561">
        <ele>575.40002441406</ele>
        <time>2022-10-31T11:26:48.000Z</time>
      </trkpt>
      <trkpt lat="47.95027" lon="6.95606">
        <ele>574.80004882812</ele>
        <time>2022-10-31T11:26:52.000Z</time>
      </trkpt>
      <trkpt lat="47.95027" lon="6.95604">
        <ele>574.19995117188</ele>
        <time>2022-10-31T11:26:54.000Z</time>
      </trkpt>
      <trkpt lat="47.95026" lon="6.95603">
        <ele>573.80004882812</ele>
        <time>2022-10-31T11:26:56.000Z</time>
      </trkpt>
      <trkpt lat="47.95024" lon="6.95607">
        <ele>573.40002441406</ele>
        <time>2022-10-31T11:27:00.000Z</time>
      </trkpt>
      <trkpt lat="47.95019" lon="6.95608">
        <ele>573.40002441406</ele>
        <time>2022-10-31T11:27:06.000Z</time>
      </trkpt>
      <trkpt lat="47.95019" lon="6.95607">
        <ele>573.40002441406</ele>
        <time>2022-10-31T11:27:10.000Z</time>
      </trkpt>
      <trkpt lat="47.95013" lon="6.95608">
        <ele>573.19995117188</ele>
        <time>2022-10-31T11:27:17.000Z</time>
      </trkpt>
      <trkpt lat="47.95011" lon="6.95611">
        <ele>573.19995117188</ele>
        <time>2022-10-31T11:27:21.000Z</time>
      </trkpt>
      <trkpt lat="47.9501" lon="6.95612">
        <ele>573.19995117188</ele>
        <time>2022-10-31T11:27:22.000Z</time>
      </trkpt>
      <trkpt lat="47.95" lon="6.95617">
        <ele>573.19995117188</ele>
        <time>2022-10-31T11:27:30.000Z</time>
      </trkpt>
      <trkpt lat="47.94996" lon="6.95616">
        <ele>573.59997558594</ele>
        <time>2022-10-31T11:27:36.000Z</time>
      </trkpt>
      <trkpt lat="47.94996" lon="6.95617">
        <ele>573.59997558594</ele>
        <time>2022-10-31T11:27:40.000Z</time>
      </trkpt>
      <trkpt lat="47.94994" lon="6.95618">
        <ele>573.40002441406</ele>
        <time>2022-10-31T11:27:42.000Z</time>
      </trkpt>
      <trkpt lat="47.94989" lon="6.95622">
        <ele>573.59997558594</ele>
        <time>2022-10-31T11:27:50.000Z</time>
      </trkpt>
      <trkpt lat="47.94985" lon="6.95625">
        <ele>573.80004882812</ele>
        <time>2022-10-31T11:27:54.000Z</time>
      </trkpt>
      <trkpt lat="47.94983" lon="6.95626">
        <ele>573.80004882812</ele>
        <time>2022-10-31T11:27:56.000Z</time>
      </trkpt>
      <trkpt lat="47.94979" lon="6.9563">
        <ele>573.80004882812</ele>
        <time>2022-10-31T11:28:01.000Z</time>
      </trkpt>
      <trkpt lat="47.94974" lon="6.95633">
        <ele>574</ele>
        <time>2022-10-31T11:28:07.000Z</time>
      </trkpt>
      <trkpt lat="47.94973" lon="6.95633">
        <ele>574.19995117188</ele>
        <time>2022-10-31T11:28:08.000Z</time>
      </trkpt>
      <trkpt lat="47.94963" lon="6.95638">
        <ele>574.19995117188</ele>
        <time>2022-10-31T11:28:16.000Z</time>
      </trkpt>
      <trkpt lat="47.94957" lon="6.95643">
        <ele>574</ele>
        <time>2022-10-31T11:28:23.000Z</time>
      </trkpt>
      <trkpt lat="47.94954" lon="6.95644">
        <ele>574</ele>
        <time>2022-10-31T11:28:27.000Z</time>
      </trkpt>
      <trkpt lat="47.94953" lon="6.95644">
        <ele>574</ele>
        <time>2022-10-31T11:28:28.000Z</time>
      </trkpt>
      <trkpt lat="47.94945" lon="6.95642">
        <ele>574.19995117188</ele>
        <time>2022-10-31T11:28:36.000Z</time>
      </trkpt>
      <trkpt lat="47.94937" lon="6.95643">
        <ele>574.19995117188</ele>
        <time>2022-10-31T11:28:42.000Z</time>
      </trkpt>
      <trkpt lat="47.94933" lon="6.95644">
        <ele>574.19995117188</ele>
        <time>2022-10-31T11:28:44.000Z</time>
      </trkpt>
      <trkpt lat="47.94927" lon="6.95646">
        <ele>574.40002441406</ele>
        <time>2022-10-31T11:28:49.000Z</time>
      </trkpt>
      <trkpt lat="47.94926" lon="6.95646">
        <ele>574.40002441406</ele>
        <time>2022-10-31T11:28:50.000Z</time>
      </trkpt>
      <trkpt lat="47.9492" lon="6.95647">
        <ele>574.59997558594</ele>
        <time>2022-10-31T11:28:56.000Z</time>
      </trkpt>
      <trkpt lat="47.94917" lon="6.95649">
        <ele>574.80004882812</ele>
        <time>2022-10-31T11:28:58.000Z</time>
      </trkpt>
      <trkpt lat="47.94914" lon="6.95651">
        <ele>575</ele>
        <time>2022-10-31T11:29:00.000Z</time>
      </trkpt>
      <trkpt lat="47.94913" lon="6.9565">
        <ele>575</ele>
        <time>2022-10-31T11:29:02.000Z</time>
      </trkpt>
      <trkpt lat="47.94906" lon="6.95647">
        <ele>575.19995117188</ele>
        <time>2022-10-31T11:29:10.000Z</time>
      </trkpt>
      <trkpt lat="47.94905" lon="6.95647">
        <ele>575.19995117188</ele>
        <time>2022-10-31T11:29:11.000Z</time>
      </trkpt>
      <trkpt lat="47.94901" lon="6.95644">
        <ele>575.40002441406</ele>
        <time>2022-10-31T11:29:17.000Z</time>
      </trkpt>
      <trkpt lat="47.94897" lon="6.95644">
        <ele>575.40002441406</ele>
        <time>2022-10-31T11:29:25.000Z</time>
      </trkpt>
      <trkpt lat="47.94895" lon="6.95643">
        <ele>575.40002441406</ele>
        <time>2022-10-31T11:29:30.000Z</time>
      </trkpt>
      <trkpt lat="47.94894" lon="6.95643">
        <ele>575.40002441406</ele>
        <time>2022-10-31T11:29:32.000Z</time>
      </trkpt>
      <trkpt lat="47.94891" lon="6.95643">
        <ele>575.19995117188</ele>
        <time>2022-10-31T11:29:38.000Z</time>
      </trkpt>
      <trkpt lat="47.94885" lon="6.95644">
        <ele>575.19995117188</ele>
        <time>2022-10-31T11:29:43.000Z</time>
      </trkpt>
      <trkpt lat="47.94883" lon="6.95644">
        <ele>575</ele>
        <time>2022-10-31T11:29:45.000Z</time>
      </trkpt>
      <trkpt lat="47.94878" lon="6.95645">
        <ele>575</ele>
        <time>2022-10-31T11:29:49.000Z</time>
      </trkpt>
      <trkpt lat="47.94873" lon="6.95645">
        <ele>574.80004882812</ele>
        <time>2022-10-31T11:29:52.000Z</time>
      </trkpt>
      <trkpt lat="47.94869" lon="6.95646">
        <ele>574.59997558594</ele>
        <time>2022-10-31T11:29:59.000Z</time>
      </trkpt>
      <trkpt lat="47.94866" lon="6.95644">
        <ele>574.59997558594</ele>
        <time>2022-10-31T11:30:02.000Z</time>
      </trkpt>
      <trkpt lat="47.94864" lon="6.95645">
        <ele>574.40002441406</ele>
        <time>2022-10-31T11:30:05.000Z</time>
      </trkpt>
      <trkpt lat="47.94856" lon="6.95647">
        <ele>574.19995117188</ele>
        <time>2022-10-31T11:30:12.000Z</time>
      </trkpt>
      <trkpt lat="47.94849" lon="6.95649">
        <ele>574</ele>
        <time>2022-10-31T11:30:19.000Z</time>
      </trkpt>
      <trkpt lat="47.94842" lon="6.95648">
        <ele>573.80004882812</ele>
        <time>2022-10-31T11:30:25.000Z</time>
      </trkpt>
      <trkpt lat="47.9484" lon="6.95648">
        <ele>573.80004882812</ele>
        <time>2022-10-31T11:30:28.000Z</time>
      </trkpt>
      <trkpt lat="47.94831" lon="6.95647">
        <ele>573.59997558594</ele>
        <time>2022-10-31T11:30:34.000Z</time>
      </trkpt>
      <trkpt lat="47.94821" lon="6.95651">
        <ele>573.19995117188</ele>
        <time>2022-10-31T11:30:41.000Z</time>
      </trkpt>
      <trkpt lat="47.94818" lon="6.95651">
        <ele>573.19995117188</ele>
        <time>2022-10-31T11:30:46.000Z</time>
      </trkpt>
      <trkpt lat="47.9481" lon="6.95656">
        <ele>573</ele>
        <time>2022-10-31T11:30:52.000Z</time>
      </trkpt>
      <trkpt lat="47.94806" lon="6.95656">
        <ele>573</ele>
        <time>2022-10-31T11:30:56.000Z</time>
      </trkpt>
      <trkpt lat="47.94799" lon="6.95658">
        <ele>573</ele>
        <time>2022-10-31T11:31:02.000Z</time>
      </trkpt>
      <trkpt lat="47.94793" lon="6.95659">
        <ele>572.80004882812</ele>
        <time>2022-10-31T11:31:07.000Z</time>
      </trkpt>
      <trkpt lat="47.94791" lon="6.95659">
        <ele>572.80004882812</ele>
        <time>2022-10-31T11:31:10.000Z</time>
      </trkpt>
      <trkpt lat="47.9479" lon="6.9566">
        <ele>572.80004882812</ele>
        <time>2022-10-31T11:31:12.000Z</time>
      </trkpt>
      <trkpt lat="47.94784" lon="6.95663">
        <ele>572.59997558594</ele>
        <time>2022-10-31T11:31:17.000Z</time>
      </trkpt>
      <trkpt lat="47.94782" lon="6.95664">
        <ele>572.59997558594</ele>
        <time>2022-10-31T11:31:19.000Z</time>
      </trkpt>
      <trkpt lat="47.94781" lon="6.95663">
        <ele>572.59997558594</ele>
        <time>2022-10-31T11:31:20.000Z</time>
      </trkpt>
      <trkpt lat="47.94779" lon="6.95663">
        <ele>572.59997558594</ele>
        <time>2022-10-31T11:31:22.000Z</time>
      </trkpt>
      <trkpt lat="47.94772" lon="6.95662">
        <ele>572.40002441406</ele>
        <time>2022-10-31T11:31:28.000Z</time>
      </trkpt>
      <trkpt lat="47.94766" lon="6.95663">
        <ele>572.19995117188</ele>
        <time>2022-10-31T11:31:35.000Z</time>
      </trkpt>
      <trkpt lat="47.9476" lon="6.95663">
        <ele>572.19995117188</ele>
        <time>2022-10-31T11:31:40.000Z</time>
      </trkpt>
      <trkpt lat="47.94757" lon="6.95664">
        <ele>572.19995117188</ele>
        <time>2022-10-31T11:31:42.000Z</time>
      </trkpt>
      <trkpt lat="47.9475" lon="6.95665">
        <ele>572</ele>
        <time>2022-10-31T11:31:48.000Z</time>
      </trkpt>
      <trkpt lat="47.94745" lon="6.95668">
        <ele>571.80004882812</ele>
        <time>2022-10-31T11:31:53.000Z</time>
      </trkpt>
      <trkpt lat="47.94743" lon="6.9567">
        <ele>571.80004882812</ele>
        <time>2022-10-31T11:31:55.000Z</time>
      </trkpt>
      <trkpt lat="47.94741" lon="6.95672">
        <ele>571.80004882812</ele>
        <time>2022-10-31T11:31:57.000Z</time>
      </trkpt>
      <trkpt lat="47.94737" lon="6.95675">
        <ele>571.80004882812</ele>
        <time>2022-10-31T11:32:01.000Z</time>
      </trkpt>
      <trkpt lat="47.94733" lon="6.95675">
        <ele>571.59997558594</ele>
        <time>2022-10-31T11:32:09.000Z</time>
      </trkpt>
      <trkpt lat="47.94731" lon="6.95673">
        <ele>571.59997558594</ele>
        <time>2022-10-31T11:32:16.000Z</time>
      </trkpt>
      <trkpt lat="47.94728" lon="6.95677">
        <ele>571.19995117188</ele>
        <time>2022-10-31T11:32:21.000Z</time>
      </trkpt>
      <trkpt lat="47.94726" lon="6.95677">
        <ele>571.19995117188</ele>
        <time>2022-10-31T11:32:27.000Z</time>
      </trkpt>
      <trkpt lat="47.9472" lon="6.9568">
        <ele>571.19995117188</ele>
        <time>2022-10-31T11:32:33.000Z</time>
      </trkpt>
      <trkpt lat="47.9472" lon="6.95681">
        <ele>571</ele>
        <time>2022-10-31T11:32:34.000Z</time>
      </trkpt>
      <trkpt lat="47.94719" lon="6.95681">
        <ele>571</ele>
        <time>2022-10-31T11:32:35.000Z</time>
      </trkpt>
      <trkpt lat="47.94714" lon="6.95683">
        <ele>570.80004882812</ele>
        <time>2022-10-31T11:32:40.000Z</time>
      </trkpt>
      <trkpt lat="47.94709" lon="6.95688">
        <ele>570.59997558594</ele>
        <time>2022-10-31T11:32:46.000Z</time>
      </trkpt>
      <trkpt lat="47.94705" lon="6.95689">
        <ele>570.40002441406</ele>
        <time>2022-10-31T11:32:51.000Z</time>
      </trkpt>
      <trkpt lat="47.94704" lon="6.95689">
        <ele>570.40002441406</ele>
        <time>2022-10-31T11:32:52.000Z</time>
      </trkpt>
      <trkpt lat="47.947" lon="6.95689">
        <ele>570.40002441406</ele>
        <time>2022-10-31T11:32:57.000Z</time>
      </trkpt>
      <trkpt lat="47.94697" lon="6.95688">
        <ele>570.19995117188</ele>
        <time>2022-10-31T11:33:01.000Z</time>
      </trkpt>
      <trkpt lat="47.94695" lon="6.95687">
        <ele>570.40002441406</ele>
        <time>2022-10-31T11:33:03.000Z</time>
      </trkpt>
      <trkpt lat="47.94693" lon="6.95688">
        <ele>569.80004882812</ele>
        <time>2022-10-31T11:33:10.000Z</time>
      </trkpt>
      <trkpt lat="47.94696" lon="6.95689">
        <ele>570</ele>
        <time>2022-10-31T11:33:17.000Z</time>
      </trkpt>
      <trkpt lat="47.94696" lon="6.95689">
        <ele>570</ele>
        <time>2022-10-31T11:33:28.000Z</time>
      </trkpt>
      <trkpt lat="47.94696" lon="6.9569">
        <ele>569.80004882812</ele>
        <time>2022-10-31T11:33:52.000Z</time>
      </trkpt>
      <trkpt lat="47.94696" lon="6.95691">
        <ele>569.59997558594</ele>
        <time>2022-10-31T11:33:56.000Z</time>
      </trkpt>
      <trkpt lat="47.94697" lon="6.95692">
        <ele>569.59997558594</ele>
        <time>2022-10-31T11:34:08.000Z</time>
      </trkpt>
      <trkpt lat="47.94697" lon="6.95693">
        <ele>569.59997558594</ele>
        <time>2022-10-31T11:34:10.000Z</time>
      </trkpt>
      <trkpt lat="47.94698" lon="6.95698">
        <ele>569.40002441406</ele>
        <time>2022-10-31T11:34:22.000Z</time>
      </trkpt>
      <trkpt lat="47.94698" lon="6.95699">
        <ele>569.19995117188</ele>
        <time>2022-10-31T11:34:35.000Z</time>
      </trkpt>
      <trkpt lat="47.94698" lon="6.95691">
        <ele>569</ele>
        <time>2022-10-31T11:34:50.000Z</time>
      </trkpt>
      <trkpt lat="47.94697" lon="6.95689">
        <ele>568.80004882812</ele>
        <time>2022-10-31T11:35:05.000Z</time>
      </trkpt>
      <trkpt lat="47.94697" lon="6.95689">
        <ele>568.80004882812</ele>
        <time>2022-10-31T11:35:09.000Z</time>
      </trkpt>
      <trkpt lat="47.94696" lon="6.95689">
        <ele>568.80004882812</ele>
        <time>2022-10-31T11:35:12.000Z</time>
      </trkpt>
      <trkpt lat="47.9469" lon="6.95689">
        <ele>568.19995117188</ele>
        <time>2022-10-31T11:35:23.000Z</time>
      </trkpt>
      <trkpt lat="47.94682" lon="6.95683">
        <ele>568.19995117188</ele>
        <time>2022-10-31T11:35:30.000Z</time>
      </trkpt>
      <trkpt lat="47.94679" lon="6.95679">
        <ele>568</ele>
        <time>2022-10-31T11:35:34.000Z</time>
      </trkpt>
      <trkpt lat="47.94676" lon="6.95678">
        <ele>568</ele>
        <time>2022-10-31T11:35:37.000Z</time>
      </trkpt>
      <trkpt lat="47.94675" lon="6.95676">
        <ele>568</ele>
        <time>2022-10-31T11:35:39.000Z</time>
      </trkpt>
      <trkpt lat="47.94675" lon="6.95667">
        <ele>568</ele>
        <time>2022-10-31T11:35:43.000Z</time>
      </trkpt>
      <trkpt lat="47.94674" lon="6.95652">
        <ele>567.80004882812</ele>
        <time>2022-10-31T11:35:53.000Z</time>
      </trkpt>
      <trkpt lat="47.94673" lon="6.95649">
        <ele>567.80004882812</ele>
        <time>2022-10-31T11:35:54.000Z</time>
      </trkpt>
      <trkpt lat="47.94673" lon="6.95641">
        <ele>567.80004882812</ele>
        <time>2022-10-31T11:36:00.000Z</time>
      </trkpt>
      <trkpt lat="47.94673" lon="6.9564">
        <ele>567.80004882812</ele>
        <time>2022-10-31T11:36:04.000Z</time>
      </trkpt>
      <trkpt lat="47.94672" lon="6.9564">
        <ele>568</ele>
        <time>2022-10-31T11:36:07.000Z</time>
      </trkpt>
      <trkpt lat="47.94672" lon="6.95641">
        <ele>567.80004882812</ele>
        <time>2022-10-31T11:36:09.000Z</time>
      </trkpt>
      <trkpt lat="47.94672" lon="6.95641">
        <ele>567.80004882812</ele>
        <time>2022-10-31T11:36:12.000Z</time>
      </trkpt>
      <trkpt lat="47.94672" lon="6.95641">
        <ele>567.59997558594</ele>
        <time>2022-10-31T11:36:25.000Z</time>
      </trkpt>
      <trkpt lat="47.94672" lon="6.95635">
        <ele>567.19995117188</ele>
        <time>2022-10-31T11:36:38.000Z</time>
      </trkpt>
      <trkpt lat="47.94671" lon="6.95633">
        <ele>567.19995117188</ele>
        <time>2022-10-31T11:36:39.000Z</time>
      </trkpt>
      <trkpt lat="47.94671" lon="6.95629">
        <ele>567.40002441406</ele>
        <time>2022-10-31T11:36:41.000Z</time>
      </trkpt>
      <trkpt lat="47.9467" lon="6.95622">
        <ele>567.40002441406</ele>
        <time>2022-10-31T11:36:47.000Z</time>
      </trkpt>
      <trkpt lat="47.94669" lon="6.95616">
        <ele>567.40002441406</ele>
        <time>2022-10-31T11:36:53.000Z</time>
      </trkpt>
      <trkpt lat="47.94666" lon="6.95603">
        <ele>567.40002441406</ele>
        <time>2022-10-31T11:37:02.000Z</time>
      </trkpt>
      <trkpt lat="47.94666" lon="6.95596">
        <ele>567.40002441406</ele>
        <time>2022-10-31T11:37:09.000Z</time>
      </trkpt>
      <trkpt lat="47.94663" lon="6.95582">
        <ele>567.19995117188</ele>
        <time>2022-10-31T11:37:17.000Z</time>
      </trkpt>
      <trkpt lat="47.94663" lon="6.9558">
        <ele>567.19995117188</ele>
        <time>2022-10-31T11:37:18.000Z</time>
      </trkpt>
      <trkpt lat="47.94661" lon="6.9557">
        <ele>567</ele>
        <time>2022-10-31T11:37:25.000Z</time>
      </trkpt>
      <trkpt lat="47.9466" lon="6.95565">
        <ele>567.19995117188</ele>
        <time>2022-10-31T11:37:29.000Z</time>
      </trkpt>
      <trkpt lat="47.94659" lon="6.9556">
        <ele>567.19995117188</ele>
        <time>2022-10-31T11:37:33.000Z</time>
      </trkpt>
      <trkpt lat="47.94659" lon="6.95553">
        <ele>567.40002441406</ele>
        <time>2022-10-31T11:37:42.000Z</time>
      </trkpt>
      <trkpt lat="47.94659" lon="6.95553">
        <ele>567.40002441406</ele>
        <time>2022-10-31T11:37:43.000Z</time>
      </trkpt>
      <trkpt lat="47.94661" lon="6.95556">
        <ele>567.19995117188</ele>
        <time>2022-10-31T11:37:54.000Z</time>
      </trkpt>
      <trkpt lat="47.94661" lon="6.95556">
        <ele>567.19995117188</ele>
        <time>2022-10-31T11:38:05.000Z</time>
      </trkpt>
      <trkpt lat="47.94662" lon="6.95556">
        <ele>567.19995117188</ele>
        <time>2022-10-31T11:38:10.000Z</time>
      </trkpt>
      <trkpt lat="47.94662" lon="6.95556">
        <ele>567.19995117188</ele>
        <time>2022-10-31T11:38:13.000Z</time>
      </trkpt>
      <trkpt lat="47.94662" lon="6.95555">
        <ele>567.19995117188</ele>
        <time>2022-10-31T11:38:21.000Z</time>
      </trkpt>
      <trkpt lat="47.9466" lon="6.9555">
        <ele>567</ele>
        <time>2022-10-31T11:38:31.000Z</time>
      </trkpt>
      <trkpt lat="47.94657" lon="6.95546">
        <ele>566.80004882812</ele>
        <time>2022-10-31T11:38:36.000Z</time>
      </trkpt>
      <trkpt lat="47.94655" lon="6.95537">
        <ele>566.80004882812</ele>
        <time>2022-10-31T11:38:44.000Z</time>
      </trkpt>
      <trkpt lat="47.94655" lon="6.95536">
        <ele>566.80004882812</ele>
        <time>2022-10-31T11:38:45.000Z</time>
      </trkpt>
      <trkpt lat="47.94655" lon="6.95526">
        <ele>566.80004882812</ele>
        <time>2022-10-31T11:38:54.000Z</time>
      </trkpt>
      <trkpt lat="47.94652" lon="6.95515">
        <ele>566.80004882812</ele>
        <time>2022-10-31T11:39:03.000Z</time>
      </trkpt>
      <trkpt lat="47.94652" lon="6.95514">
        <ele>566.80004882812</ele>
        <time>2022-10-31T11:39:04.000Z</time>
      </trkpt>
      <trkpt lat="47.94651" lon="6.95512">
        <ele>566.80004882812</ele>
        <time>2022-10-31T11:39:05.000Z</time>
      </trkpt>
      <trkpt lat="47.94649" lon="6.95504">
        <ele>566.80004882812</ele>
        <time>2022-10-31T11:39:12.000Z</time>
      </trkpt>
      <trkpt lat="47.94648" lon="6.95496">
        <ele>566.80004882812</ele>
        <time>2022-10-31T11:39:18.000Z</time>
      </trkpt>
      <trkpt lat="47.94647" lon="6.95489">
        <ele>566.59997558594</ele>
        <time>2022-10-31T11:39:25.000Z</time>
      </trkpt>
      <trkpt lat="47.94645" lon="6.95473">
        <ele>566.80004882812</ele>
        <time>2022-10-31T11:39:36.000Z</time>
      </trkpt>
      <trkpt lat="47.94643" lon="6.95465">
        <ele>566.40002441406</ele>
        <time>2022-10-31T11:39:43.000Z</time>
      </trkpt>
      <trkpt lat="47.94641" lon="6.95462">
        <ele>566.59997558594</ele>
        <time>2022-10-31T11:39:50.000Z</time>
      </trkpt>
      <trkpt lat="47.94643" lon="6.95462">
        <ele>566.59997558594</ele>
        <time>2022-10-31T11:40:00.000Z</time>
      </trkpt>
      <trkpt lat="47.94643" lon="6.95459">
        <ele>566.59997558594</ele>
        <time>2022-10-31T11:40:06.000Z</time>
      </trkpt>
      <trkpt lat="47.94641" lon="6.95453">
        <ele>566.40002441406</ele>
        <time>2022-10-31T11:40:09.000Z</time>
      </trkpt>
      <trkpt lat="47.94637" lon="6.95438">
        <ele>566.19995117188</ele>
        <time>2022-10-31T11:40:19.000Z</time>
      </trkpt>
      <trkpt lat="47.94637" lon="6.95436">
        <ele>566.19995117188</ele>
        <time>2022-10-31T11:40:20.000Z</time>
      </trkpt>
      <trkpt lat="47.94637" lon="6.95435">
        <ele>566.19995117188</ele>
        <time>2022-10-31T11:40:21.000Z</time>
      </trkpt>
      <trkpt lat="47.94637" lon="6.95433">
        <ele>566.19995117188</ele>
        <time>2022-10-31T11:40:22.000Z</time>
      </trkpt>
      <trkpt lat="47.94635" lon="6.95424">
        <ele>566.19995117188</ele>
        <time>2022-10-31T11:40:29.000Z</time>
      </trkpt>
      <trkpt lat="47.94633" lon="6.95415">
        <ele>566.19995117188</ele>
        <time>2022-10-31T11:40:35.000Z</time>
      </trkpt>
      <trkpt lat="47.94633" lon="6.95413">
        <ele>566.19995117188</ele>
        <time>2022-10-31T11:40:37.000Z</time>
      </trkpt>
      <trkpt lat="47.94635" lon="6.95413">
        <ele>566.19995117188</ele>
        <time>2022-10-31T11:40:44.000Z</time>
      </trkpt>
      <trkpt lat="47.9464" lon="6.95414">
        <ele>566</ele>
        <time>2022-10-31T11:40:50.000Z</time>
      </trkpt>
      <trkpt lat="47.9464" lon="6.9541">
        <ele>566</ele>
        <time>2022-10-31T11:40:56.000Z</time>
      </trkpt>
      <trkpt lat="47.9464" lon="6.9541">
        <ele>566</ele>
        <time>2022-10-31T11:40:57.000Z</time>
      </trkpt>
      <trkpt lat="47.94643" lon="6.95415">
        <ele>566</ele>
        <time>2022-10-31T11:41:05.000Z</time>
      </trkpt>
      <trkpt lat="47.94641" lon="6.95414">
        <ele>565.80004882812</ele>
        <time>2022-10-31T11:41:12.000Z</time>
      </trkpt>
      <trkpt lat="47.94638" lon="6.95412">
        <ele>565.80004882812</ele>
        <time>2022-10-31T11:41:17.000Z</time>
      </trkpt>
      <trkpt lat="47.94636" lon="6.95411">
        <ele>566</ele>
        <time>2022-10-31T11:41:18.000Z</time>
      </trkpt>
      <trkpt lat="47.94636" lon="6.95409">
        <ele>566</ele>
        <time>2022-10-31T11:41:19.000Z</time>
      </trkpt>
      <trkpt lat="47.94635" lon="6.95407">
        <ele>566</ele>
        <time>2022-10-31T11:41:20.000Z</time>
      </trkpt>
      <trkpt lat="47.94635" lon="6.95405">
        <ele>566</ele>
        <time>2022-10-31T11:41:23.000Z</time>
      </trkpt>
      <trkpt lat="47.94634" lon="6.95403">
        <ele>565.59997558594</ele>
        <time>2022-10-31T11:41:33.000Z</time>
      </trkpt>
      <trkpt lat="47.94633" lon="6.95402">
        <ele>565.40002441406</ele>
        <time>2022-10-31T11:42:00.000Z</time>
      </trkpt>
      <trkpt lat="47.94631" lon="6.95397">
        <ele>565.40002441406</ele>
        <time>2022-10-31T11:42:04.000Z</time>
      </trkpt>
      <trkpt lat="47.94628" lon="6.95385">
        <ele>565.40002441406</ele>
        <time>2022-10-31T11:42:10.000Z</time>
      </trkpt>
      <trkpt lat="47.94627" lon="6.95381">
        <ele>565.40002441406</ele>
        <time>2022-10-31T11:42:13.000Z</time>
      </trkpt>
      <trkpt lat="47.94625" lon="6.95373">
        <ele>565.40002441406</ele>
        <time>2022-10-31T11:42:19.000Z</time>
      </trkpt>
      <trkpt lat="47.94623" lon="6.95369">
        <ele>565.40002441406</ele>
        <time>2022-10-31T11:42:22.000Z</time>
      </trkpt>
      <trkpt lat="47.94622" lon="6.95357">
        <ele>565.40002441406</ele>
        <time>2022-10-31T11:42:31.000Z</time>
      </trkpt>
      <trkpt lat="47.94622" lon="6.95349">
        <ele>565.19995117188</ele>
        <time>2022-10-31T11:42:37.000Z</time>
      </trkpt>
      <trkpt lat="47.94622" lon="6.9534">
        <ele>565.40002441406</ele>
        <time>2022-10-31T11:42:43.000Z</time>
      </trkpt>
      <trkpt lat="47.94618" lon="6.95335">
        <ele>565.59997558594</ele>
        <time>2022-10-31T11:42:49.000Z</time>
      </trkpt>
      <trkpt lat="47.94619" lon="6.95334">
        <ele>565.40002441406</ele>
        <time>2022-10-31T11:42:57.000Z</time>
      </trkpt>
      <trkpt lat="47.94621" lon="6.95332">
        <ele>565.59997558594</ele>
        <time>2022-10-31T11:43:21.000Z</time>
      </trkpt>
      <trkpt lat="47.94628" lon="6.95328">
        <ele>565.59997558594</ele>
        <time>2022-10-31T11:43:26.000Z</time>
      </trkpt>
      <trkpt lat="47.94634" lon="6.95326">
        <ele>565.59997558594</ele>
        <time>2022-10-31T11:43:30.000Z</time>
      </trkpt>
      <trkpt lat="47.94636" lon="6.95325">
        <ele>565.80004882812</ele>
        <time>2022-10-31T11:43:32.000Z</time>
      </trkpt>
      <trkpt lat="47.94637" lon="6.95325">
        <ele>565.80004882812</ele>
        <time>2022-10-31T11:43:34.000Z</time>
      </trkpt>
      <trkpt lat="47.94643" lon="6.95325">
        <ele>566.19995117188</ele>
        <time>2022-10-31T11:43:40.000Z</time>
      </trkpt>
      <trkpt lat="47.94646" lon="6.95324">
        <ele>566.40002441406</ele>
        <time>2022-10-31T11:43:45.000Z</time>
      </trkpt>
      <trkpt lat="47.94651" lon="6.95323">
        <ele>566.19995117188</ele>
        <time>2022-10-31T11:43:50.000Z</time>
      </trkpt>
      <trkpt lat="47.94652" lon="6.95324">
        <ele>566.19995117188</ele>
        <time>2022-10-31T11:43:52.000Z</time>
      </trkpt>
      <trkpt lat="47.94654" lon="6.95325">
        <ele>566.40002441406</ele>
        <time>2022-10-31T11:43:57.000Z</time>
      </trkpt>
      <trkpt lat="47.94659" lon="6.95324">
        <ele>566.40002441406</ele>
        <time>2022-10-31T11:44:03.000Z</time>
      </trkpt>
      <trkpt lat="47.94661" lon="6.95323">
        <ele>566.59997558594</ele>
        <time>2022-10-31T11:44:05.000Z</time>
      </trkpt>
      <trkpt lat="47.94662" lon="6.95323">
        <ele>566.59997558594</ele>
        <time>2022-10-31T11:44:06.000Z</time>
      </trkpt>
      <trkpt lat="47.94664" lon="6.95322">
        <ele>566.59997558594</ele>
        <time>2022-10-31T11:44:07.000Z</time>
      </trkpt>
      <trkpt lat="47.94674" lon="6.95315">
        <ele>566.80004882812</ele>
        <time>2022-10-31T11:44:16.000Z</time>
      </trkpt>
      <trkpt lat="47.94679" lon="6.95311">
        <ele>567</ele>
        <time>2022-10-31T11:44:19.000Z</time>
      </trkpt>
      <trkpt lat="47.94682" lon="6.95305">
        <ele>567.19995117188</ele>
        <time>2022-10-31T11:44:24.000Z</time>
      </trkpt>
      <trkpt lat="47.94684" lon="6.95302">
        <ele>567.19995117188</ele>
        <time>2022-10-31T11:44:28.000Z</time>
      </trkpt>
      <trkpt lat="47.94686" lon="6.95298">
        <ele>567.19995117188</ele>
        <time>2022-10-31T11:44:31.000Z</time>
      </trkpt>
      <trkpt lat="47.94686" lon="6.95298">
        <ele>567.19995117188</ele>
        <time>2022-10-31T11:44:32.000Z</time>
      </trkpt>
      <trkpt lat="47.94686" lon="6.95297">
        <ele>567.19995117188</ele>
        <time>2022-10-31T11:44:33.000Z</time>
      </trkpt>
      <trkpt lat="47.94688" lon="6.95292">
        <ele>567.40002441406</ele>
        <time>2022-10-31T11:44:38.000Z</time>
      </trkpt>
      <trkpt lat="47.94689" lon="6.95291">
        <ele>567.40002441406</ele>
        <time>2022-10-31T11:44:40.000Z</time>
      </trkpt>
      <trkpt lat="47.94694" lon="6.95287">
        <ele>567.59997558594</ele>
        <time>2022-10-31T11:44:45.000Z</time>
      </trkpt>
      <trkpt lat="47.94695" lon="6.95287">
        <ele>567.59997558594</ele>
        <time>2022-10-31T11:44:46.000Z</time>
      </trkpt>
      <trkpt lat="47.94701" lon="6.95278">
        <ele>567.80004882812</ele>
        <time>2022-10-31T11:44:54.000Z</time>
      </trkpt>
      <trkpt lat="47.94707" lon="6.95271">
        <ele>568</ele>
        <time>2022-10-31T11:45:01.000Z</time>
      </trkpt>
      <trkpt lat="47.94707" lon="6.95271">
        <ele>568</ele>
        <time>2022-10-31T11:45:02.000Z</time>
      </trkpt>
      <trkpt lat="47.9471" lon="6.95268">
        <ele>568</ele>
        <time>2022-10-31T11:45:06.000Z</time>
      </trkpt>
      <trkpt lat="47.94716" lon="6.9526">
        <ele>568.19995117188</ele>
        <time>2022-10-31T11:45:17.000Z</time>
      </trkpt>
      <trkpt lat="47.94717" lon="6.95259">
        <ele>568.19995117188</ele>
        <time>2022-10-31T11:45:18.000Z</time>
      </trkpt>
      <trkpt lat="47.94721" lon="6.95255">
        <ele>568.40002441406</ele>
        <time>2022-10-31T11:45:24.000Z</time>
      </trkpt>
      <trkpt lat="47.94724" lon="6.95251">
        <ele>568.59997558594</ele>
        <time>2022-10-31T11:45:30.000Z</time>
      </trkpt>
      <trkpt lat="47.94726" lon="6.9525">
        <ele>568.80004882812</ele>
        <time>2022-10-31T11:45:32.000Z</time>
      </trkpt>
      <trkpt lat="47.94727" lon="6.95248">
        <ele>568.80004882812</ele>
        <time>2022-10-31T11:45:34.000Z</time>
      </trkpt>
      <trkpt lat="47.94729" lon="6.95244">
        <ele>568.80004882812</ele>
        <time>2022-10-31T11:45:37.000Z</time>
      </trkpt>
      <trkpt lat="47.94734" lon="6.95238">
        <ele>569</ele>
        <time>2022-10-31T11:45:43.000Z</time>
      </trkpt>
      <trkpt lat="47.94739" lon="6.9523">
        <ele>569</ele>
        <time>2022-10-31T11:45:50.000Z</time>
      </trkpt>
      <trkpt lat="47.94739" lon="6.95226">
        <ele>569.19995117188</ele>
        <time>2022-10-31T11:45:55.000Z</time>
      </trkpt>
      <trkpt lat="47.94738" lon="6.95226">
        <ele>569.40002441406</ele>
        <time>2022-10-31T11:45:56.000Z</time>
      </trkpt>
      <trkpt lat="47.94737" lon="6.95226">
        <ele>569.40002441406</ele>
        <time>2022-10-31T11:45:57.000Z</time>
      </trkpt>
      <trkpt lat="47.94734" lon="6.95226">
        <ele>569.59997558594</ele>
        <time>2022-10-31T11:46:00.000Z</time>
      </trkpt>
      <trkpt lat="47.94733" lon="6.95226">
        <ele>569.80004882812</ele>
        <time>2022-10-31T11:46:01.000Z</time>
      </trkpt>
      <trkpt lat="47.94732" lon="6.95225">
        <ele>570</ele>
        <time>2022-10-31T11:46:03.000Z</time>
      </trkpt>
      <trkpt lat="47.94731" lon="6.95226">
        <ele>570.19995117188</ele>
        <time>2022-10-31T11:46:08.000Z</time>
      </trkpt>
      <trkpt lat="47.94731" lon="6.95226">
        <ele>570.19995117188</ele>
        <time>2022-10-31T11:46:09.000Z</time>
      </trkpt>
      <trkpt lat="47.9473" lon="6.95229">
        <ele>570.40002441406</ele>
        <time>2022-10-31T11:46:11.000Z</time>
      </trkpt>
      <trkpt lat="47.94729" lon="6.95237">
        <ele>570.40002441406</ele>
        <time>2022-10-31T11:46:14.000Z</time>
      </trkpt>
      <trkpt lat="47.94728" lon="6.95249">
        <ele>570.40002441406</ele>
        <time>2022-10-31T11:46:20.000Z</time>
      </trkpt>
      <trkpt lat="47.94735" lon="6.95246">
        <ele>570.40002441406</ele>
        <time>2022-10-31T11:46:23.000Z</time>
      </trkpt>
      <trkpt lat="47.94739" lon="6.95246">
        <ele>570.40002441406</ele>
        <time>2022-10-31T11:46:26.000Z</time>
      </trkpt>
      <trkpt lat="47.94741" lon="6.95243">
        <ele>570.40002441406</ele>
        <time>2022-10-31T11:46:28.000Z</time>
      </trkpt>
      <trkpt lat="47.94745" lon="6.95237">
        <ele>570.19995117188</ele>
        <time>2022-10-31T11:46:35.000Z</time>
      </trkpt>
      <trkpt lat="47.94744" lon="6.9524">
        <ele>570.40002441406</ele>
        <time>2022-10-31T11:46:40.000Z</time>
      </trkpt>
      <trkpt lat="47.94745" lon="6.95239">
        <ele>570.19995117188</ele>
        <time>2022-10-31T11:46:56.000Z</time>
      </trkpt>
      <trkpt lat="47.94745" lon="6.9524">
        <ele>570.40002441406</ele>
        <time>2022-10-31T11:47:05.000Z</time>
      </trkpt>
      <trkpt lat="47.94744" lon="6.9524">
        <ele>570.59997558594</ele>
        <time>2022-10-31T11:47:06.000Z</time>
      </trkpt>
      <trkpt lat="47.94743" lon="6.9524">
        <ele>571</ele>
        <time>2022-10-31T11:47:07.000Z</time>
      </trkpt>
      <trkpt lat="47.94738" lon="6.95243">
        <ele>571</ele>
        <time>2022-10-31T11:47:10.000Z</time>
      </trkpt>
      <trkpt lat="47.94736" lon="6.95245">
        <ele>571</ele>
        <time>2022-10-31T11:47:11.000Z</time>
      </trkpt>
      <trkpt lat="47.94727" lon="6.9525">
        <ele>571</ele>
        <time>2022-10-31T11:47:16.000Z</time>
      </trkpt>
      <trkpt lat="47.94727" lon="6.95251">
        <ele>571</ele>
        <time>2022-10-31T11:47:17.000Z</time>
      </trkpt>
      <trkpt lat="47.94727" lon="6.95255">
        <ele>571</ele>
        <time>2022-10-31T11:47:23.000Z</time>
      </trkpt>
      <trkpt lat="47.94724" lon="6.95257">
        <ele>571</ele>
        <time>2022-10-31T11:47:28.000Z</time>
      </trkpt>
      <trkpt lat="47.94719" lon="6.95259">
        <ele>571</ele>
        <time>2022-10-31T11:47:34.000Z</time>
      </trkpt>
      <trkpt lat="47.94716" lon="6.95262">
        <ele>571</ele>
        <time>2022-10-31T11:47:38.000Z</time>
      </trkpt>
      <trkpt lat="47.94715" lon="6.95263">
        <ele>571</ele>
        <time>2022-10-31T11:47:40.000Z</time>
      </trkpt>
      <trkpt lat="47.94712" lon="6.95267">
        <ele>571</ele>
        <time>2022-10-31T11:47:45.000Z</time>
      </trkpt>
      <trkpt lat="47.9471" lon="6.95271">
        <ele>571</ele>
        <time>2022-10-31T11:47:48.000Z</time>
      </trkpt>
      <trkpt lat="47.94707" lon="6.95276">
        <ele>571</ele>
        <time>2022-10-31T11:47:52.000Z</time>
      </trkpt>
      <trkpt lat="47.94699" lon="6.95277">
        <ele>571</ele>
        <time>2022-10-31T11:47:56.000Z</time>
      </trkpt>
      <trkpt lat="47.94698" lon="6.95277">
        <ele>571</ele>
        <time>2022-10-31T11:47:57.000Z</time>
      </trkpt>
      <trkpt lat="47.94695" lon="6.95278">
        <ele>571</ele>
        <time>2022-10-31T11:48:02.000Z</time>
      </trkpt>
      <trkpt lat="47.94695" lon="6.95278">
        <ele>571</ele>
        <time>2022-10-31T11:48:03.000Z</time>
      </trkpt>
      <trkpt lat="47.9469" lon="6.9528">
        <ele>571</ele>
        <time>2022-10-31T11:48:07.000Z</time>
      </trkpt>
      <trkpt lat="47.94688" lon="6.9528">
        <ele>577.19995117188</ele>
        <time>2022-10-31T11:48:08.000Z</time>
      </trkpt>
      <trkpt lat="47.94685" lon="6.95281">
        <ele>577.19995117188</ele>
        <time>2022-10-31T11:48:10.000Z</time>
      </trkpt>
      <trkpt lat="47.94682" lon="6.95282">
        <ele>577.19995117188</ele>
        <time>2022-10-31T11:48:12.000Z</time>
      </trkpt>
      <trkpt lat="47.94676" lon="6.95282">
        <ele>577.19995117188</ele>
        <time>2022-10-31T11:48:16.000Z</time>
      </trkpt>
      <trkpt lat="47.94669" lon="6.95286">
        <ele>577.80004882812</ele>
        <time>2022-10-31T11:48:22.000Z</time>
      </trkpt>
      <trkpt lat="47.94666" lon="6.95287">
        <ele>578.19995117188</ele>
        <time>2022-10-31T11:48:27.000Z</time>
      </trkpt>
      <trkpt lat="47.94671" lon="6.95281">
        <ele>579.19995117188</ele>
        <time>2022-10-31T11:48:31.000Z</time>
      </trkpt>
      <trkpt lat="47.94671" lon="6.95279">
        <ele>579.40002441406</ele>
        <time>2022-10-31T11:48:32.000Z</time>
      </trkpt>
      <trkpt lat="47.94671" lon="6.95278">
        <ele>580</ele>
        <time>2022-10-31T11:48:35.000Z</time>
      </trkpt>
      <trkpt lat="47.94671" lon="6.95278">
        <ele>580.40002441406</ele>
        <time>2022-10-31T11:48:40.000Z</time>
      </trkpt>
      <trkpt lat="47.94673" lon="6.95268">
        <ele>582.59997558594</ele>
        <time>2022-10-31T11:48:59.000Z</time>
      </trkpt>
      <trkpt lat="47.94674" lon="6.95263">
        <ele>582.80004882812</ele>
        <time>2022-10-31T11:49:01.000Z</time>
      </trkpt>
      <trkpt lat="47.94676" lon="6.95256">
        <ele>583</ele>
        <time>2022-10-31T11:49:04.000Z</time>
      </trkpt>
      <trkpt lat="47.94678" lon="6.95255">
        <ele>583.40002441406</ele>
        <time>2022-10-31T11:49:06.000Z</time>
      </trkpt>
      <trkpt lat="47.94679" lon="6.95254">
        <ele>583.40002441406</ele>
        <time>2022-10-31T11:49:09.000Z</time>
      </trkpt>
      <trkpt lat="47.94679" lon="6.95255">
        <ele>583.40002441406</ele>
        <time>2022-10-31T11:49:10.000Z</time>
      </trkpt>
      <trkpt lat="47.94681" lon="6.95252">
        <ele>583.40002441406</ele>
        <time>2022-10-31T11:49:15.000Z</time>
      </trkpt>
      <trkpt lat="47.94684" lon="6.95248">
        <ele>583.80004882812</ele>
        <time>2022-10-31T11:49:20.000Z</time>
      </trkpt>
      <trkpt lat="47.94685" lon="6.95247">
        <ele>583.80004882812</ele>
        <time>2022-10-31T11:49:21.000Z</time>
      </trkpt>
      <trkpt lat="47.94686" lon="6.95244">
        <ele>584</ele>
        <time>2022-10-31T11:49:23.000Z</time>
      </trkpt>
      <trkpt lat="47.94691" lon="6.95235">
        <ele>584.19995117188</ele>
        <time>2022-10-31T11:49:29.000Z</time>
      </trkpt>
      <trkpt lat="47.94694" lon="6.95234">
        <ele>584.40002441406</ele>
        <time>2022-10-31T11:49:34.000Z</time>
      </trkpt>
      <trkpt lat="47.94699" lon="6.95229">
        <ele>584.19995117188</ele>
        <time>2022-10-31T11:49:43.000Z</time>
      </trkpt>
      <trkpt lat="47.94703" lon="6.95222">
        <ele>584</ele>
        <time>2022-10-31T11:49:49.000Z</time>
      </trkpt>
      <trkpt lat="47.94708" lon="6.95221">
        <ele>584.19995117188</ele>
        <time>2022-10-31T11:49:55.000Z</time>
      </trkpt>
      <trkpt lat="47.94714" lon="6.95216">
        <ele>584</ele>
        <time>2022-10-31T11:50:01.000Z</time>
      </trkpt>
      <trkpt lat="47.94716" lon="6.95211">
        <ele>583.59997558594</ele>
        <time>2022-10-31T11:50:07.000Z</time>
      </trkpt>
      <trkpt lat="47.94719" lon="6.95211">
        <ele>583.40002441406</ele>
        <time>2022-10-31T11:50:13.000Z</time>
      </trkpt>
      <trkpt lat="47.94724" lon="6.95209">
        <ele>583</ele>
        <time>2022-10-31T11:50:17.000Z</time>
      </trkpt>
      <trkpt lat="47.94725" lon="6.95209">
        <ele>582.80004882812</ele>
        <time>2022-10-31T11:50:18.000Z</time>
      </trkpt>
      <trkpt lat="47.94728" lon="6.95209">
        <ele>582.40002441406</ele>
        <time>2022-10-31T11:50:23.000Z</time>
      </trkpt>
      <trkpt lat="47.94732" lon="6.95209">
        <ele>582.40002441406</ele>
        <time>2022-10-31T11:50:28.000Z</time>
      </trkpt>
      <trkpt lat="47.94731" lon="6.95212">
        <ele>582.40002441406</ele>
        <time>2022-10-31T11:50:31.000Z</time>
      </trkpt>
      <trkpt lat="47.94729" lon="6.95213">
        <ele>582.40002441406</ele>
        <time>2022-10-31T11:50:32.000Z</time>
      </trkpt>
      <trkpt lat="47.94728" lon="6.95212">
        <ele>582.40002441406</ele>
        <time>2022-10-31T11:50:36.000Z</time>
      </trkpt>
      <trkpt lat="47.94732" lon="6.95207">
        <ele>582.19995117188</ele>
        <time>2022-10-31T11:50:41.000Z</time>
      </trkpt>
      <trkpt lat="47.94732" lon="6.95207">
        <ele>582.19995117188</ele>
        <time>2022-10-31T11:50:42.000Z</time>
      </trkpt>
      <trkpt lat="47.94735" lon="6.95203">
        <ele>581.80004882812</ele>
        <time>2022-10-31T11:50:48.000Z</time>
      </trkpt>
      <trkpt lat="47.94736" lon="6.95203">
        <ele>581.59997558594</ele>
        <time>2022-10-31T11:50:49.000Z</time>
      </trkpt>
      <trkpt lat="47.94738" lon="6.95202">
        <ele>581.59997558594</ele>
        <time>2022-10-31T11:50:52.000Z</time>
      </trkpt>
      <trkpt lat="47.94742" lon="6.95201">
        <ele>581.80004882812</ele>
        <time>2022-10-31T11:50:57.000Z</time>
      </trkpt>
      <trkpt lat="47.94752" lon="6.95193">
        <ele>582.40002441406</ele>
        <time>2022-10-31T11:51:03.000Z</time>
      </trkpt>
      <trkpt lat="47.94756" lon="6.95193">
        <ele>582.59997558594</ele>
        <time>2022-10-31T11:51:07.000Z</time>
      </trkpt>
      <trkpt lat="47.94756" lon="6.95192">
        <ele>582.80004882812</ele>
        <time>2022-10-31T11:51:08.000Z</time>
      </trkpt>
      <trkpt lat="47.9476" lon="6.95187">
        <ele>583.59997558594</ele>
        <time>2022-10-31T11:51:12.000Z</time>
      </trkpt>
      <trkpt lat="47.94765" lon="6.95184">
        <ele>583.59997558594</ele>
        <time>2022-10-31T11:51:18.000Z</time>
      </trkpt>
      <trkpt lat="47.94769" lon="6.95179">
        <ele>583.59997558594</ele>
        <time>2022-10-31T11:51:24.000Z</time>
      </trkpt>
      <trkpt lat="47.94773" lon="6.95174">
        <ele>583.59997558594</ele>
        <time>2022-10-31T11:51:28.000Z</time>
      </trkpt>
      <trkpt lat="47.94774" lon="6.95173">
        <ele>583.59997558594</ele>
        <time>2022-10-31T11:51:29.000Z</time>
      </trkpt>
      <trkpt lat="47.94774" lon="6.95172">
        <ele>583.59997558594</ele>
        <time>2022-10-31T11:51:30.000Z</time>
      </trkpt>
      <trkpt lat="47.94777" lon="6.9517">
        <ele>583.59997558594</ele>
        <time>2022-10-31T11:51:32.000Z</time>
      </trkpt>
      <trkpt lat="47.94778" lon="6.95169">
        <ele>583.59997558594</ele>
        <time>2022-10-31T11:51:33.000Z</time>
      </trkpt>
      <trkpt lat="47.94778" lon="6.95168">
        <ele>583.59997558594</ele>
        <time>2022-10-31T11:51:34.000Z</time>
      </trkpt>
      <trkpt lat="47.94778" lon="6.95167">
        <ele>583.59997558594</ele>
        <time>2022-10-31T11:51:35.000Z</time>
      </trkpt>
      <trkpt lat="47.94781" lon="6.95158">
        <ele>583.59997558594</ele>
        <time>2022-10-31T11:51:41.000Z</time>
      </trkpt>
      <trkpt lat="47.94782" lon="6.95157">
        <ele>583.59997558594</ele>
        <time>2022-10-31T11:51:42.000Z</time>
      </trkpt>
      <trkpt lat="47.94788" lon="6.95149">
        <ele>583.59997558594</ele>
        <time>2022-10-31T11:51:48.000Z</time>
      </trkpt>
      <trkpt lat="47.94786" lon="6.95153">
        <ele>583.59997558594</ele>
        <time>2022-10-31T11:51:56.000Z</time>
      </trkpt>
      <trkpt lat="47.94785" lon="6.95154">
        <ele>583.59997558594</ele>
        <time>2022-10-31T11:52:04.000Z</time>
      </trkpt>
      <trkpt lat="47.94786" lon="6.95153">
        <ele>587.19995117188</ele>
        <time>2022-10-31T11:52:24.000Z</time>
      </trkpt>
      <trkpt lat="47.9479" lon="6.9515">
        <ele>587.19995117188</ele>
        <time>2022-10-31T11:52:34.000Z</time>
      </trkpt>
      <trkpt lat="47.94793" lon="6.95149">
        <ele>587.19995117188</ele>
        <time>2022-10-31T11:52:48.000Z</time>
      </trkpt>
      <trkpt lat="47.94793" lon="6.95149">
        <ele>587.19995117188</ele>
        <time>2022-10-31T11:52:51.000Z</time>
      </trkpt>
      <trkpt lat="47.94798" lon="6.95144">
        <ele>587.19995117188</ele>
        <time>2022-10-31T11:53:21.000Z</time>
      </trkpt>
      <trkpt lat="47.94801" lon="6.95141">
        <ele>587.19995117188</ele>
        <time>2022-10-31T11:53:24.000Z</time>
      </trkpt>
      <trkpt lat="47.94809" lon="6.95134">
        <ele>587.19995117188</ele>
        <time>2022-10-31T11:53:31.000Z</time>
      </trkpt>
      <trkpt lat="47.94809" lon="6.95132">
        <ele>587.19995117188</ele>
        <time>2022-10-31T11:53:35.000Z</time>
      </trkpt>
      <trkpt lat="47.94808" lon="6.95132">
        <ele>587.19995117188</ele>
        <time>2022-10-31T11:53:37.000Z</time>
      </trkpt>
      <trkpt lat="47.94809" lon="6.95133">
        <ele>587.19995117188</ele>
        <time>2022-10-31T11:53:43.000Z</time>
      </trkpt>
      <trkpt lat="47.94812" lon="6.95128">
        <ele>587.19995117188</ele>
        <time>2022-10-31T11:53:48.000Z</time>
      </trkpt>
      <trkpt lat="47.94813" lon="6.95121">
        <ele>587.19995117188</ele>
        <time>2022-10-31T11:54:02.000Z</time>
      </trkpt>
      <trkpt lat="47.94813" lon="6.95121">
        <ele>587.19995117188</ele>
        <time>2022-10-31T11:54:06.000Z</time>
      </trkpt>
      <trkpt lat="47.94812" lon="6.95122">
        <ele>587.19995117188</ele>
        <time>2022-10-31T11:54:07.000Z</time>
      </trkpt>
      <trkpt lat="47.94815" lon="6.95117">
        <ele>587.19995117188</ele>
        <time>2022-10-31T11:54:12.000Z</time>
      </trkpt>
      <trkpt lat="47.94818" lon="6.95116">
        <ele>587.19995117188</ele>
        <time>2022-10-31T11:54:18.000Z</time>
      </trkpt>
      <trkpt lat="47.94822" lon="6.95114">
        <ele>587.19995117188</ele>
        <time>2022-10-31T11:54:25.000Z</time>
      </trkpt>
      <trkpt lat="47.94825" lon="6.95115">
        <ele>587.19995117188</ele>
        <time>2022-10-31T11:54:32.000Z</time>
      </trkpt>
      <trkpt lat="47.94828" lon="6.95112">
        <ele>587.19995117188</ele>
        <time>2022-10-31T11:54:38.000Z</time>
      </trkpt>
      <trkpt lat="47.94829" lon="6.95111">
        <ele>587.19995117188</ele>
        <time>2022-10-31T11:54:40.000Z</time>
      </trkpt>
      <trkpt lat="47.94833" lon="6.95106">
        <ele>587.19995117188</ele>
        <time>2022-10-31T11:54:45.000Z</time>
      </trkpt>
      <trkpt lat="47.94833" lon="6.95105">
        <ele>587.19995117188</ele>
        <time>2022-10-31T11:54:46.000Z</time>
      </trkpt>
      <trkpt lat="47.94833" lon="6.95105">
        <ele>587.19995117188</ele>
        <time>2022-10-31T11:54:50.000Z</time>
      </trkpt>
      <trkpt lat="47.94835" lon="6.95104">
        <ele>587.19995117188</ele>
        <time>2022-10-31T11:54:55.000Z</time>
      </trkpt>
      <trkpt lat="47.94835" lon="6.95102">
        <ele>587.19995117188</ele>
        <time>2022-10-31T11:54:57.000Z</time>
      </trkpt>
      <trkpt lat="47.94841" lon="6.95106">
        <ele>587.19995117188</ele>
        <time>2022-10-31T11:55:03.000Z</time>
      </trkpt>
      <trkpt lat="47.94841" lon="6.95106">
        <ele>587.19995117188</ele>
        <time>2022-10-31T11:55:04.000Z</time>
      </trkpt>
      <trkpt lat="47.94841" lon="6.95106">
        <ele>587.19995117188</ele>
        <time>2022-10-31T11:55:06.000Z</time>
      </trkpt>
      <trkpt lat="47.9484" lon="6.95107">
        <ele>587.19995117188</ele>
        <time>2022-10-31T11:55:11.000Z</time>
      </trkpt>
      <trkpt lat="47.94838" lon="6.95109">
        <ele>591</ele>
        <time>2022-10-31T11:55:15.000Z</time>
      </trkpt>
      <trkpt lat="47.94839" lon="6.95107">
        <ele>591.59997558594</ele>
        <time>2022-10-31T11:55:28.000Z</time>
      </trkpt>
      <trkpt lat="47.9484" lon="6.95106">
        <ele>591.80004882812</ele>
        <time>2022-10-31T11:55:34.000Z</time>
      </trkpt>
      <trkpt lat="47.94844" lon="6.95097">
        <ele>592</ele>
        <time>2022-10-31T11:55:48.000Z</time>
      </trkpt>
      <trkpt lat="47.94848" lon="6.95087">
        <ele>592.80004882812</ele>
        <time>2022-10-31T11:55:56.000Z</time>
      </trkpt>
      <trkpt lat="47.94852" lon="6.95081">
        <ele>593</ele>
        <time>2022-10-31T11:56:00.000Z</time>
      </trkpt>
      <trkpt lat="47.94854" lon="6.95079">
        <ele>593</ele>
        <time>2022-10-31T11:56:02.000Z</time>
      </trkpt>
      <trkpt lat="47.94856" lon="6.95077">
        <ele>593.19995117188</ele>
        <time>2022-10-31T11:56:06.000Z</time>
      </trkpt>
      <trkpt lat="47.94857" lon="6.95076">
        <ele>593.40002441406</ele>
        <time>2022-10-31T11:56:07.000Z</time>
      </trkpt>
      <trkpt lat="47.94859" lon="6.95073">
        <ele>593.80004882812</ele>
        <time>2022-10-31T11:56:11.000Z</time>
      </trkpt>
      <trkpt lat="47.94863" lon="6.95068">
        <ele>594.19995117188</ele>
        <time>2022-10-31T11:56:17.000Z</time>
      </trkpt>
      <trkpt lat="47.94867" lon="6.95065">
        <ele>594.59997558594</ele>
        <time>2022-10-31T11:56:22.000Z</time>
      </trkpt>
      <trkpt lat="47.94868" lon="6.95062">
        <ele>594.80004882812</ele>
        <time>2022-10-31T11:56:24.000Z</time>
      </trkpt>
      <trkpt lat="47.94869" lon="6.95061">
        <ele>594.80004882812</ele>
        <time>2022-10-31T11:56:25.000Z</time>
      </trkpt>
      <trkpt lat="47.94871" lon="6.95061">
        <ele>595</ele>
        <time>2022-10-31T11:56:27.000Z</time>
      </trkpt>
      <trkpt lat="47.94872" lon="6.95061">
        <ele>595.19995117188</ele>
        <time>2022-10-31T11:56:29.000Z</time>
      </trkpt>
      <trkpt lat="47.94874" lon="6.95061">
        <ele>595.40002441406</ele>
        <time>2022-10-31T11:56:32.000Z</time>
      </trkpt>
      <trkpt lat="47.9488" lon="6.95059">
        <ele>595.40002441406</ele>
        <time>2022-10-31T11:56:36.000Z</time>
      </trkpt>
      <trkpt lat="47.94881" lon="6.95062">
        <ele>595.59997558594</ele>
        <time>2022-10-31T11:56:40.000Z</time>
      </trkpt>
      <trkpt lat="47.94888" lon="6.95055">
        <ele>596.19995117188</ele>
        <time>2022-10-31T11:56:48.000Z</time>
      </trkpt>
      <trkpt lat="47.94892" lon="6.95049">
        <ele>596.80004882812</ele>
        <time>2022-10-31T11:56:53.000Z</time>
      </trkpt>
      <trkpt lat="47.94893" lon="6.95048">
        <ele>596.80004882812</ele>
        <time>2022-10-31T11:56:54.000Z</time>
      </trkpt>
      <trkpt lat="47.94895" lon="6.95046">
        <ele>597</ele>
        <time>2022-10-31T11:56:56.000Z</time>
      </trkpt>
      <trkpt lat="47.94895" lon="6.95045">
        <ele>597</ele>
        <time>2022-10-31T11:56:57.000Z</time>
      </trkpt>
      <trkpt lat="47.94897" lon="6.95045">
        <ele>597</ele>
        <time>2022-10-31T11:56:58.000Z</time>
      </trkpt>
      <trkpt lat="47.949" lon="6.95046">
        <ele>597.19995117188</ele>
        <time>2022-10-31T11:57:00.000Z</time>
      </trkpt>
      <trkpt lat="47.94901" lon="6.95047">
        <ele>597.40002441406</ele>
        <time>2022-10-31T11:57:02.000Z</time>
      </trkpt>
      <trkpt lat="47.94902" lon="6.95048">
        <ele>597.40002441406</ele>
        <time>2022-10-31T11:57:04.000Z</time>
      </trkpt>
      <trkpt lat="47.94903" lon="6.95053">
        <ele>597.40002441406</ele>
        <time>2022-10-31T11:57:10.000Z</time>
      </trkpt>
      <trkpt lat="47.94903" lon="6.95054">
        <ele>597.19995117188</ele>
        <time>2022-10-31T11:57:12.000Z</time>
      </trkpt>
      <trkpt lat="47.94902" lon="6.95053">
        <ele>597.19995117188</ele>
        <time>2022-10-31T11:57:16.000Z</time>
      </trkpt>
      <trkpt lat="47.94901" lon="6.95054">
        <ele>597</ele>
        <time>2022-10-31T11:57:25.000Z</time>
      </trkpt>
      <trkpt lat="47.94902" lon="6.95054">
        <ele>597</ele>
        <time>2022-10-31T11:57:29.000Z</time>
      </trkpt>
      <trkpt lat="47.94902" lon="6.95054">
        <ele>596.80004882812</ele>
        <time>2022-10-31T11:57:35.000Z</time>
      </trkpt>
      <trkpt lat="47.94901" lon="6.95051">
        <ele>597</ele>
        <time>2022-10-31T11:57:46.000Z</time>
      </trkpt>
      <trkpt lat="47.949" lon="6.95052">
        <ele>597.19995117188</ele>
        <time>2022-10-31T11:57:48.000Z</time>
      </trkpt>
      <trkpt lat="47.94901" lon="6.95051">
        <ele>597.19995117188</ele>
        <time>2022-10-31T11:57:50.000Z</time>
      </trkpt>
      <trkpt lat="47.94901" lon="6.95051">
        <ele>597</ele>
        <time>2022-10-31T11:57:56.000Z</time>
      </trkpt>
      <trkpt lat="47.94902" lon="6.95054">
        <ele>597.19995117188</ele>
        <time>2022-10-31T11:58:03.000Z</time>
      </trkpt>
      <trkpt lat="47.94903" lon="6.95057">
        <ele>597.19995117188</ele>
        <time>2022-10-31T11:58:09.000Z</time>
      </trkpt>
      <trkpt lat="47.94903" lon="6.95057">
        <ele>597.59997558594</ele>
        <time>2022-10-31T11:58:19.000Z</time>
      </trkpt>
      <trkpt lat="47.94904" lon="6.95057">
        <ele>597.59997558594</ele>
        <time>2022-10-31T11:58:23.000Z</time>
      </trkpt>
      <trkpt lat="47.94905" lon="6.95057">
        <ele>597.59997558594</ele>
        <time>2022-10-31T11:58:29.000Z</time>
      </trkpt>
      <trkpt lat="47.94905" lon="6.95057">
        <ele>597.59997558594</ele>
        <time>2022-10-31T11:58:30.000Z</time>
      </trkpt>
      <trkpt lat="47.94905" lon="6.95058">
        <ele>597.59997558594</ele>
        <time>2022-10-31T11:58:32.000Z</time>
      </trkpt>
      <trkpt lat="47.94904" lon="6.95062">
        <ele>597.59997558594</ele>
        <time>2022-10-31T11:58:42.000Z</time>
      </trkpt>
      <trkpt lat="47.94903" lon="6.95063">
        <ele>597.59997558594</ele>
        <time>2022-10-31T11:58:45.000Z</time>
      </trkpt>
      <trkpt lat="47.949" lon="6.95065">
        <ele>597.59997558594</ele>
        <time>2022-10-31T11:58:49.000Z</time>
      </trkpt>
      <trkpt lat="47.94896" lon="6.95066">
        <ele>597.59997558594</ele>
        <time>2022-10-31T11:59:01.000Z</time>
      </trkpt>
      <trkpt lat="47.94892" lon="6.95063">
        <ele>597.59997558594</ele>
        <time>2022-10-31T11:59:22.000Z</time>
      </trkpt>
      <trkpt lat="47.94895" lon="6.95058">
        <ele>597.59997558594</ele>
        <time>2022-10-31T11:59:38.000Z</time>
      </trkpt>
      <trkpt lat="47.94896" lon="6.95055">
        <ele>597.59997558594</ele>
        <time>2022-10-31T11:59:41.000Z</time>
      </trkpt>
      <trkpt lat="47.949" lon="6.95052">
        <ele>597.59997558594</ele>
        <time>2022-10-31T11:59:45.000Z</time>
      </trkpt>
      <trkpt lat="47.94905" lon="6.95051">
        <ele>597.59997558594</ele>
        <time>2022-10-31T11:59:53.000Z</time>
      </trkpt>
      <trkpt lat="47.94901" lon="6.95047">
        <ele>597.59997558594</ele>
        <time>2022-10-31T12:00:01.000Z</time>
      </trkpt>
      <trkpt lat="47.94904" lon="6.9504">
        <ele>597.59997558594</ele>
        <time>2022-10-31T12:00:07.000Z</time>
      </trkpt>
      <trkpt lat="47.94908" lon="6.95032">
        <ele>597.59997558594</ele>
        <time>2022-10-31T12:00:13.000Z</time>
      </trkpt>
      <trkpt lat="47.94911" lon="6.95024">
        <ele>597.59997558594</ele>
        <time>2022-10-31T12:00:19.000Z</time>
      </trkpt>
      <trkpt lat="47.94912" lon="6.95022">
        <ele>597.59997558594</ele>
        <time>2022-10-31T12:00:21.000Z</time>
      </trkpt>
      <trkpt lat="47.94913" lon="6.95021">
        <ele>597.59997558594</ele>
        <time>2022-10-31T12:00:22.000Z</time>
      </trkpt>
      <trkpt lat="47.94913" lon="6.95022">
        <ele>597.59997558594</ele>
        <time>2022-10-31T12:00:27.000Z</time>
      </trkpt>
      <trkpt lat="47.94914" lon="6.9502">
        <ele>597.59997558594</ele>
        <time>2022-10-31T12:00:31.000Z</time>
      </trkpt>
      <trkpt lat="47.94916" lon="6.95015">
        <ele>597.59997558594</ele>
        <time>2022-10-31T12:00:37.000Z</time>
      </trkpt>
      <trkpt lat="47.94918" lon="6.95014">
        <ele>597.59997558594</ele>
        <time>2022-10-31T12:00:42.000Z</time>
      </trkpt>
      <trkpt lat="47.94922" lon="6.95012">
        <ele>597.59997558594</ele>
        <time>2022-10-31T12:00:46.000Z</time>
      </trkpt>
      <trkpt lat="47.94922" lon="6.95012">
        <ele>597.59997558594</ele>
        <time>2022-10-31T12:00:47.000Z</time>
      </trkpt>
      <trkpt lat="47.94922" lon="6.95012">
        <ele>597.59997558594</ele>
        <time>2022-10-31T12:00:48.000Z</time>
      </trkpt>
      <trkpt lat="47.94922" lon="6.95011">
        <ele>597.59997558594</ele>
        <time>2022-10-31T12:00:55.000Z</time>
      </trkpt>
      <trkpt lat="47.94923" lon="6.95012">
        <ele>597.59997558594</ele>
        <time>2022-10-31T12:00:58.000Z</time>
      </trkpt>
      <trkpt lat="47.94925" lon="6.95008">
        <ele>597.59997558594</ele>
        <time>2022-10-31T12:01:04.000Z</time>
      </trkpt>
      <trkpt lat="47.94924" lon="6.95004">
        <ele>597.59997558594</ele>
        <time>2022-10-31T12:01:11.000Z</time>
      </trkpt>
      <trkpt lat="47.94921" lon="6.95004">
        <ele>597.59997558594</ele>
        <time>2022-10-31T12:01:16.000Z</time>
      </trkpt>
      <trkpt lat="47.94923" lon="6.95001">
        <ele>602.80004882812</ele>
        <time>2022-10-31T12:01:21.000Z</time>
      </trkpt>
      <trkpt lat="47.94924" lon="6.94997">
        <ele>603</ele>
        <time>2022-10-31T12:01:26.000Z</time>
      </trkpt>
      <trkpt lat="47.94926" lon="6.94996">
        <ele>603.40002441406</ele>
        <time>2022-10-31T12:01:29.000Z</time>
      </trkpt>
      <trkpt lat="47.94926" lon="6.94994">
        <ele>603.59997558594</ele>
        <time>2022-10-31T12:01:31.000Z</time>
      </trkpt>
      <trkpt lat="47.9493" lon="6.94992">
        <ele>604</ele>
        <time>2022-10-31T12:01:36.000Z</time>
      </trkpt>
      <trkpt lat="47.94931" lon="6.94991">
        <ele>604.19995117188</ele>
        <time>2022-10-31T12:01:37.000Z</time>
      </trkpt>
      <trkpt lat="47.94938" lon="6.94984">
        <ele>604.59997558594</ele>
        <time>2022-10-31T12:01:42.000Z</time>
      </trkpt>
      <trkpt lat="47.94938" lon="6.94982">
        <ele>604.59997558594</ele>
        <time>2022-10-31T12:01:43.000Z</time>
      </trkpt>
      <trkpt lat="47.9494" lon="6.94979">
        <ele>604.80004882812</ele>
        <time>2022-10-31T12:01:46.000Z</time>
      </trkpt>
      <trkpt lat="47.94942" lon="6.94978">
        <ele>605</ele>
        <time>2022-10-31T12:01:48.000Z</time>
      </trkpt>
      <trkpt lat="47.94947" lon="6.94975">
        <ele>605.40002441406</ele>
        <time>2022-10-31T12:01:54.000Z</time>
      </trkpt>
      <trkpt lat="47.94948" lon="6.94977">
        <ele>605.59997558594</ele>
        <time>2022-10-31T12:01:57.000Z</time>
      </trkpt>
      <trkpt lat="47.94949" lon="6.94977">
        <ele>606</ele>
        <time>2022-10-31T12:02:01.000Z</time>
      </trkpt>
      <trkpt lat="47.94951" lon="6.94975">
        <ele>606</ele>
        <time>2022-10-31T12:02:05.000Z</time>
      </trkpt>
      <trkpt lat="47.94952" lon="6.94974">
        <ele>606.19995117188</ele>
        <time>2022-10-31T12:02:07.000Z</time>
      </trkpt>
      <trkpt lat="47.94955" lon="6.94972">
        <ele>606.59997558594</ele>
        <time>2022-10-31T12:02:12.000Z</time>
      </trkpt>
      <trkpt lat="47.9496" lon="6.94968">
        <ele>607.19995117188</ele>
        <time>2022-10-31T12:02:18.000Z</time>
      </trkpt>
      <trkpt lat="47.94963" lon="6.94966">
        <ele>607.40002441406</ele>
        <time>2022-10-31T12:02:21.000Z</time>
      </trkpt>
      <trkpt lat="47.94965" lon="6.94964">
        <ele>607.80004882812</ele>
        <time>2022-10-31T12:02:23.000Z</time>
      </trkpt>
      <trkpt lat="47.94975" lon="6.94959">
        <ele>608.19995117188</ele>
        <time>2022-10-31T12:02:30.000Z</time>
      </trkpt>
      <trkpt lat="47.94976" lon="6.94958">
        <ele>608.40002441406</ele>
        <time>2022-10-31T12:02:32.000Z</time>
      </trkpt>
      <trkpt lat="47.94978" lon="6.94956">
        <ele>608.59997558594</ele>
        <time>2022-10-31T12:02:35.000Z</time>
      </trkpt>
      <trkpt lat="47.94982" lon="6.94953">
        <ele>609.19995117188</ele>
        <time>2022-10-31T12:02:40.000Z</time>
      </trkpt>
      <trkpt lat="47.94982" lon="6.94953">
        <ele>609.40002441406</ele>
        <time>2022-10-31T12:02:41.000Z</time>
      </trkpt>
      <trkpt lat="47.94986" lon="6.94951">
        <ele>609.80004882812</ele>
        <time>2022-10-31T12:02:47.000Z</time>
      </trkpt>
      <trkpt lat="47.9499" lon="6.94946">
        <ele>610</ele>
        <time>2022-10-31T12:02:53.000Z</time>
      </trkpt>
      <trkpt lat="47.94991" lon="6.94946">
        <ele>610.19995117188</ele>
        <time>2022-10-31T12:02:55.000Z</time>
      </trkpt>
      <trkpt lat="47.94991" lon="6.94946">
        <ele>610.40002441406</ele>
        <time>2022-10-31T12:02:57.000Z</time>
      </trkpt>
      <trkpt lat="47.94992" lon="6.94942">
        <ele>610.80004882812</ele>
        <time>2022-10-31T12:03:03.000Z</time>
      </trkpt>
      <trkpt lat="47.94994" lon="6.94944">
        <ele>610.80004882812</ele>
        <time>2022-10-31T12:03:07.000Z</time>
      </trkpt>
      <trkpt lat="47.94995" lon="6.94944">
        <ele>611</ele>
        <time>2022-10-31T12:03:09.000Z</time>
      </trkpt>
      <trkpt lat="47.94998" lon="6.94943">
        <ele>611.40002441406</ele>
        <time>2022-10-31T12:03:14.000Z</time>
      </trkpt>
      <trkpt lat="47.94998" lon="6.94943">
        <ele>611.40002441406</ele>
        <time>2022-10-31T12:03:15.000Z</time>
      </trkpt>
      <trkpt lat="47.94998" lon="6.94945">
        <ele>611.80004882812</ele>
        <time>2022-10-31T12:03:20.000Z</time>
      </trkpt>
      <trkpt lat="47.94999" lon="6.94945">
        <ele>612</ele>
        <time>2022-10-31T12:03:22.000Z</time>
      </trkpt>
      <trkpt lat="47.95001" lon="6.94945">
        <ele>612</ele>
        <time>2022-10-31T12:03:28.000Z</time>
      </trkpt>
      <trkpt lat="47.95001" lon="6.94949">
        <ele>612.19995117188</ele>
        <time>2022-10-31T12:03:32.000Z</time>
      </trkpt>
      <trkpt lat="47.95" lon="6.9495">
        <ele>612.19995117188</ele>
        <time>2022-10-31T12:03:34.000Z</time>
      </trkpt>
      <trkpt lat="47.95004" lon="6.94945">
        <ele>612</ele>
        <time>2022-10-31T12:03:39.000Z</time>
      </trkpt>
      <trkpt lat="47.95006" lon="6.94945">
        <ele>612.19995117188</ele>
        <time>2022-10-31T12:03:43.000Z</time>
      </trkpt>
      <trkpt lat="47.95011" lon="6.94942">
        <ele>612.19995117188</ele>
        <time>2022-10-31T12:03:51.000Z</time>
      </trkpt>
      <trkpt lat="47.9502" lon="6.94943">
        <ele>612.19995117188</ele>
        <time>2022-10-31T12:03:58.000Z</time>
      </trkpt>
      <trkpt lat="47.95021" lon="6.94944">
        <ele>612</ele>
        <time>2022-10-31T12:04:03.000Z</time>
      </trkpt>
      <trkpt lat="47.95017" lon="6.94944">
        <ele>612</ele>
        <time>2022-10-31T12:04:10.000Z</time>
      </trkpt>
      <trkpt lat="47.95019" lon="6.94943">
        <ele>612.40002441406</ele>
        <time>2022-10-31T12:04:16.000Z</time>
      </trkpt>
      <trkpt lat="47.95017" lon="6.94944">
        <ele>612.59997558594</ele>
        <time>2022-10-31T12:04:20.000Z</time>
      </trkpt>
      <trkpt lat="47.95022" lon="6.9494">
        <ele>613.19995117188</ele>
        <time>2022-10-31T12:04:24.000Z</time>
      </trkpt>
      <trkpt lat="47.95024" lon="6.94936">
        <ele>613.40002441406</ele>
        <time>2022-10-31T12:04:27.000Z</time>
      </trkpt>
      <trkpt lat="47.95024" lon="6.94935">
        <ele>613.59997558594</ele>
        <time>2022-10-31T12:04:28.000Z</time>
      </trkpt>
      <trkpt lat="47.95026" lon="6.94937">
        <ele>613.80004882812</ele>
        <time>2022-10-31T12:04:32.000Z</time>
      </trkpt>
      <trkpt lat="47.95025" lon="6.94936">
        <ele>614.19995117188</ele>
        <time>2022-10-31T12:04:37.000Z</time>
      </trkpt>
      <trkpt lat="47.95028" lon="6.94934">
        <ele>614.59997558594</ele>
        <time>2022-10-31T12:04:40.000Z</time>
      </trkpt>
      <trkpt lat="47.95028" lon="6.94933">
        <ele>614.59997558594</ele>
        <time>2022-10-31T12:04:42.000Z</time>
      </trkpt>
      <trkpt lat="47.95029" lon="6.94933">
        <ele>614.80004882812</ele>
        <time>2022-10-31T12:04:44.000Z</time>
      </trkpt>
      <trkpt lat="47.9503" lon="6.94933">
        <ele>615</ele>
        <time>2022-10-31T12:04:46.000Z</time>
      </trkpt>
      <trkpt lat="47.9503" lon="6.94934">
        <ele>615.19995117188</ele>
        <time>2022-10-31T12:04:48.000Z</time>
      </trkpt>
      <trkpt lat="47.95033" lon="6.94932">
        <ele>615.19995117188</ele>
        <time>2022-10-31T12:04:50.000Z</time>
      </trkpt>
      <trkpt lat="47.95036" lon="6.94931">
        <ele>615.59997558594</ele>
        <time>2022-10-31T12:04:54.000Z</time>
      </trkpt>
      <trkpt lat="47.95037" lon="6.9493">
        <ele>615.59997558594</ele>
        <time>2022-10-31T12:04:55.000Z</time>
      </trkpt>
      <trkpt lat="47.95039" lon="6.94928">
        <ele>616.19995117188</ele>
        <time>2022-10-31T12:04:59.000Z</time>
      </trkpt>
      <trkpt lat="47.95045" lon="6.94926">
        <ele>616.59997558594</ele>
        <time>2022-10-31T12:05:04.000Z</time>
      </trkpt>
      <trkpt lat="47.95046" lon="6.94925">
        <ele>616.59997558594</ele>
        <time>2022-10-31T12:05:05.000Z</time>
      </trkpt>
      <trkpt lat="47.9505" lon="6.94919">
        <ele>617</ele>
        <time>2022-10-31T12:05:09.000Z</time>
      </trkpt>
      <trkpt lat="47.95057" lon="6.94914">
        <ele>617.40002441406</ele>
        <time>2022-10-31T12:05:14.000Z</time>
      </trkpt>
      <trkpt lat="47.95059" lon="6.94912">
        <ele>617.40002441406</ele>
        <time>2022-10-31T12:05:15.000Z</time>
      </trkpt>
      <trkpt lat="47.9506" lon="6.94909">
        <ele>617.59997558594</ele>
        <time>2022-10-31T12:05:17.000Z</time>
      </trkpt>
      <trkpt lat="47.95061" lon="6.94907">
        <ele>617.80004882812</ele>
        <time>2022-10-31T12:05:19.000Z</time>
      </trkpt>
      <trkpt lat="47.95064" lon="6.94905">
        <ele>618.19995117188</ele>
        <time>2022-10-31T12:05:25.000Z</time>
      </trkpt>
      <trkpt lat="47.95068" lon="6.94902">
        <ele>618.19995117188</ele>
        <time>2022-10-31T12:05:30.000Z</time>
      </trkpt>
      <trkpt lat="47.95068" lon="6.94902">
        <ele>618.19995117188</ele>
        <time>2022-10-31T12:05:31.000Z</time>
      </trkpt>
      <trkpt lat="47.95071" lon="6.94902">
        <ele>618.59997558594</ele>
        <time>2022-10-31T12:05:37.000Z</time>
      </trkpt>
      <trkpt lat="47.9507" lon="6.94902">
        <ele>618.80004882812</ele>
        <time>2022-10-31T12:05:38.000Z</time>
      </trkpt>
      <trkpt lat="47.95071" lon="6.94903">
        <ele>619.40002441406</ele>
        <time>2022-10-31T12:05:44.000Z</time>
      </trkpt>
      <trkpt lat="47.95067" lon="6.94902">
        <ele>619.59997558594</ele>
        <time>2022-10-31T12:05:48.000Z</time>
      </trkpt>
      <trkpt lat="47.95069" lon="6.94901">
        <ele>619.59997558594</ele>
        <time>2022-10-31T12:05:51.000Z</time>
      </trkpt>
      <trkpt lat="47.95072" lon="6.949">
        <ele>619.80004882812</ele>
        <time>2022-10-31T12:05:54.000Z</time>
      </trkpt>
      <trkpt lat="47.95072" lon="6.949">
        <ele>620</ele>
        <time>2022-10-31T12:05:56.000Z</time>
      </trkpt>
      <trkpt lat="47.95073" lon="6.949">
        <ele>620.40002441406</ele>
        <time>2022-10-31T12:06:02.000Z</time>
      </trkpt>
      <trkpt lat="47.95073" lon="6.949">
        <ele>620.40002441406</ele>
        <time>2022-10-31T12:06:03.000Z</time>
      </trkpt>
      <trkpt lat="47.95075" lon="6.94897">
        <ele>620.80004882812</ele>
        <time>2022-10-31T12:06:08.000Z</time>
      </trkpt>
      <trkpt lat="47.95075" lon="6.94896">
        <ele>620.80004882812</ele>
        <time>2022-10-31T12:06:09.000Z</time>
      </trkpt>
      <trkpt lat="47.95079" lon="6.94894">
        <ele>621</ele>
        <time>2022-10-31T12:06:12.000Z</time>
      </trkpt>
      <trkpt lat="47.95079" lon="6.94895">
        <ele>621</ele>
        <time>2022-10-31T12:06:13.000Z</time>
      </trkpt>
      <trkpt lat="47.95083" lon="6.94894">
        <ele>621.19995117188</ele>
        <time>2022-10-31T12:06:17.000Z</time>
      </trkpt>
      <trkpt lat="47.95089" lon="6.94893">
        <ele>621.59997558594</ele>
        <time>2022-10-31T12:06:22.000Z</time>
      </trkpt>
      <trkpt lat="47.95091" lon="6.9489">
        <ele>621.80004882812</ele>
        <time>2022-10-31T12:06:25.000Z</time>
      </trkpt>
      <trkpt lat="47.95093" lon="6.94888">
        <ele>622</ele>
        <time>2022-10-31T12:06:28.000Z</time>
      </trkpt>
      <trkpt lat="47.95098" lon="6.94886">
        <ele>622.40002441406</ele>
        <time>2022-10-31T12:06:33.000Z</time>
      </trkpt>
      <trkpt lat="47.95099" lon="6.94887">
        <ele>622.59997558594</ele>
        <time>2022-10-31T12:06:34.000Z</time>
      </trkpt>
      <trkpt lat="47.95102" lon="6.94887">
        <ele>622.80004882812</ele>
        <time>2022-10-31T12:06:38.000Z</time>
      </trkpt>
      <trkpt lat="47.95104" lon="6.94885">
        <ele>623</ele>
        <time>2022-10-31T12:06:39.000Z</time>
      </trkpt>
      <trkpt lat="47.95111" lon="6.94879">
        <ele>623.40002441406</ele>
        <time>2022-10-31T12:06:43.000Z</time>
      </trkpt>
      <trkpt lat="47.95112" lon="6.94878">
        <ele>623.40002441406</ele>
        <time>2022-10-31T12:06:44.000Z</time>
      </trkpt>
      <trkpt lat="47.95118" lon="6.94873">
        <ele>623.80004882812</ele>
        <time>2022-10-31T12:06:50.000Z</time>
      </trkpt>
      <trkpt lat="47.95122" lon="6.94874">
        <ele>624</ele>
        <time>2022-10-31T12:06:53.000Z</time>
      </trkpt>
      <trkpt lat="47.95126" lon="6.94873">
        <ele>624.19995117188</ele>
        <time>2022-10-31T12:06:56.000Z</time>
      </trkpt>
      <trkpt lat="47.95128" lon="6.94874">
        <ele>624.59997558594</ele>
        <time>2022-10-31T12:07:00.000Z</time>
      </trkpt>
      <trkpt lat="47.95129" lon="6.94875">
        <ele>624.59997558594</ele>
        <time>2022-10-31T12:07:01.000Z</time>
      </trkpt>
      <trkpt lat="47.95132" lon="6.94876">
        <ele>624.80004882812</ele>
        <time>2022-10-31T12:07:06.000Z</time>
      </trkpt>
      <trkpt lat="47.95132" lon="6.94876">
        <ele>625</ele>
        <time>2022-10-31T12:07:07.000Z</time>
      </trkpt>
      <trkpt lat="47.95132" lon="6.94877">
        <ele>625.19995117188</ele>
        <time>2022-10-31T12:07:09.000Z</time>
      </trkpt>
      <trkpt lat="47.9513" lon="6.94879">
        <ele>625.19995117188</ele>
        <time>2022-10-31T12:07:10.000Z</time>
      </trkpt>
      <trkpt lat="47.95128" lon="6.94884">
        <ele>625.40002441406</ele>
        <time>2022-10-31T12:07:16.000Z</time>
      </trkpt>
      <trkpt lat="47.95127" lon="6.9488">
        <ele>625.40002441406</ele>
        <time>2022-10-31T12:07:20.000Z</time>
      </trkpt>
      <trkpt lat="47.95125" lon="6.94883">
        <ele>625.40002441406</ele>
        <time>2022-10-31T12:07:24.000Z</time>
      </trkpt>
      <trkpt lat="47.95124" lon="6.94884">
        <ele>625.40002441406</ele>
        <time>2022-10-31T12:07:28.000Z</time>
      </trkpt>
      <trkpt lat="47.95124" lon="6.94887">
        <ele>625.40002441406</ele>
        <time>2022-10-31T12:07:33.000Z</time>
      </trkpt>
      <trkpt lat="47.95125" lon="6.94888">
        <ele>625.40002441406</ele>
        <time>2022-10-31T12:07:37.000Z</time>
      </trkpt>
      <trkpt lat="47.95127" lon="6.94887">
        <ele>625.40002441406</ele>
        <time>2022-10-31T12:07:38.000Z</time>
      </trkpt>
      <trkpt lat="47.95131" lon="6.94887">
        <ele>625.19995117188</ele>
        <time>2022-10-31T12:07:42.000Z</time>
      </trkpt>
      <trkpt lat="47.95133" lon="6.9489">
        <ele>625.19995117188</ele>
        <time>2022-10-31T12:07:47.000Z</time>
      </trkpt>
      <trkpt lat="47.95133" lon="6.94889">
        <ele>625.19995117188</ele>
        <time>2022-10-31T12:07:49.000Z</time>
      </trkpt>
      <trkpt lat="47.95134" lon="6.94886">
        <ele>625.19995117188</ele>
        <time>2022-10-31T12:07:51.000Z</time>
      </trkpt>
      <trkpt lat="47.95134" lon="6.94884">
        <ele>625.19995117188</ele>
        <time>2022-10-31T12:07:53.000Z</time>
      </trkpt>
      <trkpt lat="47.95136" lon="6.94884">
        <ele>625.40002441406</ele>
        <time>2022-10-31T12:07:58.000Z</time>
      </trkpt>
      <trkpt lat="47.95142" lon="6.94884">
        <ele>625.59997558594</ele>
        <time>2022-10-31T12:08:06.000Z</time>
      </trkpt>
      <trkpt lat="47.95145" lon="6.94883">
        <ele>625.80004882812</ele>
        <time>2022-10-31T12:08:10.000Z</time>
      </trkpt>
      <trkpt lat="47.95148" lon="6.9488">
        <ele>626</ele>
        <time>2022-10-31T12:08:13.000Z</time>
      </trkpt>
      <trkpt lat="47.95151" lon="6.94878">
        <ele>626.59997558594</ele>
        <time>2022-10-31T12:08:18.000Z</time>
      </trkpt>
      <trkpt lat="47.9516" lon="6.94874">
        <ele>627</ele>
        <time>2022-10-31T12:08:23.000Z</time>
      </trkpt>
      <trkpt lat="47.95159" lon="6.94875">
        <ele>627</ele>
        <time>2022-10-31T12:08:25.000Z</time>
      </trkpt>
      <trkpt lat="47.95158" lon="6.94878">
        <ele>627.19995117188</ele>
        <time>2022-10-31T12:08:29.000Z</time>
      </trkpt>
      <trkpt lat="47.95157" lon="6.94878">
        <ele>627.19995117188</ele>
        <time>2022-10-31T12:08:34.000Z</time>
      </trkpt>
      <trkpt lat="47.95158" lon="6.94877">
        <ele>627.40002441406</ele>
        <time>2022-10-31T12:08:40.000Z</time>
      </trkpt>
      <trkpt lat="47.95162" lon="6.94877">
        <ele>627.59997558594</ele>
        <time>2022-10-31T12:08:46.000Z</time>
      </trkpt>
      <trkpt lat="47.95163" lon="6.94876">
        <ele>627.80004882812</ele>
        <time>2022-10-31T12:08:48.000Z</time>
      </trkpt>
      <trkpt lat="47.95165" lon="6.94873">
        <ele>628</ele>
        <time>2022-10-31T12:08:50.000Z</time>
      </trkpt>
      <trkpt lat="47.95167" lon="6.94871">
        <ele>628</ele>
        <time>2022-10-31T12:08:51.000Z</time>
      </trkpt>
      <trkpt lat="47.95168" lon="6.94871">
        <ele>628.19995117188</ele>
        <time>2022-10-31T12:08:53.000Z</time>
      </trkpt>
      <trkpt lat="47.9517" lon="6.9487">
        <ele>628.40002441406</ele>
        <time>2022-10-31T12:08:56.000Z</time>
      </trkpt>
      <trkpt lat="47.95175" lon="6.94864">
        <ele>629.19995117188</ele>
        <time>2022-10-31T12:09:03.000Z</time>
      </trkpt>
      <trkpt lat="47.95177" lon="6.94863">
        <ele>629.19995117188</ele>
        <time>2022-10-31T12:09:04.000Z</time>
      </trkpt>
      <trkpt lat="47.9518" lon="6.94864">
        <ele>629.59997558594</ele>
        <time>2022-10-31T12:09:07.000Z</time>
      </trkpt>
      <trkpt lat="47.95186" lon="6.94866">
        <ele>630</ele>
        <time>2022-10-31T12:09:11.000Z</time>
      </trkpt>
      <trkpt lat="47.95187" lon="6.94866">
        <ele>630.19995117188</ele>
        <time>2022-10-31T12:09:12.000Z</time>
      </trkpt>
      <trkpt lat="47.95189" lon="6.94866">
        <ele>630.19995117188</ele>
        <time>2022-10-31T12:09:15.000Z</time>
      </trkpt>
      <trkpt lat="47.95194" lon="6.94866">
        <ele>631</ele>
        <time>2022-10-31T12:09:20.000Z</time>
      </trkpt>
      <trkpt lat="47.95197" lon="6.94865">
        <ele>631.40002441406</ele>
        <time>2022-10-31T12:09:27.000Z</time>
      </trkpt>
      <trkpt lat="47.95196" lon="6.94867">
        <ele>631.40002441406</ele>
        <time>2022-10-31T12:09:30.000Z</time>
      </trkpt>
      <trkpt lat="47.95196" lon="6.9487">
        <ele>631.59997558594</ele>
        <time>2022-10-31T12:09:34.000Z</time>
      </trkpt>
      <trkpt lat="47.952" lon="6.9487">
        <ele>632</ele>
        <time>2022-10-31T12:09:39.000Z</time>
      </trkpt>
      <trkpt lat="47.95203" lon="6.94869">
        <ele>632.40002441406</ele>
        <time>2022-10-31T12:09:42.000Z</time>
      </trkpt>
      <trkpt lat="47.95207" lon="6.9487">
        <ele>632.59997558594</ele>
        <time>2022-10-31T12:09:45.000Z</time>
      </trkpt>
      <trkpt lat="47.95213" lon="6.94869">
        <ele>632.80004882812</ele>
        <time>2022-10-31T12:09:51.000Z</time>
      </trkpt>
      <trkpt lat="47.95215" lon="6.94871">
        <ele>632.80004882812</ele>
        <time>2022-10-31T12:09:53.000Z</time>
      </trkpt>
      <trkpt lat="47.95213" lon="6.94869">
        <ele>633</ele>
        <time>2022-10-31T12:10:01.000Z</time>
      </trkpt>
      <trkpt lat="47.95215" lon="6.94869">
        <ele>633</ele>
        <time>2022-10-31T12:10:06.000Z</time>
      </trkpt>
      <trkpt lat="47.95216" lon="6.94869">
        <ele>633</ele>
        <time>2022-10-31T12:10:08.000Z</time>
      </trkpt>
      <trkpt lat="47.95215" lon="6.94871">
        <ele>632.80004882812</ele>
        <time>2022-10-31T12:10:13.000Z</time>
      </trkpt>
      <trkpt lat="47.95214" lon="6.94872">
        <ele>632.59997558594</ele>
        <time>2022-10-31T12:10:20.000Z</time>
      </trkpt>
      <trkpt lat="47.95219" lon="6.94869">
        <ele>633</ele>
        <time>2022-10-31T12:10:34.000Z</time>
      </trkpt>
      <trkpt lat="47.95219" lon="6.94869">
        <ele>633</ele>
        <time>2022-10-31T12:10:35.000Z</time>
      </trkpt>
      <trkpt lat="47.9522" lon="6.94869">
        <ele>633</ele>
        <time>2022-10-31T12:10:40.000Z</time>
      </trkpt>
      <trkpt lat="47.9522" lon="6.94869">
        <ele>633</ele>
        <time>2022-10-31T12:10:41.000Z</time>
      </trkpt>
      <trkpt lat="47.95219" lon="6.94867">
        <ele>633.19995117188</ele>
        <time>2022-10-31T12:10:46.000Z</time>
      </trkpt>
      <trkpt lat="47.95219" lon="6.94867">
        <ele>633.40002441406</ele>
        <time>2022-10-31T12:10:49.000Z</time>
      </trkpt>
      <trkpt lat="47.95219" lon="6.94867">
        <ele>633.59997558594</ele>
        <time>2022-10-31T12:11:01.000Z</time>
      </trkpt>
      <trkpt lat="47.95224" lon="6.9487">
        <ele>633.40002441406</ele>
        <time>2022-10-31T12:11:23.000Z</time>
      </trkpt>
      <trkpt lat="47.95224" lon="6.94871">
        <ele>633.40002441406</ele>
        <time>2022-10-31T12:11:24.000Z</time>
      </trkpt>
      <trkpt lat="47.95225" lon="6.94869">
        <ele>633.40002441406</ele>
        <time>2022-10-31T12:11:44.000Z</time>
      </trkpt>
      <trkpt lat="47.95225" lon="6.94869">
        <ele>633.40002441406</ele>
        <time>2022-10-31T12:11:46.000Z</time>
      </trkpt>
      <trkpt lat="47.95225" lon="6.94869">
        <ele>633.40002441406</ele>
        <time>2022-10-31T12:11:48.000Z</time>
      </trkpt>
      <trkpt lat="47.95225" lon="6.94868">
        <ele>633.40002441406</ele>
        <time>2022-10-31T12:11:51.000Z</time>
      </trkpt>
      <trkpt lat="47.95225" lon="6.94866">
        <ele>633.40002441406</ele>
        <time>2022-10-31T12:11:58.000Z</time>
      </trkpt>
      <trkpt lat="47.95225" lon="6.94866">
        <ele>633.40002441406</ele>
        <time>2022-10-31T12:12:04.000Z</time>
      </trkpt>
      <trkpt lat="47.95226" lon="6.9487">
        <ele>633.40002441406</ele>
        <time>2022-10-31T12:12:14.000Z</time>
      </trkpt>
      <trkpt lat="47.95226" lon="6.94872">
        <ele>633.40002441406</ele>
        <time>2022-10-31T12:12:20.000Z</time>
      </trkpt>
      <trkpt lat="47.95225" lon="6.94872">
        <ele>633.40002441406</ele>
        <time>2022-10-31T12:12:24.000Z</time>
      </trkpt>
      <trkpt lat="47.95225" lon="6.94872">
        <ele>633.40002441406</ele>
        <time>2022-10-31T12:12:37.000Z</time>
      </trkpt>
      <trkpt lat="47.95225" lon="6.9487">
        <ele>633.40002441406</ele>
        <time>2022-10-31T12:12:50.000Z</time>
      </trkpt>
      <trkpt lat="47.95225" lon="6.9487">
        <ele>633.40002441406</ele>
        <time>2022-10-31T12:12:52.000Z</time>
      </trkpt>
      <trkpt lat="47.95225" lon="6.9487">
        <ele>633.40002441406</ele>
        <time>2022-10-31T12:13:05.000Z</time>
      </trkpt>
      <trkpt lat="47.95223" lon="6.9487">
        <ele>633.40002441406</ele>
        <time>2022-10-31T12:13:12.000Z</time>
      </trkpt>
      <trkpt lat="47.9522" lon="6.9487">
        <ele>633.40002441406</ele>
        <time>2022-10-31T12:13:23.000Z</time>
      </trkpt>
      <trkpt lat="47.95219" lon="6.94869">
        <ele>633.40002441406</ele>
        <time>2022-10-31T12:13:29.000Z</time>
      </trkpt>
      <trkpt lat="47.95221" lon="6.9487">
        <ele>633.40002441406</ele>
        <time>2022-10-31T12:14:06.000Z</time>
      </trkpt>
      <trkpt lat="47.95221" lon="6.9487">
        <ele>633.40002441406</ele>
        <time>2022-10-31T12:14:12.000Z</time>
      </trkpt>
      <trkpt lat="47.95225" lon="6.94871">
        <ele>633.40002441406</ele>
        <time>2022-10-31T12:14:18.000Z</time>
      </trkpt>
      <trkpt lat="47.95229" lon="6.9487">
        <ele>633.40002441406</ele>
        <time>2022-10-31T12:14:23.000Z</time>
      </trkpt>
      <trkpt lat="47.9523" lon="6.94872">
        <ele>633.40002441406</ele>
        <time>2022-10-31T12:14:28.000Z</time>
      </trkpt>
      <trkpt lat="47.95229" lon="6.94872">
        <ele>633.40002441406</ele>
        <time>2022-10-31T12:14:34.000Z</time>
      </trkpt>
      <trkpt lat="47.95229" lon="6.94872">
        <ele>633.40002441406</ele>
        <time>2022-10-31T12:14:37.000Z</time>
      </trkpt>
      <trkpt lat="47.95229" lon="6.94872">
        <ele>633.40002441406</ele>
        <time>2022-10-31T12:14:40.000Z</time>
      </trkpt>
      <trkpt lat="47.95228" lon="6.94873">
        <ele>633.40002441406</ele>
        <time>2022-10-31T12:14:49.000Z</time>
      </trkpt>
      <trkpt lat="47.95226" lon="6.94877">
        <ele>633.40002441406</ele>
        <time>2022-10-31T12:15:03.000Z</time>
      </trkpt>
      <trkpt lat="47.95226" lon="6.94877">
        <ele>633.40002441406</ele>
        <time>2022-10-31T12:15:08.000Z</time>
      </trkpt>
      <trkpt lat="47.95229" lon="6.94877">
        <ele>633.40002441406</ele>
        <time>2022-10-31T12:15:34.000Z</time>
      </trkpt>
      <trkpt lat="47.95229" lon="6.94877">
        <ele>633.40002441406</ele>
        <time>2022-10-31T12:15:36.000Z</time>
      </trkpt>
      <trkpt lat="47.9523" lon="6.94877">
        <ele>633.40002441406</ele>
        <time>2022-10-31T12:15:39.000Z</time>
      </trkpt>
      <trkpt lat="47.9523" lon="6.94876">
        <ele>633.40002441406</ele>
        <time>2022-10-31T12:15:49.000Z</time>
      </trkpt>
      <trkpt lat="47.95228" lon="6.94881">
        <ele>633.40002441406</ele>
        <time>2022-10-31T12:16:28.000Z</time>
      </trkpt>
      <trkpt lat="47.95233" lon="6.94879">
        <ele>633.40002441406</ele>
        <time>2022-10-31T12:16:37.000Z</time>
      </trkpt>
      <trkpt lat="47.95234" lon="6.94878">
        <ele>633.40002441406</ele>
        <time>2022-10-31T12:16:42.000Z</time>
      </trkpt>
      <trkpt lat="47.95235" lon="6.94878">
        <ele>633.40002441406</ele>
        <time>2022-10-31T12:16:55.000Z</time>
      </trkpt>
      <trkpt lat="47.95236" lon="6.94878">
        <ele>633.40002441406</ele>
        <time>2022-10-31T12:16:56.000Z</time>
      </trkpt>
      <trkpt lat="47.95239" lon="6.9488">
        <ele>633.40002441406</ele>
        <time>2022-10-31T12:17:00.000Z</time>
      </trkpt>
      <trkpt lat="47.95241" lon="6.9488">
        <ele>633.40002441406</ele>
        <time>2022-10-31T12:17:01.000Z</time>
      </trkpt>
      <trkpt lat="47.95244" lon="6.94883">
        <ele>633.40002441406</ele>
        <time>2022-10-31T12:17:06.000Z</time>
      </trkpt>
      <trkpt lat="47.95247" lon="6.94883">
        <ele>633.40002441406</ele>
        <time>2022-10-31T12:17:11.000Z</time>
      </trkpt>
      <trkpt lat="47.95248" lon="6.94884">
        <ele>633.40002441406</ele>
        <time>2022-10-31T12:17:13.000Z</time>
      </trkpt>
      <trkpt lat="47.95254" lon="6.94883">
        <ele>633.40002441406</ele>
        <time>2022-10-31T12:17:19.000Z</time>
      </trkpt>
      <trkpt lat="47.95256" lon="6.94883">
        <ele>633.40002441406</ele>
        <time>2022-10-31T12:17:22.000Z</time>
      </trkpt>
      <trkpt lat="47.95255" lon="6.94884">
        <ele>633.40002441406</ele>
        <time>2022-10-31T12:17:26.000Z</time>
      </trkpt>
      <trkpt lat="47.95255" lon="6.94882">
        <ele>633.40002441406</ele>
        <time>2022-10-31T12:17:30.000Z</time>
      </trkpt>
      <trkpt lat="47.95259" lon="6.9488">
        <ele>633.40002441406</ele>
        <time>2022-10-31T12:17:33.000Z</time>
      </trkpt>
      <trkpt lat="47.95259" lon="6.9488">
        <ele>633.40002441406</ele>
        <time>2022-10-31T12:17:34.000Z</time>
      </trkpt>
      <trkpt lat="47.95262" lon="6.94882">
        <ele>637</ele>
        <time>2022-10-31T12:17:37.000Z</time>
      </trkpt>
      <trkpt lat="47.95263" lon="6.94884">
        <ele>636.80004882812</ele>
        <time>2022-10-31T12:17:42.000Z</time>
      </trkpt>
      <trkpt lat="47.9526" lon="6.94888">
        <ele>636.80004882812</ele>
        <time>2022-10-31T12:17:50.000Z</time>
      </trkpt>
      <trkpt lat="47.95261" lon="6.94889">
        <ele>636.80004882812</ele>
        <time>2022-10-31T12:17:55.000Z</time>
      </trkpt>
      <trkpt lat="47.95262" lon="6.94889">
        <ele>637</ele>
        <time>2022-10-31T12:18:00.000Z</time>
      </trkpt>
      <trkpt lat="47.95263" lon="6.9489">
        <ele>637.59997558594</ele>
        <time>2022-10-31T12:18:06.000Z</time>
      </trkpt>
      <trkpt lat="47.95267" lon="6.94886">
        <ele>638</ele>
        <time>2022-10-31T12:18:11.000Z</time>
      </trkpt>
      <trkpt lat="47.9527" lon="6.94888">
        <ele>638.19995117188</ele>
        <time>2022-10-31T12:18:16.000Z</time>
      </trkpt>
      <trkpt lat="47.95271" lon="6.94889">
        <ele>638.19995117188</ele>
        <time>2022-10-31T12:18:19.000Z</time>
      </trkpt>
      <trkpt lat="47.95271" lon="6.94889">
        <ele>638.40002441406</ele>
        <time>2022-10-31T12:18:21.000Z</time>
      </trkpt>
      <trkpt lat="47.95277" lon="6.94889">
        <ele>638.80004882812</ele>
        <time>2022-10-31T12:18:28.000Z</time>
      </trkpt>
      <trkpt lat="47.9528" lon="6.94887">
        <ele>639</ele>
        <time>2022-10-31T12:18:33.000Z</time>
      </trkpt>
      <trkpt lat="47.95281" lon="6.94888">
        <ele>639</ele>
        <time>2022-10-31T12:18:35.000Z</time>
      </trkpt>
      <trkpt lat="47.95283" lon="6.94888">
        <ele>639.19995117188</ele>
        <time>2022-10-31T12:18:37.000Z</time>
      </trkpt>
      <trkpt lat="47.95287" lon="6.94883">
        <ele>639.40002441406</ele>
        <time>2022-10-31T12:18:42.000Z</time>
      </trkpt>
      <trkpt lat="47.95292" lon="6.9488">
        <ele>639.80004882812</ele>
        <time>2022-10-31T12:18:47.000Z</time>
      </trkpt>
      <trkpt lat="47.95293" lon="6.94881">
        <ele>639.80004882812</ele>
        <time>2022-10-31T12:18:48.000Z</time>
      </trkpt>
      <trkpt lat="47.95296" lon="6.94882">
        <ele>640</ele>
        <time>2022-10-31T12:18:50.000Z</time>
      </trkpt>
      <trkpt lat="47.95299" lon="6.94883">
        <ele>640.40002441406</ele>
        <time>2022-10-31T12:18:53.000Z</time>
      </trkpt>
      <trkpt lat="47.95302" lon="6.94881">
        <ele>640.40002441406</ele>
        <time>2022-10-31T12:18:56.000Z</time>
      </trkpt>
      <trkpt lat="47.95303" lon="6.94881">
        <ele>640.80004882812</ele>
        <time>2022-10-31T12:19:00.000Z</time>
      </trkpt>
      <trkpt lat="47.95304" lon="6.94881">
        <ele>641</ele>
        <time>2022-10-31T12:19:01.000Z</time>
      </trkpt>
      <trkpt lat="47.95305" lon="6.94881">
        <ele>641</ele>
        <time>2022-10-31T12:19:03.000Z</time>
      </trkpt>
      <trkpt lat="47.95308" lon="6.94883">
        <ele>641.40002441406</ele>
        <time>2022-10-31T12:19:07.000Z</time>
      </trkpt>
      <trkpt lat="47.95305" lon="6.9488">
        <ele>641.40002441406</ele>
        <time>2022-10-31T12:19:13.000Z</time>
      </trkpt>
      <trkpt lat="47.95305" lon="6.94881">
        <ele>641.19995117188</ele>
        <time>2022-10-31T12:19:18.000Z</time>
      </trkpt>
      <trkpt lat="47.95308" lon="6.9488">
        <ele>641.19995117188</ele>
        <time>2022-10-31T12:19:24.000Z</time>
      </trkpt>
      <trkpt lat="47.95307" lon="6.94879">
        <ele>641.19995117188</ele>
        <time>2022-10-31T12:19:25.000Z</time>
      </trkpt>
      <trkpt lat="47.95309" lon="6.9488">
        <ele>641.40002441406</ele>
        <time>2022-10-31T12:19:29.000Z</time>
      </trkpt>
      <trkpt lat="47.95313" lon="6.94881">
        <ele>642</ele>
        <time>2022-10-31T12:19:35.000Z</time>
      </trkpt>
      <trkpt lat="47.95313" lon="6.94881">
        <ele>642.19995117188</ele>
        <time>2022-10-31T12:19:36.000Z</time>
      </trkpt>
      <trkpt lat="47.95316" lon="6.94881">
        <ele>642.59997558594</ele>
        <time>2022-10-31T12:19:41.000Z</time>
      </trkpt>
      <trkpt lat="47.9532" lon="6.94884">
        <ele>643.19995117188</ele>
        <time>2022-10-31T12:19:47.000Z</time>
      </trkpt>
      <trkpt lat="47.9532" lon="6.94885">
        <ele>643.19995117188</ele>
        <time>2022-10-31T12:19:48.000Z</time>
      </trkpt>
      <trkpt lat="47.95323" lon="6.9489">
        <ele>643.59997558594</ele>
        <time>2022-10-31T12:19:52.000Z</time>
      </trkpt>
      <trkpt lat="47.9533" lon="6.94895">
        <ele>644.19995117188</ele>
        <time>2022-10-31T12:19:59.000Z</time>
      </trkpt>
      <trkpt lat="47.9533" lon="6.94899">
        <ele>644.19995117188</ele>
        <time>2022-10-31T12:20:02.000Z</time>
      </trkpt>
      <trkpt lat="47.95331" lon="6.94901">
        <ele>644.19995117188</ele>
        <time>2022-10-31T12:20:06.000Z</time>
      </trkpt>
      <trkpt lat="47.95332" lon="6.949">
        <ele>644.40002441406</ele>
        <time>2022-10-31T12:20:14.000Z</time>
      </trkpt>
      <trkpt lat="47.95337" lon="6.949">
        <ele>644.59997558594</ele>
        <time>2022-10-31T12:20:19.000Z</time>
      </trkpt>
      <trkpt lat="47.95344" lon="6.94897">
        <ele>644.80004882812</ele>
        <time>2022-10-31T12:20:24.000Z</time>
      </trkpt>
      <trkpt lat="47.95348" lon="6.94895">
        <ele>645.19995117188</ele>
        <time>2022-10-31T12:20:29.000Z</time>
      </trkpt>
      <trkpt lat="47.95349" lon="6.94895">
        <ele>645.19995117188</ele>
        <time>2022-10-31T12:20:30.000Z</time>
      </trkpt>
      <trkpt lat="47.95353" lon="6.94892">
        <ele>645.40002441406</ele>
        <time>2022-10-31T12:20:34.000Z</time>
      </trkpt>
      <trkpt lat="47.95352" lon="6.9489">
        <ele>646</ele>
        <time>2022-10-31T12:20:38.000Z</time>
      </trkpt>
      <trkpt lat="47.95353" lon="6.9489">
        <ele>646.40002441406</ele>
        <time>2022-10-31T12:20:41.000Z</time>
      </trkpt>
      <trkpt lat="47.95355" lon="6.94886">
        <ele>646.40002441406</ele>
        <time>2022-10-31T12:20:43.000Z</time>
      </trkpt>
      <trkpt lat="47.95361" lon="6.94886">
        <ele>646.59997558594</ele>
        <time>2022-10-31T12:20:47.000Z</time>
      </trkpt>
      <trkpt lat="47.95363" lon="6.94885">
        <ele>646.59997558594</ele>
        <time>2022-10-31T12:20:49.000Z</time>
      </trkpt>
      <trkpt lat="47.95364" lon="6.94883">
        <ele>647</ele>
        <time>2022-10-31T12:20:53.000Z</time>
      </trkpt>
      <trkpt lat="47.95362" lon="6.94884">
        <ele>647.19995117188</ele>
        <time>2022-10-31T12:20:56.000Z</time>
      </trkpt>
      <trkpt lat="47.95362" lon="6.94884">
        <ele>647.40002441406</ele>
        <time>2022-10-31T12:20:57.000Z</time>
      </trkpt>
      <trkpt lat="47.95366" lon="6.94884">
        <ele>648</ele>
        <time>2022-10-31T12:21:03.000Z</time>
      </trkpt>
      <trkpt lat="47.95369" lon="6.94884">
        <ele>648.40002441406</ele>
        <time>2022-10-31T12:21:08.000Z</time>
      </trkpt>
      <trkpt lat="47.95371" lon="6.94886">
        <ele>648.59997558594</ele>
        <time>2022-10-31T12:21:11.000Z</time>
      </trkpt>
      <trkpt lat="47.9538" lon="6.94891">
        <ele>649.19995117188</ele>
        <time>2022-10-31T12:21:19.000Z</time>
      </trkpt>
      <trkpt lat="47.95383" lon="6.94893">
        <ele>649.40002441406</ele>
        <time>2022-10-31T12:21:23.000Z</time>
      </trkpt>
      <trkpt lat="47.95385" lon="6.94898">
        <ele>649.40002441406</ele>
        <time>2022-10-31T12:21:29.000Z</time>
      </trkpt>
      <trkpt lat="47.95385" lon="6.94899">
        <ele>649.40002441406</ele>
        <time>2022-10-31T12:21:36.000Z</time>
      </trkpt>
      <trkpt lat="47.95384" lon="6.94898">
        <ele>649.40002441406</ele>
        <time>2022-10-31T12:21:42.000Z</time>
      </trkpt>
      <trkpt lat="47.95389" lon="6.94898">
        <ele>650.40002441406</ele>
        <time>2022-10-31T12:22:16.000Z</time>
      </trkpt>
      <trkpt lat="47.95395" lon="6.94898">
        <ele>651.19995117188</ele>
        <time>2022-10-31T12:22:28.000Z</time>
      </trkpt>
      <trkpt lat="47.954" lon="6.94898">
        <ele>651.40002441406</ele>
        <time>2022-10-31T12:22:39.000Z</time>
      </trkpt>
      <trkpt lat="47.95402" lon="6.94897">
        <ele>652</ele>
        <time>2022-10-31T12:22:44.000Z</time>
      </trkpt>
      <trkpt lat="47.95403" lon="6.94897">
        <ele>652.40002441406</ele>
        <time>2022-10-31T12:22:46.000Z</time>
      </trkpt>
      <trkpt lat="47.95405" lon="6.94897">
        <ele>652.59997558594</ele>
        <time>2022-10-31T12:22:47.000Z</time>
      </trkpt>
      <trkpt lat="47.9541" lon="6.94897">
        <ele>652.59997558594</ele>
        <time>2022-10-31T12:22:49.000Z</time>
      </trkpt>
      <trkpt lat="47.95412" lon="6.94897">
        <ele>652.80004882812</ele>
        <time>2022-10-31T12:22:50.000Z</time>
      </trkpt>
      <trkpt lat="47.95419" lon="6.94899">
        <ele>653</ele>
        <time>2022-10-31T12:22:53.000Z</time>
      </trkpt>
      <trkpt lat="47.95423" lon="6.949">
        <ele>653.19995117188</ele>
        <time>2022-10-31T12:22:56.000Z</time>
      </trkpt>
      <trkpt lat="47.95428" lon="6.94901">
        <ele>653.59997558594</ele>
        <time>2022-10-31T12:23:03.000Z</time>
      </trkpt>
      <trkpt lat="47.95429" lon="6.949">
        <ele>653.59997558594</ele>
        <time>2022-10-31T12:23:04.000Z</time>
      </trkpt>
      <trkpt lat="47.95437" lon="6.94897">
        <ele>654.59997558594</ele>
        <time>2022-10-31T12:23:12.000Z</time>
      </trkpt>
      <trkpt lat="47.95439" lon="6.94897">
        <ele>655</ele>
        <time>2022-10-31T12:23:17.000Z</time>
      </trkpt>
      <trkpt lat="47.95443" lon="6.94898">
        <ele>655.59997558594</ele>
        <time>2022-10-31T12:23:23.000Z</time>
      </trkpt>
      <trkpt lat="47.95445" lon="6.94899">
        <ele>655.59997558594</ele>
        <time>2022-10-31T12:23:24.000Z</time>
      </trkpt>
      <trkpt lat="47.95451" lon="6.94903">
        <ele>656.19995117188</ele>
        <time>2022-10-31T12:23:31.000Z</time>
      </trkpt>
      <trkpt lat="47.95453" lon="6.94904">
        <ele>656.80004882812</ele>
        <time>2022-10-31T12:23:35.000Z</time>
      </trkpt>
      <trkpt lat="47.95453" lon="6.94905">
        <ele>656.80004882812</ele>
        <time>2022-10-31T12:23:37.000Z</time>
      </trkpt>
      <trkpt lat="47.9545" lon="6.9491">
        <ele>657</ele>
        <time>2022-10-31T12:23:42.000Z</time>
      </trkpt>
      <trkpt lat="47.95444" lon="6.94915">
        <ele>657</ele>
        <time>2022-10-31T12:23:49.000Z</time>
      </trkpt>
      <trkpt lat="47.95441" lon="6.94917">
        <ele>657</ele>
        <time>2022-10-31T12:23:52.000Z</time>
      </trkpt>
      <trkpt lat="47.9544" lon="6.94917">
        <ele>656.80004882812</ele>
        <time>2022-10-31T12:23:54.000Z</time>
      </trkpt>
      <trkpt lat="47.95439" lon="6.94918">
        <ele>656.80004882812</ele>
        <time>2022-10-31T12:23:56.000Z</time>
      </trkpt>
      <trkpt lat="47.95437" lon="6.9492">
        <ele>656.80004882812</ele>
        <time>2022-10-31T12:23:58.000Z</time>
      </trkpt>
      <trkpt lat="47.95435" lon="6.94922">
        <ele>656.80004882812</ele>
        <time>2022-10-31T12:24:01.000Z</time>
      </trkpt>
      <trkpt lat="47.95436" lon="6.94924">
        <ele>656.80004882812</ele>
        <time>2022-10-31T12:24:02.000Z</time>
      </trkpt>
      <trkpt lat="47.9544" lon="6.94923">
        <ele>657</ele>
        <time>2022-10-31T12:24:07.000Z</time>
      </trkpt>
      <trkpt lat="47.95442" lon="6.94922">
        <ele>657.19995117188</ele>
        <time>2022-10-31T12:24:09.000Z</time>
      </trkpt>
      <trkpt lat="47.95447" lon="6.94921">
        <ele>657.59997558594</ele>
        <time>2022-10-31T12:24:15.000Z</time>
      </trkpt>
      <trkpt lat="47.95447" lon="6.94921">
        <ele>657.80004882812</ele>
        <time>2022-10-31T12:24:16.000Z</time>
      </trkpt>
      <trkpt lat="47.95447" lon="6.94922">
        <ele>657.80004882812</ele>
        <time>2022-10-31T12:24:19.000Z</time>
      </trkpt>
      <trkpt lat="47.95451" lon="6.94922">
        <ele>658.19995117188</ele>
        <time>2022-10-31T12:24:25.000Z</time>
      </trkpt>
      <trkpt lat="47.95455" lon="6.94921">
        <ele>658.40002441406</ele>
        <time>2022-10-31T12:24:29.000Z</time>
      </trkpt>
      <trkpt lat="47.95458" lon="6.94919">
        <ele>658.80004882812</ele>
        <time>2022-10-31T12:24:31.000Z</time>
      </trkpt>
      <trkpt lat="47.95465" lon="6.94919">
        <ele>659</ele>
        <time>2022-10-31T12:24:35.000Z</time>
      </trkpt>
      <trkpt lat="47.9547" lon="6.94919">
        <ele>659.40002441406</ele>
        <time>2022-10-31T12:24:38.000Z</time>
      </trkpt>
      <trkpt lat="47.95473" lon="6.94918">
        <ele>659.59997558594</ele>
        <time>2022-10-31T12:24:40.000Z</time>
      </trkpt>
      <trkpt lat="47.95474" lon="6.94918">
        <ele>659.80004882812</ele>
        <time>2022-10-31T12:24:41.000Z</time>
      </trkpt>
      <trkpt lat="47.95473" lon="6.94919">
        <ele>659.80004882812</ele>
        <time>2022-10-31T12:24:42.000Z</time>
      </trkpt>
      <trkpt lat="47.95479" lon="6.94921">
        <ele>660.40002441406</ele>
        <time>2022-10-31T12:24:47.000Z</time>
      </trkpt>
      <trkpt lat="47.95483" lon="6.94921">
        <ele>660.80004882812</ele>
        <time>2022-10-31T12:24:51.000Z</time>
      </trkpt>
      <trkpt lat="47.95484" lon="6.94921">
        <ele>661</ele>
        <time>2022-10-31T12:24:52.000Z</time>
      </trkpt>
      <trkpt lat="47.95487" lon="6.94921">
        <ele>661.19995117188</ele>
        <time>2022-10-31T12:24:55.000Z</time>
      </trkpt>
      <trkpt lat="47.95487" lon="6.94921">
        <ele>661.40002441406</ele>
        <time>2022-10-31T12:24:58.000Z</time>
      </trkpt>
      <trkpt lat="47.9549" lon="6.9492">
        <ele>661.59997558594</ele>
        <time>2022-10-31T12:25:00.000Z</time>
      </trkpt>
      <trkpt lat="47.95493" lon="6.9492">
        <ele>661.80004882812</ele>
        <time>2022-10-31T12:25:04.000Z</time>
      </trkpt>
      <trkpt lat="47.95494" lon="6.94921">
        <ele>662</ele>
        <time>2022-10-31T12:25:05.000Z</time>
      </trkpt>
      <trkpt lat="47.95495" lon="6.9492">
        <ele>662.19995117188</ele>
        <time>2022-10-31T12:25:09.000Z</time>
      </trkpt>
      <trkpt lat="47.955" lon="6.9492">
        <ele>662.80004882812</ele>
        <time>2022-10-31T12:25:13.000Z</time>
      </trkpt>
      <trkpt lat="47.95501" lon="6.94921">
        <ele>663</ele>
        <time>2022-10-31T12:25:15.000Z</time>
      </trkpt>
      <trkpt lat="47.95504" lon="6.94922">
        <ele>663.40002441406</ele>
        <time>2022-10-31T12:25:19.000Z</time>
      </trkpt>
      <trkpt lat="47.95512" lon="6.94928">
        <ele>664</ele>
        <time>2022-10-31T12:25:28.000Z</time>
      </trkpt>
      <trkpt lat="47.95514" lon="6.94927">
        <ele>663.80004882812</ele>
        <time>2022-10-31T12:25:35.000Z</time>
      </trkpt>
      <trkpt lat="47.95514" lon="6.94927">
        <ele>663.80004882812</ele>
        <time>2022-10-31T12:25:36.000Z</time>
      </trkpt>
      <trkpt lat="47.95515" lon="6.94927">
        <ele>663.80004882812</ele>
        <time>2022-10-31T12:25:38.000Z</time>
      </trkpt>
      <trkpt lat="47.95516" lon="6.94927">
        <ele>663.80004882812</ele>
        <time>2022-10-31T12:25:42.000Z</time>
      </trkpt>
      <trkpt lat="47.95515" lon="6.94927">
        <ele>663.80004882812</ele>
        <time>2022-10-31T12:25:43.000Z</time>
      </trkpt>
      <trkpt lat="47.95514" lon="6.94928">
        <ele>663.80004882812</ele>
        <time>2022-10-31T12:25:52.000Z</time>
      </trkpt>
      <trkpt lat="47.95515" lon="6.94928">
        <ele>663.80004882812</ele>
        <time>2022-10-31T12:25:59.000Z</time>
      </trkpt>
      <trkpt lat="47.95515" lon="6.94927">
        <ele>663.80004882812</ele>
        <time>2022-10-31T12:26:02.000Z</time>
      </trkpt>
      <trkpt lat="47.95515" lon="6.94927">
        <ele>663.80004882812</ele>
        <time>2022-10-31T12:26:04.000Z</time>
      </trkpt>
      <trkpt lat="47.95515" lon="6.94927">
        <ele>663.80004882812</ele>
        <time>2022-10-31T12:26:07.000Z</time>
      </trkpt>
      <trkpt lat="47.95515" lon="6.94927">
        <ele>663.40002441406</ele>
        <time>2022-10-31T12:26:14.000Z</time>
      </trkpt>
      <trkpt lat="47.95516" lon="6.94925">
        <ele>664</ele>
        <time>2022-10-31T12:26:21.000Z</time>
      </trkpt>
      <trkpt lat="47.95517" lon="6.94921">
        <ele>664.19995117188</ele>
        <time>2022-10-31T12:26:23.000Z</time>
      </trkpt>
      <trkpt lat="47.9552" lon="6.94911">
        <ele>664.80004882812</ele>
        <time>2022-10-31T12:26:28.000Z</time>
      </trkpt>
      <trkpt lat="47.9552" lon="6.94907">
        <ele>665.19995117188</ele>
        <time>2022-10-31T12:26:32.000Z</time>
      </trkpt>
      <trkpt lat="47.9552" lon="6.94904">
        <ele>665.19995117188</ele>
        <time>2022-10-31T12:26:34.000Z</time>
      </trkpt>
      <trkpt lat="47.95521" lon="6.94901">
        <ele>665.59997558594</ele>
        <time>2022-10-31T12:26:39.000Z</time>
      </trkpt>
      <trkpt lat="47.95526" lon="6.94893">
        <ele>666</ele>
        <time>2022-10-31T12:26:45.000Z</time>
      </trkpt>
      <trkpt lat="47.95527" lon="6.9489">
        <ele>666.19995117188</ele>
        <time>2022-10-31T12:26:48.000Z</time>
      </trkpt>
      <trkpt lat="47.95526" lon="6.94888">
        <ele>666.19995117188</ele>
        <time>2022-10-31T12:26:49.000Z</time>
      </trkpt>
      <trkpt lat="47.95525" lon="6.94887">
        <ele>666.40002441406</ele>
        <time>2022-10-31T12:26:50.000Z</time>
      </trkpt>
      <trkpt lat="47.95524" lon="6.94887">
        <ele>666.59997558594</ele>
        <time>2022-10-31T12:26:52.000Z</time>
      </trkpt>
      <trkpt lat="47.95525" lon="6.94886">
        <ele>666.59997558594</ele>
        <time>2022-10-31T12:26:54.000Z</time>
      </trkpt>
      <trkpt lat="47.95523" lon="6.94884">
        <ele>667</ele>
        <time>2022-10-31T12:26:57.000Z</time>
      </trkpt>
      <trkpt lat="47.95522" lon="6.94883">
        <ele>667.19995117188</ele>
        <time>2022-10-31T12:27:00.000Z</time>
      </trkpt>
      <trkpt lat="47.95522" lon="6.94884">
        <ele>667.19995117188</ele>
        <time>2022-10-31T12:27:01.000Z</time>
      </trkpt>
      <trkpt lat="47.95524" lon="6.94882">
        <ele>668.19995117188</ele>
        <time>2022-10-31T12:27:06.000Z</time>
      </trkpt>
      <trkpt lat="47.95524" lon="6.94881">
        <ele>668.19995117188</ele>
        <time>2022-10-31T12:27:07.000Z</time>
      </trkpt>
      <trkpt lat="47.95526" lon="6.94879">
        <ele>668.40002441406</ele>
        <time>2022-10-31T12:27:10.000Z</time>
      </trkpt>
      <trkpt lat="47.95524" lon="6.94879">
        <ele>668.59997558594</ele>
        <time>2022-10-31T12:27:12.000Z</time>
      </trkpt>
      <trkpt lat="47.95525" lon="6.94878">
        <ele>668.80004882812</ele>
        <time>2022-10-31T12:27:14.000Z</time>
      </trkpt>
      <trkpt lat="47.95527" lon="6.94876">
        <ele>669</ele>
        <time>2022-10-31T12:27:17.000Z</time>
      </trkpt>
      <trkpt lat="47.95528" lon="6.94872">
        <ele>669.19995117188</ele>
        <time>2022-10-31T12:27:20.000Z</time>
      </trkpt>
      <trkpt lat="47.95529" lon="6.94869">
        <ele>669.19995117188</ele>
        <time>2022-10-31T12:27:22.000Z</time>
      </trkpt>
      <trkpt lat="47.9553" lon="6.94869">
        <ele>669.80004882812</ele>
        <time>2022-10-31T12:27:25.000Z</time>
      </trkpt>
      <trkpt lat="47.95532" lon="6.94868">
        <ele>669.80004882812</ele>
        <time>2022-10-31T12:27:26.000Z</time>
      </trkpt>
      <trkpt lat="47.95535" lon="6.94866">
        <ele>670</ele>
        <time>2022-10-31T12:27:29.000Z</time>
      </trkpt>
      <trkpt lat="47.95538" lon="6.94862">
        <ele>670.40002441406</ele>
        <time>2022-10-31T12:27:34.000Z</time>
      </trkpt>
      <trkpt lat="47.9554" lon="6.94859">
        <ele>670.40002441406</ele>
        <time>2022-10-31T12:27:35.000Z</time>
      </trkpt>
      <trkpt lat="47.95544" lon="6.94857">
        <ele>670.80004882812</ele>
        <time>2022-10-31T12:27:38.000Z</time>
      </trkpt>
      <trkpt lat="47.95545" lon="6.94857">
        <ele>670.80004882812</ele>
        <time>2022-10-31T12:27:39.000Z</time>
      </trkpt>
      <trkpt lat="47.95546" lon="6.94853">
        <ele>671.19995117188</ele>
        <time>2022-10-31T12:27:42.000Z</time>
      </trkpt>
      <trkpt lat="47.95544" lon="6.94852">
        <ele>671.40002441406</ele>
        <time>2022-10-31T12:27:45.000Z</time>
      </trkpt>
      <trkpt lat="47.95545" lon="6.94852">
        <ele>671.40002441406</ele>
        <time>2022-10-31T12:27:46.000Z</time>
      </trkpt>
      <trkpt lat="47.95545" lon="6.94851">
        <ele>671.59997558594</ele>
        <time>2022-10-31T12:27:49.000Z</time>
      </trkpt>
      <trkpt lat="47.95546" lon="6.94854">
        <ele>671.59997558594</ele>
        <time>2022-10-31T12:27:53.000Z</time>
      </trkpt>
      <trkpt lat="47.95545" lon="6.94854">
        <ele>671.80004882812</ele>
        <time>2022-10-31T12:27:58.000Z</time>
      </trkpt>
      <trkpt lat="47.95545" lon="6.94855">
        <ele>671.80004882812</ele>
        <time>2022-10-31T12:28:02.000Z</time>
      </trkpt>
      <trkpt lat="47.95546" lon="6.94855">
        <ele>672.19995117188</ele>
        <time>2022-10-31T12:28:03.000Z</time>
      </trkpt>
      <trkpt lat="47.95548" lon="6.94855">
        <ele>672.40002441406</ele>
        <time>2022-10-31T12:28:05.000Z</time>
      </trkpt>
      <trkpt lat="47.95548" lon="6.94855">
        <ele>672.59997558594</ele>
        <time>2022-10-31T12:28:09.000Z</time>
      </trkpt>
      <trkpt lat="47.95548" lon="6.94854">
        <ele>672.80004882812</ele>
        <time>2022-10-31T12:28:27.000Z</time>
      </trkpt>
      <trkpt lat="47.9555" lon="6.94854">
        <ele>673.59997558594</ele>
        <time>2022-10-31T12:28:48.000Z</time>
      </trkpt>
      <trkpt lat="47.95551" lon="6.94854">
        <ele>673.59997558594</ele>
        <time>2022-10-31T12:28:49.000Z</time>
      </trkpt>
      <trkpt lat="47.95551" lon="6.94854">
        <ele>673.80004882812</ele>
        <time>2022-10-31T12:28:50.000Z</time>
      </trkpt>
      <trkpt lat="47.95553" lon="6.94857">
        <ele>673.80004882812</ele>
        <time>2022-10-31T12:28:52.000Z</time>
      </trkpt>
      <trkpt lat="47.95553" lon="6.94858">
        <ele>674</ele>
        <time>2022-10-31T12:28:53.000Z</time>
      </trkpt>
      <trkpt lat="47.95553" lon="6.94861">
        <ele>674.19995117188</ele>
        <time>2022-10-31T12:28:56.000Z</time>
      </trkpt>
      <trkpt lat="47.95551" lon="6.94863">
        <ele>674.59997558594</ele>
        <time>2022-10-31T12:28:59.000Z</time>
      </trkpt>
      <trkpt lat="47.95552" lon="6.94866">
        <ele>674.80004882812</ele>
        <time>2022-10-31T12:29:02.000Z</time>
      </trkpt>
      <trkpt lat="47.95553" lon="6.94866">
        <ele>675</ele>
        <time>2022-10-31T12:29:03.000Z</time>
      </trkpt>
      <trkpt lat="47.95553" lon="6.94869">
        <ele>675</ele>
        <time>2022-10-31T12:29:05.000Z</time>
      </trkpt>
      <trkpt lat="47.95553" lon="6.9487">
        <ele>675.19995117188</ele>
        <time>2022-10-31T12:29:07.000Z</time>
      </trkpt>
      <trkpt lat="47.95559" lon="6.94874">
        <ele>675.59997558594</ele>
        <time>2022-10-31T12:29:12.000Z</time>
      </trkpt>
      <trkpt lat="47.9556" lon="6.94877">
        <ele>675.80004882812</ele>
        <time>2022-10-31T12:29:14.000Z</time>
      </trkpt>
      <trkpt lat="47.95562" lon="6.94879">
        <ele>676</ele>
        <time>2022-10-31T12:29:16.000Z</time>
      </trkpt>
      <trkpt lat="47.95565" lon="6.94882">
        <ele>676.19995117188</ele>
        <time>2022-10-31T12:29:18.000Z</time>
      </trkpt>
      <trkpt lat="47.95567" lon="6.94886">
        <ele>676.40002441406</ele>
        <time>2022-10-31T12:29:20.000Z</time>
      </trkpt>
      <trkpt lat="47.9557" lon="6.94893">
        <ele>676.80004882812</ele>
        <time>2022-10-31T12:29:25.000Z</time>
      </trkpt>
      <trkpt lat="47.95572" lon="6.94894">
        <ele>676.80004882812</ele>
        <time>2022-10-31T12:29:27.000Z</time>
      </trkpt>
      <trkpt lat="47.95577" lon="6.94902">
        <ele>677.59997558594</ele>
        <time>2022-10-31T12:29:34.000Z</time>
      </trkpt>
      <trkpt lat="47.95577" lon="6.94904">
        <ele>677.80004882812</ele>
        <time>2022-10-31T12:29:36.000Z</time>
      </trkpt>
      <trkpt lat="47.95577" lon="6.94906">
        <ele>677.80004882812</ele>
        <time>2022-10-31T12:29:37.000Z</time>
      </trkpt>
      <trkpt lat="47.95578" lon="6.94907">
        <ele>678.19995117188</ele>
        <time>2022-10-31T12:29:40.000Z</time>
      </trkpt>
      <trkpt lat="47.95577" lon="6.9491">
        <ele>678.40002441406</ele>
        <time>2022-10-31T12:29:43.000Z</time>
      </trkpt>
      <trkpt lat="47.95577" lon="6.94911">
        <ele>678.59997558594</ele>
        <time>2022-10-31T12:29:45.000Z</time>
      </trkpt>
      <trkpt lat="47.95577" lon="6.94915">
        <ele>678.80004882812</ele>
        <time>2022-10-31T12:29:48.000Z</time>
      </trkpt>
      <trkpt lat="47.95577" lon="6.94917">
        <ele>678.80004882812</ele>
        <time>2022-10-31T12:29:49.000Z</time>
      </trkpt>
      <trkpt lat="47.95579" lon="6.94918">
        <ele>679</ele>
        <time>2022-10-31T12:29:51.000Z</time>
      </trkpt>
      <trkpt lat="47.95583" lon="6.94922">
        <ele>679.59997558594</ele>
        <time>2022-10-31T12:29:57.000Z</time>
      </trkpt>
      <trkpt lat="47.95584" lon="6.94924">
        <ele>679.80004882812</ele>
        <time>2022-10-31T12:30:00.000Z</time>
      </trkpt>
      <trkpt lat="47.95587" lon="6.94927">
        <ele>680.19995117188</ele>
        <time>2022-10-31T12:30:04.000Z</time>
      </trkpt>
      <trkpt lat="47.9559" lon="6.94932">
        <ele>680.59997558594</ele>
        <time>2022-10-31T12:30:09.000Z</time>
      </trkpt>
      <trkpt lat="47.95592" lon="6.94931">
        <ele>680.59997558594</ele>
        <time>2022-10-31T12:30:14.000Z</time>
      </trkpt>
      <trkpt lat="47.95595" lon="6.94931">
        <ele>680.59997558594</ele>
        <time>2022-10-31T12:30:16.000Z</time>
      </trkpt>
      <trkpt lat="47.95599" lon="6.94933">
        <ele>680.40002441406</ele>
        <time>2022-10-31T12:30:21.000Z</time>
      </trkpt>
      <trkpt lat="47.956" lon="6.94934">
        <ele>680.59997558594</ele>
        <time>2022-10-31T12:30:23.000Z</time>
      </trkpt>
      <trkpt lat="47.956" lon="6.94932">
        <ele>680.59997558594</ele>
        <time>2022-10-31T12:30:26.000Z</time>
      </trkpt>
      <trkpt lat="47.95598" lon="6.94932">
        <ele>680.59997558594</ele>
        <time>2022-10-31T12:30:31.000Z</time>
      </trkpt>
      <trkpt lat="47.95597" lon="6.94932">
        <ele>680.59997558594</ele>
        <time>2022-10-31T12:30:33.000Z</time>
      </trkpt>
      <trkpt lat="47.95598" lon="6.94933">
        <ele>680.80004882812</ele>
        <time>2022-10-31T12:30:43.000Z</time>
      </trkpt>
      <trkpt lat="47.95599" lon="6.94933">
        <ele>680.80004882812</ele>
        <time>2022-10-31T12:30:44.000Z</time>
      </trkpt>
      <trkpt lat="47.95601" lon="6.94934">
        <ele>681.19995117188</ele>
        <time>2022-10-31T12:30:48.000Z</time>
      </trkpt>
      <trkpt lat="47.95605" lon="6.94932">
        <ele>682</ele>
        <time>2022-10-31T12:30:55.000Z</time>
      </trkpt>
      <trkpt lat="47.95606" lon="6.94931">
        <ele>682.19995117188</ele>
        <time>2022-10-31T12:30:56.000Z</time>
      </trkpt>
      <trkpt lat="47.95608" lon="6.9493">
        <ele>682.59997558594</ele>
        <time>2022-10-31T12:31:01.000Z</time>
      </trkpt>
      <trkpt lat="47.9561" lon="6.94929">
        <ele>682.80004882812</ele>
        <time>2022-10-31T12:31:04.000Z</time>
      </trkpt>
      <trkpt lat="47.95612" lon="6.94931">
        <ele>683</ele>
        <time>2022-10-31T12:31:07.000Z</time>
      </trkpt>
      <trkpt lat="47.95614" lon="6.94928">
        <ele>683.40002441406</ele>
        <time>2022-10-31T12:31:10.000Z</time>
      </trkpt>
      <trkpt lat="47.95615" lon="6.94928">
        <ele>683.80004882812</ele>
        <time>2022-10-31T12:31:15.000Z</time>
      </trkpt>
      <trkpt lat="47.95615" lon="6.94928">
        <ele>684</ele>
        <time>2022-10-31T12:31:17.000Z</time>
      </trkpt>
      <trkpt lat="47.95619" lon="6.9493">
        <ele>684.59997558594</ele>
        <time>2022-10-31T12:31:22.000Z</time>
      </trkpt>
      <trkpt lat="47.95619" lon="6.94935">
        <ele>684.80004882812</ele>
        <time>2022-10-31T12:31:27.000Z</time>
      </trkpt>
      <trkpt lat="47.95621" lon="6.94937">
        <ele>684.80004882812</ele>
        <time>2022-10-31T12:31:30.000Z</time>
      </trkpt>
      <trkpt lat="47.95622" lon="6.94936">
        <ele>685</ele>
        <time>2022-10-31T12:31:37.000Z</time>
      </trkpt>
      <trkpt lat="47.95624" lon="6.94936">
        <ele>685</ele>
        <time>2022-10-31T12:31:44.000Z</time>
      </trkpt>
      <trkpt lat="47.95624" lon="6.94936">
        <ele>685.19995117188</ele>
        <time>2022-10-31T12:31:45.000Z</time>
      </trkpt>
      <trkpt lat="47.95627" lon="6.94936">
        <ele>685.40002441406</ele>
        <time>2022-10-31T12:31:47.000Z</time>
      </trkpt>
      <trkpt lat="47.95628" lon="6.94937">
        <ele>685.40002441406</ele>
        <time>2022-10-31T12:31:49.000Z</time>
      </trkpt>
      <trkpt lat="47.95631" lon="6.94939">
        <ele>685.80004882812</ele>
        <time>2022-10-31T12:31:56.000Z</time>
      </trkpt>
      <trkpt lat="47.95631" lon="6.94937">
        <ele>686.19995117188</ele>
        <time>2022-10-31T12:32:00.000Z</time>
      </trkpt>
      <trkpt lat="47.95631" lon="6.94938">
        <ele>686.40002441406</ele>
        <time>2022-10-31T12:32:01.000Z</time>
      </trkpt>
      <trkpt lat="47.95631" lon="6.94938">
        <ele>686.40002441406</ele>
        <time>2022-10-31T12:32:03.000Z</time>
      </trkpt>
      <trkpt lat="47.95631" lon="6.94938">
        <ele>686.59997558594</ele>
        <time>2022-10-31T12:32:04.000Z</time>
      </trkpt>
      <trkpt lat="47.95632" lon="6.94938">
        <ele>686.80004882812</ele>
        <time>2022-10-31T12:32:06.000Z</time>
      </trkpt>
      <trkpt lat="47.95635" lon="6.94938">
        <ele>687.19995117188</ele>
        <time>2022-10-31T12:32:10.000Z</time>
      </trkpt>
      <trkpt lat="47.95636" lon="6.94939">
        <ele>687.19995117188</ele>
        <time>2022-10-31T12:32:11.000Z</time>
      </trkpt>
      <trkpt lat="47.95641" lon="6.94943">
        <ele>687.80004882812</ele>
        <time>2022-10-31T12:32:17.000Z</time>
      </trkpt>
      <trkpt lat="47.95645" lon="6.94945">
        <ele>688.19995117188</ele>
        <time>2022-10-31T12:32:22.000Z</time>
      </trkpt>
      <trkpt lat="47.95645" lon="6.94946">
        <ele>688.40002441406</ele>
        <time>2022-10-31T12:32:23.000Z</time>
      </trkpt>
      <trkpt lat="47.95646" lon="6.94948">
        <ele>688.59997558594</ele>
        <time>2022-10-31T12:32:25.000Z</time>
      </trkpt>
      <trkpt lat="47.9565" lon="6.9495">
        <ele>688.80004882812</ele>
        <time>2022-10-31T12:32:28.000Z</time>
      </trkpt>
      <trkpt lat="47.95651" lon="6.94951">
        <ele>689.40002441406</ele>
        <time>2022-10-31T12:32:32.000Z</time>
      </trkpt>
      <trkpt lat="47.95651" lon="6.94951">
        <ele>689.40002441406</ele>
        <time>2022-10-31T12:32:33.000Z</time>
      </trkpt>
      <trkpt lat="47.95651" lon="6.9495">
        <ele>689.59997558594</ele>
        <time>2022-10-31T12:32:36.000Z</time>
      </trkpt>
      <trkpt lat="47.95654" lon="6.94952">
        <ele>689.59997558594</ele>
        <time>2022-10-31T12:32:39.000Z</time>
      </trkpt>
      <trkpt lat="47.95656" lon="6.94954">
        <ele>690</ele>
        <time>2022-10-31T12:32:47.000Z</time>
      </trkpt>
      <trkpt lat="47.95659" lon="6.94955">
        <ele>690.40002441406</ele>
        <time>2022-10-31T12:32:54.000Z</time>
      </trkpt>
      <trkpt lat="47.9566" lon="6.94955">
        <ele>690.40002441406</ele>
        <time>2022-10-31T12:32:55.000Z</time>
      </trkpt>
      <trkpt lat="47.95666" lon="6.94959">
        <ele>690.59997558594</ele>
        <time>2022-10-31T12:33:00.000Z</time>
      </trkpt>
      <trkpt lat="47.95669" lon="6.94959">
        <ele>691.40002441406</ele>
        <time>2022-10-31T12:33:06.000Z</time>
      </trkpt>
      <trkpt lat="47.95668" lon="6.94959">
        <ele>691.59997558594</ele>
        <time>2022-10-31T12:33:07.000Z</time>
      </trkpt>
      <trkpt lat="47.95673" lon="6.94964">
        <ele>692</ele>
        <time>2022-10-31T12:33:11.000Z</time>
      </trkpt>
      <trkpt lat="47.95678" lon="6.94969">
        <ele>692.59997558594</ele>
        <time>2022-10-31T12:33:15.000Z</time>
      </trkpt>
      <trkpt lat="47.95678" lon="6.9497">
        <ele>692.80004882812</ele>
        <time>2022-10-31T12:33:17.000Z</time>
      </trkpt>
      <trkpt lat="47.9568" lon="6.94974">
        <ele>693.19995117188</ele>
        <time>2022-10-31T12:33:21.000Z</time>
      </trkpt>
      <trkpt lat="47.95681" lon="6.94976">
        <ele>693.59997558594</ele>
        <time>2022-10-31T12:33:24.000Z</time>
      </trkpt>
      <trkpt lat="47.95681" lon="6.94976">
        <ele>693.80004882812</ele>
        <time>2022-10-31T12:33:25.000Z</time>
      </trkpt>
      <trkpt lat="47.95682" lon="6.94978">
        <ele>694</ele>
        <time>2022-10-31T12:33:27.000Z</time>
      </trkpt>
      <trkpt lat="47.95683" lon="6.9498">
        <ele>694.19995117188</ele>
        <time>2022-10-31T12:33:29.000Z</time>
      </trkpt>
      <trkpt lat="47.95684" lon="6.94982">
        <ele>694.40002441406</ele>
        <time>2022-10-31T12:33:31.000Z</time>
      </trkpt>
      <trkpt lat="47.95685" lon="6.94984">
        <ele>694.59997558594</ele>
        <time>2022-10-31T12:33:33.000Z</time>
      </trkpt>
      <trkpt lat="47.95686" lon="6.94985">
        <ele>694.80004882812</ele>
        <time>2022-10-31T12:33:35.000Z</time>
      </trkpt>
      <trkpt lat="47.95686" lon="6.9499">
        <ele>695.40002441406</ele>
        <time>2022-10-31T12:33:40.000Z</time>
      </trkpt>
      <trkpt lat="47.95686" lon="6.94991">
        <ele>695.40002441406</ele>
        <time>2022-10-31T12:33:41.000Z</time>
      </trkpt>
      <trkpt lat="47.95686" lon="6.94992">
        <ele>695.40002441406</ele>
        <time>2022-10-31T12:33:42.000Z</time>
      </trkpt>
      <trkpt lat="47.95688" lon="6.94993">
        <ele>695.59997558594</ele>
        <time>2022-10-31T12:33:44.000Z</time>
      </trkpt>
      <trkpt lat="47.95689" lon="6.94994">
        <ele>695.59997558594</ele>
        <time>2022-10-31T12:33:45.000Z</time>
      </trkpt>
      <trkpt lat="47.95688" lon="6.94997">
        <ele>696.19995117188</ele>
        <time>2022-10-31T12:33:50.000Z</time>
      </trkpt>
      <trkpt lat="47.95685" lon="6.94997">
        <ele>696.19995117188</ele>
        <time>2022-10-31T12:33:58.000Z</time>
      </trkpt>
      <trkpt lat="47.95685" lon="6.94997">
        <ele>696.19995117188</ele>
        <time>2022-10-31T12:33:59.000Z</time>
      </trkpt>
      <trkpt lat="47.95685" lon="6.94998">
        <ele>696.19995117188</ele>
        <time>2022-10-31T12:34:01.000Z</time>
      </trkpt>
      <trkpt lat="47.95685" lon="6.94998">
        <ele>696.19995117188</ele>
        <time>2022-10-31T12:34:04.000Z</time>
      </trkpt>
      <trkpt lat="47.95689" lon="6.95008">
        <ele>697.40002441406</ele>
        <time>2022-10-31T12:34:19.000Z</time>
      </trkpt>
      <trkpt lat="47.95695" lon="6.95017">
        <ele>697.59997558594</ele>
        <time>2022-10-31T12:34:24.000Z</time>
      </trkpt>
      <trkpt lat="47.95695" lon="6.95017">
        <ele>697.80004882812</ele>
        <time>2022-10-31T12:34:25.000Z</time>
      </trkpt>
      <trkpt lat="47.95696" lon="6.95018">
        <ele>697.80004882812</ele>
        <time>2022-10-31T12:34:31.000Z</time>
      </trkpt>
      <trkpt lat="47.95696" lon="6.95015">
        <ele>697.80004882812</ele>
        <time>2022-10-31T12:34:37.000Z</time>
      </trkpt>
      <trkpt lat="47.95699" lon="6.9501">
        <ele>697.80004882812</ele>
        <time>2022-10-31T12:34:45.000Z</time>
      </trkpt>
      <trkpt lat="47.95699" lon="6.9501">
        <ele>697.59997558594</ele>
        <time>2022-10-31T12:34:52.000Z</time>
      </trkpt>
      <trkpt lat="47.957" lon="6.95008">
        <ele>697.59997558594</ele>
        <time>2022-10-31T12:34:54.000Z</time>
      </trkpt>
      <trkpt lat="47.957" lon="6.95008">
        <ele>697.59997558594</ele>
        <time>2022-10-31T12:34:55.000Z</time>
      </trkpt>
      <trkpt lat="47.95702" lon="6.95006">
        <ele>697.59997558594</ele>
        <time>2022-10-31T12:34:57.000Z</time>
      </trkpt>
      <trkpt lat="47.95703" lon="6.95005">
        <ele>697.59997558594</ele>
        <time>2022-10-31T12:34:58.000Z</time>
      </trkpt>
      <trkpt lat="47.95706" lon="6.95002">
        <ele>697.59997558594</ele>
        <time>2022-10-31T12:35:01.000Z</time>
      </trkpt>
      <trkpt lat="47.95708" lon="6.95">
        <ele>697.59997558594</ele>
        <time>2022-10-31T12:35:05.000Z</time>
      </trkpt>
      <trkpt lat="47.9571" lon="6.95002">
        <ele>697.59997558594</ele>
        <time>2022-10-31T12:35:13.000Z</time>
      </trkpt>
      <trkpt lat="47.95714" lon="6.95006">
        <ele>698</ele>
        <time>2022-10-31T12:35:18.000Z</time>
      </trkpt>
      <trkpt lat="47.95714" lon="6.95012">
        <ele>698.80004882812</ele>
        <time>2022-10-31T12:35:22.000Z</time>
      </trkpt>
      <trkpt lat="47.95717" lon="6.95016">
        <ele>699</ele>
        <time>2022-10-31T12:35:24.000Z</time>
      </trkpt>
      <trkpt lat="47.95718" lon="6.95023">
        <ele>699.40002441406</ele>
        <time>2022-10-31T12:35:27.000Z</time>
      </trkpt>
      <trkpt lat="47.9572" lon="6.95028">
        <ele>699.80004882812</ele>
        <time>2022-10-31T12:35:30.000Z</time>
      </trkpt>
      <trkpt lat="47.9572" lon="6.9503">
        <ele>700</ele>
        <time>2022-10-31T12:35:31.000Z</time>
      </trkpt>
      <trkpt lat="47.95722" lon="6.95035">
        <ele>700.40002441406</ele>
        <time>2022-10-31T12:35:34.000Z</time>
      </trkpt>
      <trkpt lat="47.95724" lon="6.9504">
        <ele>701</ele>
        <time>2022-10-31T12:35:38.000Z</time>
      </trkpt>
      <trkpt lat="47.95725" lon="6.95043">
        <ele>701.19995117188</ele>
        <time>2022-10-31T12:35:40.000Z</time>
      </trkpt>
      <trkpt lat="47.95727" lon="6.95046">
        <ele>701.80004882812</ele>
        <time>2022-10-31T12:35:44.000Z</time>
      </trkpt>
      <trkpt lat="47.95727" lon="6.95048">
        <ele>702</ele>
        <time>2022-10-31T12:35:45.000Z</time>
      </trkpt>
      <trkpt lat="47.95727" lon="6.95049">
        <ele>702</ele>
        <time>2022-10-31T12:35:46.000Z</time>
      </trkpt>
      <trkpt lat="47.95727" lon="6.95051">
        <ele>702.59997558594</ele>
        <time>2022-10-31T12:35:49.000Z</time>
      </trkpt>
      <trkpt lat="47.95727" lon="6.95053">
        <ele>702.59997558594</ele>
        <time>2022-10-31T12:35:50.000Z</time>
      </trkpt>
      <trkpt lat="47.95728" lon="6.95055">
        <ele>703</ele>
        <time>2022-10-31T12:35:52.000Z</time>
      </trkpt>
      <trkpt lat="47.95729" lon="6.95056">
        <ele>703.19995117188</ele>
        <time>2022-10-31T12:35:53.000Z</time>
      </trkpt>
      <trkpt lat="47.95729" lon="6.95057">
        <ele>703.19995117188</ele>
        <time>2022-10-31T12:35:54.000Z</time>
      </trkpt>
      <trkpt lat="47.95729" lon="6.95059">
        <ele>703.40002441406</ele>
        <time>2022-10-31T12:35:56.000Z</time>
      </trkpt>
      <trkpt lat="47.9573" lon="6.9506">
        <ele>703.40002441406</ele>
        <time>2022-10-31T12:35:57.000Z</time>
      </trkpt>
      <trkpt lat="47.95732" lon="6.95062">
        <ele>703.59997558594</ele>
        <time>2022-10-31T12:35:59.000Z</time>
      </trkpt>
      <trkpt lat="47.95733" lon="6.95065">
        <ele>704</ele>
        <time>2022-10-31T12:36:01.000Z</time>
      </trkpt>
      <trkpt lat="47.95733" lon="6.95066">
        <ele>704.19995117188</ele>
        <time>2022-10-31T12:36:02.000Z</time>
      </trkpt>
      <trkpt lat="47.95732" lon="6.95068">
        <ele>704.19995117188</ele>
        <time>2022-10-31T12:36:03.000Z</time>
      </trkpt>
      <trkpt lat="47.95731" lon="6.95072">
        <ele>704.40002441406</ele>
        <time>2022-10-31T12:36:07.000Z</time>
      </trkpt>
      <trkpt lat="47.95732" lon="6.95074">
        <ele>704.59997558594</ele>
        <time>2022-10-31T12:36:09.000Z</time>
      </trkpt>
      <trkpt lat="47.95736" lon="6.95078">
        <ele>704.80004882812</ele>
        <time>2022-10-31T12:36:14.000Z</time>
      </trkpt>
      <trkpt lat="47.95737" lon="6.9508">
        <ele>705.19995117188</ele>
        <time>2022-10-31T12:36:17.000Z</time>
      </trkpt>
      <trkpt lat="47.95737" lon="6.95082">
        <ele>705.80004882812</ele>
        <time>2022-10-31T12:36:20.000Z</time>
      </trkpt>
      <trkpt lat="47.95743" lon="6.95087">
        <ele>706.40002441406</ele>
        <time>2022-10-31T12:36:25.000Z</time>
      </trkpt>
      <trkpt lat="47.95745" lon="6.95093">
        <ele>706.80004882812</ele>
        <time>2022-10-31T12:36:30.000Z</time>
      </trkpt>
      <trkpt lat="47.95747" lon="6.95096">
        <ele>707.40002441406</ele>
        <time>2022-10-31T12:36:36.000Z</time>
      </trkpt>
      <trkpt lat="47.95748" lon="6.95099">
        <ele>707.80004882812</ele>
        <time>2022-10-31T12:36:41.000Z</time>
      </trkpt>
      <trkpt lat="47.95751" lon="6.95102">
        <ele>708.59997558594</ele>
        <time>2022-10-31T12:36:46.000Z</time>
      </trkpt>
      <trkpt lat="47.95751" lon="6.95103">
        <ele>708.59997558594</ele>
        <time>2022-10-31T12:36:47.000Z</time>
      </trkpt>
      <trkpt lat="47.95756" lon="6.95107">
        <ele>709.40002441406</ele>
        <time>2022-10-31T12:36:53.000Z</time>
      </trkpt>
      <trkpt lat="47.95759" lon="6.95107">
        <ele>709.59997558594</ele>
        <time>2022-10-31T12:36:55.000Z</time>
      </trkpt>
      <trkpt lat="47.95761" lon="6.95108">
        <ele>709.80004882812</ele>
        <time>2022-10-31T12:36:56.000Z</time>
      </trkpt>
      <trkpt lat="47.95763" lon="6.9511">
        <ele>710</ele>
        <time>2022-10-31T12:36:59.000Z</time>
      </trkpt>
      <trkpt lat="47.95766" lon="6.95111">
        <ele>710.59997558594</ele>
        <time>2022-10-31T12:37:04.000Z</time>
      </trkpt>
      <trkpt lat="47.95766" lon="6.95111">
        <ele>710.59997558594</ele>
        <time>2022-10-31T12:37:05.000Z</time>
      </trkpt>
      <trkpt lat="47.95766" lon="6.95111">
        <ele>710.59997558594</ele>
        <time>2022-10-31T12:37:08.000Z</time>
      </trkpt>
      <trkpt lat="47.95769" lon="6.95113">
        <ele>711</ele>
        <time>2022-10-31T12:37:13.000Z</time>
      </trkpt>
      <trkpt lat="47.95771" lon="6.95114">
        <ele>711.40002441406</ele>
        <time>2022-10-31T12:37:19.000Z</time>
      </trkpt>
      <trkpt lat="47.95773" lon="6.95116">
        <ele>711.59997558594</ele>
        <time>2022-10-31T12:37:21.000Z</time>
      </trkpt>
      <trkpt lat="47.95774" lon="6.95118">
        <ele>712</ele>
        <time>2022-10-31T12:37:26.000Z</time>
      </trkpt>
      <trkpt lat="47.95777" lon="6.95121">
        <ele>712</ele>
        <time>2022-10-31T12:37:33.000Z</time>
      </trkpt>
      <trkpt lat="47.95773" lon="6.95121">
        <ele>712</ele>
        <time>2022-10-31T12:37:41.000Z</time>
      </trkpt>
      <trkpt lat="47.95772" lon="6.95121">
        <ele>711.80004882812</ele>
        <time>2022-10-31T12:38:00.000Z</time>
      </trkpt>
      <trkpt lat="47.95774" lon="6.9512">
        <ele>712.19995117188</ele>
        <time>2022-10-31T12:38:05.000Z</time>
      </trkpt>
      <trkpt lat="47.95778" lon="6.95116">
        <ele>712.59997558594</ele>
        <time>2022-10-31T12:38:08.000Z</time>
      </trkpt>
      <trkpt lat="47.95783" lon="6.95114">
        <ele>713</ele>
        <time>2022-10-31T12:38:11.000Z</time>
      </trkpt>
      <trkpt lat="47.95786" lon="6.95112">
        <ele>713.40002441406</ele>
        <time>2022-10-31T12:38:15.000Z</time>
      </trkpt>
      <trkpt lat="47.95787" lon="6.95115">
        <ele>713.59997558594</ele>
        <time>2022-10-31T12:38:20.000Z</time>
      </trkpt>
      <trkpt lat="47.95788" lon="6.95115">
        <ele>713.80004882812</ele>
        <time>2022-10-31T12:38:22.000Z</time>
      </trkpt>
      <trkpt lat="47.95792" lon="6.95118">
        <ele>714</ele>
        <time>2022-10-31T12:38:26.000Z</time>
      </trkpt>
      <trkpt lat="47.95797" lon="6.95118">
        <ele>714.80004882812</ele>
        <time>2022-10-31T12:38:30.000Z</time>
      </trkpt>
      <trkpt lat="47.95798" lon="6.9512">
        <ele>715.40002441406</ele>
        <time>2022-10-31T12:38:33.000Z</time>
      </trkpt>
      <trkpt lat="47.958" lon="6.95123">
        <ele>715.80004882812</ele>
        <time>2022-10-31T12:38:36.000Z</time>
      </trkpt>
      <trkpt lat="47.95802" lon="6.95123">
        <ele>716</ele>
        <time>2022-10-31T12:38:38.000Z</time>
      </trkpt>
      <trkpt lat="47.95802" lon="6.95123">
        <ele>716.19995117188</ele>
        <time>2022-10-31T12:38:43.000Z</time>
      </trkpt>
      <trkpt lat="47.95801" lon="6.95123">
        <ele>716.19995117188</ele>
        <time>2022-10-31T12:38:45.000Z</time>
      </trkpt>
      <trkpt lat="47.95804" lon="6.95123">
        <ele>716.59997558594</ele>
        <time>2022-10-31T12:38:52.000Z</time>
      </trkpt>
      <trkpt lat="47.95804" lon="6.95123">
        <ele>716.80004882812</ele>
        <time>2022-10-31T12:38:53.000Z</time>
      </trkpt>
      <trkpt lat="47.95809" lon="6.95124">
        <ele>718</ele>
        <time>2022-10-31T12:39:06.000Z</time>
      </trkpt>
      <trkpt lat="47.95819" lon="6.95127">
        <ele>718.40002441406</ele>
        <time>2022-10-31T12:39:11.000Z</time>
      </trkpt>
      <trkpt lat="47.95823" lon="6.9513">
        <ele>718.59997558594</ele>
        <time>2022-10-31T12:39:13.000Z</time>
      </trkpt>
      <trkpt lat="47.95826" lon="6.95131">
        <ele>718.80004882812</ele>
        <time>2022-10-31T12:39:15.000Z</time>
      </trkpt>
      <trkpt lat="47.95827" lon="6.95131">
        <ele>719</ele>
        <time>2022-10-31T12:39:16.000Z</time>
      </trkpt>
      <trkpt lat="47.95828" lon="6.95131">
        <ele>719.40002441406</ele>
        <time>2022-10-31T12:39:19.000Z</time>
      </trkpt>
      <trkpt lat="47.95833" lon="6.95132">
        <ele>719.59997558594</ele>
        <time>2022-10-31T12:39:26.000Z</time>
      </trkpt>
      <trkpt lat="47.95834" lon="6.95131">
        <ele>719.59997558594</ele>
        <time>2022-10-31T12:39:28.000Z</time>
      </trkpt>
      <trkpt lat="47.95834" lon="6.95131">
        <ele>719.59997558594</ele>
        <time>2022-10-31T12:39:29.000Z</time>
      </trkpt>
      <trkpt lat="47.95837" lon="6.95132">
        <ele>719.59997558594</ele>
        <time>2022-10-31T12:39:35.000Z</time>
      </trkpt>
      <trkpt lat="47.95838" lon="6.95132">
        <ele>719.59997558594</ele>
        <time>2022-10-31T12:39:36.000Z</time>
      </trkpt>
      <trkpt lat="47.95837" lon="6.95133">
        <ele>719.40002441406</ele>
        <time>2022-10-31T12:39:43.000Z</time>
      </trkpt>
      <trkpt lat="47.95837" lon="6.95133">
        <ele>719.40002441406</ele>
        <time>2022-10-31T12:39:44.000Z</time>
      </trkpt>
      <trkpt lat="47.95838" lon="6.95133">
        <ele>719.40002441406</ele>
        <time>2022-10-31T12:39:49.000Z</time>
      </trkpt>
      <trkpt lat="47.95839" lon="6.95133">
        <ele>719.40002441406</ele>
        <time>2022-10-31T12:39:52.000Z</time>
      </trkpt>
      <trkpt lat="47.95839" lon="6.95132">
        <ele>719.59997558594</ele>
        <time>2022-10-31T12:39:54.000Z</time>
      </trkpt>
      <trkpt lat="47.95842" lon="6.95133">
        <ele>720.19995117188</ele>
        <time>2022-10-31T12:40:00.000Z</time>
      </trkpt>
      <trkpt lat="47.95843" lon="6.95134">
        <ele>720.19995117188</ele>
        <time>2022-10-31T12:40:01.000Z</time>
      </trkpt>
      <trkpt lat="47.95844" lon="6.95134">
        <ele>720.40002441406</ele>
        <time>2022-10-31T12:40:02.000Z</time>
      </trkpt>
      <trkpt lat="47.95851" lon="6.95136">
        <ele>720.80004882812</ele>
        <time>2022-10-31T12:40:07.000Z</time>
      </trkpt>
      <trkpt lat="47.95853" lon="6.95137">
        <ele>721</ele>
        <time>2022-10-31T12:40:09.000Z</time>
      </trkpt>
      <trkpt lat="47.95856" lon="6.95137">
        <ele>721.19995117188</ele>
        <time>2022-10-31T12:40:11.000Z</time>
      </trkpt>
      <trkpt lat="47.9586" lon="6.95138">
        <ele>721.59997558594</ele>
        <time>2022-10-31T12:40:15.000Z</time>
      </trkpt>
      <trkpt lat="47.9586" lon="6.95139">
        <ele>721.59997558594</ele>
        <time>2022-10-31T12:40:16.000Z</time>
      </trkpt>
      <trkpt lat="47.9586" lon="6.95143">
        <ele>721.80004882812</ele>
        <time>2022-10-31T12:40:21.000Z</time>
      </trkpt>
      <trkpt lat="47.95864" lon="6.95147">
        <ele>722.19995117188</ele>
        <time>2022-10-31T12:40:27.000Z</time>
      </trkpt>
      <trkpt lat="47.95865" lon="6.9515">
        <ele>722.80004882812</ele>
        <time>2022-10-31T12:40:32.000Z</time>
      </trkpt>
      <trkpt lat="47.95867" lon="6.9515">
        <ele>723.19995117188</ele>
        <time>2022-10-31T12:40:36.000Z</time>
      </trkpt>
      <trkpt lat="47.95871" lon="6.95149">
        <ele>723.19995117188</ele>
        <time>2022-10-31T12:40:39.000Z</time>
      </trkpt>
      <trkpt lat="47.95875" lon="6.95151">
        <ele>723.40002441406</ele>
        <time>2022-10-31T12:40:43.000Z</time>
      </trkpt>
      <trkpt lat="47.95875" lon="6.9515">
        <ele>723.40002441406</ele>
        <time>2022-10-31T12:40:44.000Z</time>
      </trkpt>
      <trkpt lat="47.95875" lon="6.95153">
        <ele>724</ele>
        <time>2022-10-31T12:40:49.000Z</time>
      </trkpt>
      <trkpt lat="47.95876" lon="6.95154">
        <ele>724</ele>
        <time>2022-10-31T12:40:50.000Z</time>
      </trkpt>
      <trkpt lat="47.95876" lon="6.95153">
        <ele>724.19995117188</ele>
        <time>2022-10-31T12:40:54.000Z</time>
      </trkpt>
      <trkpt lat="47.95877" lon="6.95152">
        <ele>724.19995117188</ele>
        <time>2022-10-31T12:40:55.000Z</time>
      </trkpt>
      <trkpt lat="47.95877" lon="6.95152">
        <ele>724.19995117188</ele>
        <time>2022-10-31T12:40:57.000Z</time>
      </trkpt>
      <trkpt lat="47.95878" lon="6.95153">
        <ele>724.19995117188</ele>
        <time>2022-10-31T12:40:58.000Z</time>
      </trkpt>
      <trkpt lat="47.95881" lon="6.95152">
        <ele>724.19995117188</ele>
        <time>2022-10-31T12:41:01.000Z</time>
      </trkpt>
      <trkpt lat="47.95882" lon="6.95152">
        <ele>724.40002441406</ele>
        <time>2022-10-31T12:41:02.000Z</time>
      </trkpt>
      <trkpt lat="47.95888" lon="6.95151">
        <ele>725</ele>
        <time>2022-10-31T12:41:09.000Z</time>
      </trkpt>
      <trkpt lat="47.9589" lon="6.9515">
        <ele>725.40002441406</ele>
        <time>2022-10-31T12:41:14.000Z</time>
      </trkpt>
      <trkpt lat="47.95894" lon="6.9515">
        <ele>726.19995117188</ele>
        <time>2022-10-31T12:41:20.000Z</time>
      </trkpt>
      <trkpt lat="47.95896" lon="6.95151">
        <ele>726.59997558594</ele>
        <time>2022-10-31T12:41:24.000Z</time>
      </trkpt>
      <trkpt lat="47.95899" lon="6.95151">
        <ele>727</ele>
        <time>2022-10-31T12:41:26.000Z</time>
      </trkpt>
      <trkpt lat="47.95906" lon="6.95149">
        <ele>727.59997558594</ele>
        <time>2022-10-31T12:41:33.000Z</time>
      </trkpt>
      <trkpt lat="47.95908" lon="6.95147">
        <ele>727.80004882812</ele>
        <time>2022-10-31T12:41:36.000Z</time>
      </trkpt>
      <trkpt lat="47.95908" lon="6.95147">
        <ele>728</ele>
        <time>2022-10-31T12:41:37.000Z</time>
      </trkpt>
      <trkpt lat="47.9591" lon="6.95146">
        <ele>728.40002441406</ele>
        <time>2022-10-31T12:41:42.000Z</time>
      </trkpt>
      <trkpt lat="47.95913" lon="6.95145">
        <ele>728.59997558594</ele>
        <time>2022-10-31T12:41:45.000Z</time>
      </trkpt>
      <trkpt lat="47.95915" lon="6.95142">
        <ele>729</ele>
        <time>2022-10-31T12:41:48.000Z</time>
      </trkpt>
      <trkpt lat="47.95922" lon="6.95138">
        <ele>729.40002441406</ele>
        <time>2022-10-31T12:41:54.000Z</time>
      </trkpt>
      <trkpt lat="47.95924" lon="6.95139">
        <ele>729.80004882812</ele>
        <time>2022-10-31T12:41:56.000Z</time>
      </trkpt>
      <trkpt lat="47.95925" lon="6.95139">
        <ele>730</ele>
        <time>2022-10-31T12:41:58.000Z</time>
      </trkpt>
      <trkpt lat="47.95925" lon="6.9514">
        <ele>730</ele>
        <time>2022-10-31T12:41:59.000Z</time>
      </trkpt>
      <trkpt lat="47.95925" lon="6.9514">
        <ele>730</ele>
        <time>2022-10-31T12:42:00.000Z</time>
      </trkpt>
      <trkpt lat="47.95929" lon="6.9514">
        <ele>730.19995117188</ele>
        <time>2022-10-31T12:42:03.000Z</time>
      </trkpt>
      <trkpt lat="47.95934" lon="6.95139">
        <ele>730.80004882812</ele>
        <time>2022-10-31T12:42:08.000Z</time>
      </trkpt>
      <trkpt lat="47.95936" lon="6.95139">
        <ele>731</ele>
        <time>2022-10-31T12:42:09.000Z</time>
      </trkpt>
      <trkpt lat="47.95939" lon="6.9514">
        <ele>731.40002441406</ele>
        <time>2022-10-31T12:42:13.000Z</time>
      </trkpt>
      <trkpt lat="47.95939" lon="6.95141">
        <ele>731.59997558594</ele>
        <time>2022-10-31T12:42:14.000Z</time>
      </trkpt>
      <trkpt lat="47.9594" lon="6.95143">
        <ele>732</ele>
        <time>2022-10-31T12:42:17.000Z</time>
      </trkpt>
      <trkpt lat="47.95944" lon="6.95144">
        <ele>732.40002441406</ele>
        <time>2022-10-31T12:42:21.000Z</time>
      </trkpt>
      <trkpt lat="47.95946" lon="6.95143">
        <ele>732.80004882812</ele>
        <time>2022-10-31T12:42:26.000Z</time>
      </trkpt>
      <trkpt lat="47.95948" lon="6.95143">
        <ele>732.80004882812</ele>
        <time>2022-10-31T12:42:29.000Z</time>
      </trkpt>
      <trkpt lat="47.9595" lon="6.95141">
        <ele>732.59997558594</ele>
        <time>2022-10-31T12:42:35.000Z</time>
      </trkpt>
      <trkpt lat="47.95951" lon="6.95142">
        <ele>733</ele>
        <time>2022-10-31T12:42:37.000Z</time>
      </trkpt>
      <trkpt lat="47.95954" lon="6.95141">
        <ele>733.40002441406</ele>
        <time>2022-10-31T12:42:41.000Z</time>
      </trkpt>
      <trkpt lat="47.95954" lon="6.95141">
        <ele>733.40002441406</ele>
        <time>2022-10-31T12:42:42.000Z</time>
      </trkpt>
      <trkpt lat="47.95955" lon="6.95142">
        <ele>733.59997558594</ele>
        <time>2022-10-31T12:42:43.000Z</time>
      </trkpt>
      <trkpt lat="47.9596" lon="6.95141">
        <ele>734</ele>
        <time>2022-10-31T12:42:47.000Z</time>
      </trkpt>
      <trkpt lat="47.95961" lon="6.95142">
        <ele>734.19995117188</ele>
        <time>2022-10-31T12:42:49.000Z</time>
      </trkpt>
      <trkpt lat="47.95961" lon="6.95139">
        <ele>734.40002441406</ele>
        <time>2022-10-31T12:42:54.000Z</time>
      </trkpt>
      <trkpt lat="47.95962" lon="6.95139">
        <ele>734.59997558594</ele>
        <time>2022-10-31T12:43:01.000Z</time>
      </trkpt>
      <trkpt lat="47.95962" lon="6.95139">
        <ele>735</ele>
        <time>2022-10-31T12:43:15.000Z</time>
      </trkpt>
      <trkpt lat="47.95962" lon="6.95139">
        <ele>735</ele>
        <time>2022-10-31T12:43:17.000Z</time>
      </trkpt>
      <trkpt lat="47.95962" lon="6.9514">
        <ele>735</ele>
        <time>2022-10-31T12:43:20.000Z</time>
      </trkpt>
      <trkpt lat="47.95962" lon="6.95141">
        <ele>735</ele>
        <time>2022-10-31T12:43:23.000Z</time>
      </trkpt>
      <trkpt lat="47.95964" lon="6.95146">
        <ele>735</ele>
        <time>2022-10-31T12:43:37.000Z</time>
      </trkpt>
      <trkpt lat="47.95965" lon="6.95146">
        <ele>735.19995117188</ele>
        <time>2022-10-31T12:43:41.000Z</time>
      </trkpt>
      <trkpt lat="47.95965" lon="6.95146">
        <ele>735.19995117188</ele>
        <time>2022-10-31T12:43:44.000Z</time>
      </trkpt>
      <trkpt lat="47.95967" lon="6.95145">
        <ele>735.19995117188</ele>
        <time>2022-10-31T12:43:58.000Z</time>
      </trkpt>
      <trkpt lat="47.95968" lon="6.95142">
        <ele>735.40002441406</ele>
        <time>2022-10-31T12:44:20.000Z</time>
      </trkpt>
      <trkpt lat="47.95968" lon="6.95142">
        <ele>735.59997558594</ele>
        <time>2022-10-31T12:44:29.000Z</time>
      </trkpt>
      <trkpt lat="47.95969" lon="6.95143">
        <ele>735.80004882812</ele>
        <time>2022-10-31T12:44:45.000Z</time>
      </trkpt>
      <trkpt lat="47.9597" lon="6.95143">
        <ele>735.40002441406</ele>
        <time>2022-10-31T12:44:49.000Z</time>
      </trkpt>
      <trkpt lat="47.95972" lon="6.95146">
        <ele>735.40002441406</ele>
        <time>2022-10-31T12:44:53.000Z</time>
      </trkpt>
      <trkpt lat="47.95973" lon="6.95146">
        <ele>735.40002441406</ele>
        <time>2022-10-31T12:44:56.000Z</time>
      </trkpt>
      <trkpt lat="47.95974" lon="6.95145">
        <ele>735.40002441406</ele>
        <time>2022-10-31T12:45:01.000Z</time>
      </trkpt>
      <trkpt lat="47.95977" lon="6.95148">
        <ele>735.19995117188</ele>
        <time>2022-10-31T12:45:06.000Z</time>
      </trkpt>
      <trkpt lat="47.95978" lon="6.95149">
        <ele>735.19995117188</ele>
        <time>2022-10-31T12:45:07.000Z</time>
      </trkpt>
      <trkpt lat="47.95983" lon="6.95153">
        <ele>735.19995117188</ele>
        <time>2022-10-31T12:45:14.000Z</time>
      </trkpt>
      <trkpt lat="47.95985" lon="6.95153">
        <ele>735.19995117188</ele>
        <time>2022-10-31T12:45:16.000Z</time>
      </trkpt>
      <trkpt lat="47.95987" lon="6.95152">
        <ele>735.19995117188</ele>
        <time>2022-10-31T12:45:19.000Z</time>
      </trkpt>
      <trkpt lat="47.95988" lon="6.9515">
        <ele>735.19995117188</ele>
        <time>2022-10-31T12:45:21.000Z</time>
      </trkpt>
      <trkpt lat="47.9599" lon="6.95149">
        <ele>735.19995117188</ele>
        <time>2022-10-31T12:45:24.000Z</time>
      </trkpt>
      <trkpt lat="47.95991" lon="6.95147">
        <ele>735.19995117188</ele>
        <time>2022-10-31T12:45:25.000Z</time>
      </trkpt>
      <trkpt lat="47.9599" lon="6.95142">
        <ele>735.19995117188</ele>
        <time>2022-10-31T12:45:28.000Z</time>
      </trkpt>
      <trkpt lat="47.95989" lon="6.95139">
        <ele>735.19995117188</ele>
        <time>2022-10-31T12:45:32.000Z</time>
      </trkpt>
      <trkpt lat="47.95989" lon="6.95139">
        <ele>735.19995117188</ele>
        <time>2022-10-31T12:45:34.000Z</time>
      </trkpt>
      <trkpt lat="47.95988" lon="6.95138">
        <ele>735.19995117188</ele>
        <time>2022-10-31T12:45:36.000Z</time>
      </trkpt>
      <trkpt lat="47.95988" lon="6.95135">
        <ele>735.19995117188</ele>
        <time>2022-10-31T12:45:40.000Z</time>
      </trkpt>
      <trkpt lat="47.95989" lon="6.95132">
        <ele>735.19995117188</ele>
        <time>2022-10-31T12:45:46.000Z</time>
      </trkpt>
      <trkpt lat="47.95988" lon="6.95133">
        <ele>735.19995117188</ele>
        <time>2022-10-31T12:45:51.000Z</time>
      </trkpt>
      <trkpt lat="47.95988" lon="6.95133">
        <ele>735.19995117188</ele>
        <time>2022-10-31T12:45:58.000Z</time>
      </trkpt>
      <trkpt lat="47.95987" lon="6.95131">
        <ele>735.19995117188</ele>
        <time>2022-10-31T12:46:03.000Z</time>
      </trkpt>
      <trkpt lat="47.95988" lon="6.95131">
        <ele>735.19995117188</ele>
        <time>2022-10-31T12:46:07.000Z</time>
      </trkpt>
      <trkpt lat="47.95989" lon="6.95131">
        <ele>735.19995117188</ele>
        <time>2022-10-31T12:46:10.000Z</time>
      </trkpt>
      <trkpt lat="47.95989" lon="6.95135">
        <ele>735.19995117188</ele>
        <time>2022-10-31T12:46:14.000Z</time>
      </trkpt>
      <trkpt lat="47.95988" lon="6.95136">
        <ele>735.19995117188</ele>
        <time>2022-10-31T12:46:20.000Z</time>
      </trkpt>
      <trkpt lat="47.95989" lon="6.95136">
        <ele>735.19995117188</ele>
        <time>2022-10-31T12:46:23.000Z</time>
      </trkpt>
      <trkpt lat="47.95989" lon="6.95136">
        <ele>735.19995117188</ele>
        <time>2022-10-31T12:46:25.000Z</time>
      </trkpt>
      <trkpt lat="47.95994" lon="6.95135">
        <ele>735.19995117188</ele>
        <time>2022-10-31T12:46:55.000Z</time>
      </trkpt>
      <trkpt lat="47.95994" lon="6.95136">
        <ele>735.19995117188</ele>
        <time>2022-10-31T12:47:01.000Z</time>
      </trkpt>
      <trkpt lat="47.95995" lon="6.95136">
        <ele>735.19995117188</ele>
        <time>2022-10-31T12:47:06.000Z</time>
      </trkpt>
      <trkpt lat="47.95996" lon="6.9514">
        <ele>735.19995117188</ele>
        <time>2022-10-31T12:47:11.000Z</time>
      </trkpt>
      <trkpt lat="47.95995" lon="6.95133">
        <ele>735.19995117188</ele>
        <time>2022-10-31T12:47:18.000Z</time>
      </trkpt>
      <trkpt lat="47.95996" lon="6.95131">
        <ele>735.19995117188</ele>
        <time>2022-10-31T12:47:24.000Z</time>
      </trkpt>
      <trkpt lat="47.95995" lon="6.95138">
        <ele>735.19995117188</ele>
        <time>2022-10-31T12:47:30.000Z</time>
      </trkpt>
      <trkpt lat="47.96002" lon="6.95143">
        <ele>735.19995117188</ele>
        <time>2022-10-31T12:47:36.000Z</time>
      </trkpt>
      <trkpt lat="47.96" lon="6.95142">
        <ele>735.19995117188</ele>
        <time>2022-10-31T12:47:41.000Z</time>
      </trkpt>
      <trkpt lat="47.95993" lon="6.95142">
        <ele>735.19995117188</ele>
        <time>2022-10-31T12:47:48.000Z</time>
      </trkpt>
      <trkpt lat="47.95989" lon="6.95146">
        <ele>735.19995117188</ele>
        <time>2022-10-31T12:47:53.000Z</time>
      </trkpt>
      <trkpt lat="47.95988" lon="6.95146">
        <ele>735.19995117188</ele>
        <time>2022-10-31T12:47:57.000Z</time>
      </trkpt>
      <trkpt lat="47.9599" lon="6.95147">
        <ele>735.19995117188</ele>
        <time>2022-10-31T12:48:02.000Z</time>
      </trkpt>
      <trkpt lat="47.95992" lon="6.95146">
        <ele>735.19995117188</ele>
        <time>2022-10-31T12:48:08.000Z</time>
      </trkpt>
      <trkpt lat="47.95992" lon="6.95146">
        <ele>735.19995117188</ele>
        <time>2022-10-31T12:48:12.000Z</time>
      </trkpt>
      <trkpt lat="47.95991" lon="6.95147">
        <ele>735.19995117188</ele>
        <time>2022-10-31T12:48:16.000Z</time>
      </trkpt>
      <trkpt lat="47.95991" lon="6.95148">
        <ele>735.19995117188</ele>
        <time>2022-10-31T12:48:17.000Z</time>
      </trkpt>
      <trkpt lat="47.95991" lon="6.95145">
        <ele>735.19995117188</ele>
        <time>2022-10-31T12:48:23.000Z</time>
      </trkpt>
      <trkpt lat="47.9599" lon="6.95141">
        <ele>735.19995117188</ele>
        <time>2022-10-31T12:48:29.000Z</time>
      </trkpt>
      <trkpt lat="47.95993" lon="6.95138">
        <ele>735.19995117188</ele>
        <time>2022-10-31T12:48:35.000Z</time>
      </trkpt>
      <trkpt lat="47.95993" lon="6.95137">
        <ele>735.19995117188</ele>
        <time>2022-10-31T12:48:36.000Z</time>
      </trkpt>
      <trkpt lat="47.95994" lon="6.95136">
        <ele>735.19995117188</ele>
        <time>2022-10-31T12:48:37.000Z</time>
      </trkpt>
      <trkpt lat="47.95995" lon="6.95129">
        <ele>735.19995117188</ele>
        <time>2022-10-31T12:48:42.000Z</time>
      </trkpt>
      <trkpt lat="47.95997" lon="6.95126">
        <ele>735.19995117188</ele>
        <time>2022-10-31T12:48:50.000Z</time>
      </trkpt>
      <trkpt lat="47.96004" lon="6.95124">
        <ele>735.19995117188</ele>
        <time>2022-10-31T12:48:56.000Z</time>
      </trkpt>
      <trkpt lat="47.9601" lon="6.95121">
        <ele>735.19995117188</ele>
        <time>2022-10-31T12:49:01.000Z</time>
      </trkpt>
      <trkpt lat="47.96014" lon="6.95118">
        <ele>732.40002441406</ele>
        <time>2022-10-31T12:49:08.000Z</time>
      </trkpt>
      <trkpt lat="47.96018" lon="6.95117">
        <ele>731.80004882812</ele>
        <time>2022-10-31T12:49:17.000Z</time>
      </trkpt>
      <trkpt lat="47.96021" lon="6.95113">
        <ele>731.40002441406</ele>
        <time>2022-10-31T12:49:23.000Z</time>
      </trkpt>
      <trkpt lat="47.96022" lon="6.9511">
        <ele>731.40002441406</ele>
        <time>2022-10-31T12:49:25.000Z</time>
      </trkpt>
      <trkpt lat="47.96023" lon="6.9511">
        <ele>731.40002441406</ele>
        <time>2022-10-31T12:49:26.000Z</time>
      </trkpt>
      <trkpt lat="47.96024" lon="6.95108">
        <ele>731.19995117188</ele>
        <time>2022-10-31T12:49:28.000Z</time>
      </trkpt>
      <trkpt lat="47.96025" lon="6.95107">
        <ele>731.19995117188</ele>
        <time>2022-10-31T12:49:29.000Z</time>
      </trkpt>
      <trkpt lat="47.96025" lon="6.95106">
        <ele>731</ele>
        <time>2022-10-31T12:49:30.000Z</time>
      </trkpt>
      <trkpt lat="47.96026" lon="6.95106">
        <ele>731</ele>
        <time>2022-10-31T12:49:31.000Z</time>
      </trkpt>
      <trkpt lat="47.96027" lon="6.95104">
        <ele>730.80004882812</ele>
        <time>2022-10-31T12:49:35.000Z</time>
      </trkpt>
      <trkpt lat="47.96031" lon="6.95103">
        <ele>730.59997558594</ele>
        <time>2022-10-31T12:49:40.000Z</time>
      </trkpt>
      <trkpt lat="47.96032" lon="6.95101">
        <ele>730.19995117188</ele>
        <time>2022-10-31T12:49:44.000Z</time>
      </trkpt>
      <trkpt lat="47.96033" lon="6.95101">
        <ele>730.19995117188</ele>
        <time>2022-10-31T12:49:45.000Z</time>
      </trkpt>
      <trkpt lat="47.96033" lon="6.951">
        <ele>730.40002441406</ele>
        <time>2022-10-31T12:49:48.000Z</time>
      </trkpt>
      <trkpt lat="47.96035" lon="6.951">
        <ele>730.19995117188</ele>
        <time>2022-10-31T12:49:53.000Z</time>
      </trkpt>
      <trkpt lat="47.96035" lon="6.95099">
        <ele>730</ele>
        <time>2022-10-31T12:49:54.000Z</time>
      </trkpt>
      <trkpt lat="47.96037" lon="6.95098">
        <ele>729.80004882812</ele>
        <time>2022-10-31T12:49:56.000Z</time>
      </trkpt>
      <trkpt lat="47.96039" lon="6.95096">
        <ele>729.59997558594</ele>
        <time>2022-10-31T12:49:59.000Z</time>
      </trkpt>
      <trkpt lat="47.9604" lon="6.95094">
        <ele>729.40002441406</ele>
        <time>2022-10-31T12:50:03.000Z</time>
      </trkpt>
      <trkpt lat="47.96041" lon="6.95093">
        <ele>729.19995117188</ele>
        <time>2022-10-31T12:50:04.000Z</time>
      </trkpt>
      <trkpt lat="47.96041" lon="6.95091">
        <ele>729</ele>
        <time>2022-10-31T12:50:06.000Z</time>
      </trkpt>
      <trkpt lat="47.96042" lon="6.95088">
        <ele>728.80004882812</ele>
        <time>2022-10-31T12:50:09.000Z</time>
      </trkpt>
      <trkpt lat="47.96042" lon="6.95087">
        <ele>728.80004882812</ele>
        <time>2022-10-31T12:50:10.000Z</time>
      </trkpt>
      <trkpt lat="47.96044" lon="6.95084">
        <ele>728.59997558594</ele>
        <time>2022-10-31T12:50:12.000Z</time>
      </trkpt>
      <trkpt lat="47.96044" lon="6.95083">
        <ele>728.59997558594</ele>
        <time>2022-10-31T12:50:13.000Z</time>
      </trkpt>
      <trkpt lat="47.96047" lon="6.9508">
        <ele>728.40002441406</ele>
        <time>2022-10-31T12:50:16.000Z</time>
      </trkpt>
      <trkpt lat="47.96047" lon="6.95079">
        <ele>728.40002441406</ele>
        <time>2022-10-31T12:50:17.000Z</time>
      </trkpt>
      <trkpt lat="47.96049" lon="6.95077">
        <ele>728.19995117188</ele>
        <time>2022-10-31T12:50:19.000Z</time>
      </trkpt>
      <trkpt lat="47.96049" lon="6.95076">
        <ele>728</ele>
        <time>2022-10-31T12:50:20.000Z</time>
      </trkpt>
      <trkpt lat="47.9605" lon="6.95074">
        <ele>728</ele>
        <time>2022-10-31T12:50:22.000Z</time>
      </trkpt>
      <trkpt lat="47.96056" lon="6.95072">
        <ele>727.59997558594</ele>
        <time>2022-10-31T12:50:26.000Z</time>
      </trkpt>
      <trkpt lat="47.96058" lon="6.95071">
        <ele>727.40002441406</ele>
        <time>2022-10-31T12:50:29.000Z</time>
      </trkpt>
      <trkpt lat="47.96059" lon="6.9507">
        <ele>727.40002441406</ele>
        <time>2022-10-31T12:50:30.000Z</time>
      </trkpt>
      <trkpt lat="47.96061" lon="6.95069">
        <ele>727.19995117188</ele>
        <time>2022-10-31T12:50:32.000Z</time>
      </trkpt>
      <trkpt lat="47.96062" lon="6.95069">
        <ele>727</ele>
        <time>2022-10-31T12:50:34.000Z</time>
      </trkpt>
      <trkpt lat="47.96061" lon="6.95069">
        <ele>726.59997558594</ele>
        <time>2022-10-31T12:50:38.000Z</time>
      </trkpt>
      <trkpt lat="47.96061" lon="6.95068">
        <ele>726.59997558594</ele>
        <time>2022-10-31T12:50:39.000Z</time>
      </trkpt>
      <trkpt lat="47.96065" lon="6.95066">
        <ele>726.19995117188</ele>
        <time>2022-10-31T12:50:44.000Z</time>
      </trkpt>
      <trkpt lat="47.96066" lon="6.95066">
        <ele>726</ele>
        <time>2022-10-31T12:50:45.000Z</time>
      </trkpt>
      <trkpt lat="47.96067" lon="6.95065">
        <ele>726</ele>
        <time>2022-10-31T12:50:51.000Z</time>
      </trkpt>
      <trkpt lat="47.96068" lon="6.95065">
        <ele>725.80004882812</ele>
        <time>2022-10-31T12:50:54.000Z</time>
      </trkpt>
      <trkpt lat="47.9607" lon="6.95067">
        <ele>725.80004882812</ele>
        <time>2022-10-31T12:50:57.000Z</time>
      </trkpt>
      <trkpt lat="47.96071" lon="6.95068">
        <ele>725.80004882812</ele>
        <time>2022-10-31T12:50:58.000Z</time>
      </trkpt>
      <trkpt lat="47.96071" lon="6.95069">
        <ele>725.80004882812</ele>
        <time>2022-10-31T12:50:59.000Z</time>
      </trkpt>
      <trkpt lat="47.96071" lon="6.9507">
        <ele>725.80004882812</ele>
        <time>2022-10-31T12:51:00.000Z</time>
      </trkpt>
      <trkpt lat="47.96072" lon="6.95075">
        <ele>726</ele>
        <time>2022-10-31T12:51:08.000Z</time>
      </trkpt>
      <trkpt lat="47.96072" lon="6.95075">
        <ele>726.19995117188</ele>
        <time>2022-10-31T12:51:10.000Z</time>
      </trkpt>
      <trkpt lat="47.96071" lon="6.95075">
        <ele>726.19995117188</ele>
        <time>2022-10-31T12:51:12.000Z</time>
      </trkpt>
      <trkpt lat="47.96069" lon="6.95077">
        <ele>726.19995117188</ele>
        <time>2022-10-31T12:51:15.000Z</time>
      </trkpt>
      <trkpt lat="47.96069" lon="6.95079">
        <ele>726</ele>
        <time>2022-10-31T12:51:17.000Z</time>
      </trkpt>
      <trkpt lat="47.96071" lon="6.9508">
        <ele>726.19995117188</ele>
        <time>2022-10-31T12:51:23.000Z</time>
      </trkpt>
      <trkpt lat="47.96072" lon="6.9508">
        <ele>726.19995117188</ele>
        <time>2022-10-31T12:51:39.000Z</time>
      </trkpt>
      <trkpt lat="47.96073" lon="6.9508">
        <ele>726.19995117188</ele>
        <time>2022-10-31T12:51:40.000Z</time>
      </trkpt>
      <trkpt lat="47.96077" lon="6.95079">
        <ele>726</ele>
        <time>2022-10-31T12:51:45.000Z</time>
      </trkpt>
      <trkpt lat="47.96079" lon="6.95078">
        <ele>726</ele>
        <time>2022-10-31T12:51:49.000Z</time>
      </trkpt>
      <trkpt lat="47.96081" lon="6.95078">
        <ele>725.59997558594</ele>
        <time>2022-10-31T12:51:54.000Z</time>
      </trkpt>
      <trkpt lat="47.96086" lon="6.95078">
        <ele>725.40002441406</ele>
        <time>2022-10-31T12:51:59.000Z</time>
      </trkpt>
      <trkpt lat="47.9609" lon="6.95077">
        <ele>725</ele>
        <time>2022-10-31T12:52:05.000Z</time>
      </trkpt>
      <trkpt lat="47.9609" lon="6.95078">
        <ele>725</ele>
        <time>2022-10-31T12:52:06.000Z</time>
      </trkpt>
      <trkpt lat="47.96097" lon="6.95072">
        <ele>724.59997558594</ele>
        <time>2022-10-31T12:52:12.000Z</time>
      </trkpt>
      <trkpt lat="47.96102" lon="6.95072">
        <ele>724</ele>
        <time>2022-10-31T12:52:20.000Z</time>
      </trkpt>
      <trkpt lat="47.96108" lon="6.95072">
        <ele>723.59997558594</ele>
        <time>2022-10-31T12:52:25.000Z</time>
      </trkpt>
      <trkpt lat="47.96109" lon="6.95071">
        <ele>723.59997558594</ele>
        <time>2022-10-31T12:52:26.000Z</time>
      </trkpt>
      <trkpt lat="47.96114" lon="6.95073">
        <ele>723.40002441406</ele>
        <time>2022-10-31T12:52:30.000Z</time>
      </trkpt>
      <trkpt lat="47.96115" lon="6.95073">
        <ele>723.19995117188</ele>
        <time>2022-10-31T12:52:31.000Z</time>
      </trkpt>
      <trkpt lat="47.96117" lon="6.95075">
        <ele>723</ele>
        <time>2022-10-31T12:52:33.000Z</time>
      </trkpt>
      <trkpt lat="47.96119" lon="6.95076">
        <ele>722.80004882812</ele>
        <time>2022-10-31T12:52:35.000Z</time>
      </trkpt>
      <trkpt lat="47.96119" lon="6.95077">
        <ele>722.80004882812</ele>
        <time>2022-10-31T12:52:36.000Z</time>
      </trkpt>
      <trkpt lat="47.9612" lon="6.95077">
        <ele>722.59997558594</ele>
        <time>2022-10-31T12:52:37.000Z</time>
      </trkpt>
      <trkpt lat="47.96125" lon="6.95081">
        <ele>722.19995117188</ele>
        <time>2022-10-31T12:52:41.000Z</time>
      </trkpt>
      <trkpt lat="47.96127" lon="6.95084">
        <ele>722.19995117188</ele>
        <time>2022-10-31T12:52:43.000Z</time>
      </trkpt>
      <trkpt lat="47.96132" lon="6.95084">
        <ele>722</ele>
        <time>2022-10-31T12:52:49.000Z</time>
      </trkpt>
      <trkpt lat="47.96132" lon="6.95084">
        <ele>721.80004882812</ele>
        <time>2022-10-31T12:52:50.000Z</time>
      </trkpt>
      <trkpt lat="47.96132" lon="6.95086">
        <ele>721.59997558594</ele>
        <time>2022-10-31T12:52:54.000Z</time>
      </trkpt>
      <trkpt lat="47.96133" lon="6.95086">
        <ele>721.40002441406</ele>
        <time>2022-10-31T12:52:56.000Z</time>
      </trkpt>
      <trkpt lat="47.96135" lon="6.95085">
        <ele>721</ele>
        <time>2022-10-31T12:53:01.000Z</time>
      </trkpt>
      <trkpt lat="47.96135" lon="6.95085">
        <ele>720.80004882812</ele>
        <time>2022-10-31T12:53:02.000Z</time>
      </trkpt>
      <trkpt lat="47.96137" lon="6.95084">
        <ele>720.59997558594</ele>
        <time>2022-10-31T12:53:07.000Z</time>
      </trkpt>
      <trkpt lat="47.9614" lon="6.95086">
        <ele>720.19995117188</ele>
        <time>2022-10-31T12:53:11.000Z</time>
      </trkpt>
      <trkpt lat="47.96141" lon="6.95088">
        <ele>720</ele>
        <time>2022-10-31T12:53:14.000Z</time>
      </trkpt>
      <trkpt lat="47.96144" lon="6.9509">
        <ele>719.80004882812</ele>
        <time>2022-10-31T12:53:17.000Z</time>
      </trkpt>
      <trkpt lat="47.96147" lon="6.95091">
        <ele>719.80004882812</ele>
        <time>2022-10-31T12:53:19.000Z</time>
      </trkpt>
      <trkpt lat="47.96151" lon="6.9509">
        <ele>719.40002441406</ele>
        <time>2022-10-31T12:53:23.000Z</time>
      </trkpt>
      <trkpt lat="47.96154" lon="6.95091">
        <ele>719.19995117188</ele>
        <time>2022-10-31T12:53:25.000Z</time>
      </trkpt>
      <trkpt lat="47.9616" lon="6.95092">
        <ele>718.80004882812</ele>
        <time>2022-10-31T12:53:29.000Z</time>
      </trkpt>
      <trkpt lat="47.96161" lon="6.95091">
        <ele>718.59997558594</ele>
        <time>2022-10-31T12:53:31.000Z</time>
      </trkpt>
      <trkpt lat="47.96162" lon="6.95091">
        <ele>718.59997558594</ele>
        <time>2022-10-31T12:53:32.000Z</time>
      </trkpt>
      <trkpt lat="47.96165" lon="6.95092">
        <ele>718.40002441406</ele>
        <time>2022-10-31T12:53:37.000Z</time>
      </trkpt>
      <trkpt lat="47.96166" lon="6.95094">
        <ele>718</ele>
        <time>2022-10-31T12:53:41.000Z</time>
      </trkpt>
      <trkpt lat="47.96169" lon="6.95096">
        <ele>717.80004882812</ele>
        <time>2022-10-31T12:53:46.000Z</time>
      </trkpt>
      <trkpt lat="47.9617" lon="6.95095">
        <ele>717.80004882812</ele>
        <time>2022-10-31T12:53:49.000Z</time>
      </trkpt>
      <trkpt lat="47.96171" lon="6.95095">
        <ele>717.80004882812</ele>
        <time>2022-10-31T12:53:50.000Z</time>
      </trkpt>
      <trkpt lat="47.96167" lon="6.95093">
        <ele>717.80004882812</ele>
        <time>2022-10-31T12:53:55.000Z</time>
      </trkpt>
      <trkpt lat="47.96168" lon="6.95094">
        <ele>717.80004882812</ele>
        <time>2022-10-31T12:53:57.000Z</time>
      </trkpt>
      <trkpt lat="47.96171" lon="6.95094">
        <ele>717.59997558594</ele>
        <time>2022-10-31T12:54:02.000Z</time>
      </trkpt>
      <trkpt lat="47.96172" lon="6.95095">
        <ele>717.40002441406</ele>
        <time>2022-10-31T12:54:07.000Z</time>
      </trkpt>
      <trkpt lat="47.96176" lon="6.95095">
        <ele>717</ele>
        <time>2022-10-31T12:54:12.000Z</time>
      </trkpt>
      <trkpt lat="47.96179" lon="6.95094">
        <ele>716.80004882812</ele>
        <time>2022-10-31T12:54:15.000Z</time>
      </trkpt>
      <trkpt lat="47.96181" lon="6.95094">
        <ele>716.40002441406</ele>
        <time>2022-10-31T12:54:18.000Z</time>
      </trkpt>
      <trkpt lat="47.96189" lon="6.95092">
        <ele>716</ele>
        <time>2022-10-31T12:54:24.000Z</time>
      </trkpt>
      <trkpt lat="47.9619" lon="6.95091">
        <ele>715.80004882812</ele>
        <time>2022-10-31T12:54:25.000Z</time>
      </trkpt>
      <trkpt lat="47.9619" lon="6.95091">
        <ele>715.80004882812</ele>
        <time>2022-10-31T12:54:27.000Z</time>
      </trkpt>
      <trkpt lat="47.96193" lon="6.95089">
        <ele>715.40002441406</ele>
        <time>2022-10-31T12:54:30.000Z</time>
      </trkpt>
      <trkpt lat="47.96197" lon="6.95087">
        <ele>715.19995117188</ele>
        <time>2022-10-31T12:54:34.000Z</time>
      </trkpt>
      <trkpt lat="47.96198" lon="6.95088">
        <ele>715</ele>
        <time>2022-10-31T12:54:35.000Z</time>
      </trkpt>
      <trkpt lat="47.96203" lon="6.95088">
        <ele>714.80004882812</ele>
        <time>2022-10-31T12:54:39.000Z</time>
      </trkpt>
      <trkpt lat="47.96204" lon="6.95087">
        <ele>714.80004882812</ele>
        <time>2022-10-31T12:54:40.000Z</time>
      </trkpt>
      <trkpt lat="47.96205" lon="6.95087">
        <ele>714.59997558594</ele>
        <time>2022-10-31T12:54:41.000Z</time>
      </trkpt>
      <trkpt lat="47.96213" lon="6.95088">
        <ele>714.19995117188</ele>
        <time>2022-10-31T12:54:48.000Z</time>
      </trkpt>
      <trkpt lat="47.96215" lon="6.95089">
        <ele>713.80004882812</ele>
        <time>2022-10-31T12:54:51.000Z</time>
      </trkpt>
      <trkpt lat="47.96218" lon="6.95091">
        <ele>713.59997558594</ele>
        <time>2022-10-31T12:54:54.000Z</time>
      </trkpt>
      <trkpt lat="47.96223" lon="6.95091">
        <ele>713.19995117188</ele>
        <time>2022-10-31T12:55:01.000Z</time>
      </trkpt>
      <trkpt lat="47.96227" lon="6.9509">
        <ele>712.80004882812</ele>
        <time>2022-10-31T12:55:06.000Z</time>
      </trkpt>
      <trkpt lat="47.96229" lon="6.9509">
        <ele>712.59997558594</ele>
        <time>2022-10-31T12:55:08.000Z</time>
      </trkpt>
      <trkpt lat="47.96231" lon="6.95091">
        <ele>712.59997558594</ele>
        <time>2022-10-31T12:55:10.000Z</time>
      </trkpt>
      <trkpt lat="47.96232" lon="6.9509">
        <ele>712.19995117188</ele>
        <time>2022-10-31T12:55:14.000Z</time>
      </trkpt>
      <trkpt lat="47.96238" lon="6.95091">
        <ele>711.80004882812</ele>
        <time>2022-10-31T12:55:21.000Z</time>
      </trkpt>
      <trkpt lat="47.96242" lon="6.95093">
        <ele>711.59997558594</ele>
        <time>2022-10-31T12:55:23.000Z</time>
      </trkpt>
      <trkpt lat="47.96247" lon="6.95095">
        <ele>711.19995117188</ele>
        <time>2022-10-31T12:55:26.000Z</time>
      </trkpt>
      <trkpt lat="47.96252" lon="6.951">
        <ele>711</ele>
        <time>2022-10-31T12:55:33.000Z</time>
      </trkpt>
      <trkpt lat="47.96254" lon="6.95102">
        <ele>710.59997558594</ele>
        <time>2022-10-31T12:55:37.000Z</time>
      </trkpt>
      <trkpt lat="47.96255" lon="6.95102">
        <ele>710.59997558594</ele>
        <time>2022-10-31T12:55:38.000Z</time>
      </trkpt>
      <trkpt lat="47.96258" lon="6.95104">
        <ele>710.19995117188</ele>
        <time>2022-10-31T12:55:41.000Z</time>
      </trkpt>
      <trkpt lat="47.96258" lon="6.95105">
        <ele>710.19995117188</ele>
        <time>2022-10-31T12:55:43.000Z</time>
      </trkpt>
      <trkpt lat="47.96259" lon="6.95106">
        <ele>709.80004882812</ele>
        <time>2022-10-31T12:55:48.000Z</time>
      </trkpt>
      <trkpt lat="47.96261" lon="6.95108">
        <ele>709.40002441406</ele>
        <time>2022-10-31T12:55:53.000Z</time>
      </trkpt>
      <trkpt lat="47.96262" lon="6.95111">
        <ele>709.19995117188</ele>
        <time>2022-10-31T12:55:57.000Z</time>
      </trkpt>
      <trkpt lat="47.96264" lon="6.95113">
        <ele>709</ele>
        <time>2022-10-31T12:55:59.000Z</time>
      </trkpt>
      <trkpt lat="47.96269" lon="6.95118">
        <ele>708.40002441406</ele>
        <time>2022-10-31T12:56:05.000Z</time>
      </trkpt>
      <trkpt lat="47.96269" lon="6.95119">
        <ele>708.40002441406</ele>
        <time>2022-10-31T12:56:06.000Z</time>
      </trkpt>
      <trkpt lat="47.96269" lon="6.95119">
        <ele>708.40002441406</ele>
        <time>2022-10-31T12:56:09.000Z</time>
      </trkpt>
      <trkpt lat="47.96273" lon="6.95122">
        <ele>707.59997558594</ele>
        <time>2022-10-31T12:56:16.000Z</time>
      </trkpt>
      <trkpt lat="47.96274" lon="6.95125">
        <ele>707.40002441406</ele>
        <time>2022-10-31T12:56:20.000Z</time>
      </trkpt>
      <trkpt lat="47.96276" lon="6.95127">
        <ele>707.19995117188</ele>
        <time>2022-10-31T12:56:22.000Z</time>
      </trkpt>
      <trkpt lat="47.96283" lon="6.95132">
        <ele>706.80004882812</ele>
        <time>2022-10-31T12:56:28.000Z</time>
      </trkpt>
      <trkpt lat="47.96288" lon="6.95135">
        <ele>706.59997558594</ele>
        <time>2022-10-31T12:56:33.000Z</time>
      </trkpt>
      <trkpt lat="47.96291" lon="6.95137">
        <ele>706.40002441406</ele>
        <time>2022-10-31T12:56:35.000Z</time>
      </trkpt>
      <trkpt lat="47.96295" lon="6.95137">
        <ele>706</ele>
        <time>2022-10-31T12:56:39.000Z</time>
      </trkpt>
      <trkpt lat="47.96299" lon="6.95141">
        <ele>705.40002441406</ele>
        <time>2022-10-31T12:56:45.000Z</time>
      </trkpt>
      <trkpt lat="47.963" lon="6.95143">
        <ele>705.40002441406</ele>
        <time>2022-10-31T12:56:47.000Z</time>
      </trkpt>
      <trkpt lat="47.96301" lon="6.95146">
        <ele>705</ele>
        <time>2022-10-31T12:56:50.000Z</time>
      </trkpt>
      <trkpt lat="47.96302" lon="6.9515">
        <ele>704.59997558594</ele>
        <time>2022-10-31T12:56:55.000Z</time>
      </trkpt>
      <trkpt lat="47.96306" lon="6.95156">
        <ele>704.19995117188</ele>
        <time>2022-10-31T12:56:59.000Z</time>
      </trkpt>
      <trkpt lat="47.96309" lon="6.95159">
        <ele>704</ele>
        <time>2022-10-31T12:57:04.000Z</time>
      </trkpt>
      <trkpt lat="47.96313" lon="6.95165">
        <ele>703.40002441406</ele>
        <time>2022-10-31T12:57:10.000Z</time>
      </trkpt>
      <trkpt lat="47.96316" lon="6.95168">
        <ele>703.19995117188</ele>
        <time>2022-10-31T12:57:14.000Z</time>
      </trkpt>
      <trkpt lat="47.96318" lon="6.95169">
        <ele>703</ele>
        <time>2022-10-31T12:57:16.000Z</time>
      </trkpt>
      <trkpt lat="47.96319" lon="6.95176">
        <ele>702.80004882812</ele>
        <time>2022-10-31T12:57:22.000Z</time>
      </trkpt>
      <trkpt lat="47.96319" lon="6.95186">
        <ele>702.19995117188</ele>
        <time>2022-10-31T12:57:29.000Z</time>
      </trkpt>
      <trkpt lat="47.96318" lon="6.95194">
        <ele>701.59997558594</ele>
        <time>2022-10-31T12:57:35.000Z</time>
      </trkpt>
      <trkpt lat="47.9632" lon="6.95202">
        <ele>701.19995117188</ele>
        <time>2022-10-31T12:57:43.000Z</time>
      </trkpt>
      <trkpt lat="47.96323" lon="6.95206">
        <ele>700.80004882812</ele>
        <time>2022-10-31T12:57:47.000Z</time>
      </trkpt>
      <trkpt lat="47.96324" lon="6.95209">
        <ele>700.40002441406</ele>
        <time>2022-10-31T12:57:50.000Z</time>
      </trkpt>
      <trkpt lat="47.96327" lon="6.95217">
        <ele>700</ele>
        <time>2022-10-31T12:57:56.000Z</time>
      </trkpt>
      <trkpt lat="47.96327" lon="6.95223">
        <ele>699.80004882812</ele>
        <time>2022-10-31T12:57:59.000Z</time>
      </trkpt>
      <trkpt lat="47.96328" lon="6.95226">
        <ele>699.59997558594</ele>
        <time>2022-10-31T12:58:01.000Z</time>
      </trkpt>
      <trkpt lat="47.96329" lon="6.9523">
        <ele>699.40002441406</ele>
        <time>2022-10-31T12:58:05.000Z</time>
      </trkpt>
      <trkpt lat="47.96331" lon="6.95233">
        <ele>699</ele>
        <time>2022-10-31T12:58:09.000Z</time>
      </trkpt>
      <trkpt lat="47.96332" lon="6.95234">
        <ele>699</ele>
        <time>2022-10-31T12:58:10.000Z</time>
      </trkpt>
      <trkpt lat="47.96334" lon="6.95236">
        <ele>698.80004882812</ele>
        <time>2022-10-31T12:58:12.000Z</time>
      </trkpt>
      <trkpt lat="47.96336" lon="6.95238">
        <ele>698.59997558594</ele>
        <time>2022-10-31T12:58:15.000Z</time>
      </trkpt>
      <trkpt lat="47.96337" lon="6.95239">
        <ele>698.19995117188</ele>
        <time>2022-10-31T12:58:20.000Z</time>
      </trkpt>
      <trkpt lat="47.96338" lon="6.9524">
        <ele>698.19995117188</ele>
        <time>2022-10-31T12:58:23.000Z</time>
      </trkpt>
      <trkpt lat="47.96339" lon="6.9524">
        <ele>698</ele>
        <time>2022-10-31T12:58:24.000Z</time>
      </trkpt>
      <trkpt lat="47.9634" lon="6.9524">
        <ele>698</ele>
        <time>2022-10-31T12:58:25.000Z</time>
      </trkpt>
      <trkpt lat="47.96344" lon="6.95243">
        <ele>697.40002441406</ele>
        <time>2022-10-31T12:58:32.000Z</time>
      </trkpt>
      <trkpt lat="47.96346" lon="6.95244">
        <ele>697.19995117188</ele>
        <time>2022-10-31T12:58:35.000Z</time>
      </trkpt>
      <trkpt lat="47.96348" lon="6.95244">
        <ele>696.80004882812</ele>
        <time>2022-10-31T12:58:40.000Z</time>
      </trkpt>
      <trkpt lat="47.96352" lon="6.95245">
        <ele>696.40002441406</ele>
        <time>2022-10-31T12:58:46.000Z</time>
      </trkpt>
      <trkpt lat="47.96357" lon="6.95248">
        <ele>696</ele>
        <time>2022-10-31T12:58:52.000Z</time>
      </trkpt>
      <trkpt lat="47.96357" lon="6.9525">
        <ele>695.80004882812</ele>
        <time>2022-10-31T12:58:55.000Z</time>
      </trkpt>
      <trkpt lat="47.96358" lon="6.95255">
        <ele>695.59997558594</ele>
        <time>2022-10-31T12:59:00.000Z</time>
      </trkpt>
      <trkpt lat="47.96358" lon="6.95262">
        <ele>695.40002441406</ele>
        <time>2022-10-31T12:59:07.000Z</time>
      </trkpt>
      <trkpt lat="47.96359" lon="6.95269">
        <ele>695</ele>
        <time>2022-10-31T12:59:12.000Z</time>
      </trkpt>
      <trkpt lat="47.9636" lon="6.95272">
        <ele>694.80004882812</ele>
        <time>2022-10-31T12:59:14.000Z</time>
      </trkpt>
      <trkpt lat="47.96359" lon="6.95278">
        <ele>694.59997558594</ele>
        <time>2022-10-31T12:59:19.000Z</time>
      </trkpt>
      <trkpt lat="47.96357" lon="6.95289">
        <ele>694.19995117188</ele>
        <time>2022-10-31T12:59:25.000Z</time>
      </trkpt>
      <trkpt lat="47.96354" lon="6.95299">
        <ele>694</ele>
        <time>2022-10-31T12:59:31.000Z</time>
      </trkpt>
      <trkpt lat="47.96354" lon="6.95303">
        <ele>693.80004882812</ele>
        <time>2022-10-31T12:59:35.000Z</time>
      </trkpt>
      <trkpt lat="47.96353" lon="6.95304">
        <ele>693.80004882812</ele>
        <time>2022-10-31T12:59:36.000Z</time>
      </trkpt>
      <trkpt lat="47.96352" lon="6.95303">
        <ele>693.40002441406</ele>
        <time>2022-10-31T12:59:41.000Z</time>
      </trkpt>
      <trkpt lat="47.96349" lon="6.95306">
        <ele>693.40002441406</ele>
        <time>2022-10-31T12:59:47.000Z</time>
      </trkpt>
      <trkpt lat="47.96346" lon="6.95302">
        <ele>693.19995117188</ele>
        <time>2022-10-31T12:59:51.000Z</time>
      </trkpt>
      <trkpt lat="47.96346" lon="6.95301">
        <ele>693.19995117188</ele>
        <time>2022-10-31T12:59:52.000Z</time>
      </trkpt>
      <trkpt lat="47.96342" lon="6.95301">
        <ele>692.59997558594</ele>
        <time>2022-10-31T12:59:55.000Z</time>
      </trkpt>
      <trkpt lat="47.96338" lon="6.95302">
        <ele>692.59997558594</ele>
        <time>2022-10-31T12:59:57.000Z</time>
      </trkpt>
      <trkpt lat="47.96336" lon="6.95301">
        <ele>692.40002441406</ele>
        <time>2022-10-31T12:59:59.000Z</time>
      </trkpt>
      <trkpt lat="47.96333" lon="6.95294">
        <ele>692.19995117188</ele>
        <time>2022-10-31T13:00:03.000Z</time>
      </trkpt>
      <trkpt lat="47.96334" lon="6.95292">
        <ele>692</ele>
        <time>2022-10-31T13:00:06.000Z</time>
      </trkpt>
      <trkpt lat="47.96337" lon="6.9529">
        <ele>692.19995117188</ele>
        <time>2022-10-31T13:00:11.000Z</time>
      </trkpt>
      <trkpt lat="47.96339" lon="6.9529">
        <ele>692.19995117188</ele>
        <time>2022-10-31T13:00:13.000Z</time>
      </trkpt>
      <trkpt lat="47.96342" lon="6.95292">
        <ele>692.59997558594</ele>
        <time>2022-10-31T13:00:18.000Z</time>
      </trkpt>
      <trkpt lat="47.96344" lon="6.95294">
        <ele>692.80004882812</ele>
        <time>2022-10-31T13:00:21.000Z</time>
      </trkpt>
      <trkpt lat="47.96346" lon="6.95296">
        <ele>693</ele>
        <time>2022-10-31T13:00:25.000Z</time>
      </trkpt>
      <trkpt lat="47.96349" lon="6.95302">
        <ele>693.59997558594</ele>
        <time>2022-10-31T13:00:32.000Z</time>
      </trkpt>
      <trkpt lat="47.9635" lon="6.95302">
        <ele>693.59997558594</ele>
        <time>2022-10-31T13:00:35.000Z</time>
      </trkpt>
      <trkpt lat="47.9635" lon="6.95301">
        <ele>693.59997558594</ele>
        <time>2022-10-31T13:00:40.000Z</time>
      </trkpt>
      <trkpt lat="47.96353" lon="6.95305">
        <ele>693.80004882812</ele>
        <time>2022-10-31T13:00:49.000Z</time>
      </trkpt>
      <trkpt lat="47.96355" lon="6.95307">
        <ele>694.19995117188</ele>
        <time>2022-10-31T13:00:55.000Z</time>
      </trkpt>
      <trkpt lat="47.96357" lon="6.95307">
        <ele>694.40002441406</ele>
        <time>2022-10-31T13:00:57.000Z</time>
      </trkpt>
      <trkpt lat="47.9636" lon="6.95307">
        <ele>694.80004882812</ele>
        <time>2022-10-31T13:01:00.000Z</time>
      </trkpt>
      <trkpt lat="47.9636" lon="6.95307">
        <ele>694.80004882812</ele>
        <time>2022-10-31T13:01:01.000Z</time>
      </trkpt>
      <trkpt lat="47.96363" lon="6.95309">
        <ele>695.19995117188</ele>
        <time>2022-10-31T13:01:07.000Z</time>
      </trkpt>
      <trkpt lat="47.9637" lon="6.9531">
        <ele>695.59997558594</ele>
        <time>2022-10-31T13:01:14.000Z</time>
      </trkpt>
      <trkpt lat="47.96371" lon="6.95311">
        <ele>695.80004882812</ele>
        <time>2022-10-31T13:01:15.000Z</time>
      </trkpt>
      <trkpt lat="47.96371" lon="6.95311">
        <ele>696</ele>
        <time>2022-10-31T13:01:17.000Z</time>
      </trkpt>
      <trkpt lat="47.96373" lon="6.95311">
        <ele>696.19995117188</ele>
        <time>2022-10-31T13:01:20.000Z</time>
      </trkpt>
      <trkpt lat="47.96376" lon="6.95313">
        <ele>696.40002441406</ele>
        <time>2022-10-31T13:01:23.000Z</time>
      </trkpt>
      <trkpt lat="47.96378" lon="6.95312">
        <ele>696.80004882812</ele>
        <time>2022-10-31T13:01:27.000Z</time>
      </trkpt>
      <trkpt lat="47.9638" lon="6.95311">
        <ele>697.19995117188</ele>
        <time>2022-10-31T13:01:30.000Z</time>
      </trkpt>
      <trkpt lat="47.96385" lon="6.9531">
        <ele>697.80004882812</ele>
        <time>2022-10-31T13:01:36.000Z</time>
      </trkpt>
      <trkpt lat="47.96386" lon="6.95309">
        <ele>697.80004882812</ele>
        <time>2022-10-31T13:01:37.000Z</time>
      </trkpt>
      <trkpt lat="47.96389" lon="6.95309">
        <ele>698.19995117188</ele>
        <time>2022-10-31T13:01:41.000Z</time>
      </trkpt>
      <trkpt lat="47.9639" lon="6.95308">
        <ele>699</ele>
        <time>2022-10-31T13:01:46.000Z</time>
      </trkpt>
      <trkpt lat="47.96392" lon="6.95309">
        <ele>699.40002441406</ele>
        <time>2022-10-31T13:01:51.000Z</time>
      </trkpt>
      <trkpt lat="47.96395" lon="6.95311">
        <ele>700</ele>
        <time>2022-10-31T13:01:56.000Z</time>
      </trkpt>
      <trkpt lat="47.96396" lon="6.95311">
        <ele>700</ele>
        <time>2022-10-31T13:01:57.000Z</time>
      </trkpt>
      <trkpt lat="47.96396" lon="6.95312">
        <ele>700.19995117188</ele>
        <time>2022-10-31T13:01:58.000Z</time>
      </trkpt>
      <trkpt lat="47.96397" lon="6.95314">
        <ele>700.59997558594</ele>
        <time>2022-10-31T13:02:02.000Z</time>
      </trkpt>
      <trkpt lat="47.96399" lon="6.95313">
        <ele>700.80004882812</ele>
        <time>2022-10-31T13:02:06.000Z</time>
      </trkpt>
      <trkpt lat="47.964" lon="6.95311">
        <ele>701.19995117188</ele>
        <time>2022-10-31T13:02:08.000Z</time>
      </trkpt>
      <trkpt lat="47.96402" lon="6.9531">
        <ele>701.40002441406</ele>
        <time>2022-10-31T13:02:12.000Z</time>
      </trkpt>
      <trkpt lat="47.96409" lon="6.95311">
        <ele>702</ele>
        <time>2022-10-31T13:02:17.000Z</time>
      </trkpt>
      <trkpt lat="47.9641" lon="6.95312">
        <ele>702.19995117188</ele>
        <time>2022-10-31T13:02:19.000Z</time>
      </trkpt>
      <trkpt lat="47.96415" lon="6.95311">
        <ele>702.80004882812</ele>
        <time>2022-10-31T13:02:24.000Z</time>
      </trkpt>
      <trkpt lat="47.96417" lon="6.95312">
        <ele>703.19995117188</ele>
        <time>2022-10-31T13:02:28.000Z</time>
      </trkpt>
      <trkpt lat="47.96417" lon="6.95313">
        <ele>703.19995117188</ele>
        <time>2022-10-31T13:02:29.000Z</time>
      </trkpt>
      <trkpt lat="47.96418" lon="6.95313">
        <ele>703.40002441406</ele>
        <time>2022-10-31T13:02:31.000Z</time>
      </trkpt>
      <trkpt lat="47.9642" lon="6.95316">
        <ele>704</ele>
        <time>2022-10-31T13:02:37.000Z</time>
      </trkpt>
      <trkpt lat="47.96421" lon="6.95315">
        <ele>704.40002441406</ele>
        <time>2022-10-31T13:02:41.000Z</time>
      </trkpt>
      <trkpt lat="47.96423" lon="6.95315">
        <ele>704.59997558594</ele>
        <time>2022-10-31T13:02:44.000Z</time>
      </trkpt>
      <trkpt lat="47.96423" lon="6.95315">
        <ele>705</ele>
        <time>2022-10-31T13:02:50.000Z</time>
      </trkpt>
      <trkpt lat="47.96426" lon="6.95313">
        <ele>705.40002441406</ele>
        <time>2022-10-31T13:02:54.000Z</time>
      </trkpt>
      <trkpt lat="47.96428" lon="6.95311">
        <ele>705.80004882812</ele>
        <time>2022-10-31T13:02:58.000Z</time>
      </trkpt>
      <trkpt lat="47.96431" lon="6.95307">
        <ele>706.19995117188</ele>
        <time>2022-10-31T13:03:04.000Z</time>
      </trkpt>
      <trkpt lat="47.96433" lon="6.95306">
        <ele>706.40002441406</ele>
        <time>2022-10-31T13:03:06.000Z</time>
      </trkpt>
      <trkpt lat="47.96435" lon="6.95305">
        <ele>706.80004882812</ele>
        <time>2022-10-31T13:03:09.000Z</time>
      </trkpt>
      <trkpt lat="47.9644" lon="6.95302">
        <ele>707.40002441406</ele>
        <time>2022-10-31T13:03:15.000Z</time>
      </trkpt>
      <trkpt lat="47.9644" lon="6.95301">
        <ele>707.59997558594</ele>
        <time>2022-10-31T13:03:16.000Z</time>
      </trkpt>
      <trkpt lat="47.96446" lon="6.95299">
        <ele>708.19995117188</ele>
        <time>2022-10-31T13:03:21.000Z</time>
      </trkpt>
      <trkpt lat="47.96449" lon="6.95297">
        <ele>708.80004882812</ele>
        <time>2022-10-31T13:03:25.000Z</time>
      </trkpt>
      <trkpt lat="47.96451" lon="6.95297">
        <ele>709</ele>
        <time>2022-10-31T13:03:27.000Z</time>
      </trkpt>
      <trkpt lat="47.96453" lon="6.95299">
        <ele>709.40002441406</ele>
        <time>2022-10-31T13:03:33.000Z</time>
      </trkpt>
      <trkpt lat="47.96455" lon="6.95295">
        <ele>709.59997558594</ele>
        <time>2022-10-31T13:03:39.000Z</time>
      </trkpt>
      <trkpt lat="47.96456" lon="6.95295">
        <ele>709.80004882812</ele>
        <time>2022-10-31T13:03:41.000Z</time>
      </trkpt>
      <trkpt lat="47.96458" lon="6.95294">
        <ele>710.40002441406</ele>
        <time>2022-10-31T13:03:45.000Z</time>
      </trkpt>
      <trkpt lat="47.9646" lon="6.95294">
        <ele>710.59997558594</ele>
        <time>2022-10-31T13:03:49.000Z</time>
      </trkpt>
      <trkpt lat="47.96461" lon="6.95293">
        <ele>710.80004882812</ele>
        <time>2022-10-31T13:03:52.000Z</time>
      </trkpt>
      <trkpt lat="47.96462" lon="6.95292">
        <ele>711</ele>
        <time>2022-10-31T13:03:54.000Z</time>
      </trkpt>
      <trkpt lat="47.96464" lon="6.95291">
        <ele>711.59997558594</ele>
        <time>2022-10-31T13:03:58.000Z</time>
      </trkpt>
      <trkpt lat="47.96466" lon="6.95289">
        <ele>712</ele>
        <time>2022-10-31T13:04:02.000Z</time>
      </trkpt>
      <trkpt lat="47.96467" lon="6.95289">
        <ele>712.40002441406</ele>
        <time>2022-10-31T13:04:04.000Z</time>
      </trkpt>
      <trkpt lat="47.96471" lon="6.9529">
        <ele>712.80004882812</ele>
        <time>2022-10-31T13:04:09.000Z</time>
      </trkpt>
      <trkpt lat="47.96472" lon="6.95289">
        <ele>713</ele>
        <time>2022-10-31T13:04:10.000Z</time>
      </trkpt>
      <trkpt lat="47.96473" lon="6.95289">
        <ele>713</ele>
        <time>2022-10-31T13:04:11.000Z</time>
      </trkpt>
      <trkpt lat="47.96474" lon="6.95289">
        <ele>713.40002441406</ele>
        <time>2022-10-31T13:04:14.000Z</time>
      </trkpt>
      <trkpt lat="47.96477" lon="6.9529">
        <ele>713.59997558594</ele>
        <time>2022-10-31T13:04:18.000Z</time>
      </trkpt>
      <trkpt lat="47.96478" lon="6.9529">
        <ele>714</ele>
        <time>2022-10-31T13:04:20.000Z</time>
      </trkpt>
      <trkpt lat="47.96479" lon="6.9529">
        <ele>714</ele>
        <time>2022-10-31T13:04:23.000Z</time>
      </trkpt>
      <trkpt lat="47.9648" lon="6.95289">
        <ele>714.19995117188</ele>
        <time>2022-10-31T13:04:25.000Z</time>
      </trkpt>
      <trkpt lat="47.96481" lon="6.9529">
        <ele>714.19995117188</ele>
        <time>2022-10-31T13:04:26.000Z</time>
      </trkpt>
      <trkpt lat="47.96484" lon="6.95291">
        <ele>714.40002441406</ele>
        <time>2022-10-31T13:04:29.000Z</time>
      </trkpt>
      <trkpt lat="47.96486" lon="6.95291">
        <ele>715</ele>
        <time>2022-10-31T13:04:34.000Z</time>
      </trkpt>
      <trkpt lat="47.96487" lon="6.95291">
        <ele>715.19995117188</ele>
        <time>2022-10-31T13:04:35.000Z</time>
      </trkpt>
      <trkpt lat="47.96489" lon="6.95286">
        <ele>715.80004882812</ele>
        <time>2022-10-31T13:04:40.000Z</time>
      </trkpt>
      <trkpt lat="47.9649" lon="6.95286">
        <ele>716.19995117188</ele>
        <time>2022-10-31T13:04:45.000Z</time>
      </trkpt>
      <trkpt lat="47.96497" lon="6.95287">
        <ele>717</ele>
        <time>2022-10-31T13:04:53.000Z</time>
      </trkpt>
      <trkpt lat="47.96499" lon="6.95286">
        <ele>717.19995117188</ele>
        <time>2022-10-31T13:04:55.000Z</time>
      </trkpt>
      <trkpt lat="47.96502" lon="6.95282">
        <ele>717.59997558594</ele>
        <time>2022-10-31T13:05:00.000Z</time>
      </trkpt>
      <trkpt lat="47.96506" lon="6.95279">
        <ele>718</ele>
        <time>2022-10-31T13:05:04.000Z</time>
      </trkpt>
      <trkpt lat="47.96506" lon="6.95278">
        <ele>718</ele>
        <time>2022-10-31T13:05:07.000Z</time>
      </trkpt>
      <trkpt lat="47.96509" lon="6.95279">
        <ele>718</ele>
        <time>2022-10-31T13:05:14.000Z</time>
      </trkpt>
      <trkpt lat="47.96511" lon="6.95277">
        <ele>718</ele>
        <time>2022-10-31T13:05:18.000Z</time>
      </trkpt>
      <trkpt lat="47.96512" lon="6.95275">
        <ele>718.19995117188</ele>
        <time>2022-10-31T13:05:21.000Z</time>
      </trkpt>
      <trkpt lat="47.96513" lon="6.95274">
        <ele>718.19995117188</ele>
        <time>2022-10-31T13:05:22.000Z</time>
      </trkpt>
      <trkpt lat="47.96515" lon="6.95272">
        <ele>718.80004882812</ele>
        <time>2022-10-31T13:05:27.000Z</time>
      </trkpt>
      <trkpt lat="47.96518" lon="6.95266">
        <ele>719.40002441406</ele>
        <time>2022-10-31T13:05:32.000Z</time>
      </trkpt>
      <trkpt lat="47.96518" lon="6.95263">
        <ele>719.80004882812</ele>
        <time>2022-10-31T13:05:37.000Z</time>
      </trkpt>
      <trkpt lat="47.96519" lon="6.95262">
        <ele>719.80004882812</ele>
        <time>2022-10-31T13:05:38.000Z</time>
      </trkpt>
      <trkpt lat="47.96522" lon="6.95259">
        <ele>720.40002441406</ele>
        <time>2022-10-31T13:05:41.000Z</time>
      </trkpt>
      <trkpt lat="47.96523" lon="6.95259">
        <ele>720.80004882812</ele>
        <time>2022-10-31T13:05:44.000Z</time>
      </trkpt>
      <trkpt lat="47.96528" lon="6.95255">
        <ele>721.40002441406</ele>
        <time>2022-10-31T13:05:50.000Z</time>
      </trkpt>
      <trkpt lat="47.96529" lon="6.95253">
        <ele>722</ele>
        <time>2022-10-31T13:05:53.000Z</time>
      </trkpt>
      <trkpt lat="47.96531" lon="6.95251">
        <ele>722.19995117188</ele>
        <time>2022-10-31T13:05:56.000Z</time>
      </trkpt>
      <trkpt lat="47.96533" lon="6.95247">
        <ele>722.59997558594</ele>
        <time>2022-10-31T13:06:00.000Z</time>
      </trkpt>
      <trkpt lat="47.96534" lon="6.95246">
        <ele>722.59997558594</ele>
        <time>2022-10-31T13:06:01.000Z</time>
      </trkpt>
      <trkpt lat="47.96535" lon="6.95246">
        <ele>723</ele>
        <time>2022-10-31T13:06:07.000Z</time>
      </trkpt>
      <trkpt lat="47.96533" lon="6.95248">
        <ele>723.19995117188</ele>
        <time>2022-10-31T13:06:12.000Z</time>
      </trkpt>
      <trkpt lat="47.96535" lon="6.95255">
        <ele>723.19995117188</ele>
        <time>2022-10-31T13:06:17.000Z</time>
      </trkpt>
      <trkpt lat="47.96535" lon="6.95255">
        <ele>723.19995117188</ele>
        <time>2022-10-31T13:06:19.000Z</time>
      </trkpt>
      <trkpt lat="47.96536" lon="6.95255">
        <ele>723</ele>
        <time>2022-10-31T13:06:22.000Z</time>
      </trkpt>
      <trkpt lat="47.96538" lon="6.95254">
        <ele>723</ele>
        <time>2022-10-31T13:06:28.000Z</time>
      </trkpt>
      <trkpt lat="47.96536" lon="6.95247">
        <ele>723.19995117188</ele>
        <time>2022-10-31T13:06:34.000Z</time>
      </trkpt>
      <trkpt lat="47.96536" lon="6.95247">
        <ele>723</ele>
        <time>2022-10-31T13:06:41.000Z</time>
      </trkpt>
      <trkpt lat="47.96536" lon="6.95248">
        <ele>723</ele>
        <time>2022-10-31T13:06:46.000Z</time>
      </trkpt>
      <trkpt lat="47.96535" lon="6.95261">
        <ele>723.19995117188</ele>
        <time>2022-10-31T13:06:54.000Z</time>
      </trkpt>
      <trkpt lat="47.96533" lon="6.95263">
        <ele>723.19995117188</ele>
        <time>2022-10-31T13:06:56.000Z</time>
      </trkpt>
      <trkpt lat="47.96533" lon="6.95264">
        <ele>723.19995117188</ele>
        <time>2022-10-31T13:07:00.000Z</time>
      </trkpt>
      <trkpt lat="47.96533" lon="6.95264">
        <ele>723.19995117188</ele>
        <time>2022-10-31T13:07:01.000Z</time>
      </trkpt>
      <trkpt lat="47.96532" lon="6.95259">
        <ele>723.19995117188</ele>
        <time>2022-10-31T13:07:07.000Z</time>
      </trkpt>
      <trkpt lat="47.96533" lon="6.95256">
        <ele>723.19995117188</ele>
        <time>2022-10-31T13:07:13.000Z</time>
      </trkpt>
      <trkpt lat="47.96533" lon="6.95255">
        <ele>723.19995117188</ele>
        <time>2022-10-31T13:07:14.000Z</time>
      </trkpt>
      <trkpt lat="47.96533" lon="6.95255">
        <ele>723.19995117188</ele>
        <time>2022-10-31T13:07:15.000Z</time>
      </trkpt>
      <trkpt lat="47.96532" lon="6.95254">
        <ele>723</ele>
        <time>2022-10-31T13:07:20.000Z</time>
      </trkpt>
      <trkpt lat="47.96535" lon="6.9525">
        <ele>723</ele>
        <time>2022-10-31T13:07:24.000Z</time>
      </trkpt>
      <trkpt lat="47.96537" lon="6.95248">
        <ele>723.19995117188</ele>
        <time>2022-10-31T13:07:29.000Z</time>
      </trkpt>
      <trkpt lat="47.96539" lon="6.95246">
        <ele>723.59997558594</ele>
        <time>2022-10-31T13:07:32.000Z</time>
      </trkpt>
      <trkpt lat="47.96541" lon="6.95247">
        <ele>724</ele>
        <time>2022-10-31T13:07:35.000Z</time>
      </trkpt>
      <trkpt lat="47.96549" lon="6.95252">
        <ele>724.80004882812</ele>
        <time>2022-10-31T13:07:43.000Z</time>
      </trkpt>
      <trkpt lat="47.96556" lon="6.95256">
        <ele>725.40002441406</ele>
        <time>2022-10-31T13:07:49.000Z</time>
      </trkpt>
      <trkpt lat="47.96557" lon="6.95257">
        <ele>725.59997558594</ele>
        <time>2022-10-31T13:07:50.000Z</time>
      </trkpt>
      <trkpt lat="47.9656" lon="6.9526">
        <ele>725.80004882812</ele>
        <time>2022-10-31T13:07:53.000Z</time>
      </trkpt>
      <trkpt lat="47.96561" lon="6.9526">
        <ele>726</ele>
        <time>2022-10-31T13:07:54.000Z</time>
      </trkpt>
      <trkpt lat="47.96563" lon="6.95262">
        <ele>726</ele>
        <time>2022-10-31T13:07:56.000Z</time>
      </trkpt>
      <trkpt lat="47.96565" lon="6.95266">
        <ele>726.40002441406</ele>
        <time>2022-10-31T13:08:00.000Z</time>
      </trkpt>
      <trkpt lat="47.96567" lon="6.9527">
        <ele>726.80004882812</ele>
        <time>2022-10-31T13:08:03.000Z</time>
      </trkpt>
      <trkpt lat="47.96568" lon="6.9527">
        <ele>726.80004882812</ele>
        <time>2022-10-31T13:08:04.000Z</time>
      </trkpt>
      <trkpt lat="47.9657" lon="6.95271">
        <ele>727</ele>
        <time>2022-10-31T13:08:06.000Z</time>
      </trkpt>
      <trkpt lat="47.96571" lon="6.95271">
        <ele>727</ele>
        <time>2022-10-31T13:08:07.000Z</time>
      </trkpt>
      <trkpt lat="47.96573" lon="6.95273">
        <ele>727</ele>
        <time>2022-10-31T13:08:10.000Z</time>
      </trkpt>
      <trkpt lat="47.96575" lon="6.95273">
        <ele>727.59997558594</ele>
        <time>2022-10-31T13:08:16.000Z</time>
      </trkpt>
      <trkpt lat="47.96575" lon="6.95274">
        <ele>727.80004882812</ele>
        <time>2022-10-31T13:08:19.000Z</time>
      </trkpt>
      <trkpt lat="47.96575" lon="6.95274">
        <ele>728</ele>
        <time>2022-10-31T13:08:20.000Z</time>
      </trkpt>
      <trkpt lat="47.96575" lon="6.95274">
        <ele>728</ele>
        <time>2022-10-31T13:08:21.000Z</time>
      </trkpt>
      <trkpt lat="47.9658" lon="6.95274">
        <ele>728.19995117188</ele>
        <time>2022-10-31T13:08:28.000Z</time>
      </trkpt>
      <trkpt lat="47.96584" lon="6.95276">
        <ele>728.40002441406</ele>
        <time>2022-10-31T13:08:34.000Z</time>
      </trkpt>
      <trkpt lat="47.9659" lon="6.95277">
        <ele>728.59997558594</ele>
        <time>2022-10-31T13:08:40.000Z</time>
      </trkpt>
      <trkpt lat="47.96592" lon="6.95277">
        <ele>728.80004882812</ele>
        <time>2022-10-31T13:08:45.000Z</time>
      </trkpt>
      <trkpt lat="47.96594" lon="6.9528">
        <ele>729</ele>
        <time>2022-10-31T13:08:48.000Z</time>
      </trkpt>
      <trkpt lat="47.96596" lon="6.95283">
        <ele>729.19995117188</ele>
        <time>2022-10-31T13:08:51.000Z</time>
      </trkpt>
      <trkpt lat="47.96597" lon="6.95283">
        <ele>729.19995117188</ele>
        <time>2022-10-31T13:08:52.000Z</time>
      </trkpt>
      <trkpt lat="47.96601" lon="6.95282">
        <ele>729.40002441406</ele>
        <time>2022-10-31T13:08:56.000Z</time>
      </trkpt>
      <trkpt lat="47.96603" lon="6.95282">
        <ele>729.40002441406</ele>
        <time>2022-10-31T13:08:58.000Z</time>
      </trkpt>
      <trkpt lat="47.96605" lon="6.95282">
        <ele>729.59997558594</ele>
        <time>2022-10-31T13:09:00.000Z</time>
      </trkpt>
      <trkpt lat="47.96608" lon="6.95285">
        <ele>729.80004882812</ele>
        <time>2022-10-31T13:09:04.000Z</time>
      </trkpt>
      <trkpt lat="47.96609" lon="6.95286">
        <ele>730</ele>
        <time>2022-10-31T13:09:06.000Z</time>
      </trkpt>
      <trkpt lat="47.96615" lon="6.95291">
        <ele>730.19995117188</ele>
        <time>2022-10-31T13:09:13.000Z</time>
      </trkpt>
      <trkpt lat="47.96618" lon="6.95292">
        <ele>730.80004882812</ele>
        <time>2022-10-31T13:09:19.000Z</time>
      </trkpt>
      <trkpt lat="47.96619" lon="6.95292">
        <ele>730.80004882812</ele>
        <time>2022-10-31T13:09:20.000Z</time>
      </trkpt>
      <trkpt lat="47.96622" lon="6.95294">
        <ele>731</ele>
        <time>2022-10-31T13:09:23.000Z</time>
      </trkpt>
      <trkpt lat="47.96623" lon="6.95294">
        <ele>731.19995117188</ele>
        <time>2022-10-31T13:09:25.000Z</time>
      </trkpt>
      <trkpt lat="47.96627" lon="6.95299">
        <ele>731.40002441406</ele>
        <time>2022-10-31T13:09:29.000Z</time>
      </trkpt>
      <trkpt lat="47.96629" lon="6.953">
        <ele>731.40002441406</ele>
        <time>2022-10-31T13:09:31.000Z</time>
      </trkpt>
      <trkpt lat="47.96633" lon="6.953">
        <ele>731.59997558594</ele>
        <time>2022-10-31T13:09:34.000Z</time>
      </trkpt>
      <trkpt lat="47.96633" lon="6.95301">
        <ele>731.80004882812</ele>
        <time>2022-10-31T13:09:36.000Z</time>
      </trkpt>
      <trkpt lat="47.96634" lon="6.95302">
        <ele>731.80004882812</ele>
        <time>2022-10-31T13:09:37.000Z</time>
      </trkpt>
      <trkpt lat="47.96639" lon="6.95301">
        <ele>732.19995117188</ele>
        <time>2022-10-31T13:09:43.000Z</time>
      </trkpt>
      <trkpt lat="47.9664" lon="6.95301">
        <ele>732.19995117188</ele>
        <time>2022-10-31T13:09:44.000Z</time>
      </trkpt>
      <trkpt lat="47.96643" lon="6.95301">
        <ele>732.19995117188</ele>
        <time>2022-10-31T13:09:47.000Z</time>
      </trkpt>
      <trkpt lat="47.96647" lon="6.95301">
        <ele>732.19995117188</ele>
        <time>2022-10-31T13:09:50.000Z</time>
      </trkpt>
      <trkpt lat="47.96654" lon="6.95293">
        <ele>732.40002441406</ele>
        <time>2022-10-31T13:09:56.000Z</time>
      </trkpt>
      <trkpt lat="47.96659" lon="6.95293">
        <ele>732.59997558594</ele>
        <time>2022-10-31T13:10:02.000Z</time>
      </trkpt>
      <trkpt lat="47.96661" lon="6.95295">
        <ele>732.59997558594</ele>
        <time>2022-10-31T13:10:05.000Z</time>
      </trkpt>
      <trkpt lat="47.96662" lon="6.95294">
        <ele>732.59997558594</ele>
        <time>2022-10-31T13:10:07.000Z</time>
      </trkpt>
      <trkpt lat="47.9667" lon="6.95289">
        <ele>733.19995117188</ele>
        <time>2022-10-31T13:10:13.000Z</time>
      </trkpt>
      <trkpt lat="47.96675" lon="6.9529">
        <ele>733.40002441406</ele>
        <time>2022-10-31T13:10:18.000Z</time>
      </trkpt>
      <trkpt lat="47.96681" lon="6.95286">
        <ele>733.80004882812</ele>
        <time>2022-10-31T13:10:25.000Z</time>
      </trkpt>
      <trkpt lat="47.96685" lon="6.95286">
        <ele>734</ele>
        <time>2022-10-31T13:10:32.000Z</time>
      </trkpt>
      <trkpt lat="47.96688" lon="6.95285">
        <ele>734.19995117188</ele>
        <time>2022-10-31T13:10:34.000Z</time>
      </trkpt>
      <trkpt lat="47.96689" lon="6.95285">
        <ele>734.19995117188</ele>
        <time>2022-10-31T13:10:35.000Z</time>
      </trkpt>
      <trkpt lat="47.9669" lon="6.95284">
        <ele>734.19995117188</ele>
        <time>2022-10-31T13:10:36.000Z</time>
      </trkpt>
      <trkpt lat="47.96692" lon="6.95282">
        <ele>734.40002441406</ele>
        <time>2022-10-31T13:10:40.000Z</time>
      </trkpt>
      <trkpt lat="47.96694" lon="6.95282">
        <ele>734.59997558594</ele>
        <time>2022-10-31T13:10:42.000Z</time>
      </trkpt>
      <trkpt lat="47.967" lon="6.95283">
        <ele>735</ele>
        <time>2022-10-31T13:10:48.000Z</time>
      </trkpt>
      <trkpt lat="47.96707" lon="6.95285">
        <ele>735.19995117188</ele>
        <time>2022-10-31T13:10:54.000Z</time>
      </trkpt>
      <trkpt lat="47.96711" lon="6.95286">
        <ele>735.59997558594</ele>
        <time>2022-10-31T13:10:59.000Z</time>
      </trkpt>
      <trkpt lat="47.96712" lon="6.95287">
        <ele>735.59997558594</ele>
        <time>2022-10-31T13:11:00.000Z</time>
      </trkpt>
      <trkpt lat="47.96714" lon="6.95288">
        <ele>735.80004882812</ele>
        <time>2022-10-31T13:11:04.000Z</time>
      </trkpt>
      <trkpt lat="47.96715" lon="6.95288">
        <ele>736</ele>
        <time>2022-10-31T13:11:06.000Z</time>
      </trkpt>
      <trkpt lat="47.96716" lon="6.95288">
        <ele>736.19995117188</ele>
        <time>2022-10-31T13:11:09.000Z</time>
      </trkpt>
      <trkpt lat="47.96716" lon="6.95291">
        <ele>736.19995117188</ele>
        <time>2022-10-31T13:11:10.000Z</time>
      </trkpt>
      <trkpt lat="47.96718" lon="6.95293">
        <ele>736.40002441406</ele>
        <time>2022-10-31T13:11:16.000Z</time>
      </trkpt>
      <trkpt lat="47.96718" lon="6.9529">
        <ele>736.19995117188</ele>
        <time>2022-10-31T13:11:20.000Z</time>
      </trkpt>
      <trkpt lat="47.9672" lon="6.95288">
        <ele>736.19995117188</ele>
        <time>2022-10-31T13:11:23.000Z</time>
      </trkpt>
      <trkpt lat="47.96724" lon="6.9529">
        <ele>736.59997558594</ele>
        <time>2022-10-31T13:11:27.000Z</time>
      </trkpt>
      <trkpt lat="47.96729" lon="6.95292">
        <ele>737</ele>
        <time>2022-10-31T13:11:34.000Z</time>
      </trkpt>
      <trkpt lat="47.9673" lon="6.95292">
        <ele>737.40002441406</ele>
        <time>2022-10-31T13:11:37.000Z</time>
      </trkpt>
      <trkpt lat="47.96731" lon="6.95292">
        <ele>737.40002441406</ele>
        <time>2022-10-31T13:11:40.000Z</time>
      </trkpt>
      <trkpt lat="47.96736" lon="6.95296">
        <ele>737.80004882812</ele>
        <time>2022-10-31T13:11:46.000Z</time>
      </trkpt>
      <trkpt lat="47.96737" lon="6.95297">
        <ele>737.80004882812</ele>
        <time>2022-10-31T13:11:47.000Z</time>
      </trkpt>
      <trkpt lat="47.96744" lon="6.95302">
        <ele>738.19995117188</ele>
        <time>2022-10-31T13:11:52.000Z</time>
      </trkpt>
      <trkpt lat="47.96745" lon="6.95303">
        <ele>738.40002441406</ele>
        <time>2022-10-31T13:11:55.000Z</time>
      </trkpt>
      <trkpt lat="47.96749" lon="6.95303">
        <ele>738.59997558594</ele>
        <time>2022-10-31T13:11:59.000Z</time>
      </trkpt>
      <trkpt lat="47.96748" lon="6.95308">
        <ele>739.19995117188</ele>
        <time>2022-10-31T13:12:05.000Z</time>
      </trkpt>
      <trkpt lat="47.96749" lon="6.95308">
        <ele>739.19995117188</ele>
        <time>2022-10-31T13:12:10.000Z</time>
      </trkpt>
      <trkpt lat="47.96749" lon="6.9531">
        <ele>739.19995117188</ele>
        <time>2022-10-31T13:12:14.000Z</time>
      </trkpt>
      <trkpt lat="47.96749" lon="6.95316">
        <ele>739.19995117188</ele>
        <time>2022-10-31T13:12:19.000Z</time>
      </trkpt>
      <trkpt lat="47.96749" lon="6.95317">
        <ele>739.40002441406</ele>
        <time>2022-10-31T13:12:22.000Z</time>
      </trkpt>
      <trkpt lat="47.96748" lon="6.9532">
        <ele>739.59997558594</ele>
        <time>2022-10-31T13:12:24.000Z</time>
      </trkpt>
      <trkpt lat="47.96751" lon="6.95323">
        <ele>739.80004882812</ele>
        <time>2022-10-31T13:12:28.000Z</time>
      </trkpt>
      <trkpt lat="47.96754" lon="6.95322">
        <ele>740</ele>
        <time>2022-10-31T13:12:30.000Z</time>
      </trkpt>
      <trkpt lat="47.96758" lon="6.95321">
        <ele>740.40002441406</ele>
        <time>2022-10-31T13:12:34.000Z</time>
      </trkpt>
      <trkpt lat="47.96758" lon="6.95322">
        <ele>740.40002441406</ele>
        <time>2022-10-31T13:12:35.000Z</time>
      </trkpt>
      <trkpt lat="47.9676" lon="6.95322">
        <ele>741</ele>
        <time>2022-10-31T13:12:40.000Z</time>
      </trkpt>
      <trkpt lat="47.96767" lon="6.9532">
        <ele>741.19995117188</ele>
        <time>2022-10-31T13:12:46.000Z</time>
      </trkpt>
      <trkpt lat="47.96772" lon="6.95318">
        <ele>741.40002441406</ele>
        <time>2022-10-31T13:12:49.000Z</time>
      </trkpt>
      <trkpt lat="47.96774" lon="6.95317">
        <ele>741.40002441406</ele>
        <time>2022-10-31T13:12:50.000Z</time>
      </trkpt>
      <trkpt lat="47.96776" lon="6.95317">
        <ele>741.59997558594</ele>
        <time>2022-10-31T13:12:52.000Z</time>
      </trkpt>
      <trkpt lat="47.96779" lon="6.95318">
        <ele>741.80004882812</ele>
        <time>2022-10-31T13:13:02.000Z</time>
      </trkpt>
      <trkpt lat="47.96782" lon="6.95318">
        <ele>742</ele>
        <time>2022-10-31T13:13:09.000Z</time>
      </trkpt>
      <trkpt lat="47.96789" lon="6.95321">
        <ele>742.19995117188</ele>
        <time>2022-10-31T13:13:16.000Z</time>
      </trkpt>
      <trkpt lat="47.96793" lon="6.95319">
        <ele>742.40002441406</ele>
        <time>2022-10-31T13:13:19.000Z</time>
      </trkpt>
      <trkpt lat="47.96797" lon="6.9532">
        <ele>742.59997558594</ele>
        <time>2022-10-31T13:13:23.000Z</time>
      </trkpt>
      <trkpt lat="47.96805" lon="6.95327">
        <ele>743.19995117188</ele>
        <time>2022-10-31T13:13:33.000Z</time>
      </trkpt>
      <trkpt lat="47.96805" lon="6.95327">
        <ele>743.59997558594</ele>
        <time>2022-10-31T13:13:34.000Z</time>
      </trkpt>
      <trkpt lat="47.96813" lon="6.95327">
        <ele>743.80004882812</ele>
        <time>2022-10-31T13:13:38.000Z</time>
      </trkpt>
      <trkpt lat="47.96816" lon="6.9533">
        <ele>744.19995117188</ele>
        <time>2022-10-31T13:13:43.000Z</time>
      </trkpt>
      <trkpt lat="47.9682" lon="6.95331">
        <ele>744.40002441406</ele>
        <time>2022-10-31T13:13:46.000Z</time>
      </trkpt>
      <trkpt lat="47.96824" lon="6.95334">
        <ele>744.59997558594</ele>
        <time>2022-10-31T13:13:49.000Z</time>
      </trkpt>
      <trkpt lat="47.96825" lon="6.95335">
        <ele>744.80004882812</ele>
        <time>2022-10-31T13:13:50.000Z</time>
      </trkpt>
      <trkpt lat="47.96827" lon="6.95336">
        <ele>744.80004882812</ele>
        <time>2022-10-31T13:13:51.000Z</time>
      </trkpt>
      <trkpt lat="47.96827" lon="6.95342">
        <ele>745.19995117188</ele>
        <time>2022-10-31T13:13:55.000Z</time>
      </trkpt>
      <trkpt lat="47.96831" lon="6.95344">
        <ele>745.59997558594</ele>
        <time>2022-10-31T13:13:58.000Z</time>
      </trkpt>
      <trkpt lat="47.96833" lon="6.95344">
        <ele>745.59997558594</ele>
        <time>2022-10-31T13:14:00.000Z</time>
      </trkpt>
      <trkpt lat="47.96839" lon="6.95345">
        <ele>746</ele>
        <time>2022-10-31T13:14:04.000Z</time>
      </trkpt>
      <trkpt lat="47.96843" lon="6.95347">
        <ele>746.59997558594</ele>
        <time>2022-10-31T13:14:09.000Z</time>
      </trkpt>
      <trkpt lat="47.96843" lon="6.95348">
        <ele>746.59997558594</ele>
        <time>2022-10-31T13:14:10.000Z</time>
      </trkpt>
      <trkpt lat="47.96845" lon="6.95349">
        <ele>747.19995117188</ele>
        <time>2022-10-31T13:14:15.000Z</time>
      </trkpt>
      <trkpt lat="47.9685" lon="6.9535">
        <ele>747.80004882812</ele>
        <time>2022-10-31T13:14:19.000Z</time>
      </trkpt>
      <trkpt lat="47.96851" lon="6.9535">
        <ele>748</ele>
        <time>2022-10-31T13:14:21.000Z</time>
      </trkpt>
      <trkpt lat="47.96855" lon="6.9535">
        <ele>748.59997558594</ele>
        <time>2022-10-31T13:14:26.000Z</time>
      </trkpt>
      <trkpt lat="47.96856" lon="6.95351">
        <ele>748.80004882812</ele>
        <time>2022-10-31T13:14:27.000Z</time>
      </trkpt>
      <trkpt lat="47.96856" lon="6.95351">
        <ele>748.80004882812</ele>
        <time>2022-10-31T13:14:29.000Z</time>
      </trkpt>
      <trkpt lat="47.96857" lon="6.95352">
        <ele>748.80004882812</ele>
        <time>2022-10-31T13:14:36.000Z</time>
      </trkpt>
      <trkpt lat="47.96855" lon="6.9535">
        <ele>748.80004882812</ele>
        <time>2022-10-31T13:14:45.000Z</time>
      </trkpt>
      <trkpt lat="47.96856" lon="6.95351">
        <ele>748.59997558594</ele>
        <time>2022-10-31T13:14:55.000Z</time>
      </trkpt>
      <trkpt lat="47.96857" lon="6.95352">
        <ele>748.80004882812</ele>
        <time>2022-10-31T13:14:59.000Z</time>
      </trkpt>
      <trkpt lat="47.96857" lon="6.95352">
        <ele>749.40002441406</ele>
        <time>2022-10-31T13:15:03.000Z</time>
      </trkpt>
      <trkpt lat="47.96858" lon="6.95352">
        <ele>749.80004882812</ele>
        <time>2022-10-31T13:15:08.000Z</time>
      </trkpt>
      <trkpt lat="47.96868" lon="6.95353">
        <ele>750.80004882812</ele>
        <time>2022-10-31T13:15:19.000Z</time>
      </trkpt>
      <trkpt lat="47.96875" lon="6.95353">
        <ele>751.40002441406</ele>
        <time>2022-10-31T13:15:23.000Z</time>
      </trkpt>
      <trkpt lat="47.96882" lon="6.95351">
        <ele>751.80004882812</ele>
        <time>2022-10-31T13:15:28.000Z</time>
      </trkpt>
      <trkpt lat="47.96882" lon="6.9535">
        <ele>752</ele>
        <time>2022-10-31T13:15:29.000Z</time>
      </trkpt>
      <trkpt lat="47.96884" lon="6.9535">
        <ele>752.19995117188</ele>
        <time>2022-10-31T13:15:32.000Z</time>
      </trkpt>
      <trkpt lat="47.96887" lon="6.95348">
        <ele>752.80004882812</ele>
        <time>2022-10-31T13:15:38.000Z</time>
      </trkpt>
      <trkpt lat="47.96888" lon="6.95349">
        <ele>752.59997558594</ele>
        <time>2022-10-31T13:15:44.000Z</time>
      </trkpt>
      <trkpt lat="47.96888" lon="6.95347">
        <ele>752.80004882812</ele>
        <time>2022-10-31T13:15:50.000Z</time>
      </trkpt>
      <trkpt lat="47.96892" lon="6.95345">
        <ele>753</ele>
        <time>2022-10-31T13:15:53.000Z</time>
      </trkpt>
      <trkpt lat="47.96894" lon="6.95345">
        <ele>753.19995117188</ele>
        <time>2022-10-31T13:15:56.000Z</time>
      </trkpt>
      <trkpt lat="47.96894" lon="6.95343">
        <ele>753.59997558594</ele>
        <time>2022-10-31T13:16:04.000Z</time>
      </trkpt>
      <trkpt lat="47.96899" lon="6.9534">
        <ele>753.40002441406</ele>
        <time>2022-10-31T13:16:09.000Z</time>
      </trkpt>
      <trkpt lat="47.969" lon="6.95339">
        <ele>753.59997558594</ele>
        <time>2022-10-31T13:16:11.000Z</time>
      </trkpt>
      <trkpt lat="47.96903" lon="6.95338">
        <ele>754</ele>
        <time>2022-10-31T13:16:16.000Z</time>
      </trkpt>
      <trkpt lat="47.96903" lon="6.95334">
        <ele>754.40002441406</ele>
        <time>2022-10-31T13:16:20.000Z</time>
      </trkpt>
      <trkpt lat="47.96905" lon="6.95334">
        <ele>754.59997558594</ele>
        <time>2022-10-31T13:16:24.000Z</time>
      </trkpt>
      <trkpt lat="47.96905" lon="6.95334">
        <ele>754.59997558594</ele>
        <time>2022-10-31T13:16:25.000Z</time>
      </trkpt>
      <trkpt lat="47.96906" lon="6.95335">
        <ele>754.80004882812</ele>
        <time>2022-10-31T13:16:31.000Z</time>
      </trkpt>
      <trkpt lat="47.96906" lon="6.95335">
        <ele>754.80004882812</ele>
        <time>2022-10-31T13:16:40.000Z</time>
      </trkpt>
      <trkpt lat="47.96906" lon="6.95335">
        <ele>754.80004882812</ele>
        <time>2022-10-31T13:16:44.000Z</time>
      </trkpt>
      <trkpt lat="47.96904" lon="6.95335">
        <ele>754.59997558594</ele>
        <time>2022-10-31T13:16:54.000Z</time>
      </trkpt>
      <trkpt lat="47.96904" lon="6.95335">
        <ele>754.59997558594</ele>
        <time>2022-10-31T13:16:56.000Z</time>
      </trkpt>
      <trkpt lat="47.96904" lon="6.95335">
        <ele>754.59997558594</ele>
        <time>2022-10-31T13:16:58.000Z</time>
      </trkpt>
      <trkpt lat="47.96904" lon="6.95335">
        <ele>754.59997558594</ele>
        <time>2022-10-31T13:17:01.000Z</time>
      </trkpt>
      <trkpt lat="47.96904" lon="6.95336">
        <ele>754.40002441406</ele>
        <time>2022-10-31T13:17:05.000Z</time>
      </trkpt>
      <trkpt lat="47.96905" lon="6.95336">
        <ele>754.40002441406</ele>
        <time>2022-10-31T13:17:09.000Z</time>
      </trkpt>
      <trkpt lat="47.96906" lon="6.95337">
        <ele>754.40002441406</ele>
        <time>2022-10-31T13:17:14.000Z</time>
      </trkpt>
      <trkpt lat="47.96906" lon="6.95337">
        <ele>754.40002441406</ele>
        <time>2022-10-31T13:17:24.000Z</time>
      </trkpt>
      <trkpt lat="47.96905" lon="6.95339">
        <ele>754.40002441406</ele>
        <time>2022-10-31T13:17:47.000Z</time>
      </trkpt>
      <trkpt lat="47.9691" lon="6.95333">
        <ele>754.40002441406</ele>
        <time>2022-10-31T13:18:23.000Z</time>
      </trkpt>
      <trkpt lat="47.96912" lon="6.95331">
        <ele>754.40002441406</ele>
        <time>2022-10-31T13:18:25.000Z</time>
      </trkpt>
      <trkpt lat="47.96919" lon="6.95322">
        <ele>754.40002441406</ele>
        <time>2022-10-31T13:18:30.000Z</time>
      </trkpt>
      <trkpt lat="47.96921" lon="6.95319">
        <ele>754.40002441406</ele>
        <time>2022-10-31T13:18:31.000Z</time>
      </trkpt>
      <trkpt lat="47.96922" lon="6.95317">
        <ele>754.40002441406</ele>
        <time>2022-10-31T13:18:32.000Z</time>
      </trkpt>
      <trkpt lat="47.96926" lon="6.95313">
        <ele>754.40002441406</ele>
        <time>2022-10-31T13:18:34.000Z</time>
      </trkpt>
      <trkpt lat="47.96926" lon="6.95312">
        <ele>754.40002441406</ele>
        <time>2022-10-31T13:18:35.000Z</time>
      </trkpt>
      <trkpt lat="47.96927" lon="6.95311">
        <ele>758</ele>
        <time>2022-10-31T13:18:37.000Z</time>
      </trkpt>
      <trkpt lat="47.96931" lon="6.95307">
        <ele>758.19995117188</ele>
        <time>2022-10-31T13:18:43.000Z</time>
      </trkpt>
      <trkpt lat="47.9693" lon="6.95305">
        <ele>758.40002441406</ele>
        <time>2022-10-31T13:18:46.000Z</time>
      </trkpt>
      <trkpt lat="47.9693" lon="6.95302">
        <ele>758.59997558594</ele>
        <time>2022-10-31T13:18:48.000Z</time>
      </trkpt>
      <trkpt lat="47.96932" lon="6.95297">
        <ele>759</ele>
        <time>2022-10-31T13:18:52.000Z</time>
      </trkpt>
      <trkpt lat="47.96935" lon="6.95295">
        <ele>759.40002441406</ele>
        <time>2022-10-31T13:18:55.000Z</time>
      </trkpt>
      <trkpt lat="47.96941" lon="6.95291">
        <ele>760.19995117188</ele>
        <time>2022-10-31T13:19:01.000Z</time>
      </trkpt>
      <trkpt lat="47.96942" lon="6.9529">
        <ele>760.19995117188</ele>
        <time>2022-10-31T13:19:02.000Z</time>
      </trkpt>
      <trkpt lat="47.96944" lon="6.9529">
        <ele>760.59997558594</ele>
        <time>2022-10-31T13:19:06.000Z</time>
      </trkpt>
      <trkpt lat="47.96944" lon="6.95293">
        <ele>760.80004882812</ele>
        <time>2022-10-31T13:19:11.000Z</time>
      </trkpt>
      <trkpt lat="47.96947" lon="6.95292">
        <ele>761</ele>
        <time>2022-10-31T13:19:16.000Z</time>
      </trkpt>
      <trkpt lat="47.9695" lon="6.95292">
        <ele>761</ele>
        <time>2022-10-31T13:19:20.000Z</time>
      </trkpt>
      <trkpt lat="47.96951" lon="6.95292">
        <ele>761.19995117188</ele>
        <time>2022-10-31T13:19:23.000Z</time>
      </trkpt>
      <trkpt lat="47.96954" lon="6.95293">
        <ele>761.40002441406</ele>
        <time>2022-10-31T13:19:26.000Z</time>
      </trkpt>
      <trkpt lat="47.96958" lon="6.9529">
        <ele>762.19995117188</ele>
        <time>2022-10-31T13:19:31.000Z</time>
      </trkpt>
      <trkpt lat="47.96959" lon="6.9529">
        <ele>762.19995117188</ele>
        <time>2022-10-31T13:19:32.000Z</time>
      </trkpt>
      <trkpt lat="47.9696" lon="6.9529">
        <ele>762.40002441406</ele>
        <time>2022-10-31T13:19:34.000Z</time>
      </trkpt>
      <trkpt lat="47.96961" lon="6.95292">
        <ele>762.80004882812</ele>
        <time>2022-10-31T13:19:36.000Z</time>
      </trkpt>
      <trkpt lat="47.96965" lon="6.95297">
        <ele>763.40002441406</ele>
        <time>2022-10-31T13:19:42.000Z</time>
      </trkpt>
      <trkpt lat="47.96969" lon="6.95297">
        <ele>764.19995117188</ele>
        <time>2022-10-31T13:19:49.000Z</time>
      </trkpt>
      <trkpt lat="47.96969" lon="6.95297">
        <ele>764.40002441406</ele>
        <time>2022-10-31T13:19:50.000Z</time>
      </trkpt>
      <trkpt lat="47.96973" lon="6.95297">
        <ele>765</ele>
        <time>2022-10-31T13:19:54.000Z</time>
      </trkpt>
      <trkpt lat="47.96975" lon="6.95297">
        <ele>765.40002441406</ele>
        <time>2022-10-31T13:19:56.000Z</time>
      </trkpt>
      <trkpt lat="47.96975" lon="6.95297">
        <ele>765.59997558594</ele>
        <time>2022-10-31T13:19:57.000Z</time>
      </trkpt>
      <trkpt lat="47.9698" lon="6.95298">
        <ele>765.80004882812</ele>
        <time>2022-10-31T13:20:01.000Z</time>
      </trkpt>
      <trkpt lat="47.96989" lon="6.95298">
        <ele>766.59997558594</ele>
        <time>2022-10-31T13:20:06.000Z</time>
      </trkpt>
      <trkpt lat="47.9699" lon="6.95297">
        <ele>766.80004882812</ele>
        <time>2022-10-31T13:20:07.000Z</time>
      </trkpt>
      <trkpt lat="47.96996" lon="6.953">
        <ele>767.40002441406</ele>
        <time>2022-10-31T13:20:12.000Z</time>
      </trkpt>
      <trkpt lat="47.96997" lon="6.953">
        <ele>767.59997558594</ele>
        <time>2022-10-31T13:20:14.000Z</time>
      </trkpt>
      <trkpt lat="47.96998" lon="6.953">
        <ele>767.80004882812</ele>
        <time>2022-10-31T13:20:15.000Z</time>
      </trkpt>
      <trkpt lat="47.97001" lon="6.95301">
        <ele>768.19995117188</ele>
        <time>2022-10-31T13:20:19.000Z</time>
      </trkpt>
      <trkpt lat="47.97001" lon="6.95303">
        <ele>768.59997558594</ele>
        <time>2022-10-31T13:20:21.000Z</time>
      </trkpt>
      <trkpt lat="47.97001" lon="6.95304">
        <ele>768.59997558594</ele>
        <time>2022-10-31T13:20:22.000Z</time>
      </trkpt>
      <trkpt lat="47.96999" lon="6.95309">
        <ele>768.59997558594</ele>
        <time>2022-10-31T13:20:28.000Z</time>
      </trkpt>
      <trkpt lat="47.96996" lon="6.95312">
        <ele>768.80004882812</ele>
        <time>2022-10-31T13:20:32.000Z</time>
      </trkpt>
      <trkpt lat="47.96994" lon="6.95314">
        <ele>768.80004882812</ele>
        <time>2022-10-31T13:20:35.000Z</time>
      </trkpt>
      <trkpt lat="47.96994" lon="6.95316">
        <ele>768.80004882812</ele>
        <time>2022-10-31T13:20:39.000Z</time>
      </trkpt>
      <trkpt lat="47.96997" lon="6.95313">
        <ele>769</ele>
        <time>2022-10-31T13:20:43.000Z</time>
      </trkpt>
      <trkpt lat="47.97" lon="6.95314">
        <ele>769.19995117188</ele>
        <time>2022-10-31T13:20:48.000Z</time>
      </trkpt>
      <trkpt lat="47.97005" lon="6.95313">
        <ele>769.80004882812</ele>
        <time>2022-10-31T13:20:54.000Z</time>
      </trkpt>
      <trkpt lat="47.97007" lon="6.95312">
        <ele>770</ele>
        <time>2022-10-31T13:20:55.000Z</time>
      </trkpt>
      <trkpt lat="47.97008" lon="6.95311">
        <ele>770</ele>
        <time>2022-10-31T13:20:56.000Z</time>
      </trkpt>
      <trkpt lat="47.97019" lon="6.95306">
        <ele>770.80004882812</ele>
        <time>2022-10-31T13:21:01.000Z</time>
      </trkpt>
      <trkpt lat="47.97021" lon="6.95307">
        <ele>771</ele>
        <time>2022-10-31T13:21:02.000Z</time>
      </trkpt>
      <trkpt lat="47.97023" lon="6.95307">
        <ele>771.19995117188</ele>
        <time>2022-10-31T13:21:03.000Z</time>
      </trkpt>
      <trkpt lat="47.97025" lon="6.95308">
        <ele>771.80004882812</ele>
        <time>2022-10-31T13:21:07.000Z</time>
      </trkpt>
      <trkpt lat="47.97026" lon="6.95308">
        <ele>772</ele>
        <time>2022-10-31T13:21:08.000Z</time>
      </trkpt>
      <trkpt lat="47.97028" lon="6.95308">
        <ele>772</ele>
        <time>2022-10-31T13:21:10.000Z</time>
      </trkpt>
      <trkpt lat="47.97033" lon="6.95307">
        <ele>772.40002441406</ele>
        <time>2022-10-31T13:21:15.000Z</time>
      </trkpt>
      <trkpt lat="47.97038" lon="6.95307">
        <ele>773.19995117188</ele>
        <time>2022-10-31T13:21:20.000Z</time>
      </trkpt>
      <trkpt lat="47.97039" lon="6.95307">
        <ele>773.40002441406</ele>
        <time>2022-10-31T13:21:22.000Z</time>
      </trkpt>
      <trkpt lat="47.97044" lon="6.95308">
        <ele>773.80004882812</ele>
        <time>2022-10-31T13:21:27.000Z</time>
      </trkpt>
      <trkpt lat="47.97047" lon="6.95309">
        <ele>774.19995117188</ele>
        <time>2022-10-31T13:21:30.000Z</time>
      </trkpt>
      <trkpt lat="47.97051" lon="6.95307">
        <ele>774.59997558594</ele>
        <time>2022-10-31T13:21:34.000Z</time>
      </trkpt>
      <trkpt lat="47.97054" lon="6.95307">
        <ele>775.40002441406</ele>
        <time>2022-10-31T13:21:39.000Z</time>
      </trkpt>
      <trkpt lat="47.9706" lon="6.95305">
        <ele>776</ele>
        <time>2022-10-31T13:21:47.000Z</time>
      </trkpt>
      <trkpt lat="47.97061" lon="6.95306">
        <ele>776.19995117188</ele>
        <time>2022-10-31T13:21:48.000Z</time>
      </trkpt>
      <trkpt lat="47.97062" lon="6.95306">
        <ele>776.40002441406</ele>
        <time>2022-10-31T13:21:49.000Z</time>
      </trkpt>
      <trkpt lat="47.97065" lon="6.95306">
        <ele>776.80004882812</ele>
        <time>2022-10-31T13:21:52.000Z</time>
      </trkpt>
      <trkpt lat="47.97069" lon="6.95306">
        <ele>777.19995117188</ele>
        <time>2022-10-31T13:21:57.000Z</time>
      </trkpt>
      <trkpt lat="47.97071" lon="6.95306">
        <ele>777.40002441406</ele>
        <time>2022-10-31T13:21:59.000Z</time>
      </trkpt>
      <trkpt lat="47.97071" lon="6.95308">
        <ele>777.40002441406</ele>
        <time>2022-10-31T13:22:02.000Z</time>
      </trkpt>
      <trkpt lat="47.97071" lon="6.9531">
        <ele>777.59997558594</ele>
        <time>2022-10-31T13:22:07.000Z</time>
      </trkpt>
      <trkpt lat="47.97071" lon="6.95312">
        <ele>777.59997558594</ele>
        <time>2022-10-31T13:22:09.000Z</time>
      </trkpt>
      <trkpt lat="47.97074" lon="6.95314">
        <ele>777.80004882812</ele>
        <time>2022-10-31T13:22:18.000Z</time>
      </trkpt>
      <trkpt lat="47.97075" lon="6.95315">
        <ele>777.80004882812</ele>
        <time>2022-10-31T13:22:20.000Z</time>
      </trkpt>
      <trkpt lat="47.97073" lon="6.95315">
        <ele>777.80004882812</ele>
        <time>2022-10-31T13:22:23.000Z</time>
      </trkpt>
      <trkpt lat="47.97073" lon="6.95315">
        <ele>778</ele>
        <time>2022-10-31T13:22:27.000Z</time>
      </trkpt>
      <trkpt lat="47.97073" lon="6.95315">
        <ele>778</ele>
        <time>2022-10-31T13:22:35.000Z</time>
      </trkpt>
      <trkpt lat="47.97079" lon="6.9531">
        <ele>778</ele>
        <time>2022-10-31T13:22:39.000Z</time>
      </trkpt>
      <trkpt lat="47.9708" lon="6.95309">
        <ele>778</ele>
        <time>2022-10-31T13:22:40.000Z</time>
      </trkpt>
      <trkpt lat="47.97084" lon="6.95306">
        <ele>778.59997558594</ele>
        <time>2022-10-31T13:22:44.000Z</time>
      </trkpt>
      <trkpt lat="47.97089" lon="6.95303">
        <ele>779</ele>
        <time>2022-10-31T13:22:49.000Z</time>
      </trkpt>
      <trkpt lat="47.97091" lon="6.95302">
        <ele>779.19995117188</ele>
        <time>2022-10-31T13:22:51.000Z</time>
      </trkpt>
      <trkpt lat="47.97093" lon="6.953">
        <ele>779.59997558594</ele>
        <time>2022-10-31T13:22:54.000Z</time>
      </trkpt>
      <trkpt lat="47.97095" lon="6.95299">
        <ele>779.80004882812</ele>
        <time>2022-10-31T13:22:57.000Z</time>
      </trkpt>
      <trkpt lat="47.97099" lon="6.95295">
        <ele>780.59997558594</ele>
        <time>2022-10-31T13:23:02.000Z</time>
      </trkpt>
      <trkpt lat="47.97103" lon="6.95296">
        <ele>780.80004882812</ele>
        <time>2022-10-31T13:23:05.000Z</time>
      </trkpt>
      <trkpt lat="47.97108" lon="6.95296">
        <ele>781.59997558594</ele>
        <time>2022-10-31T13:23:10.000Z</time>
      </trkpt>
      <trkpt lat="47.97109" lon="6.95295">
        <ele>781.59997558594</ele>
        <time>2022-10-31T13:23:11.000Z</time>
      </trkpt>
      <trkpt lat="47.97111" lon="6.95293">
        <ele>782</ele>
        <time>2022-10-31T13:23:15.000Z</time>
      </trkpt>
      <trkpt lat="47.97115" lon="6.95289">
        <ele>782.40002441406</ele>
        <time>2022-10-31T13:23:20.000Z</time>
      </trkpt>
      <trkpt lat="47.97117" lon="6.95291">
        <ele>782.80004882812</ele>
        <time>2022-10-31T13:23:24.000Z</time>
      </trkpt>
      <trkpt lat="47.97116" lon="6.95294">
        <ele>783</ele>
        <time>2022-10-31T13:23:29.000Z</time>
      </trkpt>
      <trkpt lat="47.97117" lon="6.95291">
        <ele>783</ele>
        <time>2022-10-31T13:23:37.000Z</time>
      </trkpt>
      <trkpt lat="47.97122" lon="6.95287">
        <ele>783.59997558594</ele>
        <time>2022-10-31T13:23:45.000Z</time>
      </trkpt>
      <trkpt lat="47.97122" lon="6.95287">
        <ele>783.80004882812</ele>
        <time>2022-10-31T13:23:46.000Z</time>
      </trkpt>
      <trkpt lat="47.97129" lon="6.95289">
        <ele>784.59997558594</ele>
        <time>2022-10-31T13:23:52.000Z</time>
      </trkpt>
      <trkpt lat="47.9713" lon="6.95289">
        <ele>784.80004882812</ele>
        <time>2022-10-31T13:23:54.000Z</time>
      </trkpt>
      <trkpt lat="47.97134" lon="6.9529">
        <ele>785.40002441406</ele>
        <time>2022-10-31T13:23:59.000Z</time>
      </trkpt>
      <trkpt lat="47.97136" lon="6.95291">
        <ele>786</ele>
        <time>2022-10-31T13:24:01.000Z</time>
      </trkpt>
      <trkpt lat="47.9714" lon="6.95289">
        <ele>786.40002441406</ele>
        <time>2022-10-31T13:24:06.000Z</time>
      </trkpt>
      <trkpt lat="47.97145" lon="6.95286">
        <ele>787</ele>
        <time>2022-10-31T13:24:11.000Z</time>
      </trkpt>
      <trkpt lat="47.97145" lon="6.95285">
        <ele>787.19995117188</ele>
        <time>2022-10-31T13:24:13.000Z</time>
      </trkpt>
      <trkpt lat="47.97149" lon="6.95282">
        <ele>787.59997558594</ele>
        <time>2022-10-31T13:24:18.000Z</time>
      </trkpt>
      <trkpt lat="47.97152" lon="6.95284">
        <ele>788</ele>
        <time>2022-10-31T13:24:23.000Z</time>
      </trkpt>
      <trkpt lat="47.97152" lon="6.95286">
        <ele>788</ele>
        <time>2022-10-31T13:24:24.000Z</time>
      </trkpt>
      <trkpt lat="47.97153" lon="6.95287">
        <ele>788.19995117188</ele>
        <time>2022-10-31T13:24:31.000Z</time>
      </trkpt>
      <trkpt lat="47.97154" lon="6.95288">
        <ele>788.19995117188</ele>
        <time>2022-10-31T13:24:38.000Z</time>
      </trkpt>
      <trkpt lat="47.97155" lon="6.95287">
        <ele>788.19995117188</ele>
        <time>2022-10-31T13:24:42.000Z</time>
      </trkpt>
      <trkpt lat="47.97157" lon="6.95284">
        <ele>788.40002441406</ele>
        <time>2022-10-31T13:24:44.000Z</time>
      </trkpt>
      <trkpt lat="47.97159" lon="6.95281">
        <ele>788.59997558594</ele>
        <time>2022-10-31T13:24:46.000Z</time>
      </trkpt>
      <trkpt lat="47.97164" lon="6.95276">
        <ele>788.80004882812</ele>
        <time>2022-10-31T13:24:50.000Z</time>
      </trkpt>
      <trkpt lat="47.97166" lon="6.95273">
        <ele>789</ele>
        <time>2022-10-31T13:24:52.000Z</time>
      </trkpt>
      <trkpt lat="47.97169" lon="6.95272">
        <ele>789.19995117188</ele>
        <time>2022-10-31T13:24:55.000Z</time>
      </trkpt>
      <trkpt lat="47.97175" lon="6.95268">
        <ele>789.80004882812</ele>
        <time>2022-10-31T13:25:02.000Z</time>
      </trkpt>
      <trkpt lat="47.97177" lon="6.95268">
        <ele>790</ele>
        <time>2022-10-31T13:25:04.000Z</time>
      </trkpt>
      <trkpt lat="47.97179" lon="6.95266">
        <ele>790.40002441406</ele>
        <time>2022-10-31T13:25:08.000Z</time>
      </trkpt>
      <trkpt lat="47.97188" lon="6.95255">
        <ele>791</ele>
        <time>2022-10-31T13:25:16.000Z</time>
      </trkpt>
      <trkpt lat="47.97193" lon="6.9525">
        <ele>791.59997558594</ele>
        <time>2022-10-31T13:25:22.000Z</time>
      </trkpt>
      <trkpt lat="47.972" lon="6.9525">
        <ele>792.19995117188</ele>
        <time>2022-10-31T13:25:28.000Z</time>
      </trkpt>
      <trkpt lat="47.97202" lon="6.95249">
        <ele>792.40002441406</ele>
        <time>2022-10-31T13:25:30.000Z</time>
      </trkpt>
      <trkpt lat="47.97206" lon="6.95244">
        <ele>793.19995117188</ele>
        <time>2022-10-31T13:25:37.000Z</time>
      </trkpt>
      <trkpt lat="47.97207" lon="6.95244">
        <ele>793.19995117188</ele>
        <time>2022-10-31T13:25:38.000Z</time>
      </trkpt>
      <trkpt lat="47.97209" lon="6.95239">
        <ele>793.40002441406</ele>
        <time>2022-10-31T13:25:44.000Z</time>
      </trkpt>
      <trkpt lat="47.97217" lon="6.95236">
        <ele>794</ele>
        <time>2022-10-31T13:25:52.000Z</time>
      </trkpt>
      <trkpt lat="47.97218" lon="6.95235">
        <ele>794.19995117188</ele>
        <time>2022-10-31T13:25:54.000Z</time>
      </trkpt>
      <trkpt lat="47.97222" lon="6.95236">
        <ele>794.80004882812</ele>
        <time>2022-10-31T13:26:00.000Z</time>
      </trkpt>
      <trkpt lat="47.97221" lon="6.9524">
        <ele>795</ele>
        <time>2022-10-31T13:26:09.000Z</time>
      </trkpt>
      <trkpt lat="47.97219" lon="6.95246">
        <ele>795</ele>
        <time>2022-10-31T13:26:15.000Z</time>
      </trkpt>
      <trkpt lat="47.97218" lon="6.9525">
        <ele>795.19995117188</ele>
        <time>2022-10-31T13:26:19.000Z</time>
      </trkpt>
      <trkpt lat="47.97224" lon="6.95245">
        <ele>795</ele>
        <time>2022-10-31T13:26:28.000Z</time>
      </trkpt>
      <trkpt lat="47.97228" lon="6.95241">
        <ele>795.19995117188</ele>
        <time>2022-10-31T13:26:34.000Z</time>
      </trkpt>
      <trkpt lat="47.97229" lon="6.9524">
        <ele>795.19995117188</ele>
        <time>2022-10-31T13:26:36.000Z</time>
      </trkpt>
      <trkpt lat="47.97241" lon="6.95226">
        <ele>795.80004882812</ele>
        <time>2022-10-31T13:26:44.000Z</time>
      </trkpt>
      <trkpt lat="47.97246" lon="6.95221">
        <ele>796</ele>
        <time>2022-10-31T13:26:49.000Z</time>
      </trkpt>
      <trkpt lat="47.97249" lon="6.95218">
        <ele>796.19995117188</ele>
        <time>2022-10-31T13:26:51.000Z</time>
      </trkpt>
      <trkpt lat="47.97253" lon="6.95215">
        <ele>796.59997558594</ele>
        <time>2022-10-31T13:26:56.000Z</time>
      </trkpt>
      <trkpt lat="47.97258" lon="6.95217">
        <ele>796.80004882812</ele>
        <time>2022-10-31T13:26:58.000Z</time>
      </trkpt>
      <trkpt lat="47.97265" lon="6.95207">
        <ele>797.19995117188</ele>
        <time>2022-10-31T13:27:05.000Z</time>
      </trkpt>
      <trkpt lat="47.97266" lon="6.95209">
        <ele>797.40002441406</ele>
        <time>2022-10-31T13:27:06.000Z</time>
      </trkpt>
      <trkpt lat="47.97267" lon="6.95212">
        <ele>797.59997558594</ele>
        <time>2022-10-31T13:27:13.000Z</time>
      </trkpt>
      <trkpt lat="47.97266" lon="6.95213">
        <ele>797.59997558594</ele>
        <time>2022-10-31T13:27:21.000Z</time>
      </trkpt>
      <trkpt lat="47.97268" lon="6.95213">
        <ele>797.59997558594</ele>
        <time>2022-10-31T13:27:36.000Z</time>
      </trkpt>
      <trkpt lat="47.97268" lon="6.95214">
        <ele>797.59997558594</ele>
        <time>2022-10-31T13:27:38.000Z</time>
      </trkpt>
      <trkpt lat="47.97271" lon="6.95217">
        <ele>797</ele>
        <time>2022-10-31T13:27:54.000Z</time>
      </trkpt>
      <trkpt lat="47.97275" lon="6.95219">
        <ele>796.19995117188</ele>
        <time>2022-10-31T13:28:14.000Z</time>
      </trkpt>
      <trkpt lat="47.97276" lon="6.9522">
        <ele>795.80004882812</ele>
        <time>2022-10-31T13:28:15.000Z</time>
      </trkpt>
      <trkpt lat="47.97282" lon="6.95223">
        <ele>795.40002441406</ele>
        <time>2022-10-31T13:28:20.000Z</time>
      </trkpt>
      <trkpt lat="47.97283" lon="6.95223">
        <ele>795.19995117188</ele>
        <time>2022-10-31T13:28:22.000Z</time>
      </trkpt>
      <trkpt lat="47.97284" lon="6.95223">
        <ele>794.59997558594</ele>
        <time>2022-10-31T13:28:24.000Z</time>
      </trkpt>
      <trkpt lat="47.97287" lon="6.95224">
        <ele>794</ele>
        <time>2022-10-31T13:28:29.000Z</time>
      </trkpt>
      <trkpt lat="47.97291" lon="6.95227">
        <ele>793.59997558594</ele>
        <time>2022-10-31T13:28:35.000Z</time>
      </trkpt>
      <trkpt lat="47.97292" lon="6.95227">
        <ele>793.40002441406</ele>
        <time>2022-10-31T13:28:36.000Z</time>
      </trkpt>
      <trkpt lat="47.97296" lon="6.95228">
        <ele>793</ele>
        <time>2022-10-31T13:28:40.000Z</time>
      </trkpt>
      <trkpt lat="47.97298" lon="6.95229">
        <ele>792.80004882812</ele>
        <time>2022-10-31T13:28:42.000Z</time>
      </trkpt>
      <trkpt lat="47.97304" lon="6.95226">
        <ele>792</ele>
        <time>2022-10-31T13:28:50.000Z</time>
      </trkpt>
      <trkpt lat="47.97304" lon="6.95227">
        <ele>792</ele>
        <time>2022-10-31T13:28:51.000Z</time>
      </trkpt>
      <trkpt lat="47.97308" lon="6.95228">
        <ele>791.19995117188</ele>
        <time>2022-10-31T13:28:58.000Z</time>
      </trkpt>
      <trkpt lat="47.97314" lon="6.95226">
        <ele>790.80004882812</ele>
        <time>2022-10-31T13:29:05.000Z</time>
      </trkpt>
      <trkpt lat="47.97319" lon="6.95227">
        <ele>790.40002441406</ele>
        <time>2022-10-31T13:29:11.000Z</time>
      </trkpt>
      <trkpt lat="47.9732" lon="6.95227">
        <ele>790.19995117188</ele>
        <time>2022-10-31T13:29:13.000Z</time>
      </trkpt>
      <trkpt lat="47.97321" lon="6.95227">
        <ele>790.19995117188</ele>
        <time>2022-10-31T13:29:15.000Z</time>
      </trkpt>
      <trkpt lat="47.97323" lon="6.95228">
        <ele>790</ele>
        <time>2022-10-31T13:29:18.000Z</time>
      </trkpt>
      <trkpt lat="47.97324" lon="6.95229">
        <ele>790</ele>
        <time>2022-10-31T13:29:19.000Z</time>
      </trkpt>
      <trkpt lat="47.97325" lon="6.95228">
        <ele>790</ele>
        <time>2022-10-31T13:29:20.000Z</time>
      </trkpt>
      <trkpt lat="47.97326" lon="6.95228">
        <ele>789.80004882812</ele>
        <time>2022-10-31T13:29:21.000Z</time>
      </trkpt>
      <trkpt lat="47.97326" lon="6.95232">
        <ele>789.40002441406</ele>
        <time>2022-10-31T13:29:25.000Z</time>
      </trkpt>
      <trkpt lat="47.97326" lon="6.95232">
        <ele>789.40002441406</ele>
        <time>2022-10-31T13:29:26.000Z</time>
      </trkpt>
      <trkpt lat="47.97324" lon="6.95234">
        <ele>789.40002441406</ele>
        <time>2022-10-31T13:29:32.000Z</time>
      </trkpt>
      <trkpt lat="47.97324" lon="6.95234">
        <ele>789.40002441406</ele>
        <time>2022-10-31T13:29:33.000Z</time>
      </trkpt>
      <trkpt lat="47.97324" lon="6.95235">
        <ele>789.40002441406</ele>
        <time>2022-10-31T13:29:34.000Z</time>
      </trkpt>
      <trkpt lat="47.97324" lon="6.95236">
        <ele>789.40002441406</ele>
        <time>2022-10-31T13:29:39.000Z</time>
      </trkpt>
      <trkpt lat="47.97324" lon="6.95236">
        <ele>788.80004882812</ele>
        <time>2022-10-31T13:29:52.000Z</time>
      </trkpt>
      <trkpt lat="47.97326" lon="6.95241">
        <ele>788</ele>
        <time>2022-10-31T13:30:01.000Z</time>
      </trkpt>
      <trkpt lat="47.97328" lon="6.95242">
        <ele>787.59997558594</ele>
        <time>2022-10-31T13:30:05.000Z</time>
      </trkpt>
      <trkpt lat="47.97335" lon="6.95243">
        <ele>787</ele>
        <time>2022-10-31T13:30:10.000Z</time>
      </trkpt>
      <trkpt lat="47.97343" lon="6.95241">
        <ele>786.59997558594</ele>
        <time>2022-10-31T13:30:16.000Z</time>
      </trkpt>
      <trkpt lat="47.97344" lon="6.95241">
        <ele>786.40002441406</ele>
        <time>2022-10-31T13:30:17.000Z</time>
      </trkpt>
      <trkpt lat="47.97349" lon="6.95239">
        <ele>786</ele>
        <time>2022-10-31T13:30:23.000Z</time>
      </trkpt>
      <trkpt lat="47.97356" lon="6.95237">
        <ele>785.59997558594</ele>
        <time>2022-10-31T13:30:30.000Z</time>
      </trkpt>
      <trkpt lat="47.97356" lon="6.95238">
        <ele>785.40002441406</ele>
        <time>2022-10-31T13:30:31.000Z</time>
      </trkpt>
      <trkpt lat="47.97358" lon="6.95239">
        <ele>785.19995117188</ele>
        <time>2022-10-31T13:30:35.000Z</time>
      </trkpt>
      <trkpt lat="47.97359" lon="6.95238">
        <ele>785.40002441406</ele>
        <time>2022-10-31T13:30:40.000Z</time>
      </trkpt>
      <trkpt lat="47.9736" lon="6.95239">
        <ele>785.19995117188</ele>
        <time>2022-10-31T13:30:47.000Z</time>
      </trkpt>
      <trkpt lat="47.9736" lon="6.95238">
        <ele>785</ele>
        <time>2022-10-31T13:30:58.000Z</time>
      </trkpt>
      <trkpt lat="47.9736" lon="6.95237">
        <ele>784.40002441406</ele>
        <time>2022-10-31T13:31:05.000Z</time>
      </trkpt>
      <trkpt lat="47.97366" lon="6.95237">
        <ele>784.19995117188</ele>
        <time>2022-10-31T13:31:12.000Z</time>
      </trkpt>
      <trkpt lat="47.97367" lon="6.95239">
        <ele>784.19995117188</ele>
        <time>2022-10-31T13:31:13.000Z</time>
      </trkpt>
      <trkpt lat="47.97373" lon="6.95242">
        <ele>784.19995117188</ele>
        <time>2022-10-31T13:31:16.000Z</time>
      </trkpt>
      <trkpt lat="47.97375" lon="6.95242">
        <ele>784</ele>
        <time>2022-10-31T13:31:18.000Z</time>
      </trkpt>
      <trkpt lat="47.97378" lon="6.95247">
        <ele>783.40002441406</ele>
        <time>2022-10-31T13:31:24.000Z</time>
      </trkpt>
      <trkpt lat="47.97384" lon="6.9525">
        <ele>783</ele>
        <time>2022-10-31T13:31:30.000Z</time>
      </trkpt>
      <trkpt lat="47.97386" lon="6.9525">
        <ele>783</ele>
        <time>2022-10-31T13:31:31.000Z</time>
      </trkpt>
      <trkpt lat="47.97389" lon="6.95249">
        <ele>782.80004882812</ele>
        <time>2022-10-31T13:31:33.000Z</time>
      </trkpt>
      <trkpt lat="47.9739" lon="6.9525">
        <ele>782.59997558594</ele>
        <time>2022-10-31T13:31:35.000Z</time>
      </trkpt>
      <trkpt lat="47.97393" lon="6.95252">
        <ele>782.40002441406</ele>
        <time>2022-10-31T13:31:39.000Z</time>
      </trkpt>
      <trkpt lat="47.97396" lon="6.95253">
        <ele>782.19995117188</ele>
        <time>2022-10-31T13:31:42.000Z</time>
      </trkpt>
      <trkpt lat="47.97401" lon="6.95257">
        <ele>781.80004882812</ele>
        <time>2022-10-31T13:31:46.000Z</time>
      </trkpt>
      <trkpt lat="47.97402" lon="6.95263">
        <ele>781.40002441406</ele>
        <time>2022-10-31T13:31:50.000Z</time>
      </trkpt>
      <trkpt lat="47.97404" lon="6.95264">
        <ele>781.19995117188</ele>
        <time>2022-10-31T13:31:52.000Z</time>
      </trkpt>
      <trkpt lat="47.97407" lon="6.95266">
        <ele>781</ele>
        <time>2022-10-31T13:31:58.000Z</time>
      </trkpt>
      <trkpt lat="47.97412" lon="6.95271">
        <ele>781.19995117188</ele>
        <time>2022-10-31T13:32:04.000Z</time>
      </trkpt>
      <trkpt lat="47.97412" lon="6.95271">
        <ele>781.19995117188</ele>
        <time>2022-10-31T13:32:09.000Z</time>
      </trkpt>
      <trkpt lat="47.97415" lon="6.95271">
        <ele>781</ele>
        <time>2022-10-31T13:32:18.000Z</time>
      </trkpt>
      <trkpt lat="47.97416" lon="6.95271">
        <ele>780.19995117188</ele>
        <time>2022-10-31T13:32:41.000Z</time>
      </trkpt>
      <trkpt lat="47.9742" lon="6.95271">
        <ele>779.19995117188</ele>
        <time>2022-10-31T13:32:57.000Z</time>
      </trkpt>
      <trkpt lat="47.97425" lon="6.95275">
        <ele>778.40002441406</ele>
        <time>2022-10-31T13:33:11.000Z</time>
      </trkpt>
      <trkpt lat="47.97425" lon="6.95276">
        <ele>778.19995117188</ele>
        <time>2022-10-31T13:33:13.000Z</time>
      </trkpt>
      <trkpt lat="47.97425" lon="6.9528">
        <ele>777</ele>
        <time>2022-10-31T13:33:22.000Z</time>
      </trkpt>
      <trkpt lat="47.97421" lon="6.95286">
        <ele>776</ele>
        <time>2022-10-31T13:33:30.000Z</time>
      </trkpt>
      <trkpt lat="47.97421" lon="6.95288">
        <ele>775.40002441406</ele>
        <time>2022-10-31T13:33:36.000Z</time>
      </trkpt>
      <trkpt lat="47.97427" lon="6.95304">
        <ele>774.59997558594</ele>
        <time>2022-10-31T13:34:13.000Z</time>
      </trkpt>
      <trkpt lat="47.97432" lon="6.95302">
        <ele>774.19995117188</ele>
        <time>2022-10-31T13:34:20.000Z</time>
      </trkpt>
      <trkpt lat="47.97432" lon="6.95302">
        <ele>774.19995117188</ele>
        <time>2022-10-31T13:34:30.000Z</time>
      </trkpt>
      <trkpt lat="47.97433" lon="6.95302">
        <ele>774.19995117188</ele>
        <time>2022-10-31T13:34:35.000Z</time>
      </trkpt>
      <trkpt lat="47.97438" lon="6.95301">
        <ele>774.19995117188</ele>
        <time>2022-10-31T13:34:50.000Z</time>
      </trkpt>
      <trkpt lat="47.97438" lon="6.95301">
        <ele>774.80004882812</ele>
        <time>2022-10-31T13:34:56.000Z</time>
      </trkpt>
      <trkpt lat="47.97441" lon="6.95296">
        <ele>775.59997558594</ele>
        <time>2022-10-31T13:35:01.000Z</time>
      </trkpt>
      <trkpt lat="47.97442" lon="6.95295">
        <ele>776</ele>
        <time>2022-10-31T13:35:05.000Z</time>
      </trkpt>
      <trkpt lat="47.97442" lon="6.95296">
        <ele>776</ele>
        <time>2022-10-31T13:35:07.000Z</time>
      </trkpt>
      <trkpt lat="47.97441" lon="6.95298">
        <ele>776</ele>
        <time>2022-10-31T13:35:13.000Z</time>
      </trkpt>
      <trkpt lat="47.9744" lon="6.95298">
        <ele>776</ele>
        <time>2022-10-31T13:35:15.000Z</time>
      </trkpt>
      <trkpt lat="47.9744" lon="6.95298">
        <ele>776</ele>
        <time>2022-10-31T13:35:16.000Z</time>
      </trkpt>
      <trkpt lat="47.97439" lon="6.95295">
        <ele>775.59997558594</ele>
        <time>2022-10-31T13:35:23.000Z</time>
      </trkpt>
      <trkpt lat="47.97439" lon="6.95296">
        <ele>775.59997558594</ele>
        <time>2022-10-31T13:35:24.000Z</time>
      </trkpt>
      <trkpt lat="47.97437" lon="6.95302">
        <ele>775.59997558594</ele>
        <time>2022-10-31T13:35:32.000Z</time>
      </trkpt>
      <trkpt lat="47.97434" lon="6.95302">
        <ele>775.59997558594</ele>
        <time>2022-10-31T13:35:36.000Z</time>
      </trkpt>
      <trkpt lat="47.97434" lon="6.95301">
        <ele>775.59997558594</ele>
        <time>2022-10-31T13:35:38.000Z</time>
      </trkpt>
      <trkpt lat="47.97433" lon="6.95299">
        <ele>775.59997558594</ele>
        <time>2022-10-31T13:35:45.000Z</time>
      </trkpt>
      <trkpt lat="47.97436" lon="6.953">
        <ele>775.59997558594</ele>
        <time>2022-10-31T13:35:50.000Z</time>
      </trkpt>
      <trkpt lat="47.97435" lon="6.95303">
        <ele>775.59997558594</ele>
        <time>2022-10-31T13:35:55.000Z</time>
      </trkpt>
      <trkpt lat="47.97436" lon="6.95306">
        <ele>775.59997558594</ele>
        <time>2022-10-31T13:35:58.000Z</time>
      </trkpt>
      <trkpt lat="47.97437" lon="6.95307">
        <ele>775.59997558594</ele>
        <time>2022-10-31T13:35:59.000Z</time>
      </trkpt>
      <trkpt lat="47.97438" lon="6.95312">
        <ele>775.59997558594</ele>
        <time>2022-10-31T13:36:06.000Z</time>
      </trkpt>
      <trkpt lat="47.97439" lon="6.95313">
        <ele>775.59997558594</ele>
        <time>2022-10-31T13:36:19.000Z</time>
      </trkpt>
      <trkpt lat="47.97439" lon="6.95313">
        <ele>775.59997558594</ele>
        <time>2022-10-31T13:36:20.000Z</time>
      </trkpt>
      <trkpt lat="47.97439" lon="6.95313">
        <ele>775.59997558594</ele>
        <time>2022-10-31T13:36:36.000Z</time>
      </trkpt>
      <trkpt lat="47.97439" lon="6.95312">
        <ele>775.59997558594</ele>
        <time>2022-10-31T13:36:38.000Z</time>
      </trkpt>
      <trkpt lat="47.97439" lon="6.9531">
        <ele>775.59997558594</ele>
        <time>2022-10-31T13:36:42.000Z</time>
      </trkpt>
      <trkpt lat="47.97439" lon="6.9531">
        <ele>775.59997558594</ele>
        <time>2022-10-31T13:36:49.000Z</time>
      </trkpt>
      <trkpt lat="47.97439" lon="6.95309">
        <ele>775.59997558594</ele>
        <time>2022-10-31T13:37:00.000Z</time>
      </trkpt>
      <trkpt lat="47.97436" lon="6.95314">
        <ele>775.59997558594</ele>
        <time>2022-10-31T13:37:36.000Z</time>
      </trkpt>
      <trkpt lat="47.97435" lon="6.95315">
        <ele>775.59997558594</ele>
        <time>2022-10-31T13:37:46.000Z</time>
      </trkpt>
      <trkpt lat="47.97433" lon="6.95318">
        <ele>775.59997558594</ele>
        <time>2022-10-31T13:38:01.000Z</time>
      </trkpt>
      <trkpt lat="47.97432" lon="6.9532">
        <ele>775.59997558594</ele>
        <time>2022-10-31T13:38:10.000Z</time>
      </trkpt>
      <trkpt lat="47.97429" lon="6.95322">
        <ele>772.40002441406</ele>
        <time>2022-10-31T13:38:24.000Z</time>
      </trkpt>
      <trkpt lat="47.97428" lon="6.95328">
        <ele>771.59997558594</ele>
        <time>2022-10-31T13:38:38.000Z</time>
      </trkpt>
      <trkpt lat="47.97428" lon="6.95332">
        <ele>771.59997558594</ele>
        <time>2022-10-31T13:38:42.000Z</time>
      </trkpt>
      <trkpt lat="47.97425" lon="6.95334">
        <ele>771.40002441406</ele>
        <time>2022-10-31T13:38:45.000Z</time>
      </trkpt>
      <trkpt lat="47.97423" lon="6.95339">
        <ele>770.80004882812</ele>
        <time>2022-10-31T13:38:49.000Z</time>
      </trkpt>
      <trkpt lat="47.97423" lon="6.9534">
        <ele>770.59997558594</ele>
        <time>2022-10-31T13:38:51.000Z</time>
      </trkpt>
      <trkpt lat="47.97423" lon="6.95342">
        <ele>770.19995117188</ele>
        <time>2022-10-31T13:38:53.000Z</time>
      </trkpt>
      <trkpt lat="47.9742" lon="6.95347">
        <ele>770</ele>
        <time>2022-10-31T13:38:58.000Z</time>
      </trkpt>
      <trkpt lat="47.9742" lon="6.9535">
        <ele>769.80004882812</ele>
        <time>2022-10-31T13:39:04.000Z</time>
      </trkpt>
      <trkpt lat="47.9742" lon="6.9535">
        <ele>769.80004882812</ele>
        <time>2022-10-31T13:39:05.000Z</time>
      </trkpt>
      <trkpt lat="47.9742" lon="6.9535">
        <ele>769.80004882812</ele>
        <time>2022-10-31T13:39:06.000Z</time>
      </trkpt>
      <trkpt lat="47.9742" lon="6.95351">
        <ele>769.19995117188</ele>
        <time>2022-10-31T13:39:10.000Z</time>
      </trkpt>
      <trkpt lat="47.97419" lon="6.95352">
        <ele>769.19995117188</ele>
        <time>2022-10-31T13:39:11.000Z</time>
      </trkpt>
      <trkpt lat="47.97419" lon="6.95354">
        <ele>768.40002441406</ele>
        <time>2022-10-31T13:39:19.000Z</time>
      </trkpt>
      <trkpt lat="47.97419" lon="6.95353">
        <ele>768.19995117188</ele>
        <time>2022-10-31T13:39:27.000Z</time>
      </trkpt>
      <trkpt lat="47.97419" lon="6.95352">
        <ele>768.19995117188</ele>
        <time>2022-10-31T13:39:31.000Z</time>
      </trkpt>
      <trkpt lat="47.97418" lon="6.95352">
        <ele>767.19995117188</ele>
        <time>2022-10-31T13:39:41.000Z</time>
      </trkpt>
      <trkpt lat="47.97418" lon="6.95352">
        <ele>766.19995117188</ele>
        <time>2022-10-31T13:39:47.000Z</time>
      </trkpt>
      <trkpt lat="47.97418" lon="6.95352">
        <ele>765.19995117188</ele>
        <time>2022-10-31T13:39:54.000Z</time>
      </trkpt>
      <trkpt lat="47.97415" lon="6.95357">
        <ele>765</ele>
        <time>2022-10-31T13:40:05.000Z</time>
      </trkpt>
      <trkpt lat="47.97414" lon="6.9536">
        <ele>764.40002441406</ele>
        <time>2022-10-31T13:40:10.000Z</time>
      </trkpt>
      <trkpt lat="47.97414" lon="6.95361">
        <ele>764</ele>
        <time>2022-10-31T13:40:12.000Z</time>
      </trkpt>
      <trkpt lat="47.97414" lon="6.95369">
        <ele>762.80004882812</ele>
        <time>2022-10-31T13:40:20.000Z</time>
      </trkpt>
      <trkpt lat="47.97414" lon="6.9537">
        <ele>762.40002441406</ele>
        <time>2022-10-31T13:40:23.000Z</time>
      </trkpt>
      <trkpt lat="47.97414" lon="6.95375">
        <ele>761.80004882812</ele>
        <time>2022-10-31T13:40:26.000Z</time>
      </trkpt>
      <trkpt lat="47.97414" lon="6.95377">
        <ele>761.59997558594</ele>
        <time>2022-10-31T13:40:27.000Z</time>
      </trkpt>
      <trkpt lat="47.97416" lon="6.95383">
        <ele>760.80004882812</ele>
        <time>2022-10-31T13:40:33.000Z</time>
      </trkpt>
      <trkpt lat="47.97415" lon="6.95384">
        <ele>760.59997558594</ele>
        <time>2022-10-31T13:40:34.000Z</time>
      </trkpt>
      <trkpt lat="47.97415" lon="6.95389">
        <ele>760</ele>
        <time>2022-10-31T13:40:39.000Z</time>
      </trkpt>
      <trkpt lat="47.97411" lon="6.95393">
        <ele>759.80004882812</ele>
        <time>2022-10-31T13:40:44.000Z</time>
      </trkpt>
      <trkpt lat="47.9741" lon="6.95395">
        <ele>759.59997558594</ele>
        <time>2022-10-31T13:40:45.000Z</time>
      </trkpt>
      <trkpt lat="47.97408" lon="6.95396">
        <ele>759.59997558594</ele>
        <time>2022-10-31T13:40:47.000Z</time>
      </trkpt>
      <trkpt lat="47.97407" lon="6.95396">
        <ele>759.59997558594</ele>
        <time>2022-10-31T13:40:54.000Z</time>
      </trkpt>
      <trkpt lat="47.97408" lon="6.95392">
        <ele>759.40002441406</ele>
        <time>2022-10-31T13:41:02.000Z</time>
      </trkpt>
      <trkpt lat="47.97408" lon="6.95396">
        <ele>759.19995117188</ele>
        <time>2022-10-31T13:41:09.000Z</time>
      </trkpt>
      <trkpt lat="47.9741" lon="6.954">
        <ele>759</ele>
        <time>2022-10-31T13:41:18.000Z</time>
      </trkpt>
      <trkpt lat="47.97411" lon="6.95402">
        <ele>759</ele>
        <time>2022-10-31T13:41:19.000Z</time>
      </trkpt>
      <trkpt lat="47.97415" lon="6.9541">
        <ele>758.59997558594</ele>
        <time>2022-10-31T13:41:25.000Z</time>
      </trkpt>
      <trkpt lat="47.97416" lon="6.95415">
        <ele>758.40002441406</ele>
        <time>2022-10-31T13:41:28.000Z</time>
      </trkpt>
      <trkpt lat="47.97415" lon="6.95416">
        <ele>758</ele>
        <time>2022-10-31T13:41:32.000Z</time>
      </trkpt>
      <trkpt lat="47.97414" lon="6.95417">
        <ele>757.80004882812</ele>
        <time>2022-10-31T13:41:34.000Z</time>
      </trkpt>
      <trkpt lat="47.97414" lon="6.95418">
        <ele>757.40002441406</ele>
        <time>2022-10-31T13:41:35.000Z</time>
      </trkpt>
      <trkpt lat="47.97413" lon="6.95419">
        <ele>757</ele>
        <time>2022-10-31T13:41:38.000Z</time>
      </trkpt>
      <trkpt lat="47.97413" lon="6.95424">
        <ele>756.40002441406</ele>
        <time>2022-10-31T13:41:43.000Z</time>
      </trkpt>
      <trkpt lat="47.97413" lon="6.95424">
        <ele>756.19995117188</ele>
        <time>2022-10-31T13:41:44.000Z</time>
      </trkpt>
      <trkpt lat="47.97413" lon="6.95419">
        <ele>755.59997558594</ele>
        <time>2022-10-31T13:41:51.000Z</time>
      </trkpt>
      <trkpt lat="47.97413" lon="6.95424">
        <ele>755.19995117188</ele>
        <time>2022-10-31T13:41:55.000Z</time>
      </trkpt>
      <trkpt lat="47.97414" lon="6.95429">
        <ele>754.19995117188</ele>
        <time>2022-10-31T13:42:01.000Z</time>
      </trkpt>
      <trkpt lat="47.97414" lon="6.95433">
        <ele>753.59997558594</ele>
        <time>2022-10-31T13:42:04.000Z</time>
      </trkpt>
      <trkpt lat="47.97414" lon="6.95435">
        <ele>753</ele>
        <time>2022-10-31T13:42:07.000Z</time>
      </trkpt>
      <trkpt lat="47.97416" lon="6.95437">
        <ele>752.59997558594</ele>
        <time>2022-10-31T13:42:11.000Z</time>
      </trkpt>
      <trkpt lat="47.97417" lon="6.95438">
        <ele>752.40002441406</ele>
        <time>2022-10-31T13:42:19.000Z</time>
      </trkpt>
      <trkpt lat="47.97419" lon="6.95441">
        <ele>752.40002441406</ele>
        <time>2022-10-31T13:42:24.000Z</time>
      </trkpt>
      <trkpt lat="47.97418" lon="6.95443">
        <ele>752.19995117188</ele>
        <time>2022-10-31T13:42:29.000Z</time>
      </trkpt>
      <trkpt lat="47.97418" lon="6.95444">
        <ele>752.19995117188</ele>
        <time>2022-10-31T13:42:30.000Z</time>
      </trkpt>
      <trkpt lat="47.9742" lon="6.95447">
        <ele>752</ele>
        <time>2022-10-31T13:42:35.000Z</time>
      </trkpt>
      <trkpt lat="47.9742" lon="6.95448">
        <ele>752</ele>
        <time>2022-10-31T13:42:37.000Z</time>
      </trkpt>
      <trkpt lat="47.9742" lon="6.95447">
        <ele>751.80004882812</ele>
        <time>2022-10-31T13:42:44.000Z</time>
      </trkpt>
      <trkpt lat="47.97422" lon="6.95449">
        <ele>751.59997558594</ele>
        <time>2022-10-31T13:42:49.000Z</time>
      </trkpt>
      <trkpt lat="47.97423" lon="6.95454">
        <ele>751.59997558594</ele>
        <time>2022-10-31T13:42:52.000Z</time>
      </trkpt>
      <trkpt lat="47.97423" lon="6.95455">
        <ele>751</ele>
        <time>2022-10-31T13:43:09.000Z</time>
      </trkpt>
      <trkpt lat="47.97423" lon="6.95456">
        <ele>750.40002441406</ele>
        <time>2022-10-31T13:43:14.000Z</time>
      </trkpt>
      <trkpt lat="47.97423" lon="6.95456">
        <ele>750</ele>
        <time>2022-10-31T13:43:16.000Z</time>
      </trkpt>
      <trkpt lat="47.97423" lon="6.95457">
        <ele>750</ele>
        <time>2022-10-31T13:43:17.000Z</time>
      </trkpt>
      <trkpt lat="47.97423" lon="6.95458">
        <ele>749.59997558594</ele>
        <time>2022-10-31T13:43:24.000Z</time>
      </trkpt>
      <trkpt lat="47.97423" lon="6.95458">
        <ele>749.59997558594</ele>
        <time>2022-10-31T13:43:26.000Z</time>
      </trkpt>
      <trkpt lat="47.97426" lon="6.95464">
        <ele>749.19995117188</ele>
        <time>2022-10-31T13:43:35.000Z</time>
      </trkpt>
      <trkpt lat="47.97429" lon="6.95466">
        <ele>749</ele>
        <time>2022-10-31T13:43:38.000Z</time>
      </trkpt>
      <trkpt lat="47.97431" lon="6.95467">
        <ele>748.80004882812</ele>
        <time>2022-10-31T13:43:42.000Z</time>
      </trkpt>
      <trkpt lat="47.97432" lon="6.95471">
        <ele>748.59997558594</ele>
        <time>2022-10-31T13:43:47.000Z</time>
      </trkpt>
      <trkpt lat="47.97433" lon="6.95474">
        <ele>748.59997558594</ele>
        <time>2022-10-31T13:43:49.000Z</time>
      </trkpt>
      <trkpt lat="47.97434" lon="6.95477">
        <ele>749</ele>
        <time>2022-10-31T13:43:55.000Z</time>
      </trkpt>
      <trkpt lat="47.97434" lon="6.9548">
        <ele>749</ele>
        <time>2022-10-31T13:44:00.000Z</time>
      </trkpt>
      <trkpt lat="47.97436" lon="6.95493">
        <ele>748.80004882812</ele>
        <time>2022-10-31T13:44:08.000Z</time>
      </trkpt>
      <trkpt lat="47.97437" lon="6.95501">
        <ele>748.19995117188</ele>
        <time>2022-10-31T13:44:13.000Z</time>
      </trkpt>
      <trkpt lat="47.97439" lon="6.95507">
        <ele>747.80004882812</ele>
        <time>2022-10-31T13:44:16.000Z</time>
      </trkpt>
      <trkpt lat="47.9744" lon="6.95507">
        <ele>747.80004882812</ele>
        <time>2022-10-31T13:44:19.000Z</time>
      </trkpt>
      <trkpt lat="47.97436" lon="6.95505">
        <ele>747.80004882812</ele>
        <time>2022-10-31T13:44:25.000Z</time>
      </trkpt>
      <trkpt lat="47.97436" lon="6.95507">
        <ele>747.80004882812</ele>
        <time>2022-10-31T13:44:28.000Z</time>
      </trkpt>
      <trkpt lat="47.97436" lon="6.95507">
        <ele>747.80004882812</ele>
        <time>2022-10-31T13:44:29.000Z</time>
      </trkpt>
      <trkpt lat="47.97437" lon="6.95509">
        <ele>747.80004882812</ele>
        <time>2022-10-31T13:44:31.000Z</time>
      </trkpt>
      <trkpt lat="47.97437" lon="6.95509">
        <ele>747.80004882812</ele>
        <time>2022-10-31T13:44:33.000Z</time>
      </trkpt>
      <trkpt lat="47.97437" lon="6.95509">
        <ele>746.80004882812</ele>
        <time>2022-10-31T13:44:43.000Z</time>
      </trkpt>
      <trkpt lat="47.97437" lon="6.95518">
        <ele>746.19995117188</ele>
        <time>2022-10-31T13:44:58.000Z</time>
      </trkpt>
      <trkpt lat="47.97437" lon="6.95521">
        <ele>746</ele>
        <time>2022-10-31T13:45:02.000Z</time>
      </trkpt>
      <trkpt lat="47.97437" lon="6.95525">
        <ele>746</ele>
        <time>2022-10-31T13:45:06.000Z</time>
      </trkpt>
      <trkpt lat="47.97435" lon="6.95526">
        <ele>746</ele>
        <time>2022-10-31T13:45:10.000Z</time>
      </trkpt>
      <trkpt lat="47.97433" lon="6.95529">
        <ele>746</ele>
        <time>2022-10-31T13:45:16.000Z</time>
      </trkpt>
      <trkpt lat="47.97432" lon="6.9553">
        <ele>746</ele>
        <time>2022-10-31T13:45:21.000Z</time>
      </trkpt>
      <trkpt lat="47.97432" lon="6.9553">
        <ele>745.80004882812</ele>
        <time>2022-10-31T13:45:29.000Z</time>
      </trkpt>
      <trkpt lat="47.97433" lon="6.95528">
        <ele>745.40002441406</ele>
        <time>2022-10-31T13:46:04.000Z</time>
      </trkpt>
      <trkpt lat="47.97433" lon="6.9553">
        <ele>745.40002441406</ele>
        <time>2022-10-31T13:46:11.000Z</time>
      </trkpt>
      <trkpt lat="47.97433" lon="6.9553">
        <ele>745.40002441406</ele>
        <time>2022-10-31T13:46:12.000Z</time>
      </trkpt>
      <trkpt lat="47.97434" lon="6.95531">
        <ele>745.40002441406</ele>
        <time>2022-10-31T13:46:17.000Z</time>
      </trkpt>
      <trkpt lat="47.97435" lon="6.95536">
        <ele>745.19995117188</ele>
        <time>2022-10-31T13:46:31.000Z</time>
      </trkpt>
      <trkpt lat="47.97437" lon="6.95538">
        <ele>745.19995117188</ele>
        <time>2022-10-31T13:46:42.000Z</time>
      </trkpt>
      <trkpt lat="47.97437" lon="6.95538">
        <ele>745.19995117188</ele>
        <time>2022-10-31T13:46:56.000Z</time>
      </trkpt>
      <trkpt lat="47.97436" lon="6.95539">
        <ele>745.59997558594</ele>
        <time>2022-10-31T13:47:01.000Z</time>
      </trkpt>
      <trkpt lat="47.97436" lon="6.95539">
        <ele>745.59997558594</ele>
        <time>2022-10-31T13:47:02.000Z</time>
      </trkpt>
      <trkpt lat="47.97436" lon="6.95539">
        <ele>745.59997558594</ele>
        <time>2022-10-31T13:47:03.000Z</time>
      </trkpt>
      <trkpt lat="47.97436" lon="6.95539">
        <ele>745.40002441406</ele>
        <time>2022-10-31T13:47:09.000Z</time>
      </trkpt>
      <trkpt lat="47.97436" lon="6.9554">
        <ele>745.40002441406</ele>
        <time>2022-10-31T13:47:20.000Z</time>
      </trkpt>
      <trkpt lat="47.97433" lon="6.95542">
        <ele>744.80004882812</ele>
        <time>2022-10-31T13:47:39.000Z</time>
      </trkpt>
      <trkpt lat="47.97434" lon="6.95546">
        <ele>743.59997558594</ele>
        <time>2022-10-31T13:47:46.000Z</time>
      </trkpt>
      <trkpt lat="47.97434" lon="6.95548">
        <ele>743.40002441406</ele>
        <time>2022-10-31T13:47:47.000Z</time>
      </trkpt>
      <trkpt lat="47.97438" lon="6.95552">
        <ele>742.59997558594</ele>
        <time>2022-10-31T13:47:52.000Z</time>
      </trkpt>
      <trkpt lat="47.97438" lon="6.95553">
        <ele>742.59997558594</ele>
        <time>2022-10-31T13:47:53.000Z</time>
      </trkpt>
      <trkpt lat="47.9744" lon="6.95554">
        <ele>741.80004882812</ele>
        <time>2022-10-31T13:47:56.000Z</time>
      </trkpt>
      <trkpt lat="47.9744" lon="6.95556">
        <ele>741.19995117188</ele>
        <time>2022-10-31T13:47:59.000Z</time>
      </trkpt>
      <trkpt lat="47.9744" lon="6.95557">
        <ele>740.80004882812</ele>
        <time>2022-10-31T13:48:00.000Z</time>
      </trkpt>
      <trkpt lat="47.97443" lon="6.9556">
        <ele>740</ele>
        <time>2022-10-31T13:48:05.000Z</time>
      </trkpt>
      <trkpt lat="47.97444" lon="6.95562">
        <ele>739.80004882812</ele>
        <time>2022-10-31T13:48:07.000Z</time>
      </trkpt>
      <trkpt lat="47.97444" lon="6.95565">
        <ele>739</ele>
        <time>2022-10-31T13:48:12.000Z</time>
      </trkpt>
      <trkpt lat="47.97445" lon="6.95564">
        <ele>738.19995117188</ele>
        <time>2022-10-31T13:48:17.000Z</time>
      </trkpt>
      <trkpt lat="47.97444" lon="6.95561">
        <ele>738</ele>
        <time>2022-10-31T13:48:19.000Z</time>
      </trkpt>
      <trkpt lat="47.97441" lon="6.95558">
        <ele>738</ele>
        <time>2022-10-31T13:48:24.000Z</time>
      </trkpt>
      <trkpt lat="47.97441" lon="6.95558">
        <ele>738</ele>
        <time>2022-10-31T13:48:33.000Z</time>
      </trkpt>
      <trkpt lat="47.97441" lon="6.95556">
        <ele>738</ele>
        <time>2022-10-31T13:48:45.000Z</time>
      </trkpt>
      <trkpt lat="47.97442" lon="6.95556">
        <ele>738</ele>
        <time>2022-10-31T13:48:49.000Z</time>
      </trkpt>
      <trkpt lat="47.97442" lon="6.95556">
        <ele>738</ele>
        <time>2022-10-31T13:48:52.000Z</time>
      </trkpt>
      <trkpt lat="47.97442" lon="6.95556">
        <ele>737.80004882812</ele>
        <time>2022-10-31T13:48:57.000Z</time>
      </trkpt>
      <trkpt lat="47.97442" lon="6.95556">
        <ele>737.40002441406</ele>
        <time>2022-10-31T13:49:01.000Z</time>
      </trkpt>
      <trkpt lat="47.97442" lon="6.95556">
        <ele>736.80004882812</ele>
        <time>2022-10-31T13:49:05.000Z</time>
      </trkpt>
      <trkpt lat="47.97445" lon="6.95562">
        <ele>736.59997558594</ele>
        <time>2022-10-31T13:49:17.000Z</time>
      </trkpt>
      <trkpt lat="47.97445" lon="6.95562">
        <ele>736.40002441406</ele>
        <time>2022-10-31T13:49:27.000Z</time>
      </trkpt>
      <trkpt lat="47.97444" lon="6.95562">
        <ele>735.80004882812</ele>
        <time>2022-10-31T13:49:31.000Z</time>
      </trkpt>
      <trkpt lat="47.97444" lon="6.95562">
        <ele>734.59997558594</ele>
        <time>2022-10-31T13:49:37.000Z</time>
      </trkpt>
      <trkpt lat="47.97449" lon="6.95575">
        <ele>733.59997558594</ele>
        <time>2022-10-31T13:49:43.000Z</time>
      </trkpt>
      <trkpt lat="47.97453" lon="6.95588">
        <ele>732.59997558594</ele>
        <time>2022-10-31T13:49:48.000Z</time>
      </trkpt>
      <trkpt lat="47.97454" lon="6.95589">
        <ele>732.59997558594</ele>
        <time>2022-10-31T13:49:49.000Z</time>
      </trkpt>
      <trkpt lat="47.97454" lon="6.95594">
        <ele>732</ele>
        <time>2022-10-31T13:49:54.000Z</time>
      </trkpt>
      <trkpt lat="47.97455" lon="6.95598">
        <ele>731.40002441406</ele>
        <time>2022-10-31T13:49:57.000Z</time>
      </trkpt>
      <trkpt lat="47.97456" lon="6.95604">
        <ele>731</ele>
        <time>2022-10-31T13:50:01.000Z</time>
      </trkpt>
      <trkpt lat="47.97457" lon="6.95608">
        <ele>730.19995117188</ele>
        <time>2022-10-31T13:50:04.000Z</time>
      </trkpt>
      <trkpt lat="47.97456" lon="6.95614">
        <ele>729.19995117188</ele>
        <time>2022-10-31T13:50:09.000Z</time>
      </trkpt>
      <trkpt lat="47.97455" lon="6.9562">
        <ele>728.40002441406</ele>
        <time>2022-10-31T13:50:15.000Z</time>
      </trkpt>
      <trkpt lat="47.97455" lon="6.95622">
        <ele>728.19995117188</ele>
        <time>2022-10-31T13:50:19.000Z</time>
      </trkpt>
      <trkpt lat="47.97455" lon="6.95625">
        <ele>728</ele>
        <time>2022-10-31T13:50:24.000Z</time>
      </trkpt>
      <trkpt lat="47.97456" lon="6.95628">
        <ele>727.40002441406</ele>
        <time>2022-10-31T13:50:29.000Z</time>
      </trkpt>
      <trkpt lat="47.97455" lon="6.9563">
        <ele>727</ele>
        <time>2022-10-31T13:50:31.000Z</time>
      </trkpt>
      <trkpt lat="47.97456" lon="6.95631">
        <ele>726.59997558594</ele>
        <time>2022-10-31T13:50:35.000Z</time>
      </trkpt>
      <trkpt lat="47.97456" lon="6.95632">
        <ele>726.19995117188</ele>
        <time>2022-10-31T13:50:37.000Z</time>
      </trkpt>
      <trkpt lat="47.97456" lon="6.95633">
        <ele>726</ele>
        <time>2022-10-31T13:50:38.000Z</time>
      </trkpt>
      <trkpt lat="47.97457" lon="6.95635">
        <ele>725.80004882812</ele>
        <time>2022-10-31T13:50:40.000Z</time>
      </trkpt>
      <trkpt lat="47.97462" lon="6.95634">
        <ele>725</ele>
        <time>2022-10-31T13:50:45.000Z</time>
      </trkpt>
      <trkpt lat="47.97461" lon="6.95637">
        <ele>724.80004882812</ele>
        <time>2022-10-31T13:50:47.000Z</time>
      </trkpt>
      <trkpt lat="47.9746" lon="6.95639">
        <ele>724.80004882812</ele>
        <time>2022-10-31T13:50:48.000Z</time>
      </trkpt>
      <trkpt lat="47.97461" lon="6.95642">
        <ele>723.80004882812</ele>
        <time>2022-10-31T13:50:54.000Z</time>
      </trkpt>
      <trkpt lat="47.97463" lon="6.95645">
        <ele>723.19995117188</ele>
        <time>2022-10-31T13:50:58.000Z</time>
      </trkpt>
      <trkpt lat="47.97464" lon="6.95646">
        <ele>723</ele>
        <time>2022-10-31T13:51:00.000Z</time>
      </trkpt>
      <trkpt lat="47.97464" lon="6.95646">
        <ele>722.59997558594</ele>
        <time>2022-10-31T13:51:01.000Z</time>
      </trkpt>
      <trkpt lat="47.97466" lon="6.95649">
        <ele>722.19995117188</ele>
        <time>2022-10-31T13:51:06.000Z</time>
      </trkpt>
      <trkpt lat="47.97467" lon="6.9565">
        <ele>721.80004882812</ele>
        <time>2022-10-31T13:51:07.000Z</time>
      </trkpt>
      <trkpt lat="47.97467" lon="6.9565">
        <ele>721.59997558594</ele>
        <time>2022-10-31T13:51:08.000Z</time>
      </trkpt>
      <trkpt lat="47.97466" lon="6.95653">
        <ele>721</ele>
        <time>2022-10-31T13:51:12.000Z</time>
      </trkpt>
      <trkpt lat="47.97467" lon="6.95657">
        <ele>720.80004882812</ele>
        <time>2022-10-31T13:51:14.000Z</time>
      </trkpt>
      <trkpt lat="47.97467" lon="6.95663">
        <ele>720.40002441406</ele>
        <time>2022-10-31T13:51:17.000Z</time>
      </trkpt>
      <trkpt lat="47.97467" lon="6.95667">
        <ele>720.19995117188</ele>
        <time>2022-10-31T13:51:19.000Z</time>
      </trkpt>
      <trkpt lat="47.9747" lon="6.95669">
        <ele>719.59997558594</ele>
        <time>2022-10-31T13:51:26.000Z</time>
      </trkpt>
      <trkpt lat="47.97469" lon="6.95672">
        <ele>719.59997558594</ele>
        <time>2022-10-31T13:51:32.000Z</time>
      </trkpt>
      <trkpt lat="47.97469" lon="6.95672">
        <ele>719.59997558594</ele>
        <time>2022-10-31T13:51:33.000Z</time>
      </trkpt>
      <trkpt lat="47.9747" lon="6.95672">
        <ele>719.40002441406</ele>
        <time>2022-10-31T13:51:37.000Z</time>
      </trkpt>
      <trkpt lat="47.97469" lon="6.95674">
        <ele>719.19995117188</ele>
        <time>2022-10-31T13:51:40.000Z</time>
      </trkpt>
      <trkpt lat="47.97469" lon="6.95675">
        <ele>719.19995117188</ele>
        <time>2022-10-31T13:51:45.000Z</time>
      </trkpt>
      <trkpt lat="47.97469" lon="6.95678">
        <ele>718.59997558594</ele>
        <time>2022-10-31T13:51:50.000Z</time>
      </trkpt>
      <trkpt lat="47.97469" lon="6.95679">
        <ele>718.40002441406</ele>
        <time>2022-10-31T13:51:52.000Z</time>
      </trkpt>
      <trkpt lat="47.9747" lon="6.95679">
        <ele>718.19995117188</ele>
        <time>2022-10-31T13:51:53.000Z</time>
      </trkpt>
      <trkpt lat="47.97471" lon="6.95683">
        <ele>717.19995117188</ele>
        <time>2022-10-31T13:51:59.000Z</time>
      </trkpt>
      <trkpt lat="47.97471" lon="6.95685">
        <ele>717</ele>
        <time>2022-10-31T13:52:00.000Z</time>
      </trkpt>
      <trkpt lat="47.97473" lon="6.95689">
        <ele>716.19995117188</ele>
        <time>2022-10-31T13:52:06.000Z</time>
      </trkpt>
      <trkpt lat="47.97474" lon="6.95698">
        <ele>715</ele>
        <time>2022-10-31T13:52:11.000Z</time>
      </trkpt>
      <trkpt lat="47.97473" lon="6.95701">
        <ele>714.59997558594</ele>
        <time>2022-10-31T13:52:13.000Z</time>
      </trkpt>
      <trkpt lat="47.97476" lon="6.95706">
        <ele>714</ele>
        <time>2022-10-31T13:52:18.000Z</time>
      </trkpt>
      <trkpt lat="47.97476" lon="6.95708">
        <ele>713.80004882812</ele>
        <time>2022-10-31T13:52:19.000Z</time>
      </trkpt>
      <trkpt lat="47.97475" lon="6.95706">
        <ele>713.40002441406</ele>
        <time>2022-10-31T13:52:23.000Z</time>
      </trkpt>
      <trkpt lat="47.97476" lon="6.9571">
        <ele>713.19995117188</ele>
        <time>2022-10-31T13:52:27.000Z</time>
      </trkpt>
      <trkpt lat="47.97475" lon="6.95711">
        <ele>713</ele>
        <time>2022-10-31T13:52:28.000Z</time>
      </trkpt>
      <trkpt lat="47.97475" lon="6.95711">
        <ele>713</ele>
        <time>2022-10-31T13:52:29.000Z</time>
      </trkpt>
      <trkpt lat="47.97475" lon="6.95712">
        <ele>712.80004882812</ele>
        <time>2022-10-31T13:52:36.000Z</time>
      </trkpt>
      <trkpt lat="47.97475" lon="6.95712">
        <ele>712.59997558594</ele>
        <time>2022-10-31T13:52:46.000Z</time>
      </trkpt>
      <trkpt lat="47.97475" lon="6.95717">
        <ele>712</ele>
        <time>2022-10-31T13:52:56.000Z</time>
      </trkpt>
      <trkpt lat="47.97475" lon="6.9572">
        <ele>712</ele>
        <time>2022-10-31T13:52:59.000Z</time>
      </trkpt>
      <trkpt lat="47.97472" lon="6.95723">
        <ele>712</ele>
        <time>2022-10-31T13:53:08.000Z</time>
      </trkpt>
      <trkpt lat="47.97471" lon="6.95724">
        <ele>712</ele>
        <time>2022-10-31T13:53:10.000Z</time>
      </trkpt>
      <trkpt lat="47.97464" lon="6.95729">
        <ele>710.80004882812</ele>
        <time>2022-10-31T13:53:18.000Z</time>
      </trkpt>
      <trkpt lat="47.97453" lon="6.95741">
        <ele>709.80004882812</ele>
        <time>2022-10-31T13:53:27.000Z</time>
      </trkpt>
      <trkpt lat="47.97452" lon="6.95741">
        <ele>709.59997558594</ele>
        <time>2022-10-31T13:53:29.000Z</time>
      </trkpt>
      <trkpt lat="47.97449" lon="6.95744">
        <ele>709.19995117188</ele>
        <time>2022-10-31T13:53:32.000Z</time>
      </trkpt>
      <trkpt lat="47.97449" lon="6.95744">
        <ele>709.19995117188</ele>
        <time>2022-10-31T13:53:33.000Z</time>
      </trkpt>
      <trkpt lat="47.97447" lon="6.95747">
        <ele>708.80004882812</ele>
        <time>2022-10-31T13:53:37.000Z</time>
      </trkpt>
      <trkpt lat="47.97446" lon="6.95748">
        <ele>708.80004882812</ele>
        <time>2022-10-31T13:53:38.000Z</time>
      </trkpt>
      <trkpt lat="47.97444" lon="6.9575">
        <ele>708.80004882812</ele>
        <time>2022-10-31T13:53:39.000Z</time>
      </trkpt>
      <trkpt lat="47.97444" lon="6.95751">
        <ele>708.80004882812</ele>
        <time>2022-10-31T13:53:40.000Z</time>
      </trkpt>
      <trkpt lat="47.97444" lon="6.95753">
        <ele>709.19995117188</ele>
        <time>2022-10-31T13:53:42.000Z</time>
      </trkpt>
      <trkpt lat="47.97444" lon="6.95755">
        <ele>709.19995117188</ele>
        <time>2022-10-31T13:53:44.000Z</time>
      </trkpt>
      <trkpt lat="47.9744" lon="6.95762">
        <ele>709.59997558594</ele>
        <time>2022-10-31T13:53:49.000Z</time>
      </trkpt>
      <trkpt lat="47.97437" lon="6.95765">
        <ele>709.80004882812</ele>
        <time>2022-10-31T13:53:51.000Z</time>
      </trkpt>
      <trkpt lat="47.97434" lon="6.95768">
        <ele>709.80004882812</ele>
        <time>2022-10-31T13:53:53.000Z</time>
      </trkpt>
      <trkpt lat="47.97428" lon="6.95773">
        <ele>710</ele>
        <time>2022-10-31T13:53:58.000Z</time>
      </trkpt>
      <trkpt lat="47.97425" lon="6.9577">
        <ele>710.40002441406</ele>
        <time>2022-10-31T13:54:02.000Z</time>
      </trkpt>
      <trkpt lat="47.97424" lon="6.95769">
        <ele>710.80004882812</ele>
        <time>2022-10-31T13:54:05.000Z</time>
      </trkpt>
      <trkpt lat="47.97425" lon="6.95769">
        <ele>711</ele>
        <time>2022-10-31T13:54:07.000Z</time>
      </trkpt>
      <trkpt lat="47.97423" lon="6.95765">
        <ele>711.19995117188</ele>
        <time>2022-10-31T13:54:12.000Z</time>
      </trkpt>
      <trkpt lat="47.97424" lon="6.95763">
        <ele>711.40002441406</ele>
        <time>2022-10-31T13:54:15.000Z</time>
      </trkpt>
      <trkpt lat="47.97425" lon="6.95763">
        <ele>711.59997558594</ele>
        <time>2022-10-31T13:54:18.000Z</time>
      </trkpt>
      <trkpt lat="47.97426" lon="6.95762">
        <ele>711.40002441406</ele>
        <time>2022-10-31T13:54:31.000Z</time>
      </trkpt>
      <trkpt lat="47.97427" lon="6.95761">
        <ele>711.40002441406</ele>
        <time>2022-10-31T13:54:39.000Z</time>
      </trkpt>
      <trkpt lat="47.97428" lon="6.95759">
        <ele>711.19995117188</ele>
        <time>2022-10-31T13:54:51.000Z</time>
      </trkpt>
      <trkpt lat="47.97428" lon="6.95759">
        <ele>711.19995117188</ele>
        <time>2022-10-31T13:54:55.000Z</time>
      </trkpt>
      <trkpt lat="47.97427" lon="6.95759">
        <ele>711.19995117188</ele>
        <time>2022-10-31T13:55:07.000Z</time>
      </trkpt>
      <trkpt lat="47.97427" lon="6.95759">
        <ele>711.19995117188</ele>
        <time>2022-10-31T13:55:08.000Z</time>
      </trkpt>
      <trkpt lat="47.97436" lon="6.95754">
        <ele>711</ele>
        <time>2022-10-31T13:56:04.000Z</time>
      </trkpt>
      <trkpt lat="47.97435" lon="6.95755">
        <ele>711</ele>
        <time>2022-10-31T13:56:14.000Z</time>
      </trkpt>
      <trkpt lat="47.97434" lon="6.95755">
        <ele>711</ele>
        <time>2022-10-31T13:56:17.000Z</time>
      </trkpt>
      <trkpt lat="47.97432" lon="6.95755">
        <ele>711</ele>
        <time>2022-10-31T13:56:21.000Z</time>
      </trkpt>
      <trkpt lat="47.97426" lon="6.95732">
        <ele>711</ele>
        <time>2022-10-31T14:36:21.000Z</time>
      </trkpt>
      <trkpt lat="47.97427" lon="6.95743">
        <ele>711.40002441406</ele>
        <time>2022-10-31T14:36:37.000Z</time>
      </trkpt>
      <trkpt lat="47.97427" lon="6.95744">
        <ele>711.40002441406</ele>
        <time>2022-10-31T14:36:39.000Z</time>
      </trkpt>
      <trkpt lat="47.97428" lon="6.95744">
        <ele>711.40002441406</ele>
        <time>2022-10-31T14:36:40.000Z</time>
      </trkpt>
      <trkpt lat="47.97428" lon="6.95745">
        <ele>711.40002441406</ele>
        <time>2022-10-31T14:36:41.000Z</time>
      </trkpt>
      <trkpt lat="47.9743" lon="6.95743">
        <ele>711.19995117188</ele>
        <time>2022-10-31T14:36:51.000Z</time>
      </trkpt>
      <trkpt lat="47.97437" lon="6.95745">
        <ele>710.40002441406</ele>
        <time>2022-10-31T14:37:12.000Z</time>
      </trkpt>
      <trkpt lat="47.9744" lon="6.95746">
        <ele>710.19995117188</ele>
        <time>2022-10-31T14:37:19.000Z</time>
      </trkpt>
      <trkpt lat="47.97441" lon="6.95745">
        <ele>709.80004882812</ele>
        <time>2022-10-31T14:37:23.000Z</time>
      </trkpt>
      <trkpt lat="47.97442" lon="6.95743">
        <ele>709.80004882812</ele>
        <time>2022-10-31T14:37:25.000Z</time>
      </trkpt>
      <trkpt lat="47.97448" lon="6.95738">
        <ele>709.59997558594</ele>
        <time>2022-10-31T14:37:33.000Z</time>
      </trkpt>
      <trkpt lat="47.9745" lon="6.95738">
        <ele>709.40002441406</ele>
        <time>2022-10-31T14:37:41.000Z</time>
      </trkpt>
      <trkpt lat="47.97451" lon="6.95737">
        <ele>709.40002441406</ele>
        <time>2022-10-31T14:37:45.000Z</time>
      </trkpt>
      <trkpt lat="47.97452" lon="6.95738">
        <ele>709.40002441406</ele>
        <time>2022-10-31T14:37:48.000Z</time>
      </trkpt>
      <trkpt lat="47.97453" lon="6.95741">
        <ele>709.40002441406</ele>
        <time>2022-10-31T14:37:56.000Z</time>
      </trkpt>
      <trkpt lat="47.97456" lon="6.95738">
        <ele>709.80004882812</ele>
        <time>2022-10-31T14:38:02.000Z</time>
      </trkpt>
      <trkpt lat="47.9746" lon="6.95733">
        <ele>710.40002441406</ele>
        <time>2022-10-31T14:38:08.000Z</time>
      </trkpt>
      <trkpt lat="47.97463" lon="6.95728">
        <ele>710.80004882812</ele>
        <time>2022-10-31T14:38:13.000Z</time>
      </trkpt>
      <trkpt lat="47.97463" lon="6.95726">
        <ele>710.80004882812</ele>
        <time>2022-10-31T14:38:16.000Z</time>
      </trkpt>
      <trkpt lat="47.97465" lon="6.95721">
        <ele>710.80004882812</ele>
        <time>2022-10-31T14:38:20.000Z</time>
      </trkpt>
      <trkpt lat="47.97466" lon="6.95719">
        <ele>711</ele>
        <time>2022-10-31T14:38:22.000Z</time>
      </trkpt>
      <trkpt lat="47.97466" lon="6.95719">
        <ele>711</ele>
        <time>2022-10-31T14:38:23.000Z</time>
      </trkpt>
      <trkpt lat="47.97473" lon="6.95709">
        <ele>712</ele>
        <time>2022-10-31T14:38:32.000Z</time>
      </trkpt>
      <trkpt lat="47.9748" lon="6.95717">
        <ele>712.80004882812</ele>
        <time>2022-10-31T14:38:40.000Z</time>
      </trkpt>
      <trkpt lat="47.97485" lon="6.95719">
        <ele>713</ele>
        <time>2022-10-31T14:38:47.000Z</time>
      </trkpt>
      <trkpt lat="47.97485" lon="6.95718">
        <ele>713.19995117188</ele>
        <time>2022-10-31T14:38:48.000Z</time>
      </trkpt>
      <trkpt lat="47.97487" lon="6.95717">
        <ele>713.40002441406</ele>
        <time>2022-10-31T14:38:50.000Z</time>
      </trkpt>
      <trkpt lat="47.9749" lon="6.95717">
        <ele>713.59997558594</ele>
        <time>2022-10-31T14:38:54.000Z</time>
      </trkpt>
      <trkpt lat="47.97491" lon="6.95717">
        <ele>713.59997558594</ele>
        <time>2022-10-31T14:38:55.000Z</time>
      </trkpt>
      <trkpt lat="47.97492" lon="6.95718">
        <ele>713.59997558594</ele>
        <time>2022-10-31T14:38:57.000Z</time>
      </trkpt>
      <trkpt lat="47.97494" lon="6.95721">
        <ele>713.40002441406</ele>
        <time>2022-10-31T14:39:00.000Z</time>
      </trkpt>
      <trkpt lat="47.97495" lon="6.95722">
        <ele>713.40002441406</ele>
        <time>2022-10-31T14:39:01.000Z</time>
      </trkpt>
      <trkpt lat="47.97492" lon="6.9573">
        <ele>713.19995117188</ele>
        <time>2022-10-31T14:39:07.000Z</time>
      </trkpt>
      <trkpt lat="47.97495" lon="6.95732">
        <ele>713.19995117188</ele>
        <time>2022-10-31T14:39:15.000Z</time>
      </trkpt>
      <trkpt lat="47.97498" lon="6.95732">
        <ele>713.19995117188</ele>
        <time>2022-10-31T14:39:19.000Z</time>
      </trkpt>
      <trkpt lat="47.975" lon="6.95733">
        <ele>713</ele>
        <time>2022-10-31T14:39:21.000Z</time>
      </trkpt>
      <trkpt lat="47.97501" lon="6.95733">
        <ele>712.80004882812</ele>
        <time>2022-10-31T14:39:22.000Z</time>
      </trkpt>
      <trkpt lat="47.97503" lon="6.95732">
        <ele>712.59997558594</ele>
        <time>2022-10-31T14:39:24.000Z</time>
      </trkpt>
      <trkpt lat="47.97504" lon="6.95732">
        <ele>712.59997558594</ele>
        <time>2022-10-31T14:39:26.000Z</time>
      </trkpt>
      <trkpt lat="47.97506" lon="6.95729">
        <ele>712.59997558594</ele>
        <time>2022-10-31T14:39:30.000Z</time>
      </trkpt>
      <trkpt lat="47.97511" lon="6.95728">
        <ele>712.40002441406</ele>
        <time>2022-10-31T14:39:35.000Z</time>
      </trkpt>
      <trkpt lat="47.97516" lon="6.9573">
        <ele>712.59997558594</ele>
        <time>2022-10-31T14:39:41.000Z</time>
      </trkpt>
      <trkpt lat="47.97519" lon="6.95732">
        <ele>712.59997558594</ele>
        <time>2022-10-31T14:39:45.000Z</time>
      </trkpt>
      <trkpt lat="47.97521" lon="6.95732">
        <ele>712.59997558594</ele>
        <time>2022-10-31T14:39:48.000Z</time>
      </trkpt>
      <trkpt lat="47.9752" lon="6.95734">
        <ele>712.59997558594</ele>
        <time>2022-10-31T14:39:50.000Z</time>
      </trkpt>
      <trkpt lat="47.97521" lon="6.95735">
        <ele>712.59997558594</ele>
        <time>2022-10-31T14:39:53.000Z</time>
      </trkpt>
      <trkpt lat="47.97522" lon="6.95736">
        <ele>712.59997558594</ele>
        <time>2022-10-31T14:39:55.000Z</time>
      </trkpt>
      <trkpt lat="47.97523" lon="6.95736">
        <ele>712.40002441406</ele>
        <time>2022-10-31T14:39:56.000Z</time>
      </trkpt>
      <trkpt lat="47.97526" lon="6.95735">
        <ele>712.19995117188</ele>
        <time>2022-10-31T14:40:00.000Z</time>
      </trkpt>
      <trkpt lat="47.97526" lon="6.95735">
        <ele>712</ele>
        <time>2022-10-31T14:40:01.000Z</time>
      </trkpt>
      <trkpt lat="47.97528" lon="6.95736">
        <ele>711.40002441406</ele>
        <time>2022-10-31T14:40:05.000Z</time>
      </trkpt>
      <trkpt lat="47.97531" lon="6.95735">
        <ele>710.80004882812</ele>
        <time>2022-10-31T14:40:09.000Z</time>
      </trkpt>
      <trkpt lat="47.97532" lon="6.95735">
        <ele>710.80004882812</ele>
        <time>2022-10-31T14:40:10.000Z</time>
      </trkpt>
      <trkpt lat="47.97534" lon="6.95738">
        <ele>709.80004882812</ele>
        <time>2022-10-31T14:40:16.000Z</time>
      </trkpt>
      <trkpt lat="47.97536" lon="6.95739">
        <ele>709.40002441406</ele>
        <time>2022-10-31T14:40:19.000Z</time>
      </trkpt>
      <trkpt lat="47.97537" lon="6.95739">
        <ele>709.19995117188</ele>
        <time>2022-10-31T14:40:21.000Z</time>
      </trkpt>
      <trkpt lat="47.97539" lon="6.95739">
        <ele>708.59997558594</ele>
        <time>2022-10-31T14:40:25.000Z</time>
      </trkpt>
      <trkpt lat="47.9754" lon="6.95739">
        <ele>708.19995117188</ele>
        <time>2022-10-31T14:40:27.000Z</time>
      </trkpt>
      <trkpt lat="47.97544" lon="6.95741">
        <ele>707.59997558594</ele>
        <time>2022-10-31T14:40:32.000Z</time>
      </trkpt>
      <trkpt lat="47.97545" lon="6.95741">
        <ele>707.59997558594</ele>
        <time>2022-10-31T14:40:33.000Z</time>
      </trkpt>
      <trkpt lat="47.97551" lon="6.95743">
        <ele>706.59997558594</ele>
        <time>2022-10-31T14:40:38.000Z</time>
      </trkpt>
      <trkpt lat="47.97554" lon="6.95743">
        <ele>706.40002441406</ele>
        <time>2022-10-31T14:40:40.000Z</time>
      </trkpt>
      <trkpt lat="47.97556" lon="6.95745">
        <ele>705.80004882812</ele>
        <time>2022-10-31T14:40:43.000Z</time>
      </trkpt>
      <trkpt lat="47.97556" lon="6.95746">
        <ele>705.59997558594</ele>
        <time>2022-10-31T14:40:44.000Z</time>
      </trkpt>
      <trkpt lat="47.97556" lon="6.95747">
        <ele>705</ele>
        <time>2022-10-31T14:40:48.000Z</time>
      </trkpt>
      <trkpt lat="47.97558" lon="6.95748">
        <ele>704.40002441406</ele>
        <time>2022-10-31T14:40:52.000Z</time>
      </trkpt>
      <trkpt lat="47.97558" lon="6.95748">
        <ele>704.40002441406</ele>
        <time>2022-10-31T14:40:53.000Z</time>
      </trkpt>
      <trkpt lat="47.97559" lon="6.95747">
        <ele>704.19995117188</ele>
        <time>2022-10-31T14:40:59.000Z</time>
      </trkpt>
      <trkpt lat="47.9756" lon="6.95749">
        <ele>702.80004882812</ele>
        <time>2022-10-31T14:41:12.000Z</time>
      </trkpt>
      <trkpt lat="47.9756" lon="6.95751">
        <ele>702.40002441406</ele>
        <time>2022-10-31T14:41:14.000Z</time>
      </trkpt>
      <trkpt lat="47.97562" lon="6.95751">
        <ele>702.19995117188</ele>
        <time>2022-10-31T14:41:16.000Z</time>
      </trkpt>
      <trkpt lat="47.97566" lon="6.95754">
        <ele>701.40002441406</ele>
        <time>2022-10-31T14:41:22.000Z</time>
      </trkpt>
      <trkpt lat="47.97568" lon="6.95755">
        <ele>701.19995117188</ele>
        <time>2022-10-31T14:41:24.000Z</time>
      </trkpt>
      <trkpt lat="47.9757" lon="6.95754">
        <ele>701</ele>
        <time>2022-10-31T14:41:25.000Z</time>
      </trkpt>
      <trkpt lat="47.97569" lon="6.95757">
        <ele>700.59997558594</ele>
        <time>2022-10-31T14:41:31.000Z</time>
      </trkpt>
      <trkpt lat="47.97568" lon="6.95758">
        <ele>700.59997558594</ele>
        <time>2022-10-31T14:41:32.000Z</time>
      </trkpt>
      <trkpt lat="47.97567" lon="6.95758">
        <ele>700.59997558594</ele>
        <time>2022-10-31T14:41:33.000Z</time>
      </trkpt>
      <trkpt lat="47.97568" lon="6.95755">
        <ele>700.80004882812</ele>
        <time>2022-10-31T14:41:43.000Z</time>
      </trkpt>
      <trkpt lat="47.97568" lon="6.95755">
        <ele>700.59997558594</ele>
        <time>2022-10-31T14:41:47.000Z</time>
      </trkpt>
      <trkpt lat="47.9757" lon="6.95755">
        <ele>700.40002441406</ele>
        <time>2022-10-31T14:41:49.000Z</time>
      </trkpt>
      <trkpt lat="47.97571" lon="6.95755">
        <ele>700.19995117188</ele>
        <time>2022-10-31T14:41:50.000Z</time>
      </trkpt>
      <trkpt lat="47.97576" lon="6.95756">
        <ele>699.19995117188</ele>
        <time>2022-10-31T14:41:56.000Z</time>
      </trkpt>
      <trkpt lat="47.97577" lon="6.95756">
        <ele>698.80004882812</ele>
        <time>2022-10-31T14:41:58.000Z</time>
      </trkpt>
      <trkpt lat="47.97581" lon="6.95754">
        <ele>698.19995117188</ele>
        <time>2022-10-31T14:42:02.000Z</time>
      </trkpt>
      <trkpt lat="47.97581" lon="6.95756">
        <ele>698.19995117188</ele>
        <time>2022-10-31T14:42:04.000Z</time>
      </trkpt>
      <trkpt lat="47.97582" lon="6.95756">
        <ele>697.80004882812</ele>
        <time>2022-10-31T14:42:06.000Z</time>
      </trkpt>
      <trkpt lat="47.97583" lon="6.95757">
        <ele>697.40002441406</ele>
        <time>2022-10-31T14:42:08.000Z</time>
      </trkpt>
      <trkpt lat="47.97584" lon="6.95757">
        <ele>697.19995117188</ele>
        <time>2022-10-31T14:42:09.000Z</time>
      </trkpt>
      <trkpt lat="47.97586" lon="6.95757">
        <ele>696.59997558594</ele>
        <time>2022-10-31T14:42:12.000Z</time>
      </trkpt>
      <trkpt lat="47.97587" lon="6.95757">
        <ele>696.40002441406</ele>
        <time>2022-10-31T14:42:13.000Z</time>
      </trkpt>
      <trkpt lat="47.97588" lon="6.95757">
        <ele>696.19995117188</ele>
        <time>2022-10-31T14:42:14.000Z</time>
      </trkpt>
      <trkpt lat="47.97589" lon="6.95756">
        <ele>696</ele>
        <time>2022-10-31T14:42:16.000Z</time>
      </trkpt>
      <trkpt lat="47.97588" lon="6.95758">
        <ele>695</ele>
        <time>2022-10-31T14:42:21.000Z</time>
      </trkpt>
      <trkpt lat="47.97595" lon="6.95759">
        <ele>694</ele>
        <time>2022-10-31T14:42:27.000Z</time>
      </trkpt>
      <trkpt lat="47.97597" lon="6.95759">
        <ele>694</ele>
        <time>2022-10-31T14:42:28.000Z</time>
      </trkpt>
      <trkpt lat="47.97602" lon="6.9576">
        <ele>693</ele>
        <time>2022-10-31T14:42:32.000Z</time>
      </trkpt>
      <trkpt lat="47.97604" lon="6.95761">
        <ele>692.80004882812</ele>
        <time>2022-10-31T14:42:34.000Z</time>
      </trkpt>
      <trkpt lat="47.97607" lon="6.95763">
        <ele>691.80004882812</ele>
        <time>2022-10-31T14:42:39.000Z</time>
      </trkpt>
      <trkpt lat="47.97607" lon="6.95763">
        <ele>691.80004882812</ele>
        <time>2022-10-31T14:42:40.000Z</time>
      </trkpt>
      <trkpt lat="47.9761" lon="6.95764">
        <ele>691.19995117188</ele>
        <time>2022-10-31T14:42:42.000Z</time>
      </trkpt>
      <trkpt lat="47.97611" lon="6.95764">
        <ele>691</ele>
        <time>2022-10-31T14:42:43.000Z</time>
      </trkpt>
      <trkpt lat="47.97614" lon="6.95764">
        <ele>690.59997558594</ele>
        <time>2022-10-31T14:42:47.000Z</time>
      </trkpt>
      <trkpt lat="47.97615" lon="6.95765">
        <ele>690.19995117188</ele>
        <time>2022-10-31T14:42:50.000Z</time>
      </trkpt>
      <trkpt lat="47.97616" lon="6.95765">
        <ele>689.80004882812</ele>
        <time>2022-10-31T14:42:53.000Z</time>
      </trkpt>
      <trkpt lat="47.97617" lon="6.95764">
        <ele>689.40002441406</ele>
        <time>2022-10-31T14:42:55.000Z</time>
      </trkpt>
      <trkpt lat="47.97619" lon="6.95768">
        <ele>688.80004882812</ele>
        <time>2022-10-31T14:42:59.000Z</time>
      </trkpt>
      <trkpt lat="47.9762" lon="6.95772">
        <ele>688.40002441406</ele>
        <time>2022-10-31T14:43:02.000Z</time>
      </trkpt>
      <trkpt lat="47.97621" lon="6.95773">
        <ele>688.40002441406</ele>
        <time>2022-10-31T14:43:03.000Z</time>
      </trkpt>
      <trkpt lat="47.97621" lon="6.95774">
        <ele>688.19995117188</ele>
        <time>2022-10-31T14:43:05.000Z</time>
      </trkpt>
      <trkpt lat="47.97623" lon="6.95771">
        <ele>687.59997558594</ele>
        <time>2022-10-31T14:43:10.000Z</time>
      </trkpt>
      <trkpt lat="47.97624" lon="6.95771">
        <ele>687.40002441406</ele>
        <time>2022-10-31T14:43:12.000Z</time>
      </trkpt>
      <trkpt lat="47.97627" lon="6.95772">
        <ele>687</ele>
        <time>2022-10-31T14:43:15.000Z</time>
      </trkpt>
      <trkpt lat="47.97632" lon="6.95772">
        <ele>686.19995117188</ele>
        <time>2022-10-31T14:43:20.000Z</time>
      </trkpt>
      <trkpt lat="47.97633" lon="6.95773">
        <ele>686.19995117188</ele>
        <time>2022-10-31T14:43:21.000Z</time>
      </trkpt>
      <trkpt lat="47.97632" lon="6.95774">
        <ele>685.80004882812</ele>
        <time>2022-10-31T14:43:27.000Z</time>
      </trkpt>
      <trkpt lat="47.97633" lon="6.95774">
        <ele>685.80004882812</ele>
        <time>2022-10-31T14:43:32.000Z</time>
      </trkpt>
      <trkpt lat="47.97634" lon="6.95774">
        <ele>685.59997558594</ele>
        <time>2022-10-31T14:43:36.000Z</time>
      </trkpt>
      <trkpt lat="47.97637" lon="6.95774">
        <ele>685</ele>
        <time>2022-10-31T14:43:38.000Z</time>
      </trkpt>
      <trkpt lat="47.97639" lon="6.95774">
        <ele>684.59997558594</ele>
        <time>2022-10-31T14:43:42.000Z</time>
      </trkpt>
      <trkpt lat="47.97639" lon="6.95777">
        <ele>684</ele>
        <time>2022-10-31T14:43:46.000Z</time>
      </trkpt>
      <trkpt lat="47.97638" lon="6.95777">
        <ele>683.80004882812</ele>
        <time>2022-10-31T14:43:47.000Z</time>
      </trkpt>
      <trkpt lat="47.97637" lon="6.95779">
        <ele>683.19995117188</ele>
        <time>2022-10-31T14:43:51.000Z</time>
      </trkpt>
      <trkpt lat="47.97638" lon="6.9578">
        <ele>683</ele>
        <time>2022-10-31T14:43:53.000Z</time>
      </trkpt>
      <trkpt lat="47.97644" lon="6.95779">
        <ele>682.40002441406</ele>
        <time>2022-10-31T14:43:57.000Z</time>
      </trkpt>
      <trkpt lat="47.97646" lon="6.9578">
        <ele>681.80004882812</ele>
        <time>2022-10-31T14:44:00.000Z</time>
      </trkpt>
      <trkpt lat="47.97646" lon="6.95781">
        <ele>681.59997558594</ele>
        <time>2022-10-31T14:44:02.000Z</time>
      </trkpt>
      <trkpt lat="47.97647" lon="6.95783">
        <ele>680.80004882812</ele>
        <time>2022-10-31T14:44:06.000Z</time>
      </trkpt>
      <trkpt lat="47.97648" lon="6.95789">
        <ele>680.40002441406</ele>
        <time>2022-10-31T14:44:10.000Z</time>
      </trkpt>
      <trkpt lat="47.97649" lon="6.95788">
        <ele>680.19995117188</ele>
        <time>2022-10-31T14:44:11.000Z</time>
      </trkpt>
      <trkpt lat="47.97652" lon="6.95787">
        <ele>679.80004882812</ele>
        <time>2022-10-31T14:44:13.000Z</time>
      </trkpt>
      <trkpt lat="47.97654" lon="6.95787">
        <ele>679.40002441406</ele>
        <time>2022-10-31T14:44:16.000Z</time>
      </trkpt>
      <trkpt lat="47.97659" lon="6.95787">
        <ele>679.19995117188</ele>
        <time>2022-10-31T14:44:22.000Z</time>
      </trkpt>
      <trkpt lat="47.97662" lon="6.95784">
        <ele>679.19995117188</ele>
        <time>2022-10-31T14:44:24.000Z</time>
      </trkpt>
      <trkpt lat="47.97663" lon="6.95784">
        <ele>679.19995117188</ele>
        <time>2022-10-31T14:44:25.000Z</time>
      </trkpt>
      <trkpt lat="47.97663" lon="6.95784">
        <ele>679</ele>
        <time>2022-10-31T14:44:26.000Z</time>
      </trkpt>
      <trkpt lat="47.97663" lon="6.95784">
        <ele>678.80004882812</ele>
        <time>2022-10-31T14:44:28.000Z</time>
      </trkpt>
      <trkpt lat="47.97662" lon="6.95785">
        <ele>678.59997558594</ele>
        <time>2022-10-31T14:44:29.000Z</time>
      </trkpt>
      <trkpt lat="47.97661" lon="6.95786">
        <ele>678</ele>
        <time>2022-10-31T14:44:33.000Z</time>
      </trkpt>
      <trkpt lat="47.97661" lon="6.95784">
        <ele>677.80004882812</ele>
        <time>2022-10-31T14:44:34.000Z</time>
      </trkpt>
      <trkpt lat="47.97663" lon="6.95784">
        <ele>677.59997558594</ele>
        <time>2022-10-31T14:44:36.000Z</time>
      </trkpt>
      <trkpt lat="47.97664" lon="6.95784">
        <ele>677.40002441406</ele>
        <time>2022-10-31T14:44:37.000Z</time>
      </trkpt>
      <trkpt lat="47.97665" lon="6.95784">
        <ele>677.19995117188</ele>
        <time>2022-10-31T14:44:38.000Z</time>
      </trkpt>
      <trkpt lat="47.97669" lon="6.95786">
        <ele>676.59997558594</ele>
        <time>2022-10-31T14:44:43.000Z</time>
      </trkpt>
      <trkpt lat="47.9767" lon="6.95786">
        <ele>676.40002441406</ele>
        <time>2022-10-31T14:44:44.000Z</time>
      </trkpt>
      <trkpt lat="47.97672" lon="6.95786">
        <ele>676.19995117188</ele>
        <time>2022-10-31T14:44:45.000Z</time>
      </trkpt>
      <trkpt lat="47.97673" lon="6.95786">
        <ele>676.19995117188</ele>
        <time>2022-10-31T14:44:46.000Z</time>
      </trkpt>
      <trkpt lat="47.97673" lon="6.95787">
        <ele>676</ele>
        <time>2022-10-31T14:44:47.000Z</time>
      </trkpt>
      <trkpt lat="47.97675" lon="6.95788">
        <ele>675.59997558594</ele>
        <time>2022-10-31T14:44:50.000Z</time>
      </trkpt>
      <trkpt lat="47.97674" lon="6.95787">
        <ele>675.40002441406</ele>
        <time>2022-10-31T14:44:53.000Z</time>
      </trkpt>
      <trkpt lat="47.97678" lon="6.95789">
        <ele>674.40002441406</ele>
        <time>2022-10-31T14:44:59.000Z</time>
      </trkpt>
      <trkpt lat="47.97679" lon="6.95788">
        <ele>674.19995117188</ele>
        <time>2022-10-31T14:45:00.000Z</time>
      </trkpt>
      <trkpt lat="47.97682" lon="6.95788">
        <ele>673.59997558594</ele>
        <time>2022-10-31T14:45:04.000Z</time>
      </trkpt>
      <trkpt lat="47.97683" lon="6.95788">
        <ele>673</ele>
        <time>2022-10-31T14:45:06.000Z</time>
      </trkpt>
      <trkpt lat="47.97687" lon="6.95788">
        <ele>672.40002441406</ele>
        <time>2022-10-31T14:45:10.000Z</time>
      </trkpt>
      <trkpt lat="47.9769" lon="6.95789">
        <ele>672</ele>
        <time>2022-10-31T14:45:13.000Z</time>
      </trkpt>
      <trkpt lat="47.9769" lon="6.9579">
        <ele>672</ele>
        <time>2022-10-31T14:45:14.000Z</time>
      </trkpt>
      <trkpt lat="47.9769" lon="6.95791">
        <ele>671.19995117188</ele>
        <time>2022-10-31T14:45:19.000Z</time>
      </trkpt>
      <trkpt lat="47.97689" lon="6.95791">
        <ele>671</ele>
        <time>2022-10-31T14:45:20.000Z</time>
      </trkpt>
      <trkpt lat="47.9769" lon="6.95791">
        <ele>670.59997558594</ele>
        <time>2022-10-31T14:45:22.000Z</time>
      </trkpt>
      <trkpt lat="47.97689" lon="6.95794">
        <ele>669.80004882812</ele>
        <time>2022-10-31T14:45:26.000Z</time>
      </trkpt>
      <trkpt lat="47.9769" lon="6.95794">
        <ele>669.59997558594</ele>
        <time>2022-10-31T14:45:27.000Z</time>
      </trkpt>
      <trkpt lat="47.9769" lon="6.95794">
        <ele>669.59997558594</ele>
        <time>2022-10-31T14:45:28.000Z</time>
      </trkpt>
      <trkpt lat="47.9769" lon="6.95793">
        <ele>668.80004882812</ele>
        <time>2022-10-31T14:45:31.000Z</time>
      </trkpt>
      <trkpt lat="47.9769" lon="6.95793">
        <ele>668.59997558594</ele>
        <time>2022-10-31T14:45:32.000Z</time>
      </trkpt>
      <trkpt lat="47.97693" lon="6.95794">
        <ele>668.19995117188</ele>
        <time>2022-10-31T14:45:34.000Z</time>
      </trkpt>
      <trkpt lat="47.97693" lon="6.95794">
        <ele>668.19995117188</ele>
        <time>2022-10-31T14:45:35.000Z</time>
      </trkpt>
      <trkpt lat="47.97692" lon="6.95797">
        <ele>667.59997558594</ele>
        <time>2022-10-31T14:45:40.000Z</time>
      </trkpt>
      <trkpt lat="47.97691" lon="6.95801">
        <ele>667</ele>
        <time>2022-10-31T14:45:44.000Z</time>
      </trkpt>
      <trkpt lat="47.97691" lon="6.95802">
        <ele>666.40002441406</ele>
        <time>2022-10-31T14:45:48.000Z</time>
      </trkpt>
      <trkpt lat="47.9769" lon="6.95802">
        <ele>666.19995117188</ele>
        <time>2022-10-31T14:45:49.000Z</time>
      </trkpt>
      <trkpt lat="47.97687" lon="6.95811">
        <ele>665.19995117188</ele>
        <time>2022-10-31T14:45:55.000Z</time>
      </trkpt>
      <trkpt lat="47.97685" lon="6.95814">
        <ele>664.59997558594</ele>
        <time>2022-10-31T14:45:58.000Z</time>
      </trkpt>
      <trkpt lat="47.97686" lon="6.95814">
        <ele>664</ele>
        <time>2022-10-31T14:46:02.000Z</time>
      </trkpt>
      <trkpt lat="47.97682" lon="6.95821">
        <ele>663.19995117188</ele>
        <time>2022-10-31T14:46:07.000Z</time>
      </trkpt>
      <trkpt lat="47.97682" lon="6.95822">
        <ele>663.19995117188</ele>
        <time>2022-10-31T14:46:08.000Z</time>
      </trkpt>
      <trkpt lat="47.97682" lon="6.95823">
        <ele>662.80004882812</ele>
        <time>2022-10-31T14:46:09.000Z</time>
      </trkpt>
      <trkpt lat="47.97681" lon="6.95825">
        <ele>661.80004882812</ele>
        <time>2022-10-31T14:46:15.000Z</time>
      </trkpt>
      <trkpt lat="47.97678" lon="6.95829">
        <ele>661.19995117188</ele>
        <time>2022-10-31T14:46:19.000Z</time>
      </trkpt>
      <trkpt lat="47.97678" lon="6.9583">
        <ele>661</ele>
        <time>2022-10-31T14:46:20.000Z</time>
      </trkpt>
      <trkpt lat="47.97678" lon="6.9583">
        <ele>661</ele>
        <time>2022-10-31T14:46:21.000Z</time>
      </trkpt>
      <trkpt lat="47.97678" lon="6.95831">
        <ele>661</ele>
        <time>2022-10-31T14:46:22.000Z</time>
      </trkpt>
      <trkpt lat="47.97677" lon="6.95833">
        <ele>660.59997558594</ele>
        <time>2022-10-31T14:46:25.000Z</time>
      </trkpt>
      <trkpt lat="47.97676" lon="6.95834">
        <ele>660</ele>
        <time>2022-10-31T14:46:28.000Z</time>
      </trkpt>
      <trkpt lat="47.97676" lon="6.95835">
        <ele>659.59997558594</ele>
        <time>2022-10-31T14:46:31.000Z</time>
      </trkpt>
      <trkpt lat="47.97675" lon="6.95836">
        <ele>659.19995117188</ele>
        <time>2022-10-31T14:46:33.000Z</time>
      </trkpt>
      <trkpt lat="47.97673" lon="6.95837">
        <ele>659</ele>
        <time>2022-10-31T14:46:34.000Z</time>
      </trkpt>
      <trkpt lat="47.97672" lon="6.95838">
        <ele>659</ele>
        <time>2022-10-31T14:46:35.000Z</time>
      </trkpt>
      <trkpt lat="47.9767" lon="6.9584">
        <ele>658.59997558594</ele>
        <time>2022-10-31T14:46:38.000Z</time>
      </trkpt>
      <trkpt lat="47.97669" lon="6.9584">
        <ele>658.40002441406</ele>
        <time>2022-10-31T14:46:39.000Z</time>
      </trkpt>
      <trkpt lat="47.97668" lon="6.95841">
        <ele>657.59997558594</ele>
        <time>2022-10-31T14:46:44.000Z</time>
      </trkpt>
      <trkpt lat="47.97666" lon="6.95843">
        <ele>657.19995117188</ele>
        <time>2022-10-31T14:46:47.000Z</time>
      </trkpt>
      <trkpt lat="47.97663" lon="6.95843">
        <ele>656.80004882812</ele>
        <time>2022-10-31T14:46:49.000Z</time>
      </trkpt>
      <trkpt lat="47.97659" lon="6.95844">
        <ele>656</ele>
        <time>2022-10-31T14:46:55.000Z</time>
      </trkpt>
      <trkpt lat="47.97659" lon="6.95844">
        <ele>655.59997558594</ele>
        <time>2022-10-31T14:46:58.000Z</time>
      </trkpt>
      <trkpt lat="47.9766" lon="6.95844">
        <ele>655</ele>
        <time>2022-10-31T14:47:02.000Z</time>
      </trkpt>
      <trkpt lat="47.9766" lon="6.95844">
        <ele>654.80004882812</ele>
        <time>2022-10-31T14:47:03.000Z</time>
      </trkpt>
      <trkpt lat="47.97653" lon="6.9585">
        <ele>653.80004882812</ele>
        <time>2022-10-31T14:47:10.000Z</time>
      </trkpt>
      <trkpt lat="47.97651" lon="6.95851">
        <ele>652.80004882812</ele>
        <time>2022-10-31T14:47:16.000Z</time>
      </trkpt>
      <trkpt lat="47.97652" lon="6.95851">
        <ele>652.80004882812</ele>
        <time>2022-10-31T14:47:17.000Z</time>
      </trkpt>
      <trkpt lat="47.97653" lon="6.95844">
        <ele>652.40002441406</ele>
        <time>2022-10-31T14:47:25.000Z</time>
      </trkpt>
      <trkpt lat="47.97652" lon="6.95843">
        <ele>652.40002441406</ele>
        <time>2022-10-31T14:47:34.000Z</time>
      </trkpt>
      <trkpt lat="47.97654" lon="6.95841">
        <ele>652.19995117188</ele>
        <time>2022-10-31T14:47:46.000Z</time>
      </trkpt>
      <trkpt lat="47.97656" lon="6.9584">
        <ele>651.59997558594</ele>
        <time>2022-10-31T14:47:49.000Z</time>
      </trkpt>
      <trkpt lat="47.97658" lon="6.95838">
        <ele>651.19995117188</ele>
        <time>2022-10-31T14:47:51.000Z</time>
      </trkpt>
      <trkpt lat="47.9766" lon="6.95835">
        <ele>650.80004882812</ele>
        <time>2022-10-31T14:47:56.000Z</time>
      </trkpt>
      <trkpt lat="47.9766" lon="6.95835">
        <ele>650.59997558594</ele>
        <time>2022-10-31T14:47:57.000Z</time>
      </trkpt>
      <trkpt lat="47.97662" lon="6.95835">
        <ele>650.19995117188</ele>
        <time>2022-10-31T14:47:59.000Z</time>
      </trkpt>
      <trkpt lat="47.97663" lon="6.95836">
        <ele>650</ele>
        <time>2022-10-31T14:48:01.000Z</time>
      </trkpt>
      <trkpt lat="47.97666" lon="6.95836">
        <ele>649.59997558594</ele>
        <time>2022-10-31T14:48:04.000Z</time>
      </trkpt>
      <trkpt lat="47.97668" lon="6.95835">
        <ele>649</ele>
        <time>2022-10-31T14:48:08.000Z</time>
      </trkpt>
      <trkpt lat="47.97669" lon="6.95835">
        <ele>649</ele>
        <time>2022-10-31T14:48:09.000Z</time>
      </trkpt>
      <trkpt lat="47.97673" lon="6.95835">
        <ele>648.59997558594</ele>
        <time>2022-10-31T14:48:13.000Z</time>
      </trkpt>
      <trkpt lat="47.97675" lon="6.95838">
        <ele>648.59997558594</ele>
        <time>2022-10-31T14:48:16.000Z</time>
      </trkpt>
      <trkpt lat="47.97677" lon="6.9584">
        <ele>648.59997558594</ele>
        <time>2022-10-31T14:48:18.000Z</time>
      </trkpt>
      <trkpt lat="47.97678" lon="6.95839">
        <ele>648.59997558594</ele>
        <time>2022-10-31T14:48:20.000Z</time>
      </trkpt>
      <trkpt lat="47.97678" lon="6.95843">
        <ele>648</ele>
        <time>2022-10-31T14:48:26.000Z</time>
      </trkpt>
      <trkpt lat="47.97681" lon="6.95843">
        <ele>647.59997558594</ele>
        <time>2022-10-31T14:48:29.000Z</time>
      </trkpt>
      <trkpt lat="47.97682" lon="6.95842">
        <ele>647.40002441406</ele>
        <time>2022-10-31T14:48:31.000Z</time>
      </trkpt>
      <trkpt lat="47.97683" lon="6.9584">
        <ele>647</ele>
        <time>2022-10-31T14:48:34.000Z</time>
      </trkpt>
      <trkpt lat="47.97686" lon="6.95839">
        <ele>646.59997558594</ele>
        <time>2022-10-31T14:48:39.000Z</time>
      </trkpt>
      <trkpt lat="47.97686" lon="6.9584">
        <ele>646.40002441406</ele>
        <time>2022-10-31T14:48:40.000Z</time>
      </trkpt>
      <trkpt lat="47.97689" lon="6.95841">
        <ele>645.80004882812</ele>
        <time>2022-10-31T14:48:46.000Z</time>
      </trkpt>
      <trkpt lat="47.97688" lon="6.95842">
        <ele>645.40002441406</ele>
        <time>2022-10-31T14:48:48.000Z</time>
      </trkpt>
      <trkpt lat="47.9769" lon="6.95842">
        <ele>645</ele>
        <time>2022-10-31T14:48:51.000Z</time>
      </trkpt>
      <trkpt lat="47.97692" lon="6.95845">
        <ele>644.40002441406</ele>
        <time>2022-10-31T14:48:56.000Z</time>
      </trkpt>
      <trkpt lat="47.97692" lon="6.95845">
        <ele>644.19995117188</ele>
        <time>2022-10-31T14:48:57.000Z</time>
      </trkpt>
      <trkpt lat="47.97694" lon="6.9585">
        <ele>643</ele>
        <time>2022-10-31T14:49:20.000Z</time>
      </trkpt>
      <trkpt lat="47.97695" lon="6.95856">
        <ele>642.80004882812</ele>
        <time>2022-10-31T14:49:25.000Z</time>
      </trkpt>
      <trkpt lat="47.97697" lon="6.95864">
        <ele>642.40002441406</ele>
        <time>2022-10-31T14:49:33.000Z</time>
      </trkpt>
      <trkpt lat="47.97699" lon="6.95865">
        <ele>642</ele>
        <time>2022-10-31T14:49:38.000Z</time>
      </trkpt>
      <trkpt lat="47.97699" lon="6.95866">
        <ele>641.59997558594</ele>
        <time>2022-10-31T14:49:42.000Z</time>
      </trkpt>
      <trkpt lat="47.977" lon="6.95867">
        <ele>640.80004882812</ele>
        <time>2022-10-31T14:49:47.000Z</time>
      </trkpt>
      <trkpt lat="47.977" lon="6.95866">
        <ele>640.59997558594</ele>
        <time>2022-10-31T14:49:48.000Z</time>
      </trkpt>
      <trkpt lat="47.97704" lon="6.95869">
        <ele>639.80004882812</ele>
        <time>2022-10-31T14:49:56.000Z</time>
      </trkpt>
      <trkpt lat="47.97706" lon="6.95868">
        <ele>639.80004882812</ele>
        <time>2022-10-31T14:49:57.000Z</time>
      </trkpt>
      <trkpt lat="47.97704" lon="6.95873">
        <ele>639.80004882812</ele>
        <time>2022-10-31T14:50:00.000Z</time>
      </trkpt>
      <trkpt lat="47.97703" lon="6.95875">
        <ele>639.80004882812</ele>
        <time>2022-10-31T14:50:03.000Z</time>
      </trkpt>
      <trkpt lat="47.97704" lon="6.95875">
        <ele>639.80004882812</ele>
        <time>2022-10-31T14:50:04.000Z</time>
      </trkpt>
      <trkpt lat="47.97705" lon="6.95875">
        <ele>639.80004882812</ele>
        <time>2022-10-31T14:50:08.000Z</time>
      </trkpt>
      <trkpt lat="47.977" lon="6.95879">
        <ele>639.59997558594</ele>
        <time>2022-10-31T14:50:15.000Z</time>
      </trkpt>
      <trkpt lat="47.977" lon="6.9588">
        <ele>639.40002441406</ele>
        <time>2022-10-31T14:50:19.000Z</time>
      </trkpt>
      <trkpt lat="47.97699" lon="6.95882">
        <ele>639.40002441406</ele>
        <time>2022-10-31T14:50:20.000Z</time>
      </trkpt>
      <trkpt lat="47.97698" lon="6.95882">
        <ele>639.19995117188</ele>
        <time>2022-10-31T14:50:23.000Z</time>
      </trkpt>
      <trkpt lat="47.97696" lon="6.95883">
        <ele>639</ele>
        <time>2022-10-31T14:50:26.000Z</time>
      </trkpt>
      <trkpt lat="47.97695" lon="6.95885">
        <ele>638.80004882812</ele>
        <time>2022-10-31T14:50:29.000Z</time>
      </trkpt>
      <trkpt lat="47.97695" lon="6.95885">
        <ele>638.59997558594</ele>
        <time>2022-10-31T14:50:30.000Z</time>
      </trkpt>
      <trkpt lat="47.97694" lon="6.95886">
        <ele>638.19995117188</ele>
        <time>2022-10-31T14:50:34.000Z</time>
      </trkpt>
      <trkpt lat="47.9769" lon="6.95886">
        <ele>638</ele>
        <time>2022-10-31T14:50:38.000Z</time>
      </trkpt>
      <trkpt lat="47.97689" lon="6.95886">
        <ele>637.80004882812</ele>
        <time>2022-10-31T14:50:40.000Z</time>
      </trkpt>
      <trkpt lat="47.97689" lon="6.95885">
        <ele>637.59997558594</ele>
        <time>2022-10-31T14:50:44.000Z</time>
      </trkpt>
      <trkpt lat="47.97689" lon="6.95884">
        <ele>637.40002441406</ele>
        <time>2022-10-31T14:50:47.000Z</time>
      </trkpt>
      <trkpt lat="47.97688" lon="6.95884">
        <ele>637.40002441406</ele>
        <time>2022-10-31T14:50:48.000Z</time>
      </trkpt>
      <trkpt lat="47.97685" lon="6.95885">
        <ele>637.19995117188</ele>
        <time>2022-10-31T14:50:49.000Z</time>
      </trkpt>
      <trkpt lat="47.97683" lon="6.95886">
        <ele>637</ele>
        <time>2022-10-31T14:50:50.000Z</time>
      </trkpt>
      <trkpt lat="47.9768" lon="6.95887">
        <ele>636.59997558594</ele>
        <time>2022-10-31T14:50:53.000Z</time>
      </trkpt>
      <trkpt lat="47.9768" lon="6.95887">
        <ele>636.59997558594</ele>
        <time>2022-10-31T14:50:54.000Z</time>
      </trkpt>
      <trkpt lat="47.97676" lon="6.95887">
        <ele>636</ele>
        <time>2022-10-31T14:51:00.000Z</time>
      </trkpt>
      <trkpt lat="47.97672" lon="6.9589">
        <ele>635.40002441406</ele>
        <time>2022-10-31T14:51:04.000Z</time>
      </trkpt>
      <trkpt lat="47.9767" lon="6.95892">
        <ele>635.19995117188</ele>
        <time>2022-10-31T14:51:06.000Z</time>
      </trkpt>
      <trkpt lat="47.97669" lon="6.95893">
        <ele>634.80004882812</ele>
        <time>2022-10-31T14:51:08.000Z</time>
      </trkpt>
      <trkpt lat="47.97665" lon="6.95895">
        <ele>634.40002441406</ele>
        <time>2022-10-31T14:51:11.000Z</time>
      </trkpt>
      <trkpt lat="47.97661" lon="6.95898">
        <ele>633.80004882812</ele>
        <time>2022-10-31T14:51:14.000Z</time>
      </trkpt>
      <trkpt lat="47.9766" lon="6.95899">
        <ele>633.59997558594</ele>
        <time>2022-10-31T14:51:16.000Z</time>
      </trkpt>
      <trkpt lat="47.9766" lon="6.95898">
        <ele>633.19995117188</ele>
        <time>2022-10-31T14:51:18.000Z</time>
      </trkpt>
      <trkpt lat="47.97662" lon="6.95898">
        <ele>633</ele>
        <time>2022-10-31T14:51:19.000Z</time>
      </trkpt>
      <trkpt lat="47.97667" lon="6.95895">
        <ele>632.59997558594</ele>
        <time>2022-10-31T14:51:23.000Z</time>
      </trkpt>
      <trkpt lat="47.97669" lon="6.95893">
        <ele>632.40002441406</ele>
        <time>2022-10-31T14:51:25.000Z</time>
      </trkpt>
      <trkpt lat="47.97671" lon="6.95893">
        <ele>632.19995117188</ele>
        <time>2022-10-31T14:51:27.000Z</time>
      </trkpt>
      <trkpt lat="47.97676" lon="6.95893">
        <ele>632</ele>
        <time>2022-10-31T14:51:32.000Z</time>
      </trkpt>
      <trkpt lat="47.9768" lon="6.95896">
        <ele>631.19995117188</ele>
        <time>2022-10-31T14:51:40.000Z</time>
      </trkpt>
      <trkpt lat="47.97682" lon="6.95896">
        <ele>631.19995117188</ele>
        <time>2022-10-31T14:51:41.000Z</time>
      </trkpt>
      <trkpt lat="47.97684" lon="6.95892">
        <ele>630.59997558594</ele>
        <time>2022-10-31T14:51:45.000Z</time>
      </trkpt>
      <trkpt lat="47.97688" lon="6.95893">
        <ele>630.40002441406</ele>
        <time>2022-10-31T14:51:49.000Z</time>
      </trkpt>
      <trkpt lat="47.9769" lon="6.95892">
        <ele>630.19995117188</ele>
        <time>2022-10-31T14:51:52.000Z</time>
      </trkpt>
      <trkpt lat="47.97692" lon="6.95893">
        <ele>630</ele>
        <time>2022-10-31T14:51:55.000Z</time>
      </trkpt>
      <trkpt lat="47.97697" lon="6.95893">
        <ele>629</ele>
        <time>2022-10-31T14:52:01.000Z</time>
      </trkpt>
      <trkpt lat="47.97698" lon="6.95894">
        <ele>628.80004882812</ele>
        <time>2022-10-31T14:52:03.000Z</time>
      </trkpt>
      <trkpt lat="47.97705" lon="6.95894">
        <ele>628.19995117188</ele>
        <time>2022-10-31T14:52:10.000Z</time>
      </trkpt>
      <trkpt lat="47.97706" lon="6.95894">
        <ele>628</ele>
        <time>2022-10-31T14:52:11.000Z</time>
      </trkpt>
      <trkpt lat="47.97711" lon="6.95896">
        <ele>627.40002441406</ele>
        <time>2022-10-31T14:52:18.000Z</time>
      </trkpt>
      <trkpt lat="47.97711" lon="6.959">
        <ele>627</ele>
        <time>2022-10-31T14:52:21.000Z</time>
      </trkpt>
      <trkpt lat="47.97711" lon="6.95901">
        <ele>627</ele>
        <time>2022-10-31T14:52:23.000Z</time>
      </trkpt>
      <trkpt lat="47.9771" lon="6.95901">
        <ele>626.80004882812</ele>
        <time>2022-10-31T14:52:28.000Z</time>
      </trkpt>
      <trkpt lat="47.97711" lon="6.95901">
        <ele>626.80004882812</ele>
        <time>2022-10-31T14:52:31.000Z</time>
      </trkpt>
      <trkpt lat="47.97715" lon="6.95904">
        <ele>626</ele>
        <time>2022-10-31T14:52:38.000Z</time>
      </trkpt>
      <trkpt lat="47.97716" lon="6.95907">
        <ele>625.40002441406</ele>
        <time>2022-10-31T14:52:41.000Z</time>
      </trkpt>
      <trkpt lat="47.9772" lon="6.9591">
        <ele>625.19995117188</ele>
        <time>2022-10-31T14:52:45.000Z</time>
      </trkpt>
      <trkpt lat="47.97725" lon="6.95912">
        <ele>624.80004882812</ele>
        <time>2022-10-31T14:52:48.000Z</time>
      </trkpt>
      <trkpt lat="47.97734" lon="6.95924">
        <ele>624</ele>
        <time>2022-10-31T14:52:57.000Z</time>
      </trkpt>
      <trkpt lat="47.97736" lon="6.95927">
        <ele>623.80004882812</ele>
        <time>2022-10-31T14:52:59.000Z</time>
      </trkpt>
      <trkpt lat="47.97742" lon="6.95933">
        <ele>622.80004882812</ele>
        <time>2022-10-31T14:53:07.000Z</time>
      </trkpt>
      <trkpt lat="47.97742" lon="6.95934">
        <ele>622.80004882812</ele>
        <time>2022-10-31T14:53:08.000Z</time>
      </trkpt>
      <trkpt lat="47.97744" lon="6.95936">
        <ele>622.59997558594</ele>
        <time>2022-10-31T14:53:10.000Z</time>
      </trkpt>
      <trkpt lat="47.97747" lon="6.95939">
        <ele>622.19995117188</ele>
        <time>2022-10-31T14:53:13.000Z</time>
      </trkpt>
      <trkpt lat="47.97747" lon="6.95939">
        <ele>622.19995117188</ele>
        <time>2022-10-31T14:53:14.000Z</time>
      </trkpt>
      <trkpt lat="47.97751" lon="6.95941">
        <ele>621.80004882812</ele>
        <time>2022-10-31T14:53:17.000Z</time>
      </trkpt>
      <trkpt lat="47.97753" lon="6.95946">
        <ele>621.19995117188</ele>
        <time>2022-10-31T14:53:20.000Z</time>
      </trkpt>
      <trkpt lat="47.97757" lon="6.95951">
        <ele>620.59997558594</ele>
        <time>2022-10-31T14:53:25.000Z</time>
      </trkpt>
      <trkpt lat="47.9776" lon="6.95951">
        <ele>620.40002441406</ele>
        <time>2022-10-31T14:53:27.000Z</time>
      </trkpt>
      <trkpt lat="47.97761" lon="6.95953">
        <ele>619.80004882812</ele>
        <time>2022-10-31T14:53:31.000Z</time>
      </trkpt>
      <trkpt lat="47.97762" lon="6.95953">
        <ele>619.80004882812</ele>
        <time>2022-10-31T14:53:32.000Z</time>
      </trkpt>
      <trkpt lat="47.97763" lon="6.95953">
        <ele>619.59997558594</ele>
        <time>2022-10-31T14:53:33.000Z</time>
      </trkpt>
      <trkpt lat="47.9777" lon="6.95959">
        <ele>618.59997558594</ele>
        <time>2022-10-31T14:53:41.000Z</time>
      </trkpt>
      <trkpt lat="47.97771" lon="6.95959">
        <ele>618.40002441406</ele>
        <time>2022-10-31T14:53:42.000Z</time>
      </trkpt>
      <trkpt lat="47.97771" lon="6.9596">
        <ele>618.19995117188</ele>
        <time>2022-10-31T14:53:43.000Z</time>
      </trkpt>
      <trkpt lat="47.97774" lon="6.95965">
        <ele>617.59997558594</ele>
        <time>2022-10-31T14:53:47.000Z</time>
      </trkpt>
      <trkpt lat="47.97774" lon="6.95966">
        <ele>617.40002441406</ele>
        <time>2022-10-31T14:53:49.000Z</time>
      </trkpt>
      <trkpt lat="47.97771" lon="6.95971">
        <ele>616.80004882812</ele>
        <time>2022-10-31T14:53:53.000Z</time>
      </trkpt>
      <trkpt lat="47.97769" lon="6.95972">
        <ele>616.40002441406</ele>
        <time>2022-10-31T14:53:56.000Z</time>
      </trkpt>
      <trkpt lat="47.97767" lon="6.95974">
        <ele>615.80004882812</ele>
        <time>2022-10-31T14:53:59.000Z</time>
      </trkpt>
      <trkpt lat="47.97764" lon="6.95976">
        <ele>615.40002441406</ele>
        <time>2022-10-31T14:54:02.000Z</time>
      </trkpt>
      <trkpt lat="47.97763" lon="6.95977">
        <ele>615.19995117188</ele>
        <time>2022-10-31T14:54:03.000Z</time>
      </trkpt>
      <trkpt lat="47.9776" lon="6.9598">
        <ele>614.80004882812</ele>
        <time>2022-10-31T14:54:09.000Z</time>
      </trkpt>
      <trkpt lat="47.97759" lon="6.9598">
        <ele>614.59997558594</ele>
        <time>2022-10-31T14:54:16.000Z</time>
      </trkpt>
      <trkpt lat="47.97757" lon="6.95982">
        <ele>614.40002441406</ele>
        <time>2022-10-31T14:54:19.000Z</time>
      </trkpt>
      <trkpt lat="47.97756" lon="6.95984">
        <ele>614.19995117188</ele>
        <time>2022-10-31T14:54:20.000Z</time>
      </trkpt>
      <trkpt lat="47.9775" lon="6.9599">
        <ele>613.40002441406</ele>
        <time>2022-10-31T14:54:27.000Z</time>
      </trkpt>
      <trkpt lat="47.97746" lon="6.95992">
        <ele>613.19995117188</ele>
        <time>2022-10-31T14:54:29.000Z</time>
      </trkpt>
      <trkpt lat="47.97737" lon="6.95998">
        <ele>612.59997558594</ele>
        <time>2022-10-31T14:54:35.000Z</time>
      </trkpt>
      <trkpt lat="47.97732" lon="6.96">
        <ele>612.19995117188</ele>
        <time>2022-10-31T14:54:40.000Z</time>
      </trkpt>
      <trkpt lat="47.97732" lon="6.96">
        <ele>612</ele>
        <time>2022-10-31T14:54:41.000Z</time>
      </trkpt>
      <trkpt lat="47.97735" lon="6.95996">
        <ele>611.59997558594</ele>
        <time>2022-10-31T14:54:46.000Z</time>
      </trkpt>
      <trkpt lat="47.97733" lon="6.95995">
        <ele>611.59997558594</ele>
        <time>2022-10-31T14:54:52.000Z</time>
      </trkpt>
      <trkpt lat="47.97729" lon="6.95994">
        <ele>611.40002441406</ele>
        <time>2022-10-31T14:54:56.000Z</time>
      </trkpt>
      <trkpt lat="47.97727" lon="6.95993">
        <ele>611.19995117188</ele>
        <time>2022-10-31T14:54:59.000Z</time>
      </trkpt>
      <trkpt lat="47.97725" lon="6.95992">
        <ele>611.19995117188</ele>
        <time>2022-10-31T14:55:01.000Z</time>
      </trkpt>
      <trkpt lat="47.97722" lon="6.9599">
        <ele>610.40002441406</ele>
        <time>2022-10-31T14:55:05.000Z</time>
      </trkpt>
      <trkpt lat="47.97719" lon="6.95989">
        <ele>610</ele>
        <time>2022-10-31T14:55:09.000Z</time>
      </trkpt>
      <trkpt lat="47.97717" lon="6.95989">
        <ele>610</ele>
        <time>2022-10-31T14:55:11.000Z</time>
      </trkpt>
      <trkpt lat="47.97716" lon="6.9599">
        <ele>609.80004882812</ele>
        <time>2022-10-31T14:55:12.000Z</time>
      </trkpt>
      <trkpt lat="47.97715" lon="6.9599">
        <ele>609.59997558594</ele>
        <time>2022-10-31T14:55:13.000Z</time>
      </trkpt>
      <trkpt lat="47.97711" lon="6.95989">
        <ele>609</ele>
        <time>2022-10-31T14:55:18.000Z</time>
      </trkpt>
      <trkpt lat="47.97709" lon="6.95989">
        <ele>608.80004882812</ele>
        <time>2022-10-31T14:55:20.000Z</time>
      </trkpt>
      <trkpt lat="47.97704" lon="6.95988">
        <ele>608.40002441406</ele>
        <time>2022-10-31T14:55:25.000Z</time>
      </trkpt>
      <trkpt lat="47.97704" lon="6.95988">
        <ele>608.19995117188</ele>
        <time>2022-10-31T14:55:26.000Z</time>
      </trkpt>
      <trkpt lat="47.97703" lon="6.95988">
        <ele>608</ele>
        <time>2022-10-31T14:55:28.000Z</time>
      </trkpt>
      <trkpt lat="47.97702" lon="6.95987">
        <ele>607.80004882812</ele>
        <time>2022-10-31T14:55:32.000Z</time>
      </trkpt>
      <trkpt lat="47.97699" lon="6.95987">
        <ele>607.40002441406</ele>
        <time>2022-10-31T14:55:36.000Z</time>
      </trkpt>
      <trkpt lat="47.97696" lon="6.95987">
        <ele>607.40002441406</ele>
        <time>2022-10-31T14:55:38.000Z</time>
      </trkpt>
      <trkpt lat="47.97694" lon="6.95985">
        <ele>607</ele>
        <time>2022-10-31T14:55:42.000Z</time>
      </trkpt>
      <trkpt lat="47.9769" lon="6.95984">
        <ele>606.40002441406</ele>
        <time>2022-10-31T14:55:47.000Z</time>
      </trkpt>
      <trkpt lat="47.97687" lon="6.95983">
        <ele>605.80004882812</ele>
        <time>2022-10-31T14:55:51.000Z</time>
      </trkpt>
      <trkpt lat="47.97686" lon="6.95982">
        <ele>605.59997558594</ele>
        <time>2022-10-31T14:55:53.000Z</time>
      </trkpt>
      <trkpt lat="47.97685" lon="6.95982">
        <ele>605.40002441406</ele>
        <time>2022-10-31T14:55:56.000Z</time>
      </trkpt>
      <trkpt lat="47.97684" lon="6.95982">
        <ele>605.19995117188</ele>
        <time>2022-10-31T14:55:57.000Z</time>
      </trkpt>
      <trkpt lat="47.97682" lon="6.95984">
        <ele>605</ele>
        <time>2022-10-31T14:56:00.000Z</time>
      </trkpt>
      <trkpt lat="47.97682" lon="6.95981">
        <ele>604.80004882812</ele>
        <time>2022-10-31T14:56:02.000Z</time>
      </trkpt>
      <trkpt lat="47.97679" lon="6.9598">
        <ele>604.59997558594</ele>
        <time>2022-10-31T14:56:07.000Z</time>
      </trkpt>
      <trkpt lat="47.97671" lon="6.95984">
        <ele>603.80004882812</ele>
        <time>2022-10-31T14:56:13.000Z</time>
      </trkpt>
      <trkpt lat="47.9767" lon="6.95985">
        <ele>603.40002441406</ele>
        <time>2022-10-31T14:56:15.000Z</time>
      </trkpt>
      <trkpt lat="47.97669" lon="6.95989">
        <ele>602.59997558594</ele>
        <time>2022-10-31T14:56:21.000Z</time>
      </trkpt>
      <trkpt lat="47.97669" lon="6.9599">
        <ele>602.40002441406</ele>
        <time>2022-10-31T14:56:22.000Z</time>
      </trkpt>
      <trkpt lat="47.97668" lon="6.95995">
        <ele>601.59997558594</ele>
        <time>2022-10-31T14:56:28.000Z</time>
      </trkpt>
      <trkpt lat="47.97671" lon="6.95992">
        <ele>601</ele>
        <time>2022-10-31T14:56:33.000Z</time>
      </trkpt>
      <trkpt lat="47.97669" lon="6.95995">
        <ele>600.59997558594</ele>
        <time>2022-10-31T14:56:39.000Z</time>
      </trkpt>
      <trkpt lat="47.97671" lon="6.96001">
        <ele>599.80004882812</ele>
        <time>2022-10-31T14:57:07.000Z</time>
      </trkpt>
      <trkpt lat="47.97673" lon="6.96011">
        <ele>599.59997558594</ele>
        <time>2022-10-31T14:57:15.000Z</time>
      </trkpt>
      <trkpt lat="47.97676" lon="6.96012">
        <ele>599.80004882812</ele>
        <time>2022-10-31T14:57:18.000Z</time>
      </trkpt>
      <trkpt lat="47.97677" lon="6.96016">
        <ele>599.80004882812</ele>
        <time>2022-10-31T14:57:21.000Z</time>
      </trkpt>
      <trkpt lat="47.97676" lon="6.96017">
        <ele>599.80004882812</ele>
        <time>2022-10-31T14:57:22.000Z</time>
      </trkpt>
      <trkpt lat="47.97676" lon="6.9602">
        <ele>599.80004882812</ele>
        <time>2022-10-31T14:57:26.000Z</time>
      </trkpt>
      <trkpt lat="47.97679" lon="6.96028">
        <ele>599.40002441406</ele>
        <time>2022-10-31T14:57:32.000Z</time>
      </trkpt>
      <trkpt lat="47.9768" lon="6.96031">
        <ele>599.40002441406</ele>
        <time>2022-10-31T14:57:34.000Z</time>
      </trkpt>
      <trkpt lat="47.97682" lon="6.96041">
        <ele>599.59997558594</ele>
        <time>2022-10-31T14:57:41.000Z</time>
      </trkpt>
      <trkpt lat="47.97683" lon="6.9605">
        <ele>599.40002441406</ele>
        <time>2022-10-31T14:57:48.000Z</time>
      </trkpt>
      <trkpt lat="47.97683" lon="6.9605">
        <ele>599.40002441406</ele>
        <time>2022-10-31T14:57:50.000Z</time>
      </trkpt>
      <trkpt lat="47.97685" lon="6.96053">
        <ele>599.40002441406</ele>
        <time>2022-10-31T14:57:53.000Z</time>
      </trkpt>
      <trkpt lat="47.9769" lon="6.96056">
        <ele>599.19995117188</ele>
        <time>2022-10-31T14:57:57.000Z</time>
      </trkpt>
      <trkpt lat="47.97691" lon="6.96059">
        <ele>599.40002441406</ele>
        <time>2022-10-31T14:57:59.000Z</time>
      </trkpt>
      <trkpt lat="47.97693" lon="6.96062">
        <ele>599.40002441406</ele>
        <time>2022-10-31T14:58:01.000Z</time>
      </trkpt>
      <trkpt lat="47.97694" lon="6.96063">
        <ele>599.40002441406</ele>
        <time>2022-10-31T14:58:02.000Z</time>
      </trkpt>
      <trkpt lat="47.97693" lon="6.96077">
        <ele>599.40002441406</ele>
        <time>2022-10-31T14:58:09.000Z</time>
      </trkpt>
      <trkpt lat="47.97692" lon="6.96081">
        <ele>599.40002441406</ele>
        <time>2022-10-31T14:58:12.000Z</time>
      </trkpt>
      <trkpt lat="47.97693" lon="6.96082">
        <ele>599.40002441406</ele>
        <time>2022-10-31T14:58:13.000Z</time>
      </trkpt>
      <trkpt lat="47.97692" lon="6.96084">
        <ele>599.40002441406</ele>
        <time>2022-10-31T14:58:14.000Z</time>
      </trkpt>
      <trkpt lat="47.97691" lon="6.96088">
        <ele>599.40002441406</ele>
        <time>2022-10-31T14:58:16.000Z</time>
      </trkpt>
      <trkpt lat="47.97685" lon="6.96096">
        <ele>599.40002441406</ele>
        <time>2022-10-31T14:58:21.000Z</time>
      </trkpt>
      <trkpt lat="47.97681" lon="6.96097">
        <ele>599.40002441406</ele>
        <time>2022-10-31T14:58:23.000Z</time>
      </trkpt>
      <trkpt lat="47.97677" lon="6.96098">
        <ele>599.19995117188</ele>
        <time>2022-10-31T14:58:26.000Z</time>
      </trkpt>
      <trkpt lat="47.97672" lon="6.96098">
        <ele>599.19995117188</ele>
        <time>2022-10-31T14:58:29.000Z</time>
      </trkpt>
      <trkpt lat="47.97671" lon="6.96098">
        <ele>599.19995117188</ele>
        <time>2022-10-31T14:58:30.000Z</time>
      </trkpt>
      <trkpt lat="47.97667" lon="6.96097">
        <ele>599</ele>
        <time>2022-10-31T14:58:34.000Z</time>
      </trkpt>
      <trkpt lat="47.97664" lon="6.96096">
        <ele>599</ele>
        <time>2022-10-31T14:58:36.000Z</time>
      </trkpt>
      <trkpt lat="47.9766" lon="6.96095">
        <ele>598.80004882812</ele>
        <time>2022-10-31T14:58:41.000Z</time>
      </trkpt>
      <trkpt lat="47.97656" lon="6.96096">
        <ele>598.80004882812</ele>
        <time>2022-10-31T14:58:44.000Z</time>
      </trkpt>
      <trkpt lat="47.97652" lon="6.96096">
        <ele>598.80004882812</ele>
        <time>2022-10-31T14:58:47.000Z</time>
      </trkpt>
      <trkpt lat="47.97648" lon="6.96096">
        <ele>598.59997558594</ele>
        <time>2022-10-31T14:58:50.000Z</time>
      </trkpt>
      <trkpt lat="47.97646" lon="6.96096">
        <ele>598.59997558594</ele>
        <time>2022-10-31T14:58:51.000Z</time>
      </trkpt>
      <trkpt lat="47.97645" lon="6.96096">
        <ele>598.59997558594</ele>
        <time>2022-10-31T14:58:52.000Z</time>
      </trkpt>
      <trkpt lat="47.97639" lon="6.96094">
        <ele>598.40002441406</ele>
        <time>2022-10-31T14:58:59.000Z</time>
      </trkpt>
      <trkpt lat="47.97636" lon="6.96094">
        <ele>598.40002441406</ele>
        <time>2022-10-31T14:59:02.000Z</time>
      </trkpt>
      <trkpt lat="47.97633" lon="6.96093">
        <ele>598.40002441406</ele>
        <time>2022-10-31T14:59:05.000Z</time>
      </trkpt>
      <trkpt lat="47.97631" lon="6.96092">
        <ele>598.19995117188</ele>
        <time>2022-10-31T14:59:07.000Z</time>
      </trkpt>
      <trkpt lat="47.97624" lon="6.96091">
        <ele>598.19995117188</ele>
        <time>2022-10-31T14:59:13.000Z</time>
      </trkpt>
      <trkpt lat="47.97624" lon="6.96091">
        <ele>598.19995117188</ele>
        <time>2022-10-31T14:59:14.000Z</time>
      </trkpt>
      <trkpt lat="47.97622" lon="6.96092">
        <ele>598.19995117188</ele>
        <time>2022-10-31T14:59:21.000Z</time>
      </trkpt>
      <trkpt lat="47.97618" lon="6.96093">
        <ele>598.19995117188</ele>
        <time>2022-10-31T14:59:24.000Z</time>
      </trkpt>
      <trkpt lat="47.97615" lon="6.96095">
        <ele>598</ele>
        <time>2022-10-31T14:59:26.000Z</time>
      </trkpt>
      <trkpt lat="47.97609" lon="6.96091">
        <ele>598</ele>
        <time>2022-10-31T14:59:33.000Z</time>
      </trkpt>
      <trkpt lat="47.97609" lon="6.9609">
        <ele>598</ele>
        <time>2022-10-31T14:59:34.000Z</time>
      </trkpt>
      <trkpt lat="47.97606" lon="6.96088">
        <ele>597.80004882812</ele>
        <time>2022-10-31T14:59:38.000Z</time>
      </trkpt>
      <trkpt lat="47.97598" lon="6.96089">
        <ele>597.80004882812</ele>
        <time>2022-10-31T14:59:44.000Z</time>
      </trkpt>
      <trkpt lat="47.97596" lon="6.96089">
        <ele>597.80004882812</ele>
        <time>2022-10-31T14:59:46.000Z</time>
      </trkpt>
      <trkpt lat="47.97591" lon="6.96091">
        <ele>597.59997558594</ele>
        <time>2022-10-31T14:59:49.000Z</time>
      </trkpt>
      <trkpt lat="47.97586" lon="6.96089">
        <ele>597.59997558594</ele>
        <time>2022-10-31T14:59:54.000Z</time>
      </trkpt>
      <trkpt lat="47.97585" lon="6.96088">
        <ele>597.40002441406</ele>
        <time>2022-10-31T14:59:56.000Z</time>
      </trkpt>
      <trkpt lat="47.97586" lon="6.96087">
        <ele>597.40002441406</ele>
        <time>2022-10-31T14:59:57.000Z</time>
      </trkpt>
      <trkpt lat="47.97586" lon="6.96086">
        <ele>597.40002441406</ele>
        <time>2022-10-31T14:59:58.000Z</time>
      </trkpt>
      <trkpt lat="47.97587" lon="6.96086">
        <ele>597.59997558594</ele>
        <time>2022-10-31T14:59:59.000Z</time>
      </trkpt>
      <trkpt lat="47.97585" lon="6.96084">
        <ele>597.59997558594</ele>
        <time>2022-10-31T15:00:02.000Z</time>
      </trkpt>
      <trkpt lat="47.97576" lon="6.96083">
        <ele>597.40002441406</ele>
        <time>2022-10-31T15:00:09.000Z</time>
      </trkpt>
      <trkpt lat="47.97573" lon="6.96082">
        <ele>597.40002441406</ele>
        <time>2022-10-31T15:00:11.000Z</time>
      </trkpt>
      <trkpt lat="47.97568" lon="6.96081">
        <ele>597</ele>
        <time>2022-10-31T15:00:15.000Z</time>
      </trkpt>
      <trkpt lat="47.97567" lon="6.96079">
        <ele>597</ele>
        <time>2022-10-31T15:00:16.000Z</time>
      </trkpt>
      <trkpt lat="47.97567" lon="6.96078">
        <ele>597</ele>
        <time>2022-10-31T15:00:17.000Z</time>
      </trkpt>
      <trkpt lat="47.97562" lon="6.96075">
        <ele>597</ele>
        <time>2022-10-31T15:00:22.000Z</time>
      </trkpt>
      <trkpt lat="47.97558" lon="6.96072">
        <ele>597</ele>
        <time>2022-10-31T15:00:27.000Z</time>
      </trkpt>
      <trkpt lat="47.97555" lon="6.96072">
        <ele>597</ele>
        <time>2022-10-31T15:00:29.000Z</time>
      </trkpt>
      <trkpt lat="47.9755" lon="6.9607">
        <ele>596.80004882812</ele>
        <time>2022-10-31T15:00:34.000Z</time>
      </trkpt>
      <trkpt lat="47.97549" lon="6.9607">
        <ele>596.80004882812</ele>
        <time>2022-10-31T15:00:35.000Z</time>
      </trkpt>
      <trkpt lat="47.97548" lon="6.96064">
        <ele>596.59997558594</ele>
        <time>2022-10-31T15:00:43.000Z</time>
      </trkpt>
      <trkpt lat="47.97543" lon="6.96062">
        <ele>596.59997558594</ele>
        <time>2022-10-31T15:00:50.000Z</time>
      </trkpt>
      <trkpt lat="47.9754" lon="6.96061">
        <ele>596.59997558594</ele>
        <time>2022-10-31T15:00:53.000Z</time>
      </trkpt>
      <trkpt lat="47.97537" lon="6.96062">
        <ele>596.40002441406</ele>
        <time>2022-10-31T15:00:56.000Z</time>
      </trkpt>
      <trkpt lat="47.97534" lon="6.96063">
        <ele>596.40002441406</ele>
        <time>2022-10-31T15:01:00.000Z</time>
      </trkpt>
      <trkpt lat="47.97535" lon="6.96062">
        <ele>596.40002441406</ele>
        <time>2022-10-31T15:01:03.000Z</time>
      </trkpt>
      <trkpt lat="47.97536" lon="6.96063">
        <ele>596.40002441406</ele>
        <time>2022-10-31T15:01:09.000Z</time>
      </trkpt>
      <trkpt lat="47.97538" lon="6.96061">
        <ele>596.40002441406</ele>
        <time>2022-10-31T15:01:12.000Z</time>
      </trkpt>
      <trkpt lat="47.97538" lon="6.96062">
        <ele>596.19995117188</ele>
        <time>2022-10-31T15:01:16.000Z</time>
      </trkpt>
      <trkpt lat="47.97535" lon="6.96061">
        <ele>596.19995117188</ele>
        <time>2022-10-31T15:01:21.000Z</time>
      </trkpt>
      <trkpt lat="47.97533" lon="6.96061">
        <ele>596.19995117188</ele>
        <time>2022-10-31T15:01:23.000Z</time>
      </trkpt>
      <trkpt lat="47.97526" lon="6.9606">
        <ele>596</ele>
        <time>2022-10-31T15:01:31.000Z</time>
      </trkpt>
      <trkpt lat="47.97523" lon="6.96059">
        <ele>596</ele>
        <time>2022-10-31T15:01:38.000Z</time>
      </trkpt>
      <trkpt lat="47.97518" lon="6.96062">
        <ele>595.59997558594</ele>
        <time>2022-10-31T15:01:41.000Z</time>
      </trkpt>
      <trkpt lat="47.97514" lon="6.96062">
        <ele>595.40002441406</ele>
        <time>2022-10-31T15:01:44.000Z</time>
      </trkpt>
      <trkpt lat="47.97509" lon="6.96066">
        <ele>595.40002441406</ele>
        <time>2022-10-31T15:01:48.000Z</time>
      </trkpt>
      <trkpt lat="47.97505" lon="6.96069">
        <ele>595.40002441406</ele>
        <time>2022-10-31T15:01:50.000Z</time>
      </trkpt>
      <trkpt lat="47.97495" lon="6.96077">
        <ele>595.40002441406</ele>
        <time>2022-10-31T15:01:55.000Z</time>
      </trkpt>
      <trkpt lat="47.97486" lon="6.96079">
        <ele>595.40002441406</ele>
        <time>2022-10-31T15:02:02.000Z</time>
      </trkpt>
      <trkpt lat="47.97485" lon="6.96079">
        <ele>595.40002441406</ele>
        <time>2022-10-31T15:02:03.000Z</time>
      </trkpt>
      <trkpt lat="47.97484" lon="6.96078">
        <ele>595.40002441406</ele>
        <time>2022-10-31T15:02:04.000Z</time>
      </trkpt>
      <trkpt lat="47.97474" lon="6.96081">
        <ele>595.19995117188</ele>
        <time>2022-10-31T15:02:11.000Z</time>
      </trkpt>
      <trkpt lat="47.97463" lon="6.96082">
        <ele>595</ele>
        <time>2022-10-31T15:02:19.000Z</time>
      </trkpt>
      <trkpt lat="47.97462" lon="6.96079">
        <ele>595</ele>
        <time>2022-10-31T15:02:22.000Z</time>
      </trkpt>
      <trkpt lat="47.97457" lon="6.96078">
        <ele>595</ele>
        <time>2022-10-31T15:02:27.000Z</time>
      </trkpt>
      <trkpt lat="47.97453" lon="6.96077">
        <ele>595</ele>
        <time>2022-10-31T15:02:31.000Z</time>
      </trkpt>
      <trkpt lat="47.9745" lon="6.96076">
        <ele>595</ele>
        <time>2022-10-31T15:02:34.000Z</time>
      </trkpt>
      <trkpt lat="47.97446" lon="6.96073">
        <ele>594.80004882812</ele>
        <time>2022-10-31T15:02:39.000Z</time>
      </trkpt>
      <trkpt lat="47.97442" lon="6.96071">
        <ele>594.80004882812</ele>
        <time>2022-10-31T15:02:43.000Z</time>
      </trkpt>
      <trkpt lat="47.97437" lon="6.96067">
        <ele>595</ele>
        <time>2022-10-31T15:02:50.000Z</time>
      </trkpt>
      <trkpt lat="47.97437" lon="6.96066">
        <ele>595</ele>
        <time>2022-10-31T15:02:51.000Z</time>
      </trkpt>
      <trkpt lat="47.97438" lon="6.96063">
        <ele>595</ele>
        <time>2022-10-31T15:02:58.000Z</time>
      </trkpt>
      <trkpt lat="47.97433" lon="6.9606">
        <ele>595</ele>
        <time>2022-10-31T15:03:04.000Z</time>
      </trkpt>
      <trkpt lat="47.97426" lon="6.9606">
        <ele>595</ele>
        <time>2022-10-31T15:03:10.000Z</time>
      </trkpt>
      <trkpt lat="47.97423" lon="6.96057">
        <ele>595</ele>
        <time>2022-10-31T15:03:14.000Z</time>
      </trkpt>
      <trkpt lat="47.97422" lon="6.96055">
        <ele>595</ele>
        <time>2022-10-31T15:03:17.000Z</time>
      </trkpt>
      <trkpt lat="47.97413" lon="6.96053">
        <ele>595.19995117188</ele>
        <time>2022-10-31T15:03:25.000Z</time>
      </trkpt>
      <trkpt lat="47.97412" lon="6.96051">
        <ele>595.19995117188</ele>
        <time>2022-10-31T15:03:26.000Z</time>
      </trkpt>
      <trkpt lat="47.97408" lon="6.96048">
        <ele>595.40002441406</ele>
        <time>2022-10-31T15:03:32.000Z</time>
      </trkpt>
      <trkpt lat="47.97407" lon="6.96048">
        <ele>595.40002441406</ele>
        <time>2022-10-31T15:03:33.000Z</time>
      </trkpt>
      <trkpt lat="47.97406" lon="6.96047">
        <ele>595.40002441406</ele>
        <time>2022-10-31T15:03:34.000Z</time>
      </trkpt>
      <trkpt lat="47.97399" lon="6.96048">
        <ele>595.59997558594</ele>
        <time>2022-10-31T15:03:39.000Z</time>
      </trkpt>
      <trkpt lat="47.97395" lon="6.96047">
        <ele>595.59997558594</ele>
        <time>2022-10-31T15:03:42.000Z</time>
      </trkpt>
      <trkpt lat="47.97393" lon="6.96046">
        <ele>595.59997558594</ele>
        <time>2022-10-31T15:03:44.000Z</time>
      </trkpt>
      <trkpt lat="47.97387" lon="6.96047">
        <ele>595.80004882812</ele>
        <time>2022-10-31T15:03:48.000Z</time>
      </trkpt>
      <trkpt lat="47.97386" lon="6.96047">
        <ele>595.80004882812</ele>
        <time>2022-10-31T15:03:49.000Z</time>
      </trkpt>
      <trkpt lat="47.97384" lon="6.96046">
        <ele>595.80004882812</ele>
        <time>2022-10-31T15:03:51.000Z</time>
      </trkpt>
      <trkpt lat="47.97383" lon="6.96044">
        <ele>596</ele>
        <time>2022-10-31T15:03:53.000Z</time>
      </trkpt>
      <trkpt lat="47.97376" lon="6.96038">
        <ele>596</ele>
        <time>2022-10-31T15:04:01.000Z</time>
      </trkpt>
      <trkpt lat="47.97372" lon="6.96036">
        <ele>596</ele>
        <time>2022-10-31T15:04:05.000Z</time>
      </trkpt>
      <trkpt lat="47.97368" lon="6.96032">
        <ele>596</ele>
        <time>2022-10-31T15:04:10.000Z</time>
      </trkpt>
      <trkpt lat="47.97366" lon="6.96031">
        <ele>596</ele>
        <time>2022-10-31T15:04:13.000Z</time>
      </trkpt>
      <trkpt lat="47.97364" lon="6.96031">
        <ele>596</ele>
        <time>2022-10-31T15:04:15.000Z</time>
      </trkpt>
      <trkpt lat="47.97362" lon="6.9603">
        <ele>595.80004882812</ele>
        <time>2022-10-31T15:04:16.000Z</time>
      </trkpt>
      <trkpt lat="47.97357" lon="6.96028">
        <ele>596</ele>
        <time>2022-10-31T15:04:22.000Z</time>
      </trkpt>
      <trkpt lat="47.97358" lon="6.96027">
        <ele>596</ele>
        <time>2022-10-31T15:04:23.000Z</time>
      </trkpt>
      <trkpt lat="47.97359" lon="6.96027">
        <ele>596</ele>
        <time>2022-10-31T15:04:30.000Z</time>
      </trkpt>
      <trkpt lat="47.97357" lon="6.96024">
        <ele>596</ele>
        <time>2022-10-31T15:04:35.000Z</time>
      </trkpt>
      <trkpt lat="47.97359" lon="6.96022">
        <ele>595.80004882812</ele>
        <time>2022-10-31T15:04:40.000Z</time>
      </trkpt>
      <trkpt lat="47.9735" lon="6.9602">
        <ele>595.80004882812</ele>
        <time>2022-10-31T15:04:47.000Z</time>
      </trkpt>
      <trkpt lat="47.97345" lon="6.96016">
        <ele>595.80004882812</ele>
        <time>2022-10-31T15:04:53.000Z</time>
      </trkpt>
      <trkpt lat="47.97341" lon="6.96011">
        <ele>595.59997558594</ele>
        <time>2022-10-31T15:05:00.000Z</time>
      </trkpt>
      <trkpt lat="47.97334" lon="6.96006">
        <ele>595.59997558594</ele>
        <time>2022-10-31T15:05:07.000Z</time>
      </trkpt>
      <trkpt lat="47.97333" lon="6.96006">
        <ele>595.59997558594</ele>
        <time>2022-10-31T15:05:08.000Z</time>
      </trkpt>
      <trkpt lat="47.97328" lon="6.96007">
        <ele>595.59997558594</ele>
        <time>2022-10-31T15:05:12.000Z</time>
      </trkpt>
      <trkpt lat="47.97327" lon="6.96008">
        <ele>595.59997558594</ele>
        <time>2022-10-31T15:05:13.000Z</time>
      </trkpt>
      <trkpt lat="47.9732" lon="6.96006">
        <ele>595.40002441406</ele>
        <time>2022-10-31T15:05:20.000Z</time>
      </trkpt>
      <trkpt lat="47.97314" lon="6.96005">
        <ele>595.40002441406</ele>
        <time>2022-10-31T15:05:25.000Z</time>
      </trkpt>
      <trkpt lat="47.97306" lon="6.96006">
        <ele>595</ele>
        <time>2022-10-31T15:05:32.000Z</time>
      </trkpt>
      <trkpt lat="47.97298" lon="6.96006">
        <ele>594.80004882812</ele>
        <time>2022-10-31T15:05:39.000Z</time>
      </trkpt>
      <trkpt lat="47.97297" lon="6.96005">
        <ele>594.80004882812</ele>
        <time>2022-10-31T15:05:40.000Z</time>
      </trkpt>
      <trkpt lat="47.97296" lon="6.96003">
        <ele>594.40002441406</ele>
        <time>2022-10-31T15:05:43.000Z</time>
      </trkpt>
      <trkpt lat="47.97295" lon="6.96001">
        <ele>594.40002441406</ele>
        <time>2022-10-31T15:05:45.000Z</time>
      </trkpt>
      <trkpt lat="47.97295" lon="6.96">
        <ele>594.40002441406</ele>
        <time>2022-10-31T15:05:49.000Z</time>
      </trkpt>
      <trkpt lat="47.97295" lon="6.96">
        <ele>594.40002441406</ele>
        <time>2022-10-31T15:05:51.000Z</time>
      </trkpt>
      <trkpt lat="47.97288" lon="6.96001">
        <ele>594.19995117188</ele>
        <time>2022-10-31T15:05:57.000Z</time>
      </trkpt>
      <trkpt lat="47.97283" lon="6.96">
        <ele>593.80004882812</ele>
        <time>2022-10-31T15:06:03.000Z</time>
      </trkpt>
      <trkpt lat="47.97284" lon="6.95998">
        <ele>593.80004882812</ele>
        <time>2022-10-31T15:06:09.000Z</time>
      </trkpt>
      <trkpt lat="47.97286" lon="6.95994">
        <ele>593.80004882812</ele>
        <time>2022-10-31T15:06:11.000Z</time>
      </trkpt>
      <trkpt lat="47.97286" lon="6.95994">
        <ele>593.59997558594</ele>
        <time>2022-10-31T15:06:15.000Z</time>
      </trkpt>
      <trkpt lat="47.97281" lon="6.95997">
        <ele>593.59997558594</ele>
        <time>2022-10-31T15:06:22.000Z</time>
      </trkpt>
      <trkpt lat="47.97279" lon="6.95998">
        <ele>593.59997558594</ele>
        <time>2022-10-31T15:06:24.000Z</time>
      </trkpt>
      <trkpt lat="47.97274" lon="6.95998">
        <ele>593.40002441406</ele>
        <time>2022-10-31T15:06:29.000Z</time>
      </trkpt>
      <trkpt lat="47.97272" lon="6.95999">
        <ele>593.40002441406</ele>
        <time>2022-10-31T15:06:30.000Z</time>
      </trkpt>
      <trkpt lat="47.97263" lon="6.96002">
        <ele>593.19995117188</ele>
        <time>2022-10-31T15:06:36.000Z</time>
      </trkpt>
      <trkpt lat="47.97257" lon="6.96004">
        <ele>593.19995117188</ele>
        <time>2022-10-31T15:06:40.000Z</time>
      </trkpt>
      <trkpt lat="47.97255" lon="6.96005">
        <ele>593.19995117188</ele>
        <time>2022-10-31T15:06:42.000Z</time>
      </trkpt>
      <trkpt lat="47.97255" lon="6.96005">
        <ele>593.19995117188</ele>
        <time>2022-10-31T15:06:43.000Z</time>
      </trkpt>
      <trkpt lat="47.97253" lon="6.96004">
        <ele>593</ele>
        <time>2022-10-31T15:06:46.000Z</time>
      </trkpt>
      <trkpt lat="47.97255" lon="6.96003">
        <ele>593</ele>
        <time>2022-10-31T15:06:48.000Z</time>
      </trkpt>
      <trkpt lat="47.97254" lon="6.96002">
        <ele>592.80004882812</ele>
        <time>2022-10-31T15:06:51.000Z</time>
      </trkpt>
      <trkpt lat="47.97251" lon="6.96001">
        <ele>592.80004882812</ele>
        <time>2022-10-31T15:06:53.000Z</time>
      </trkpt>
      <trkpt lat="47.97245" lon="6.96001">
        <ele>592.80004882812</ele>
        <time>2022-10-31T15:06:58.000Z</time>
      </trkpt>
      <trkpt lat="47.97244" lon="6.96001">
        <ele>592.80004882812</ele>
        <time>2022-10-31T15:06:59.000Z</time>
      </trkpt>
      <trkpt lat="47.97243" lon="6.96">
        <ele>593</ele>
        <time>2022-10-31T15:07:01.000Z</time>
      </trkpt>
      <trkpt lat="47.97241" lon="6.96">
        <ele>593</ele>
        <time>2022-10-31T15:07:03.000Z</time>
      </trkpt>
      <trkpt lat="47.97237" lon="6.95999">
        <ele>592.80004882812</ele>
        <time>2022-10-31T15:07:06.000Z</time>
      </trkpt>
      <trkpt lat="47.97227" lon="6.95995">
        <ele>592.59997558594</ele>
        <time>2022-10-31T15:07:14.000Z</time>
      </trkpt>
      <trkpt lat="47.97226" lon="6.95989">
        <ele>592.40002441406</ele>
        <time>2022-10-31T15:07:18.000Z</time>
      </trkpt>
      <trkpt lat="47.97223" lon="6.95985">
        <ele>592.59997558594</ele>
        <time>2022-10-31T15:07:22.000Z</time>
      </trkpt>
      <trkpt lat="47.97222" lon="6.95984">
        <ele>592.59997558594</ele>
        <time>2022-10-31T15:07:23.000Z</time>
      </trkpt>
      <trkpt lat="47.97219" lon="6.95983">
        <ele>592.59997558594</ele>
        <time>2022-10-31T15:07:26.000Z</time>
      </trkpt>
      <trkpt lat="47.97217" lon="6.9598">
        <ele>592.59997558594</ele>
        <time>2022-10-31T15:07:29.000Z</time>
      </trkpt>
      <trkpt lat="47.97215" lon="6.95979">
        <ele>592.80004882812</ele>
        <time>2022-10-31T15:07:31.000Z</time>
      </trkpt>
      <trkpt lat="47.97213" lon="6.95976">
        <ele>592.80004882812</ele>
        <time>2022-10-31T15:07:33.000Z</time>
      </trkpt>
      <trkpt lat="47.97206" lon="6.95972">
        <ele>593</ele>
        <time>2022-10-31T15:07:41.000Z</time>
      </trkpt>
      <trkpt lat="47.97203" lon="6.95967">
        <ele>592.80004882812</ele>
        <time>2022-10-31T15:07:48.000Z</time>
      </trkpt>
      <trkpt lat="47.97202" lon="6.95967">
        <ele>592.80004882812</ele>
        <time>2022-10-31T15:07:49.000Z</time>
      </trkpt>
      <trkpt lat="47.97198" lon="6.95966">
        <ele>592.80004882812</ele>
        <time>2022-10-31T15:07:55.000Z</time>
      </trkpt>
      <trkpt lat="47.97197" lon="6.95966">
        <ele>593</ele>
        <time>2022-10-31T15:07:56.000Z</time>
      </trkpt>
      <trkpt lat="47.97194" lon="6.95967">
        <ele>593</ele>
        <time>2022-10-31T15:07:59.000Z</time>
      </trkpt>
      <trkpt lat="47.9719" lon="6.95966">
        <ele>593</ele>
        <time>2022-10-31T15:08:03.000Z</time>
      </trkpt>
      <trkpt lat="47.9719" lon="6.95966">
        <ele>593</ele>
        <time>2022-10-31T15:08:05.000Z</time>
      </trkpt>
      <trkpt lat="47.97187" lon="6.95965">
        <ele>593</ele>
        <time>2022-10-31T15:08:09.000Z</time>
      </trkpt>
      <trkpt lat="47.97183" lon="6.95963">
        <ele>593</ele>
        <time>2022-10-31T15:08:14.000Z</time>
      </trkpt>
      <trkpt lat="47.97173" lon="6.95966">
        <ele>593</ele>
        <time>2022-10-31T15:08:23.000Z</time>
      </trkpt>
      <trkpt lat="47.97172" lon="6.95965">
        <ele>593</ele>
        <time>2022-10-31T15:08:28.000Z</time>
      </trkpt>
      <trkpt lat="47.97169" lon="6.95962">
        <ele>593</ele>
        <time>2022-10-31T15:08:32.000Z</time>
      </trkpt>
      <trkpt lat="47.97168" lon="6.9596">
        <ele>593</ele>
        <time>2022-10-31T15:08:35.000Z</time>
      </trkpt>
      <trkpt lat="47.97161" lon="6.95959">
        <ele>593</ele>
        <time>2022-10-31T15:08:42.000Z</time>
      </trkpt>
      <trkpt lat="47.97159" lon="6.9596">
        <ele>593</ele>
        <time>2022-10-31T15:08:43.000Z</time>
      </trkpt>
      <trkpt lat="47.97158" lon="6.9596">
        <ele>593.19995117188</ele>
        <time>2022-10-31T15:08:44.000Z</time>
      </trkpt>
      <trkpt lat="47.97155" lon="6.95959">
        <ele>593.19995117188</ele>
        <time>2022-10-31T15:08:47.000Z</time>
      </trkpt>
      <trkpt lat="47.97155" lon="6.95957">
        <ele>593.40002441406</ele>
        <time>2022-10-31T15:08:49.000Z</time>
      </trkpt>
      <trkpt lat="47.97154" lon="6.95956">
        <ele>593.40002441406</ele>
        <time>2022-10-31T15:08:50.000Z</time>
      </trkpt>
      <trkpt lat="47.97153" lon="6.95955">
        <ele>593.40002441406</ele>
        <time>2022-10-31T15:08:53.000Z</time>
      </trkpt>
      <trkpt lat="47.97153" lon="6.95954">
        <ele>593.19995117188</ele>
        <time>2022-10-31T15:08:54.000Z</time>
      </trkpt>
      <trkpt lat="47.97151" lon="6.95953">
        <ele>593.40002441406</ele>
        <time>2022-10-31T15:08:59.000Z</time>
      </trkpt>
      <trkpt lat="47.97146" lon="6.95954">
        <ele>593.40002441406</ele>
        <time>2022-10-31T15:09:06.000Z</time>
      </trkpt>
      <trkpt lat="47.97142" lon="6.95949">
        <ele>593.40002441406</ele>
        <time>2022-10-31T15:09:12.000Z</time>
      </trkpt>
      <trkpt lat="47.97141" lon="6.95949">
        <ele>593.40002441406</ele>
        <time>2022-10-31T15:09:13.000Z</time>
      </trkpt>
      <trkpt lat="47.97135" lon="6.95947">
        <ele>593.59997558594</ele>
        <time>2022-10-31T15:09:19.000Z</time>
      </trkpt>
      <trkpt lat="47.97134" lon="6.95947">
        <ele>593.80004882812</ele>
        <time>2022-10-31T15:09:21.000Z</time>
      </trkpt>
      <trkpt lat="47.9713" lon="6.95948">
        <ele>593.80004882812</ele>
        <time>2022-10-31T15:09:28.000Z</time>
      </trkpt>
      <trkpt lat="47.97129" lon="6.95949">
        <ele>593.59997558594</ele>
        <time>2022-10-31T15:09:29.000Z</time>
      </trkpt>
      <trkpt lat="47.97123" lon="6.9595">
        <ele>593.80004882812</ele>
        <time>2022-10-31T15:09:34.000Z</time>
      </trkpt>
      <trkpt lat="47.97118" lon="6.95952">
        <ele>593.80004882812</ele>
        <time>2022-10-31T15:09:38.000Z</time>
      </trkpt>
      <trkpt lat="47.9711" lon="6.95953">
        <ele>593.80004882812</ele>
        <time>2022-10-31T15:09:45.000Z</time>
      </trkpt>
      <trkpt lat="47.97107" lon="6.95954">
        <ele>593.80004882812</ele>
        <time>2022-10-31T15:09:48.000Z</time>
      </trkpt>
      <trkpt lat="47.97107" lon="6.95952">
        <ele>593.80004882812</ele>
        <time>2022-10-31T15:09:51.000Z</time>
      </trkpt>
      <trkpt lat="47.97104" lon="6.95946">
        <ele>593.80004882812</ele>
        <time>2022-10-31T15:09:57.000Z</time>
      </trkpt>
      <trkpt lat="47.97103" lon="6.95946">
        <ele>593.80004882812</ele>
        <time>2022-10-31T15:09:58.000Z</time>
      </trkpt>
      <trkpt lat="47.97102" lon="6.95946">
        <ele>593.80004882812</ele>
        <time>2022-10-31T15:10:00.000Z</time>
      </trkpt>
      <trkpt lat="47.97101" lon="6.95945">
        <ele>593.80004882812</ele>
        <time>2022-10-31T15:10:01.000Z</time>
      </trkpt>
      <trkpt lat="47.97094" lon="6.95947">
        <ele>593.40002441406</ele>
        <time>2022-10-31T15:10:07.000Z</time>
      </trkpt>
      <trkpt lat="47.97093" lon="6.95946">
        <ele>593.40002441406</ele>
        <time>2022-10-31T15:10:10.000Z</time>
      </trkpt>
      <trkpt lat="47.97093" lon="6.95946">
        <ele>593.40002441406</ele>
        <time>2022-10-31T15:10:12.000Z</time>
      </trkpt>
      <trkpt lat="47.97091" lon="6.95948">
        <ele>593.40002441406</ele>
        <time>2022-10-31T15:10:15.000Z</time>
      </trkpt>
      <trkpt lat="47.97086" lon="6.95951">
        <ele>593.19995117188</ele>
        <time>2022-10-31T15:10:19.000Z</time>
      </trkpt>
      <trkpt lat="47.97083" lon="6.95948">
        <ele>593.19995117188</ele>
        <time>2022-10-31T15:10:23.000Z</time>
      </trkpt>
      <trkpt lat="47.97081" lon="6.95948">
        <ele>593</ele>
        <time>2022-10-31T15:10:26.000Z</time>
      </trkpt>
      <trkpt lat="47.97076" lon="6.9595">
        <ele>592.80004882812</ele>
        <time>2022-10-31T15:10:31.000Z</time>
      </trkpt>
      <trkpt lat="47.97074" lon="6.9595">
        <ele>592.59997558594</ele>
        <time>2022-10-31T15:10:33.000Z</time>
      </trkpt>
      <trkpt lat="47.9707" lon="6.95949">
        <ele>592.40002441406</ele>
        <time>2022-10-31T15:10:39.000Z</time>
      </trkpt>
      <trkpt lat="47.97069" lon="6.95948">
        <ele>592.19995117188</ele>
        <time>2022-10-31T15:10:40.000Z</time>
      </trkpt>
      <trkpt lat="47.97067" lon="6.95948">
        <ele>592</ele>
        <time>2022-10-31T15:10:44.000Z</time>
      </trkpt>
      <trkpt lat="47.97067" lon="6.95946">
        <ele>592</ele>
        <time>2022-10-31T15:10:45.000Z</time>
      </trkpt>
      <trkpt lat="47.97065" lon="6.95943">
        <ele>591.80004882812</ele>
        <time>2022-10-31T15:10:47.000Z</time>
      </trkpt>
      <trkpt lat="47.97064" lon="6.9594">
        <ele>591.80004882812</ele>
        <time>2022-10-31T15:10:49.000Z</time>
      </trkpt>
      <trkpt lat="47.97063" lon="6.95939">
        <ele>591.59997558594</ele>
        <time>2022-10-31T15:10:50.000Z</time>
      </trkpt>
      <trkpt lat="47.9706" lon="6.95941">
        <ele>591.40002441406</ele>
        <time>2022-10-31T15:10:53.000Z</time>
      </trkpt>
      <trkpt lat="47.97059" lon="6.95942">
        <ele>591.40002441406</ele>
        <time>2022-10-31T15:10:54.000Z</time>
      </trkpt>
      <trkpt lat="47.97056" lon="6.95944">
        <ele>591.40002441406</ele>
        <time>2022-10-31T15:10:56.000Z</time>
      </trkpt>
      <trkpt lat="47.9705" lon="6.95947">
        <ele>591</ele>
        <time>2022-10-31T15:11:01.000Z</time>
      </trkpt>
      <trkpt lat="47.97042" lon="6.95947">
        <ele>590.59997558594</ele>
        <time>2022-10-31T15:11:09.000Z</time>
      </trkpt>
      <trkpt lat="47.97036" lon="6.95949">
        <ele>590.19995117188</ele>
        <time>2022-10-31T15:11:12.000Z</time>
      </trkpt>
      <trkpt lat="47.97034" lon="6.95949">
        <ele>590</ele>
        <time>2022-10-31T15:11:14.000Z</time>
      </trkpt>
      <trkpt lat="47.97034" lon="6.95949">
        <ele>590</ele>
        <time>2022-10-31T15:11:15.000Z</time>
      </trkpt>
      <trkpt lat="47.97032" lon="6.95949">
        <ele>589.80004882812</ele>
        <time>2022-10-31T15:11:18.000Z</time>
      </trkpt>
      <trkpt lat="47.9703" lon="6.95949">
        <ele>589.40002441406</ele>
        <time>2022-10-31T15:11:20.000Z</time>
      </trkpt>
      <trkpt lat="47.97028" lon="6.95949">
        <ele>589.40002441406</ele>
        <time>2022-10-31T15:11:21.000Z</time>
      </trkpt>
      <trkpt lat="47.97025" lon="6.95949">
        <ele>589.19995117188</ele>
        <time>2022-10-31T15:11:23.000Z</time>
      </trkpt>
      <trkpt lat="47.97022" lon="6.9595">
        <ele>589</ele>
        <time>2022-10-31T15:11:26.000Z</time>
      </trkpt>
      <trkpt lat="47.97018" lon="6.9595">
        <ele>588.80004882812</ele>
        <time>2022-10-31T15:11:30.000Z</time>
      </trkpt>
      <trkpt lat="47.97017" lon="6.9595">
        <ele>588.59997558594</ele>
        <time>2022-10-31T15:11:33.000Z</time>
      </trkpt>
      <trkpt lat="47.97011" lon="6.95954">
        <ele>588.59997558594</ele>
        <time>2022-10-31T15:11:38.000Z</time>
      </trkpt>
      <trkpt lat="47.97005" lon="6.95955">
        <ele>588.19995117188</ele>
        <time>2022-10-31T15:11:43.000Z</time>
      </trkpt>
      <trkpt lat="47.97009" lon="6.9595">
        <ele>588</ele>
        <time>2022-10-31T15:11:48.000Z</time>
      </trkpt>
      <trkpt lat="47.97004" lon="6.9595">
        <ele>587.80004882812</ele>
        <time>2022-10-31T15:11:54.000Z</time>
      </trkpt>
      <trkpt lat="47.96997" lon="6.9595">
        <ele>587.40002441406</ele>
        <time>2022-10-31T15:12:01.000Z</time>
      </trkpt>
      <trkpt lat="47.96996" lon="6.95949">
        <ele>587.19995117188</ele>
        <time>2022-10-31T15:12:02.000Z</time>
      </trkpt>
      <trkpt lat="47.96994" lon="6.95948">
        <ele>587</ele>
        <time>2022-10-31T15:12:06.000Z</time>
      </trkpt>
      <trkpt lat="47.96994" lon="6.95949">
        <ele>587</ele>
        <time>2022-10-31T15:12:07.000Z</time>
      </trkpt>
      <trkpt lat="47.96991" lon="6.9595">
        <ele>587</ele>
        <time>2022-10-31T15:12:10.000Z</time>
      </trkpt>
      <trkpt lat="47.96988" lon="6.95949">
        <ele>586.80004882812</ele>
        <time>2022-10-31T15:12:13.000Z</time>
      </trkpt>
      <trkpt lat="47.96983" lon="6.95945">
        <ele>586.59997558594</ele>
        <time>2022-10-31T15:12:17.000Z</time>
      </trkpt>
      <trkpt lat="47.9698" lon="6.95941">
        <ele>586.40002441406</ele>
        <time>2022-10-31T15:12:22.000Z</time>
      </trkpt>
      <trkpt lat="47.96978" lon="6.95942">
        <ele>586.19995117188</ele>
        <time>2022-10-31T15:12:24.000Z</time>
      </trkpt>
      <trkpt lat="47.96971" lon="6.95939">
        <ele>586</ele>
        <time>2022-10-31T15:12:29.000Z</time>
      </trkpt>
      <trkpt lat="47.9697" lon="6.95939">
        <ele>586</ele>
        <time>2022-10-31T15:12:30.000Z</time>
      </trkpt>
      <trkpt lat="47.96967" lon="6.9594">
        <ele>586</ele>
        <time>2022-10-31T15:12:32.000Z</time>
      </trkpt>
      <trkpt lat="47.96962" lon="6.95941">
        <ele>585.80004882812</ele>
        <time>2022-10-31T15:12:36.000Z</time>
      </trkpt>
      <trkpt lat="47.96961" lon="6.95942">
        <ele>585.80004882812</ele>
        <time>2022-10-31T15:12:38.000Z</time>
      </trkpt>
      <trkpt lat="47.96959" lon="6.95942">
        <ele>585.80004882812</ele>
        <time>2022-10-31T15:12:40.000Z</time>
      </trkpt>
      <trkpt lat="47.96957" lon="6.95942">
        <ele>585.80004882812</ele>
        <time>2022-10-31T15:12:41.000Z</time>
      </trkpt>
      <trkpt lat="47.96957" lon="6.95941">
        <ele>585.59997558594</ele>
        <time>2022-10-31T15:12:42.000Z</time>
      </trkpt>
      <trkpt lat="47.96958" lon="6.9594">
        <ele>585.59997558594</ele>
        <time>2022-10-31T15:12:44.000Z</time>
      </trkpt>
      <trkpt lat="47.96953" lon="6.95939">
        <ele>585.40002441406</ele>
        <time>2022-10-31T15:12:49.000Z</time>
      </trkpt>
      <trkpt lat="47.9695" lon="6.9594">
        <ele>585.40002441406</ele>
        <time>2022-10-31T15:12:50.000Z</time>
      </trkpt>
      <trkpt lat="47.96947" lon="6.95939">
        <ele>585.19995117188</ele>
        <time>2022-10-31T15:12:52.000Z</time>
      </trkpt>
      <trkpt lat="47.96943" lon="6.95937">
        <ele>585.19995117188</ele>
        <time>2022-10-31T15:12:55.000Z</time>
      </trkpt>
      <trkpt lat="47.9694" lon="6.95938">
        <ele>585.19995117188</ele>
        <time>2022-10-31T15:12:57.000Z</time>
      </trkpt>
      <trkpt lat="47.96939" lon="6.95938">
        <ele>585</ele>
        <time>2022-10-31T15:12:58.000Z</time>
      </trkpt>
      <trkpt lat="47.96937" lon="6.95937">
        <ele>585</ele>
        <time>2022-10-31T15:13:00.000Z</time>
      </trkpt>
      <trkpt lat="47.96935" lon="6.95936">
        <ele>585</ele>
        <time>2022-10-31T15:13:03.000Z</time>
      </trkpt>
      <trkpt lat="47.96933" lon="6.95937">
        <ele>585</ele>
        <time>2022-10-31T15:13:04.000Z</time>
      </trkpt>
      <trkpt lat="47.96927" lon="6.95937">
        <ele>584.80004882812</ele>
        <time>2022-10-31T15:13:08.000Z</time>
      </trkpt>
      <trkpt lat="47.96925" lon="6.95937">
        <ele>584.80004882812</ele>
        <time>2022-10-31T15:13:09.000Z</time>
      </trkpt>
      <trkpt lat="47.9692" lon="6.95934">
        <ele>584.59997558594</ele>
        <time>2022-10-31T15:13:15.000Z</time>
      </trkpt>
      <trkpt lat="47.96916" lon="6.95935">
        <ele>584.59997558594</ele>
        <time>2022-10-31T15:13:18.000Z</time>
      </trkpt>
      <trkpt lat="47.96911" lon="6.95937">
        <ele>584.59997558594</ele>
        <time>2022-10-31T15:13:22.000Z</time>
      </trkpt>
      <trkpt lat="47.96905" lon="6.95935">
        <ele>584.40002441406</ele>
        <time>2022-10-31T15:13:28.000Z</time>
      </trkpt>
      <trkpt lat="47.96899" lon="6.95935">
        <ele>584.40002441406</ele>
        <time>2022-10-31T15:13:33.000Z</time>
      </trkpt>
      <trkpt lat="47.96898" lon="6.95933">
        <ele>584.40002441406</ele>
        <time>2022-10-31T15:13:35.000Z</time>
      </trkpt>
      <trkpt lat="47.96897" lon="6.95932">
        <ele>584.40002441406</ele>
        <time>2022-10-31T15:13:36.000Z</time>
      </trkpt>
      <trkpt lat="47.96897" lon="6.9593">
        <ele>584.40002441406</ele>
        <time>2022-10-31T15:13:39.000Z</time>
      </trkpt>
      <trkpt lat="47.96897" lon="6.95928">
        <ele>584.40002441406</ele>
        <time>2022-10-31T15:13:41.000Z</time>
      </trkpt>
      <trkpt lat="47.9689" lon="6.95925">
        <ele>584.19995117188</ele>
        <time>2022-10-31T15:13:48.000Z</time>
      </trkpt>
      <trkpt lat="47.96889" lon="6.95925">
        <ele>584.19995117188</ele>
        <time>2022-10-31T15:13:50.000Z</time>
      </trkpt>
      <trkpt lat="47.96888" lon="6.95924">
        <ele>584.19995117188</ele>
        <time>2022-10-31T15:13:52.000Z</time>
      </trkpt>
      <trkpt lat="47.96887" lon="6.95923">
        <ele>584</ele>
        <time>2022-10-31T15:13:53.000Z</time>
      </trkpt>
      <trkpt lat="47.96887" lon="6.95921">
        <ele>584</ele>
        <time>2022-10-31T15:13:54.000Z</time>
      </trkpt>
      <trkpt lat="47.96884" lon="6.95918">
        <ele>584</ele>
        <time>2022-10-31T15:13:58.000Z</time>
      </trkpt>
      <trkpt lat="47.96884" lon="6.95917">
        <ele>584</ele>
        <time>2022-10-31T15:13:59.000Z</time>
      </trkpt>
      <trkpt lat="47.96883" lon="6.95917">
        <ele>584</ele>
        <time>2022-10-31T15:14:00.000Z</time>
      </trkpt>
      <trkpt lat="47.96883" lon="6.95914">
        <ele>584</ele>
        <time>2022-10-31T15:14:04.000Z</time>
      </trkpt>
      <trkpt lat="47.9688" lon="6.95914">
        <ele>583.80004882812</ele>
        <time>2022-10-31T15:14:09.000Z</time>
      </trkpt>
      <trkpt lat="47.96874" lon="6.9591">
        <ele>583.59997558594</ele>
        <time>2022-10-31T15:14:16.000Z</time>
      </trkpt>
      <trkpt lat="47.9687" lon="6.95908">
        <ele>583.59997558594</ele>
        <time>2022-10-31T15:14:19.000Z</time>
      </trkpt>
      <trkpt lat="47.96869" lon="6.95902">
        <ele>583.59997558594</ele>
        <time>2022-10-31T15:14:22.000Z</time>
      </trkpt>
      <trkpt lat="47.96868" lon="6.95901">
        <ele>583.59997558594</ele>
        <time>2022-10-31T15:14:23.000Z</time>
      </trkpt>
      <trkpt lat="47.96865" lon="6.95898">
        <ele>583.59997558594</ele>
        <time>2022-10-31T15:14:27.000Z</time>
      </trkpt>
      <trkpt lat="47.9686" lon="6.95894">
        <ele>583.40002441406</ele>
        <time>2022-10-31T15:14:33.000Z</time>
      </trkpt>
      <trkpt lat="47.96857" lon="6.95892">
        <ele>583.19995117188</ele>
        <time>2022-10-31T15:14:38.000Z</time>
      </trkpt>
      <trkpt lat="47.96853" lon="6.9589">
        <ele>583.19995117188</ele>
        <time>2022-10-31T15:14:42.000Z</time>
      </trkpt>
      <trkpt lat="47.96851" lon="6.95885">
        <ele>583.19995117188</ele>
        <time>2022-10-31T15:14:47.000Z</time>
      </trkpt>
      <trkpt lat="47.96851" lon="6.95885">
        <ele>583.19995117188</ele>
        <time>2022-10-31T15:14:48.000Z</time>
      </trkpt>
      <trkpt lat="47.96845" lon="6.95886">
        <ele>583.19995117188</ele>
        <time>2022-10-31T15:14:55.000Z</time>
      </trkpt>
      <trkpt lat="47.96843" lon="6.95886">
        <ele>583.40002441406</ele>
        <time>2022-10-31T15:14:57.000Z</time>
      </trkpt>
      <trkpt lat="47.96842" lon="6.95887">
        <ele>583.19995117188</ele>
        <time>2022-10-31T15:14:59.000Z</time>
      </trkpt>
      <trkpt lat="47.96842" lon="6.95886">
        <ele>583.19995117188</ele>
        <time>2022-10-31T15:15:03.000Z</time>
      </trkpt>
      <trkpt lat="47.96839" lon="6.95885">
        <ele>583.40002441406</ele>
        <time>2022-10-31T15:15:09.000Z</time>
      </trkpt>
      <trkpt lat="47.96833" lon="6.95891">
        <ele>583.19995117188</ele>
        <time>2022-10-31T15:15:15.000Z</time>
      </trkpt>
      <trkpt lat="47.96826" lon="6.95891">
        <ele>583.19995117188</ele>
        <time>2022-10-31T15:15:21.000Z</time>
      </trkpt>
      <trkpt lat="47.96825" lon="6.95891">
        <ele>583.19995117188</ele>
        <time>2022-10-31T15:15:22.000Z</time>
      </trkpt>
      <trkpt lat="47.96823" lon="6.9589">
        <ele>583.19995117188</ele>
        <time>2022-10-31T15:15:24.000Z</time>
      </trkpt>
      <trkpt lat="47.96818" lon="6.95892">
        <ele>583</ele>
        <time>2022-10-31T15:15:29.000Z</time>
      </trkpt>
      <trkpt lat="47.96813" lon="6.95896">
        <ele>583</ele>
        <time>2022-10-31T15:15:33.000Z</time>
      </trkpt>
      <trkpt lat="47.96811" lon="6.95897">
        <ele>583</ele>
        <time>2022-10-31T15:15:34.000Z</time>
      </trkpt>
      <trkpt lat="47.96808" lon="6.95897">
        <ele>583</ele>
        <time>2022-10-31T15:15:38.000Z</time>
      </trkpt>
      <trkpt lat="47.96805" lon="6.95894">
        <ele>583</ele>
        <time>2022-10-31T15:15:41.000Z</time>
      </trkpt>
      <trkpt lat="47.96804" lon="6.95894">
        <ele>583</ele>
        <time>2022-10-31T15:15:42.000Z</time>
      </trkpt>
      <trkpt lat="47.96802" lon="6.95894">
        <ele>583</ele>
        <time>2022-10-31T15:15:44.000Z</time>
      </trkpt>
      <trkpt lat="47.96799" lon="6.95895">
        <ele>583.19995117188</ele>
        <time>2022-10-31T15:15:46.000Z</time>
      </trkpt>
      <trkpt lat="47.96793" lon="6.95894">
        <ele>583</ele>
        <time>2022-10-31T15:15:51.000Z</time>
      </trkpt>
      <trkpt lat="47.96792" lon="6.95893">
        <ele>583</ele>
        <time>2022-10-31T15:15:52.000Z</time>
      </trkpt>
      <trkpt lat="47.96785" lon="6.95895">
        <ele>582.80004882812</ele>
        <time>2022-10-31T15:15:59.000Z</time>
      </trkpt>
      <trkpt lat="47.9678" lon="6.95888">
        <ele>583</ele>
        <time>2022-10-31T15:16:05.000Z</time>
      </trkpt>
      <trkpt lat="47.96778" lon="6.95889">
        <ele>583</ele>
        <time>2022-10-31T15:16:07.000Z</time>
      </trkpt>
      <trkpt lat="47.96777" lon="6.95889">
        <ele>582.80004882812</ele>
        <time>2022-10-31T15:16:08.000Z</time>
      </trkpt>
      <trkpt lat="47.96776" lon="6.9589">
        <ele>582.80004882812</ele>
        <time>2022-10-31T15:16:09.000Z</time>
      </trkpt>
      <trkpt lat="47.96774" lon="6.95889">
        <ele>582.80004882812</ele>
        <time>2022-10-31T15:16:12.000Z</time>
      </trkpt>
      <trkpt lat="47.96772" lon="6.95885">
        <ele>583</ele>
        <time>2022-10-31T15:16:16.000Z</time>
      </trkpt>
      <trkpt lat="47.9677" lon="6.95883">
        <ele>583</ele>
        <time>2022-10-31T15:16:18.000Z</time>
      </trkpt>
      <trkpt lat="47.96768" lon="6.95882">
        <ele>583</ele>
        <time>2022-10-31T15:16:20.000Z</time>
      </trkpt>
      <trkpt lat="47.96765" lon="6.9588">
        <ele>583</ele>
        <time>2022-10-31T15:16:23.000Z</time>
      </trkpt>
      <trkpt lat="47.96763" lon="6.95881">
        <ele>583</ele>
        <time>2022-10-31T15:16:24.000Z</time>
      </trkpt>
      <trkpt lat="47.96758" lon="6.9588">
        <ele>583</ele>
        <time>2022-10-31T15:16:29.000Z</time>
      </trkpt>
      <trkpt lat="47.96757" lon="6.95878">
        <ele>582.80004882812</ele>
        <time>2022-10-31T15:16:33.000Z</time>
      </trkpt>
      <trkpt lat="47.9675" lon="6.95881">
        <ele>582.80004882812</ele>
        <time>2022-10-31T15:16:39.000Z</time>
      </trkpt>
      <trkpt lat="47.96744" lon="6.95879">
        <ele>582.80004882812</ele>
        <time>2022-10-31T15:16:46.000Z</time>
      </trkpt>
      <trkpt lat="47.96735" lon="6.95881">
        <ele>582.80004882812</ele>
        <time>2022-10-31T15:16:53.000Z</time>
      </trkpt>
      <trkpt lat="47.96737" lon="6.95869">
        <ele>582.80004882812</ele>
        <time>2022-10-31T15:17:00.000Z</time>
      </trkpt>
      <trkpt lat="47.96733" lon="6.95866">
        <ele>582.80004882812</ele>
        <time>2022-10-31T15:17:07.000Z</time>
      </trkpt>
      <trkpt lat="47.96726" lon="6.95867">
        <ele>582.80004882812</ele>
        <time>2022-10-31T15:17:14.000Z</time>
      </trkpt>
      <trkpt lat="47.96725" lon="6.95867">
        <ele>582.80004882812</ele>
        <time>2022-10-31T15:17:15.000Z</time>
      </trkpt>
      <trkpt lat="47.96722" lon="6.95869">
        <ele>583</ele>
        <time>2022-10-31T15:17:20.000Z</time>
      </trkpt>
      <trkpt lat="47.9672" lon="6.9587">
        <ele>583</ele>
        <time>2022-10-31T15:17:25.000Z</time>
      </trkpt>
      <trkpt lat="47.96714" lon="6.95874">
        <ele>583</ele>
        <time>2022-10-31T15:17:30.000Z</time>
      </trkpt>
      <trkpt lat="47.96706" lon="6.95876">
        <ele>583</ele>
        <time>2022-10-31T15:17:37.000Z</time>
      </trkpt>
      <trkpt lat="47.96698" lon="6.95875">
        <ele>583.19995117188</ele>
        <time>2022-10-31T15:17:45.000Z</time>
      </trkpt>
      <trkpt lat="47.96692" lon="6.95876">
        <ele>583.40002441406</ele>
        <time>2022-10-31T15:17:49.000Z</time>
      </trkpt>
      <trkpt lat="47.96683" lon="6.95872">
        <ele>583.40002441406</ele>
        <time>2022-10-31T15:17:55.000Z</time>
      </trkpt>
      <trkpt lat="47.96682" lon="6.95873">
        <ele>583.40002441406</ele>
        <time>2022-10-31T15:17:56.000Z</time>
      </trkpt>
      <trkpt lat="47.96678" lon="6.95876">
        <ele>583.59997558594</ele>
        <time>2022-10-31T15:18:00.000Z</time>
      </trkpt>
      <trkpt lat="47.96677" lon="6.95875">
        <ele>583.59997558594</ele>
        <time>2022-10-31T15:18:02.000Z</time>
      </trkpt>
      <trkpt lat="47.96675" lon="6.95872">
        <ele>583.59997558594</ele>
        <time>2022-10-31T15:18:05.000Z</time>
      </trkpt>
      <trkpt lat="47.96674" lon="6.95871">
        <ele>583.59997558594</ele>
        <time>2022-10-31T15:18:07.000Z</time>
      </trkpt>
      <trkpt lat="47.96673" lon="6.95869">
        <ele>583.59997558594</ele>
        <time>2022-10-31T15:18:09.000Z</time>
      </trkpt>
      <trkpt lat="47.96669" lon="6.95868">
        <ele>583.59997558594</ele>
        <time>2022-10-31T15:18:14.000Z</time>
      </trkpt>
      <trkpt lat="47.96666" lon="6.95868">
        <ele>583</ele>
        <time>2022-10-31T15:18:20.000Z</time>
      </trkpt>
      <trkpt lat="47.96667" lon="6.95862">
        <ele>583</ele>
        <time>2022-10-31T15:18:25.000Z</time>
      </trkpt>
      <trkpt lat="47.96667" lon="6.95862">
        <ele>583</ele>
        <time>2022-10-31T15:18:26.000Z</time>
      </trkpt>
      <trkpt lat="47.96666" lon="6.95862">
        <ele>583</ele>
        <time>2022-10-31T15:18:28.000Z</time>
      </trkpt>
      <trkpt lat="47.96666" lon="6.95862">
        <ele>583</ele>
        <time>2022-10-31T15:18:29.000Z</time>
      </trkpt>
      <trkpt lat="47.96666" lon="6.95864">
        <ele>582.80004882812</ele>
        <time>2022-10-31T15:18:35.000Z</time>
      </trkpt>
      <trkpt lat="47.96666" lon="6.95864">
        <ele>582.80004882812</ele>
        <time>2022-10-31T15:18:38.000Z</time>
      </trkpt>
      <trkpt lat="47.9666" lon="6.95867">
        <ele>582.40002441406</ele>
        <time>2022-10-31T15:18:41.000Z</time>
      </trkpt>
      <trkpt lat="47.96658" lon="6.95868">
        <ele>582.19995117188</ele>
        <time>2022-10-31T15:18:43.000Z</time>
      </trkpt>
      <trkpt lat="47.96655" lon="6.95868">
        <ele>582</ele>
        <time>2022-10-31T15:18:45.000Z</time>
      </trkpt>
      <trkpt lat="47.96654" lon="6.95868">
        <ele>582</ele>
        <time>2022-10-31T15:18:46.000Z</time>
      </trkpt>
      <trkpt lat="47.96652" lon="6.95866">
        <ele>581.80004882812</ele>
        <time>2022-10-31T15:18:49.000Z</time>
      </trkpt>
      <trkpt lat="47.96649" lon="6.9586">
        <ele>581.59997558594</ele>
        <time>2022-10-31T15:18:57.000Z</time>
      </trkpt>
      <trkpt lat="47.96642" lon="6.95859">
        <ele>581.19995117188</ele>
        <time>2022-10-31T15:19:06.000Z</time>
      </trkpt>
      <trkpt lat="47.96635" lon="6.95859">
        <ele>581</ele>
        <time>2022-10-31T15:19:13.000Z</time>
      </trkpt>
      <trkpt lat="47.96627" lon="6.95861">
        <ele>581</ele>
        <time>2022-10-31T15:19:19.000Z</time>
      </trkpt>
      <trkpt lat="47.96625" lon="6.95861">
        <ele>580.80004882812</ele>
        <time>2022-10-31T15:19:20.000Z</time>
      </trkpt>
      <trkpt lat="47.9662" lon="6.95861">
        <ele>580.59997558594</ele>
        <time>2022-10-31T15:19:26.000Z</time>
      </trkpt>
      <trkpt lat="47.96619" lon="6.95862">
        <ele>580.59997558594</ele>
        <time>2022-10-31T15:19:27.000Z</time>
      </trkpt>
      <trkpt lat="47.96619" lon="6.95859">
        <ele>580.80004882812</ele>
        <time>2022-10-31T15:19:33.000Z</time>
      </trkpt>
      <trkpt lat="47.96619" lon="6.95859">
        <ele>580.80004882812</ele>
        <time>2022-10-31T15:19:41.000Z</time>
      </trkpt>
      <trkpt lat="47.96619" lon="6.95859">
        <ele>580.80004882812</ele>
        <time>2022-10-31T15:19:51.000Z</time>
      </trkpt>
      <trkpt lat="47.96617" lon="6.95863">
        <ele>581</ele>
        <time>2022-10-31T15:20:01.000Z</time>
      </trkpt>
      <trkpt lat="47.96615" lon="6.95862">
        <ele>581</ele>
        <time>2022-10-31T15:20:08.000Z</time>
      </trkpt>
      <trkpt lat="47.96614" lon="6.95863">
        <ele>581</ele>
        <time>2022-10-31T15:20:09.000Z</time>
      </trkpt>
      <trkpt lat="47.96604" lon="6.95863">
        <ele>580.80004882812</ele>
        <time>2022-10-31T15:20:18.000Z</time>
      </trkpt>
      <trkpt lat="47.96598" lon="6.95864">
        <ele>580.59997558594</ele>
        <time>2022-10-31T15:20:27.000Z</time>
      </trkpt>
      <trkpt lat="47.96593" lon="6.95865">
        <ele>580.59997558594</ele>
        <time>2022-10-31T15:20:34.000Z</time>
      </trkpt>
      <trkpt lat="47.96587" lon="6.95868">
        <ele>580.59997558594</ele>
        <time>2022-10-31T15:20:39.000Z</time>
      </trkpt>
      <trkpt lat="47.96584" lon="6.95868">
        <ele>580.59997558594</ele>
        <time>2022-10-31T15:20:42.000Z</time>
      </trkpt>
      <trkpt lat="47.96584" lon="6.95865">
        <ele>580.59997558594</ele>
        <time>2022-10-31T15:20:47.000Z</time>
      </trkpt>
      <trkpt lat="47.96583" lon="6.95866">
        <ele>580.59997558594</ele>
        <time>2022-10-31T15:20:51.000Z</time>
      </trkpt>
      <trkpt lat="47.96579" lon="6.95867">
        <ele>580.40002441406</ele>
        <time>2022-10-31T15:20:55.000Z</time>
      </trkpt>
      <trkpt lat="47.96571" lon="6.95868">
        <ele>580.19995117188</ele>
        <time>2022-10-31T15:21:02.000Z</time>
      </trkpt>
      <trkpt lat="47.96567" lon="6.95869">
        <ele>580.19995117188</ele>
        <time>2022-10-31T15:21:05.000Z</time>
      </trkpt>
      <trkpt lat="47.96565" lon="6.9587">
        <ele>580.19995117188</ele>
        <time>2022-10-31T15:21:06.000Z</time>
      </trkpt>
      <trkpt lat="47.96565" lon="6.9587">
        <ele>580.40002441406</ele>
        <time>2022-10-31T15:21:07.000Z</time>
      </trkpt>
      <trkpt lat="47.9656" lon="6.95868">
        <ele>580.19995117188</ele>
        <time>2022-10-31T15:21:13.000Z</time>
      </trkpt>
      <trkpt lat="47.96558" lon="6.95868">
        <ele>580.19995117188</ele>
        <time>2022-10-31T15:21:15.000Z</time>
      </trkpt>
      <trkpt lat="47.96551" lon="6.95872">
        <ele>580</ele>
        <time>2022-10-31T15:21:22.000Z</time>
      </trkpt>
      <trkpt lat="47.96551" lon="6.95875">
        <ele>580</ele>
        <time>2022-10-31T15:21:31.000Z</time>
      </trkpt>
      <trkpt lat="47.9655" lon="6.95875">
        <ele>580</ele>
        <time>2022-10-31T15:21:32.000Z</time>
      </trkpt>
      <trkpt lat="47.9655" lon="6.95875">
        <ele>580</ele>
        <time>2022-10-31T15:21:34.000Z</time>
      </trkpt>
      <trkpt lat="47.9655" lon="6.95874">
        <ele>580</ele>
        <time>2022-10-31T15:21:37.000Z</time>
      </trkpt>
      <trkpt lat="47.9655" lon="6.95875">
        <ele>580</ele>
        <time>2022-10-31T15:21:39.000Z</time>
      </trkpt>
      <trkpt lat="47.96546" lon="6.95875">
        <ele>580</ele>
        <time>2022-10-31T15:21:44.000Z</time>
      </trkpt>
      <trkpt lat="47.96545" lon="6.95875">
        <ele>580</ele>
        <time>2022-10-31T15:21:45.000Z</time>
      </trkpt>
      <trkpt lat="47.96544" lon="6.95875">
        <ele>579.80004882812</ele>
        <time>2022-10-31T15:21:47.000Z</time>
      </trkpt>
      <trkpt lat="47.96539" lon="6.95878">
        <ele>579.80004882812</ele>
        <time>2022-10-31T15:21:52.000Z</time>
      </trkpt>
      <trkpt lat="47.96528" lon="6.95883">
        <ele>579.40002441406</ele>
        <time>2022-10-31T15:22:00.000Z</time>
      </trkpt>
      <trkpt lat="47.9652" lon="6.95889">
        <ele>579.40002441406</ele>
        <time>2022-10-31T15:22:06.000Z</time>
      </trkpt>
      <trkpt lat="47.96514" lon="6.95892">
        <ele>579.40002441406</ele>
        <time>2022-10-31T15:22:11.000Z</time>
      </trkpt>
      <trkpt lat="47.96513" lon="6.95893">
        <ele>579.40002441406</ele>
        <time>2022-10-31T15:22:12.000Z</time>
      </trkpt>
      <trkpt lat="47.96509" lon="6.9589">
        <ele>579.40002441406</ele>
        <time>2022-10-31T15:22:19.000Z</time>
      </trkpt>
      <trkpt lat="47.96507" lon="6.95888">
        <ele>579.19995117188</ele>
        <time>2022-10-31T15:22:26.000Z</time>
      </trkpt>
      <trkpt lat="47.96502" lon="6.95891">
        <ele>579</ele>
        <time>2022-10-31T15:22:32.000Z</time>
      </trkpt>
      <trkpt lat="47.96494" lon="6.95894">
        <ele>579.19995117188</ele>
        <time>2022-10-31T15:22:40.000Z</time>
      </trkpt>
      <trkpt lat="47.96492" lon="6.95895">
        <ele>579</ele>
        <time>2022-10-31T15:22:45.000Z</time>
      </trkpt>
      <trkpt lat="47.96484" lon="6.95903">
        <ele>579</ele>
        <time>2022-10-31T15:22:52.000Z</time>
      </trkpt>
      <trkpt lat="47.96484" lon="6.959">
        <ele>579.19995117188</ele>
        <time>2022-10-31T15:22:59.000Z</time>
      </trkpt>
      <trkpt lat="47.96485" lon="6.95899">
        <ele>579</ele>
        <time>2022-10-31T15:23:13.000Z</time>
      </trkpt>
      <trkpt lat="47.96485" lon="6.95901">
        <ele>578.80004882812</ele>
        <time>2022-10-31T15:23:23.000Z</time>
      </trkpt>
      <trkpt lat="47.96485" lon="6.95901">
        <ele>578.80004882812</ele>
        <time>2022-10-31T15:23:27.000Z</time>
      </trkpt>
      <trkpt lat="47.96485" lon="6.95902">
        <ele>578.80004882812</ele>
        <time>2022-10-31T15:23:28.000Z</time>
      </trkpt>
      <trkpt lat="47.96485" lon="6.95902">
        <ele>578.80004882812</ele>
        <time>2022-10-31T15:23:29.000Z</time>
      </trkpt>
      <trkpt lat="47.9648" lon="6.95904">
        <ele>578.80004882812</ele>
        <time>2022-10-31T15:23:34.000Z</time>
      </trkpt>
      <trkpt lat="47.96477" lon="6.95906">
        <ele>578.80004882812</ele>
        <time>2022-10-31T15:23:36.000Z</time>
      </trkpt>
      <trkpt lat="47.96468" lon="6.9591">
        <ele>578.80004882812</ele>
        <time>2022-10-31T15:23:42.000Z</time>
      </trkpt>
      <trkpt lat="47.96466" lon="6.95911">
        <ele>578.80004882812</ele>
        <time>2022-10-31T15:23:45.000Z</time>
      </trkpt>
      <trkpt lat="47.96458" lon="6.95916">
        <ele>578.80004882812</ele>
        <time>2022-10-31T15:23:53.000Z</time>
      </trkpt>
      <trkpt lat="47.96449" lon="6.95924">
        <ele>578.80004882812</ele>
        <time>2022-10-31T15:24:03.000Z</time>
      </trkpt>
      <trkpt lat="47.96448" lon="6.95924">
        <ele>578.80004882812</ele>
        <time>2022-10-31T15:24:04.000Z</time>
      </trkpt>
      <trkpt lat="47.96447" lon="6.95925">
        <ele>578.80004882812</ele>
        <time>2022-10-31T15:24:05.000Z</time>
      </trkpt>
      <trkpt lat="47.96441" lon="6.95928">
        <ele>578.80004882812</ele>
        <time>2022-10-31T15:24:14.000Z</time>
      </trkpt>
      <trkpt lat="47.96435" lon="6.95929">
        <ele>579</ele>
        <time>2022-10-31T15:24:23.000Z</time>
      </trkpt>
      <trkpt lat="47.96435" lon="6.9593">
        <ele>579</ele>
        <time>2022-10-31T15:24:29.000Z</time>
      </trkpt>
      <trkpt lat="47.96436" lon="6.95931">
        <ele>578.80004882812</ele>
        <time>2022-10-31T15:24:42.000Z</time>
      </trkpt>
      <trkpt lat="47.96436" lon="6.9593">
        <ele>578.80004882812</ele>
        <time>2022-10-31T15:24:48.000Z</time>
      </trkpt>
      <trkpt lat="47.96436" lon="6.9593">
        <ele>578.80004882812</ele>
        <time>2022-10-31T15:24:50.000Z</time>
      </trkpt>
      <trkpt lat="47.96436" lon="6.95929">
        <ele>578.80004882812</ele>
        <time>2022-10-31T15:25:03.000Z</time>
      </trkpt>
      <trkpt lat="47.96436" lon="6.95929">
        <ele>578.80004882812</ele>
        <time>2022-10-31T15:25:06.000Z</time>
      </trkpt>
      <trkpt lat="47.96436" lon="6.95928">
        <ele>578.80004882812</ele>
        <time>2022-10-31T15:25:18.000Z</time>
      </trkpt>
      <trkpt lat="47.96433" lon="6.95931">
        <ele>578.80004882812</ele>
        <time>2022-10-31T15:25:27.000Z</time>
      </trkpt>
      <trkpt lat="47.9643" lon="6.95932">
        <ele>578.80004882812</ele>
        <time>2022-10-31T15:25:29.000Z</time>
      </trkpt>
      <trkpt lat="47.96422" lon="6.95938">
        <ele>578.80004882812</ele>
        <time>2022-10-31T15:25:36.000Z</time>
      </trkpt>
      <trkpt lat="47.96421" lon="6.95938">
        <ele>578.80004882812</ele>
        <time>2022-10-31T15:25:38.000Z</time>
      </trkpt>
      <trkpt lat="47.96418" lon="6.95937">
        <ele>578.80004882812</ele>
        <time>2022-10-31T15:25:42.000Z</time>
      </trkpt>
      <trkpt lat="47.96417" lon="6.95938">
        <ele>578.80004882812</ele>
        <time>2022-10-31T15:25:43.000Z</time>
      </trkpt>
      <trkpt lat="47.96418" lon="6.95939">
        <ele>578.80004882812</ele>
        <time>2022-10-31T15:25:48.000Z</time>
      </trkpt>
      <trkpt lat="47.96418" lon="6.95938">
        <ele>579</ele>
        <time>2022-10-31T15:25:50.000Z</time>
      </trkpt>
      <trkpt lat="47.96417" lon="6.95934">
        <ele>579</ele>
        <time>2022-10-31T15:25:59.000Z</time>
      </trkpt>
      <trkpt lat="47.96414" lon="6.95933">
        <ele>578.80004882812</ele>
        <time>2022-10-31T15:26:04.000Z</time>
      </trkpt>
      <trkpt lat="47.96412" lon="6.95933">
        <ele>578.80004882812</ele>
        <time>2022-10-31T15:26:06.000Z</time>
      </trkpt>
      <trkpt lat="47.96411" lon="6.95926">
        <ele>578.59997558594</ele>
        <time>2022-10-31T15:26:14.000Z</time>
      </trkpt>
      <trkpt lat="47.96412" lon="6.95925">
        <ele>578.59997558594</ele>
        <time>2022-10-31T15:26:15.000Z</time>
      </trkpt>
      <trkpt lat="47.96412" lon="6.95923">
        <ele>578.40002441406</ele>
        <time>2022-10-31T15:26:16.000Z</time>
      </trkpt>
      <trkpt lat="47.96416" lon="6.95919">
        <ele>578.40002441406</ele>
        <time>2022-10-31T15:26:19.000Z</time>
      </trkpt>
      <trkpt lat="47.96419" lon="6.95919">
        <ele>578.40002441406</ele>
        <time>2022-10-31T15:26:22.000Z</time>
      </trkpt>
      <trkpt lat="47.96416" lon="6.9592">
        <ele>578.40002441406</ele>
        <time>2022-10-31T15:26:33.000Z</time>
      </trkpt>
      <trkpt lat="47.96412" lon="6.95925">
        <ele>578.59997558594</ele>
        <time>2022-10-31T15:26:39.000Z</time>
      </trkpt>
      <trkpt lat="47.96411" lon="6.95926">
        <ele>578.59997558594</ele>
        <time>2022-10-31T15:26:40.000Z</time>
      </trkpt>
      <trkpt lat="47.96405" lon="6.95931">
        <ele>578.59997558594</ele>
        <time>2022-10-31T15:26:45.000Z</time>
      </trkpt>
      <trkpt lat="47.96404" lon="6.95932">
        <ele>578.59997558594</ele>
        <time>2022-10-31T15:26:46.000Z</time>
      </trkpt>
      <trkpt lat="47.964" lon="6.95937">
        <ele>578.59997558594</ele>
        <time>2022-10-31T15:26:49.000Z</time>
      </trkpt>
      <trkpt lat="47.96397" lon="6.95942">
        <ele>578.80004882812</ele>
        <time>2022-10-31T15:26:53.000Z</time>
      </trkpt>
      <trkpt lat="47.96396" lon="6.95943">
        <ele>578.80004882812</ele>
        <time>2022-10-31T15:26:54.000Z</time>
      </trkpt>
      <trkpt lat="47.96393" lon="6.95946">
        <ele>579</ele>
        <time>2022-10-31T15:26:58.000Z</time>
      </trkpt>
      <trkpt lat="47.96388" lon="6.95953">
        <ele>579</ele>
        <time>2022-10-31T15:27:03.000Z</time>
      </trkpt>
      <trkpt lat="47.96387" lon="6.9595">
        <ele>579</ele>
        <time>2022-10-31T15:27:08.000Z</time>
      </trkpt>
      <trkpt lat="47.96387" lon="6.95947">
        <ele>579</ele>
        <time>2022-10-31T15:27:13.000Z</time>
      </trkpt>
      <trkpt lat="47.96386" lon="6.95945">
        <ele>579</ele>
        <time>2022-10-31T15:27:16.000Z</time>
      </trkpt>
      <trkpt lat="47.96385" lon="6.95946">
        <ele>579</ele>
        <time>2022-10-31T15:27:23.000Z</time>
      </trkpt>
      <trkpt lat="47.96385" lon="6.95948">
        <ele>578.59997558594</ele>
        <time>2022-10-31T15:27:42.000Z</time>
      </trkpt>
      <trkpt lat="47.9638" lon="6.95954">
        <ele>577.80004882812</ele>
        <time>2022-10-31T15:27:51.000Z</time>
      </trkpt>
      <trkpt lat="47.96379" lon="6.95955">
        <ele>577.80004882812</ele>
        <time>2022-10-31T15:27:52.000Z</time>
      </trkpt>
      <trkpt lat="47.96374" lon="6.95956">
        <ele>577.80004882812</ele>
        <time>2022-10-31T15:27:59.000Z</time>
      </trkpt>
      <trkpt lat="47.96375" lon="6.95955">
        <ele>577.59997558594</ele>
        <time>2022-10-31T15:28:01.000Z</time>
      </trkpt>
      <trkpt lat="47.96375" lon="6.95954">
        <ele>577.59997558594</ele>
        <time>2022-10-31T15:28:03.000Z</time>
      </trkpt>
      <trkpt lat="47.96375" lon="6.95956">
        <ele>577.59997558594</ele>
        <time>2022-10-31T15:28:05.000Z</time>
      </trkpt>
      <trkpt lat="47.96375" lon="6.95956">
        <ele>577.59997558594</ele>
        <time>2022-10-31T15:28:06.000Z</time>
      </trkpt>
      <trkpt lat="47.96375" lon="6.95957">
        <ele>577.59997558594</ele>
        <time>2022-10-31T15:28:11.000Z</time>
      </trkpt>
      <trkpt lat="47.96375" lon="6.95956">
        <ele>577.59997558594</ele>
        <time>2022-10-31T15:28:17.000Z</time>
      </trkpt>
      <trkpt lat="47.96375" lon="6.95955">
        <ele>577.59997558594</ele>
        <time>2022-10-31T15:28:22.000Z</time>
      </trkpt>
      <trkpt lat="47.96375" lon="6.95953">
        <ele>577.59997558594</ele>
        <time>2022-10-31T15:28:29.000Z</time>
      </trkpt>
      <trkpt lat="47.96375" lon="6.95953">
        <ele>577.59997558594</ele>
        <time>2022-10-31T15:28:35.000Z</time>
      </trkpt>
      <trkpt lat="47.96375" lon="6.95953">
        <ele>577.19995117188</ele>
        <time>2022-10-31T15:28:44.000Z</time>
      </trkpt>
      <trkpt lat="47.96375" lon="6.95953">
        <ele>576.80004882812</ele>
        <time>2022-10-31T15:28:48.000Z</time>
      </trkpt>
      <trkpt lat="47.96364" lon="6.95969">
        <ele>576.19995117188</ele>
        <time>2022-10-31T15:28:57.000Z</time>
      </trkpt>
      <trkpt lat="47.96353" lon="6.95982">
        <ele>576</ele>
        <time>2022-10-31T15:29:07.000Z</time>
      </trkpt>
      <trkpt lat="47.96349" lon="6.95986">
        <ele>576</ele>
        <time>2022-10-31T15:29:16.000Z</time>
      </trkpt>
      <trkpt lat="47.96347" lon="6.95987">
        <ele>576</ele>
        <time>2022-10-31T15:29:22.000Z</time>
      </trkpt>
      <trkpt lat="47.96347" lon="6.95988">
        <ele>576</ele>
        <time>2022-10-31T15:29:24.000Z</time>
      </trkpt>
      <trkpt lat="47.96343" lon="6.95994">
        <ele>575.80004882812</ele>
        <time>2022-10-31T15:29:30.000Z</time>
      </trkpt>
      <trkpt lat="47.96342" lon="6.95996">
        <ele>575.59997558594</ele>
        <time>2022-10-31T15:29:32.000Z</time>
      </trkpt>
      <trkpt lat="47.96341" lon="6.95992">
        <ele>575.59997558594</ele>
        <time>2022-10-31T15:29:35.000Z</time>
      </trkpt>
      <trkpt lat="47.96338" lon="6.95999">
        <ele>575.59997558594</ele>
        <time>2022-10-31T15:29:41.000Z</time>
      </trkpt>
      <trkpt lat="47.96331" lon="6.96007">
        <ele>575.40002441406</ele>
        <time>2022-10-31T15:29:49.000Z</time>
      </trkpt>
      <trkpt lat="47.96329" lon="6.96011">
        <ele>575.40002441406</ele>
        <time>2022-10-31T15:29:53.000Z</time>
      </trkpt>
      <trkpt lat="47.96324" lon="6.96016">
        <ele>575.19995117188</ele>
        <time>2022-10-31T15:29:58.000Z</time>
      </trkpt>
      <trkpt lat="47.96317" lon="6.96024">
        <ele>575</ele>
        <time>2022-10-31T15:30:07.000Z</time>
      </trkpt>
      <trkpt lat="47.9631" lon="6.96031">
        <ele>574.80004882812</ele>
        <time>2022-10-31T15:30:15.000Z</time>
      </trkpt>
      <trkpt lat="47.96307" lon="6.96035">
        <ele>574.80004882812</ele>
        <time>2022-10-31T15:30:19.000Z</time>
      </trkpt>
      <trkpt lat="47.96305" lon="6.96036">
        <ele>574.59997558594</ele>
        <time>2022-10-31T15:30:22.000Z</time>
      </trkpt>
      <trkpt lat="47.96302" lon="6.96039">
        <ele>574.59997558594</ele>
        <time>2022-10-31T15:30:25.000Z</time>
      </trkpt>
      <trkpt lat="47.96295" lon="6.96051">
        <ele>574.40002441406</ele>
        <time>2022-10-31T15:30:35.000Z</time>
      </trkpt>
      <trkpt lat="47.96296" lon="6.96045">
        <ele>574.40002441406</ele>
        <time>2022-10-31T15:30:40.000Z</time>
      </trkpt>
      <trkpt lat="47.96296" lon="6.96045">
        <ele>574.19995117188</ele>
        <time>2022-10-31T15:30:45.000Z</time>
      </trkpt>
      <trkpt lat="47.96295" lon="6.96045">
        <ele>574.19995117188</ele>
        <time>2022-10-31T15:30:46.000Z</time>
      </trkpt>
      <trkpt lat="47.9629" lon="6.9605">
        <ele>574.19995117188</ele>
        <time>2022-10-31T15:30:52.000Z</time>
      </trkpt>
      <trkpt lat="47.96284" lon="6.96055">
        <ele>574</ele>
        <time>2022-10-31T15:30:59.000Z</time>
      </trkpt>
      <trkpt lat="47.96278" lon="6.96061">
        <ele>573.80004882812</ele>
        <time>2022-10-31T15:31:07.000Z</time>
      </trkpt>
      <trkpt lat="47.96274" lon="6.96066">
        <ele>573.80004882812</ele>
        <time>2022-10-31T15:31:13.000Z</time>
      </trkpt>
      <trkpt lat="47.96268" lon="6.96068">
        <ele>573.59997558594</ele>
        <time>2022-10-31T15:31:21.000Z</time>
      </trkpt>
      <trkpt lat="47.96264" lon="6.96069">
        <ele>573.59997558594</ele>
        <time>2022-10-31T15:31:25.000Z</time>
      </trkpt>
      <trkpt lat="47.96264" lon="6.96071">
        <ele>573.80004882812</ele>
        <time>2022-10-31T15:31:33.000Z</time>
      </trkpt>
      <trkpt lat="47.96262" lon="6.96072">
        <ele>573.59997558594</ele>
        <time>2022-10-31T15:31:40.000Z</time>
      </trkpt>
      <trkpt lat="47.9625" lon="6.96075">
        <ele>573.40002441406</ele>
        <time>2022-10-31T15:31:53.000Z</time>
      </trkpt>
      <trkpt lat="47.96242" lon="6.96077">
        <ele>573.40002441406</ele>
        <time>2022-10-31T15:32:04.000Z</time>
      </trkpt>
      <trkpt lat="47.96241" lon="6.96078">
        <ele>573.19995117188</ele>
        <time>2022-10-31T15:32:11.000Z</time>
      </trkpt>
      <trkpt lat="47.9624" lon="6.9608">
        <ele>573.19995117188</ele>
        <time>2022-10-31T15:32:17.000Z</time>
      </trkpt>
      <trkpt lat="47.96236" lon="6.96079">
        <ele>573.19995117188</ele>
        <time>2022-10-31T15:32:26.000Z</time>
      </trkpt>
      <trkpt lat="47.96224" lon="6.96081">
        <ele>573</ele>
        <time>2022-10-31T15:32:37.000Z</time>
      </trkpt>
      <trkpt lat="47.96221" lon="6.96081">
        <ele>573</ele>
        <time>2022-10-31T15:32:41.000Z</time>
      </trkpt>
      <trkpt lat="47.9622" lon="6.96082">
        <ele>573</ele>
        <time>2022-10-31T15:32:42.000Z</time>
      </trkpt>
      <trkpt lat="47.96218" lon="6.96083">
        <ele>573</ele>
        <time>2022-10-31T15:32:44.000Z</time>
      </trkpt>
      <trkpt lat="47.96209" lon="6.96087">
        <ele>573.19995117188</ele>
        <time>2022-10-31T15:32:52.000Z</time>
      </trkpt>
      <trkpt lat="47.96207" lon="6.96087">
        <ele>573.19995117188</ele>
        <time>2022-10-31T15:32:54.000Z</time>
      </trkpt>
      <trkpt lat="47.96199" lon="6.96088">
        <ele>573</ele>
        <time>2022-10-31T15:33:01.000Z</time>
      </trkpt>
      <trkpt lat="47.96185" lon="6.96099">
        <ele>572.80004882812</ele>
        <time>2022-10-31T15:33:10.000Z</time>
      </trkpt>
      <trkpt lat="47.96181" lon="6.96096">
        <ele>572.80004882812</ele>
        <time>2022-10-31T15:33:17.000Z</time>
      </trkpt>
      <trkpt lat="47.96179" lon="6.96094">
        <ele>572.80004882812</ele>
        <time>2022-10-31T15:33:23.000Z</time>
      </trkpt>
      <trkpt lat="47.96174" lon="6.96096">
        <ele>572.59997558594</ele>
        <time>2022-10-31T15:33:28.000Z</time>
      </trkpt>
      <trkpt lat="47.96172" lon="6.96095">
        <ele>572.59997558594</ele>
        <time>2022-10-31T15:33:32.000Z</time>
      </trkpt>
      <trkpt lat="47.9617" lon="6.96095">
        <ele>572.80004882812</ele>
        <time>2022-10-31T15:33:38.000Z</time>
      </trkpt>
      <trkpt lat="47.9617" lon="6.96094">
        <ele>572.59997558594</ele>
        <time>2022-10-31T15:33:45.000Z</time>
      </trkpt>
      <trkpt lat="47.96171" lon="6.961">
        <ele>572.59997558594</ele>
        <time>2022-10-31T15:34:09.000Z</time>
      </trkpt>
      <trkpt lat="47.9617" lon="6.96106">
        <ele>572.59997558594</ele>
        <time>2022-10-31T15:34:13.000Z</time>
      </trkpt>
      <trkpt lat="47.9617" lon="6.96107">
        <ele>572.59997558594</ele>
        <time>2022-10-31T15:34:17.000Z</time>
      </trkpt>
      <trkpt lat="47.9617" lon="6.9611">
        <ele>572.59997558594</ele>
        <time>2022-10-31T15:34:21.000Z</time>
      </trkpt>
      <trkpt lat="47.96168" lon="6.96113">
        <ele>572.59997558594</ele>
        <time>2022-10-31T15:34:24.000Z</time>
      </trkpt>
      <trkpt lat="47.96165" lon="6.96115">
        <ele>572.59997558594</ele>
        <time>2022-10-31T15:34:30.000Z</time>
      </trkpt>
      <trkpt lat="47.96164" lon="6.96117">
        <ele>572.59997558594</ele>
        <time>2022-10-31T15:34:32.000Z</time>
      </trkpt>
      <trkpt lat="47.96159" lon="6.96121">
        <ele>572.59997558594</ele>
        <time>2022-10-31T15:34:38.000Z</time>
      </trkpt>
      <trkpt lat="47.96157" lon="6.96122">
        <ele>576.80004882812</ele>
        <time>2022-10-31T15:34:40.000Z</time>
      </trkpt>
      <trkpt lat="47.96159" lon="6.96121">
        <ele>577</ele>
        <time>2022-10-31T15:34:44.000Z</time>
      </trkpt>
      <trkpt lat="47.9616" lon="6.96122">
        <ele>577.19995117188</ele>
        <time>2022-10-31T15:34:45.000Z</time>
      </trkpt>
      <trkpt lat="47.96161" lon="6.96127">
        <ele>578</ele>
        <time>2022-10-31T15:34:49.000Z</time>
      </trkpt>
      <trkpt lat="47.96162" lon="6.96129">
        <ele>578.80004882812</ele>
        <time>2022-10-31T15:34:52.000Z</time>
      </trkpt>
      <trkpt lat="47.96161" lon="6.9613">
        <ele>579</ele>
        <time>2022-10-31T15:34:53.000Z</time>
      </trkpt>
      <trkpt lat="47.96159" lon="6.96129">
        <ele>580</ele>
        <time>2022-10-31T15:34:57.000Z</time>
      </trkpt>
      <trkpt lat="47.96159" lon="6.96127">
        <ele>580.19995117188</ele>
        <time>2022-10-31T15:34:59.000Z</time>
      </trkpt>
      <trkpt lat="47.96154" lon="6.96128">
        <ele>580.40002441406</ele>
        <time>2022-10-31T15:35:25.000Z</time>
      </trkpt>
      <trkpt lat="47.96151" lon="6.96129">
        <ele>580.59997558594</ele>
        <time>2022-10-31T15:35:27.000Z</time>
      </trkpt>
      <trkpt lat="47.96141" lon="6.96135">
        <ele>581</ele>
        <time>2022-10-31T15:35:35.000Z</time>
      </trkpt>
      <trkpt lat="47.96139" lon="6.96135">
        <ele>581</ele>
        <time>2022-10-31T15:35:38.000Z</time>
      </trkpt>
      <trkpt lat="47.96135" lon="6.96136">
        <ele>581.19995117188</ele>
        <time>2022-10-31T15:35:42.000Z</time>
      </trkpt>
      <trkpt lat="47.96133" lon="6.96135">
        <ele>581.40002441406</ele>
        <time>2022-10-31T15:35:44.000Z</time>
      </trkpt>
      <trkpt lat="47.96131" lon="6.96135">
        <ele>581.59997558594</ele>
        <time>2022-10-31T15:35:50.000Z</time>
      </trkpt>
      <trkpt lat="47.96126" lon="6.96135">
        <ele>581.59997558594</ele>
        <time>2022-10-31T15:35:58.000Z</time>
      </trkpt>
      <trkpt lat="47.96121" lon="6.96138">
        <ele>582</ele>
        <time>2022-10-31T15:36:05.000Z</time>
      </trkpt>
      <trkpt lat="47.9612" lon="6.96138">
        <ele>582.19995117188</ele>
        <time>2022-10-31T15:36:06.000Z</time>
      </trkpt>
      <trkpt lat="47.96119" lon="6.96139">
        <ele>582.40002441406</ele>
        <time>2022-10-31T15:36:07.000Z</time>
      </trkpt>
      <trkpt lat="47.96119" lon="6.9614">
        <ele>582.40002441406</ele>
        <time>2022-10-31T15:36:11.000Z</time>
      </trkpt>
      <trkpt lat="47.96118" lon="6.96141">
        <ele>582.40002441406</ele>
        <time>2022-10-31T15:36:12.000Z</time>
      </trkpt>
      <trkpt lat="47.96116" lon="6.96141">
        <ele>582.59997558594</ele>
        <time>2022-10-31T15:36:17.000Z</time>
      </trkpt>
      <trkpt lat="47.96108" lon="6.96142">
        <ele>582.59997558594</ele>
        <time>2022-10-31T15:36:24.000Z</time>
      </trkpt>
      <trkpt lat="47.96102" lon="6.96141">
        <ele>583</ele>
        <time>2022-10-31T15:36:32.000Z</time>
      </trkpt>
      <trkpt lat="47.96097" lon="6.96144">
        <ele>583</ele>
        <time>2022-10-31T15:36:39.000Z</time>
      </trkpt>
      <trkpt lat="47.96096" lon="6.96145">
        <ele>583.19995117188</ele>
        <time>2022-10-31T15:36:42.000Z</time>
      </trkpt>
      <trkpt lat="47.96092" lon="6.96142">
        <ele>583.59997558594</ele>
        <time>2022-10-31T15:36:46.000Z</time>
      </trkpt>
      <trkpt lat="47.96091" lon="6.96142">
        <ele>583.59997558594</ele>
        <time>2022-10-31T15:36:49.000Z</time>
      </trkpt>
      <trkpt lat="47.96091" lon="6.96142">
        <ele>583.59997558594</ele>
        <time>2022-10-31T15:36:50.000Z</time>
      </trkpt>
      <trkpt lat="47.96089" lon="6.96144">
        <ele>583.80004882812</ele>
        <time>2022-10-31T15:36:54.000Z</time>
      </trkpt>
      <trkpt lat="47.96083" lon="6.96146">
        <ele>584</ele>
        <time>2022-10-31T15:37:01.000Z</time>
      </trkpt>
      <trkpt lat="47.96077" lon="6.96149">
        <ele>584</ele>
        <time>2022-10-31T15:37:07.000Z</time>
      </trkpt>
      <trkpt lat="47.96074" lon="6.96151">
        <ele>584.19995117188</ele>
        <time>2022-10-31T15:37:10.000Z</time>
      </trkpt>
      <trkpt lat="47.96071" lon="6.96147">
        <ele>584.19995117188</ele>
        <time>2022-10-31T15:37:15.000Z</time>
      </trkpt>
      <trkpt lat="47.96071" lon="6.96146">
        <ele>584.19995117188</ele>
        <time>2022-10-31T15:37:16.000Z</time>
      </trkpt>
      <trkpt lat="47.96069" lon="6.96148">
        <ele>584.40002441406</ele>
        <time>2022-10-31T15:37:22.000Z</time>
      </trkpt>
      <trkpt lat="47.96066" lon="6.9615">
        <ele>584.40002441406</ele>
        <time>2022-10-31T15:37:29.000Z</time>
      </trkpt>
      <trkpt lat="47.96064" lon="6.96152">
        <ele>584.59997558594</ele>
        <time>2022-10-31T15:37:34.000Z</time>
      </trkpt>
      <trkpt lat="47.96059" lon="6.96156">
        <ele>584.80004882812</ele>
        <time>2022-10-31T15:37:41.000Z</time>
      </trkpt>
      <trkpt lat="47.96053" lon="6.96158">
        <ele>585</ele>
        <time>2022-10-31T15:37:48.000Z</time>
      </trkpt>
      <trkpt lat="47.96052" lon="6.96158">
        <ele>585</ele>
        <time>2022-10-31T15:37:49.000Z</time>
      </trkpt>
      <trkpt lat="47.96046" lon="6.96164">
        <ele>585</ele>
        <time>2022-10-31T15:37:55.000Z</time>
      </trkpt>
      <trkpt lat="47.96043" lon="6.96164">
        <ele>585</ele>
        <time>2022-10-31T15:37:57.000Z</time>
      </trkpt>
      <trkpt lat="47.96037" lon="6.96165">
        <ele>585</ele>
        <time>2022-10-31T15:38:01.000Z</time>
      </trkpt>
      <trkpt lat="47.96036" lon="6.96166">
        <ele>585</ele>
        <time>2022-10-31T15:38:03.000Z</time>
      </trkpt>
      <trkpt lat="47.96033" lon="6.96165">
        <ele>585.19995117188</ele>
        <time>2022-10-31T15:38:09.000Z</time>
      </trkpt>
      <trkpt lat="47.96026" lon="6.96166">
        <ele>585.19995117188</ele>
        <time>2022-10-31T15:38:16.000Z</time>
      </trkpt>
      <trkpt lat="47.96019" lon="6.96167">
        <ele>585.19995117188</ele>
        <time>2022-10-31T15:38:23.000Z</time>
      </trkpt>
      <trkpt lat="47.96017" lon="6.96168">
        <ele>585.19995117188</ele>
        <time>2022-10-31T15:38:24.000Z</time>
      </trkpt>
      <trkpt lat="47.96016" lon="6.96169">
        <ele>585.19995117188</ele>
        <time>2022-10-31T15:38:25.000Z</time>
      </trkpt>
      <trkpt lat="47.96009" lon="6.96172">
        <ele>585.19995117188</ele>
        <time>2022-10-31T15:38:31.000Z</time>
      </trkpt>
      <trkpt lat="47.96005" lon="6.96171">
        <ele>585.40002441406</ele>
        <time>2022-10-31T15:38:37.000Z</time>
      </trkpt>
      <trkpt lat="47.96003" lon="6.9617">
        <ele>585.40002441406</ele>
        <time>2022-10-31T15:38:42.000Z</time>
      </trkpt>
      <trkpt lat="47.95999" lon="6.96171">
        <ele>585.40002441406</ele>
        <time>2022-10-31T15:38:49.000Z</time>
      </trkpt>
      <trkpt lat="47.95996" lon="6.96171">
        <ele>585.40002441406</ele>
        <time>2022-10-31T15:38:52.000Z</time>
      </trkpt>
      <trkpt lat="47.95995" lon="6.96171">
        <ele>585.40002441406</ele>
        <time>2022-10-31T15:38:53.000Z</time>
      </trkpt>
      <trkpt lat="47.95994" lon="6.96171">
        <ele>585.40002441406</ele>
        <time>2022-10-31T15:38:55.000Z</time>
      </trkpt>
      <trkpt lat="47.95993" lon="6.96165">
        <ele>585.40002441406</ele>
        <time>2022-10-31T15:39:00.000Z</time>
      </trkpt>
      <trkpt lat="47.95996" lon="6.96162">
        <ele>585.40002441406</ele>
        <time>2022-10-31T15:39:06.000Z</time>
      </trkpt>
      <trkpt lat="47.95997" lon="6.96161">
        <ele>585.40002441406</ele>
        <time>2022-10-31T15:39:12.000Z</time>
      </trkpt>
      <trkpt lat="47.95997" lon="6.9616">
        <ele>585.40002441406</ele>
        <time>2022-10-31T15:39:14.000Z</time>
      </trkpt>
      <trkpt lat="47.95998" lon="6.9616">
        <ele>585.40002441406</ele>
        <time>2022-10-31T15:39:24.000Z</time>
      </trkpt>
      <trkpt lat="47.95997" lon="6.9616">
        <ele>585.40002441406</ele>
        <time>2022-10-31T15:39:37.000Z</time>
      </trkpt>
      <trkpt lat="47.95994" lon="6.96157">
        <ele>585.40002441406</ele>
        <time>2022-10-31T15:39:48.000Z</time>
      </trkpt>
      <trkpt lat="47.95988" lon="6.9616">
        <ele>585.40002441406</ele>
        <time>2022-10-31T15:39:52.000Z</time>
      </trkpt>
      <trkpt lat="47.95987" lon="6.9616">
        <ele>585.40002441406</ele>
        <time>2022-10-31T15:39:53.000Z</time>
      </trkpt>
      <trkpt lat="47.95976" lon="6.96165">
        <ele>585.40002441406</ele>
        <time>2022-10-31T15:40:00.000Z</time>
      </trkpt>
      <trkpt lat="47.95972" lon="6.96166">
        <ele>585.40002441406</ele>
        <time>2022-10-31T15:40:03.000Z</time>
      </trkpt>
      <trkpt lat="47.95969" lon="6.96168">
        <ele>585.40002441406</ele>
        <time>2022-10-31T15:40:07.000Z</time>
      </trkpt>
      <trkpt lat="47.95962" lon="6.96168">
        <ele>585.40002441406</ele>
        <time>2022-10-31T15:40:15.000Z</time>
      </trkpt>
      <trkpt lat="47.95951" lon="6.96171">
        <ele>585.40002441406</ele>
        <time>2022-10-31T15:40:23.000Z</time>
      </trkpt>
      <trkpt lat="47.95948" lon="6.96171">
        <ele>585.40002441406</ele>
        <time>2022-10-31T15:40:26.000Z</time>
      </trkpt>
      <trkpt lat="47.95943" lon="6.96172">
        <ele>585.40002441406</ele>
        <time>2022-10-31T15:40:30.000Z</time>
      </trkpt>
      <trkpt lat="47.95938" lon="6.96175">
        <ele>585.40002441406</ele>
        <time>2022-10-31T15:40:34.000Z</time>
      </trkpt>
      <trkpt lat="47.95937" lon="6.96175">
        <ele>585.40002441406</ele>
        <time>2022-10-31T15:40:35.000Z</time>
      </trkpt>
      <trkpt lat="47.95937" lon="6.96174">
        <ele>585.40002441406</ele>
        <time>2022-10-31T15:40:37.000Z</time>
      </trkpt>
      <trkpt lat="47.95936" lon="6.96174">
        <ele>585.40002441406</ele>
        <time>2022-10-31T15:40:38.000Z</time>
      </trkpt>
      <trkpt lat="47.95932" lon="6.96171">
        <ele>585.40002441406</ele>
        <time>2022-10-31T15:40:43.000Z</time>
      </trkpt>
      <trkpt lat="47.9593" lon="6.96171">
        <ele>585.40002441406</ele>
        <time>2022-10-31T15:40:46.000Z</time>
      </trkpt>
      <trkpt lat="47.95928" lon="6.9617">
        <ele>585.40002441406</ele>
        <time>2022-10-31T15:40:48.000Z</time>
      </trkpt>
      <trkpt lat="47.95924" lon="6.96167">
        <ele>585.40002441406</ele>
        <time>2022-10-31T15:40:53.000Z</time>
      </trkpt>
      <trkpt lat="47.95921" lon="6.96168">
        <ele>585.40002441406</ele>
        <time>2022-10-31T15:40:56.000Z</time>
      </trkpt>
      <trkpt lat="47.95918" lon="6.96167">
        <ele>585.40002441406</ele>
        <time>2022-10-31T15:41:01.000Z</time>
      </trkpt>
      <trkpt lat="47.95913" lon="6.96169">
        <ele>585.40002441406</ele>
        <time>2022-10-31T15:41:08.000Z</time>
      </trkpt>
      <trkpt lat="47.95904" lon="6.96168">
        <ele>585.40002441406</ele>
        <time>2022-10-31T15:41:17.000Z</time>
      </trkpt>
      <trkpt lat="47.95899" lon="6.96166">
        <ele>585.40002441406</ele>
        <time>2022-10-31T15:41:23.000Z</time>
      </trkpt>
      <trkpt lat="47.95899" lon="6.96166">
        <ele>585.40002441406</ele>
        <time>2022-10-31T15:41:25.000Z</time>
      </trkpt>
      <trkpt lat="47.95896" lon="6.96165">
        <ele>585.40002441406</ele>
        <time>2022-10-31T15:41:27.000Z</time>
      </trkpt>
      <trkpt lat="47.95892" lon="6.96163">
        <ele>585.40002441406</ele>
        <time>2022-10-31T15:41:32.000Z</time>
      </trkpt>
      <trkpt lat="47.95884" lon="6.96162">
        <ele>585.40002441406</ele>
        <time>2022-10-31T15:41:39.000Z</time>
      </trkpt>
      <trkpt lat="47.95882" lon="6.96158">
        <ele>585.40002441406</ele>
        <time>2022-10-31T15:41:45.000Z</time>
      </trkpt>
      <trkpt lat="47.95877" lon="6.96157">
        <ele>585.40002441406</ele>
        <time>2022-10-31T15:41:51.000Z</time>
      </trkpt>
      <trkpt lat="47.95872" lon="6.96156">
        <ele>585.40002441406</ele>
        <time>2022-10-31T15:41:57.000Z</time>
      </trkpt>
      <trkpt lat="47.9587" lon="6.96156">
        <ele>585.40002441406</ele>
        <time>2022-10-31T15:42:02.000Z</time>
      </trkpt>
      <trkpt lat="47.95866" lon="6.96157">
        <ele>585.40002441406</ele>
        <time>2022-10-31T15:42:06.000Z</time>
      </trkpt>
      <trkpt lat="47.95862" lon="6.96156">
        <ele>585.40002441406</ele>
        <time>2022-10-31T15:42:09.000Z</time>
      </trkpt>
      <trkpt lat="47.95855" lon="6.96156">
        <ele>585.40002441406</ele>
        <time>2022-10-31T15:42:17.000Z</time>
      </trkpt>
      <trkpt lat="47.95855" lon="6.96154">
        <ele>585.40002441406</ele>
        <time>2022-10-31T15:42:18.000Z</time>
      </trkpt>
      <trkpt lat="47.95852" lon="6.96154">
        <ele>585.40002441406</ele>
        <time>2022-10-31T15:42:25.000Z</time>
      </trkpt>
      <trkpt lat="47.95851" lon="6.96153">
        <ele>585.40002441406</ele>
        <time>2022-10-31T15:42:26.000Z</time>
      </trkpt>
      <trkpt lat="47.95851" lon="6.96153">
        <ele>585.40002441406</ele>
        <time>2022-10-31T15:42:27.000Z</time>
      </trkpt>
      <trkpt lat="47.95848" lon="6.96152">
        <ele>585.40002441406</ele>
        <time>2022-10-31T15:42:32.000Z</time>
      </trkpt>
      <trkpt lat="47.95842" lon="6.96152">
        <ele>585.40002441406</ele>
        <time>2022-10-31T15:42:38.000Z</time>
      </trkpt>
      <trkpt lat="47.95838" lon="6.96154">
        <ele>585.40002441406</ele>
        <time>2022-10-31T15:42:43.000Z</time>
      </trkpt>
      <trkpt lat="47.95833" lon="6.96156">
        <ele>580.59997558594</ele>
        <time>2022-10-31T15:42:48.000Z</time>
      </trkpt>
      <trkpt lat="47.95829" lon="6.96157">
        <ele>580.59997558594</ele>
        <time>2022-10-31T15:42:52.000Z</time>
      </trkpt>
      <trkpt lat="47.95825" lon="6.96159">
        <ele>580.59997558594</ele>
        <time>2022-10-31T15:42:55.000Z</time>
      </trkpt>
      <trkpt lat="47.95823" lon="6.96159">
        <ele>580.59997558594</ele>
        <time>2022-10-31T15:43:00.000Z</time>
      </trkpt>
      <trkpt lat="47.95816" lon="6.96157">
        <ele>580.59997558594</ele>
        <time>2022-10-31T15:43:07.000Z</time>
      </trkpt>
      <trkpt lat="47.95808" lon="6.9616">
        <ele>580.59997558594</ele>
        <time>2022-10-31T15:43:14.000Z</time>
      </trkpt>
      <trkpt lat="47.95804" lon="6.96161">
        <ele>580.59997558594</ele>
        <time>2022-10-31T15:43:21.000Z</time>
      </trkpt>
      <trkpt lat="47.95801" lon="6.96163">
        <ele>580.59997558594</ele>
        <time>2022-10-31T15:43:28.000Z</time>
      </trkpt>
      <trkpt lat="47.95795" lon="6.96162">
        <ele>580.59997558594</ele>
        <time>2022-10-31T15:43:34.000Z</time>
      </trkpt>
      <trkpt lat="47.95793" lon="6.96162">
        <ele>580.59997558594</ele>
        <time>2022-10-31T15:43:38.000Z</time>
      </trkpt>
      <trkpt lat="47.95792" lon="6.96162">
        <ele>580.59997558594</ele>
        <time>2022-10-31T15:43:39.000Z</time>
      </trkpt>
      <trkpt lat="47.9579" lon="6.96162">
        <ele>580.59997558594</ele>
        <time>2022-10-31T15:43:41.000Z</time>
      </trkpt>
      <trkpt lat="47.95789" lon="6.96163">
        <ele>580.59997558594</ele>
        <time>2022-10-31T15:43:43.000Z</time>
      </trkpt>
      <trkpt lat="47.95786" lon="6.96167">
        <ele>580.59997558594</ele>
        <time>2022-10-31T15:43:47.000Z</time>
      </trkpt>
      <trkpt lat="47.95779" lon="6.96168">
        <ele>580.59997558594</ele>
        <time>2022-10-31T15:43:53.000Z</time>
      </trkpt>
      <trkpt lat="47.95776" lon="6.96167">
        <ele>580.59997558594</ele>
        <time>2022-10-31T15:43:56.000Z</time>
      </trkpt>
      <trkpt lat="47.95773" lon="6.96165">
        <ele>580.59997558594</ele>
        <time>2022-10-31T15:44:01.000Z</time>
      </trkpt>
      <trkpt lat="47.95768" lon="6.96168">
        <ele>580.59997558594</ele>
        <time>2022-10-31T15:44:07.000Z</time>
      </trkpt>
      <trkpt lat="47.95758" lon="6.96168">
        <ele>580.59997558594</ele>
        <time>2022-10-31T15:44:14.000Z</time>
      </trkpt>
      <trkpt lat="47.95753" lon="6.96168">
        <ele>580.59997558594</ele>
        <time>2022-10-31T15:44:20.000Z</time>
      </trkpt>
      <trkpt lat="47.95746" lon="6.96169">
        <ele>580.59997558594</ele>
        <time>2022-10-31T15:44:29.000Z</time>
      </trkpt>
      <trkpt lat="47.95741" lon="6.9617">
        <ele>580.59997558594</ele>
        <time>2022-10-31T15:44:37.000Z</time>
      </trkpt>
      <trkpt lat="47.9574" lon="6.9617">
        <ele>580.59997558594</ele>
        <time>2022-10-31T15:44:43.000Z</time>
      </trkpt>
      <trkpt lat="47.95735" lon="6.9617">
        <ele>580.59997558594</ele>
        <time>2022-10-31T15:44:50.000Z</time>
      </trkpt>
      <trkpt lat="47.95732" lon="6.96171">
        <ele>580.59997558594</ele>
        <time>2022-10-31T15:44:54.000Z</time>
      </trkpt>
      <trkpt lat="47.95725" lon="6.96169">
        <ele>580.59997558594</ele>
        <time>2022-10-31T15:44:59.000Z</time>
      </trkpt>
      <trkpt lat="47.95721" lon="6.96172">
        <ele>580.59997558594</ele>
        <time>2022-10-31T15:45:03.000Z</time>
      </trkpt>
      <trkpt lat="47.95718" lon="6.9617">
        <ele>580.59997558594</ele>
        <time>2022-10-31T15:45:06.000Z</time>
      </trkpt>
      <trkpt lat="47.95714" lon="6.96171">
        <ele>580.59997558594</ele>
        <time>2022-10-31T15:45:13.000Z</time>
      </trkpt>
      <trkpt lat="47.95708" lon="6.96168">
        <ele>580.59997558594</ele>
        <time>2022-10-31T15:45:19.000Z</time>
      </trkpt>
      <trkpt lat="47.95704" lon="6.9617">
        <ele>580.59997558594</ele>
        <time>2022-10-31T15:45:25.000Z</time>
      </trkpt>
      <trkpt lat="47.957" lon="6.96171">
        <ele>580.59997558594</ele>
        <time>2022-10-31T15:45:30.000Z</time>
      </trkpt>
      <trkpt lat="47.95698" lon="6.96172">
        <ele>580.59997558594</ele>
        <time>2022-10-31T15:45:35.000Z</time>
      </trkpt>
      <trkpt lat="47.95697" lon="6.96171">
        <ele>580.59997558594</ele>
        <time>2022-10-31T15:45:36.000Z</time>
      </trkpt>
      <trkpt lat="47.95692" lon="6.9617">
        <ele>580.59997558594</ele>
        <time>2022-10-31T15:45:42.000Z</time>
      </trkpt>
      <trkpt lat="47.9569" lon="6.96172">
        <ele>580.59997558594</ele>
        <time>2022-10-31T15:45:45.000Z</time>
      </trkpt>
      <trkpt lat="47.95688" lon="6.96174">
        <ele>580.59997558594</ele>
        <time>2022-10-31T15:45:49.000Z</time>
      </trkpt>
      <trkpt lat="47.95684" lon="6.96177">
        <ele>580.59997558594</ele>
        <time>2022-10-31T15:45:54.000Z</time>
      </trkpt>
      <trkpt lat="47.95684" lon="6.96178">
        <ele>580.59997558594</ele>
        <time>2022-10-31T15:45:55.000Z</time>
      </trkpt>
      <trkpt lat="47.95682" lon="6.96179">
        <ele>580.59997558594</ele>
        <time>2022-10-31T15:45:59.000Z</time>
      </trkpt>
      <trkpt lat="47.95678" lon="6.96179">
        <ele>580.59997558594</ele>
        <time>2022-10-31T15:46:03.000Z</time>
      </trkpt>
      <trkpt lat="47.95677" lon="6.96179">
        <ele>580.59997558594</ele>
        <time>2022-10-31T15:46:04.000Z</time>
      </trkpt>
      <trkpt lat="47.95675" lon="6.96181">
        <ele>580.59997558594</ele>
        <time>2022-10-31T15:46:09.000Z</time>
      </trkpt>
      <trkpt lat="47.95676" lon="6.9618">
        <ele>580.59997558594</ele>
        <time>2022-10-31T15:46:15.000Z</time>
      </trkpt>
      <trkpt lat="47.95672" lon="6.96182">
        <ele>580.59997558594</ele>
        <time>2022-10-31T15:46:22.000Z</time>
      </trkpt>
      <trkpt lat="47.95668" lon="6.9618">
        <ele>580.59997558594</ele>
        <time>2022-10-31T15:46:27.000Z</time>
      </trkpt>
      <trkpt lat="47.9566" lon="6.9618">
        <ele>580.59997558594</ele>
        <time>2022-10-31T15:46:34.000Z</time>
      </trkpt>
      <trkpt lat="47.95652" lon="6.96179">
        <ele>580.59997558594</ele>
        <time>2022-10-31T15:46:41.000Z</time>
      </trkpt>
      <trkpt lat="47.95644" lon="6.96175">
        <ele>580.59997558594</ele>
        <time>2022-10-31T15:46:50.000Z</time>
      </trkpt>
      <trkpt lat="47.95639" lon="6.9617">
        <ele>580.59997558594</ele>
        <time>2022-10-31T15:46:57.000Z</time>
      </trkpt>
      <trkpt lat="47.95633" lon="6.96167">
        <ele>580.59997558594</ele>
        <time>2022-10-31T15:47:05.000Z</time>
      </trkpt>
      <trkpt lat="47.95628" lon="6.96166">
        <ele>580.59997558594</ele>
        <time>2022-10-31T15:47:11.000Z</time>
      </trkpt>
      <trkpt lat="47.95627" lon="6.96164">
        <ele>580.59997558594</ele>
        <time>2022-10-31T15:47:14.000Z</time>
      </trkpt>
      <trkpt lat="47.95626" lon="6.96163">
        <ele>580.59997558594</ele>
        <time>2022-10-31T15:47:16.000Z</time>
      </trkpt>
      <trkpt lat="47.95621" lon="6.96161">
        <ele>580.59997558594</ele>
        <time>2022-10-31T15:47:20.000Z</time>
      </trkpt>
      <trkpt lat="47.95619" lon="6.96156">
        <ele>580.59997558594</ele>
        <time>2022-10-31T15:47:27.000Z</time>
      </trkpt>
      <trkpt lat="47.95615" lon="6.96153">
        <ele>580.59997558594</ele>
        <time>2022-10-31T15:47:35.000Z</time>
      </trkpt>
      <trkpt lat="47.95612" lon="6.96148">
        <ele>580.59997558594</ele>
        <time>2022-10-31T15:47:42.000Z</time>
      </trkpt>
      <trkpt lat="47.9561" lon="6.9615">
        <ele>580.59997558594</ele>
        <time>2022-10-31T15:47:48.000Z</time>
      </trkpt>
      <trkpt lat="47.95604" lon="6.96147">
        <ele>580.59997558594</ele>
        <time>2022-10-31T15:47:57.000Z</time>
      </trkpt>
      <trkpt lat="47.95597" lon="6.96144">
        <ele>580.59997558594</ele>
        <time>2022-10-31T15:48:06.000Z</time>
      </trkpt>
      <trkpt lat="47.95593" lon="6.96142">
        <ele>580.59997558594</ele>
        <time>2022-10-31T15:48:13.000Z</time>
      </trkpt>
      <trkpt lat="47.95593" lon="6.96139">
        <ele>580.59997558594</ele>
        <time>2022-10-31T15:48:18.000Z</time>
      </trkpt>
      <trkpt lat="47.95592" lon="6.96137">
        <ele>580.59997558594</ele>
        <time>2022-10-31T15:48:22.000Z</time>
      </trkpt>
      <trkpt lat="47.95592" lon="6.96137">
        <ele>580.59997558594</ele>
        <time>2022-10-31T15:48:24.000Z</time>
      </trkpt>
      <trkpt lat="47.95592" lon="6.96136">
        <ele>580.59997558594</ele>
        <time>2022-10-31T15:48:31.000Z</time>
      </trkpt>
      <trkpt lat="47.95592" lon="6.96136">
        <ele>580.59997558594</ele>
        <time>2022-10-31T15:48:36.000Z</time>
      </trkpt>
      <trkpt lat="47.95588" lon="6.96135">
        <ele>580.59997558594</ele>
        <time>2022-10-31T15:48:40.000Z</time>
      </trkpt>
      <trkpt lat="47.95576" lon="6.96135">
        <ele>580.59997558594</ele>
        <time>2022-10-31T15:48:49.000Z</time>
      </trkpt>
      <trkpt lat="47.95571" lon="6.96139">
        <ele>580.59997558594</ele>
        <time>2022-10-31T15:48:57.000Z</time>
      </trkpt>
      <trkpt lat="47.95562" lon="6.96141">
        <ele>580.59997558594</ele>
        <time>2022-10-31T15:49:06.000Z</time>
      </trkpt>
      <trkpt lat="47.95558" lon="6.96141">
        <ele>580.59997558594</ele>
        <time>2022-10-31T15:49:10.000Z</time>
      </trkpt>
      <trkpt lat="47.95554" lon="6.96141">
        <ele>580.59997558594</ele>
        <time>2022-10-31T15:49:14.000Z</time>
      </trkpt>
      <trkpt lat="47.9555" lon="6.96141">
        <ele>580.59997558594</ele>
        <time>2022-10-31T15:49:20.000Z</time>
      </trkpt>
      <trkpt lat="47.9555" lon="6.9614">
        <ele>580.59997558594</ele>
        <time>2022-10-31T15:49:21.000Z</time>
      </trkpt>
      <trkpt lat="47.95547" lon="6.96143">
        <ele>580.59997558594</ele>
        <time>2022-10-31T15:49:29.000Z</time>
      </trkpt>
      <trkpt lat="47.95539" lon="6.96142">
        <ele>580.59997558594</ele>
        <time>2022-10-31T15:49:40.000Z</time>
      </trkpt>
      <trkpt lat="47.95534" lon="6.96141">
        <ele>580.59997558594</ele>
        <time>2022-10-31T15:49:51.000Z</time>
      </trkpt>
      <trkpt lat="47.95535" lon="6.96139">
        <ele>580.59997558594</ele>
        <time>2022-10-31T15:49:55.000Z</time>
      </trkpt>
      <trkpt lat="47.95531" lon="6.96142">
        <ele>580.59997558594</ele>
        <time>2022-10-31T15:50:02.000Z</time>
      </trkpt>
      <trkpt lat="47.95522" lon="6.96143">
        <ele>580.59997558594</ele>
        <time>2022-10-31T15:50:12.000Z</time>
      </trkpt>
      <trkpt lat="47.95516" lon="6.96144">
        <ele>580.59997558594</ele>
        <time>2022-10-31T15:50:18.000Z</time>
      </trkpt>
      <trkpt lat="47.95512" lon="6.96145">
        <ele>580.59997558594</ele>
        <time>2022-10-31T15:50:25.000Z</time>
      </trkpt>
      <trkpt lat="47.95506" lon="6.96142">
        <ele>580.59997558594</ele>
        <time>2022-10-31T15:50:32.000Z</time>
      </trkpt>
      <trkpt lat="47.95506" lon="6.96143">
        <ele>580.59997558594</ele>
        <time>2022-10-31T15:50:38.000Z</time>
      </trkpt>
      <trkpt lat="47.95506" lon="6.9614">
        <ele>580.59997558594</ele>
        <time>2022-10-31T15:50:46.000Z</time>
      </trkpt>
      <trkpt lat="47.95508" lon="6.96139">
        <ele>580.59997558594</ele>
        <time>2022-10-31T15:50:55.000Z</time>
      </trkpt>
      <trkpt lat="47.95509" lon="6.96138">
        <ele>580.59997558594</ele>
        <time>2022-10-31T15:51:00.000Z</time>
      </trkpt>
      <trkpt lat="47.95509" lon="6.96137">
        <ele>580.59997558594</ele>
        <time>2022-10-31T15:51:04.000Z</time>
      </trkpt>
      <trkpt lat="47.95508" lon="6.96137">
        <ele>580.59997558594</ele>
        <time>2022-10-31T15:51:06.000Z</time>
      </trkpt>
      <trkpt lat="47.95507" lon="6.96139">
        <ele>580.59997558594</ele>
        <time>2022-10-31T15:51:15.000Z</time>
      </trkpt>
      <trkpt lat="47.95507" lon="6.96138">
        <ele>580.59997558594</ele>
        <time>2022-10-31T15:51:25.000Z</time>
      </trkpt>
      <trkpt lat="47.95507" lon="6.96138">
        <ele>580.59997558594</ele>
        <time>2022-10-31T15:51:27.000Z</time>
      </trkpt>
      <trkpt lat="47.95507" lon="6.96138">
        <ele>580.59997558594</ele>
        <time>2022-10-31T15:51:28.000Z</time>
      </trkpt>
      <trkpt lat="47.95509" lon="6.96136">
        <ele>580.59997558594</ele>
        <time>2022-10-31T15:51:36.000Z</time>
      </trkpt>
      <trkpt lat="47.95514" lon="6.9613">
        <ele>580.59997558594</ele>
        <time>2022-10-31T15:51:42.000Z</time>
      </trkpt>
      <trkpt lat="47.95515" lon="6.96128">
        <ele>580.59997558594</ele>
        <time>2022-10-31T15:51:48.000Z</time>
      </trkpt>
      <trkpt lat="47.95515" lon="6.96131">
        <ele>580.59997558594</ele>
        <time>2022-10-31T15:51:54.000Z</time>
      </trkpt>
      <trkpt lat="47.95515" lon="6.96136">
        <ele>580.59997558594</ele>
        <time>2022-10-31T15:51:59.000Z</time>
      </trkpt>
      <trkpt lat="47.95505" lon="6.9614">
        <ele>580.59997558594</ele>
        <time>2022-10-31T15:52:06.000Z</time>
      </trkpt>
      <trkpt lat="47.95496" lon="6.96136">
        <ele>580.59997558594</ele>
        <time>2022-10-31T15:52:15.000Z</time>
      </trkpt>
      <trkpt lat="47.9549" lon="6.9614">
        <ele>580.59997558594</ele>
        <time>2022-10-31T15:52:20.000Z</time>
      </trkpt>
      <trkpt lat="47.95489" lon="6.96141">
        <ele>580.59997558594</ele>
        <time>2022-10-31T15:52:21.000Z</time>
      </trkpt>
      <trkpt lat="47.95488" lon="6.96141">
        <ele>580.59997558594</ele>
        <time>2022-10-31T15:52:22.000Z</time>
      </trkpt>
      <trkpt lat="47.95486" lon="6.96142">
        <ele>580.59997558594</ele>
        <time>2022-10-31T15:52:26.000Z</time>
      </trkpt>
      <trkpt lat="47.95485" lon="6.96143">
        <ele>580.59997558594</ele>
        <time>2022-10-31T15:52:28.000Z</time>
      </trkpt>
      <trkpt lat="47.95485" lon="6.96144">
        <ele>580.59997558594</ele>
        <time>2022-10-31T15:52:29.000Z</time>
      </trkpt>
      <trkpt lat="47.95485" lon="6.96144">
        <ele>580.59997558594</ele>
        <time>2022-10-31T15:52:30.000Z</time>
      </trkpt>
      <trkpt lat="47.95485" lon="6.96147">
        <ele>580.59997558594</ele>
        <time>2022-10-31T15:52:32.000Z</time>
      </trkpt>
      <trkpt lat="47.95486" lon="6.96147">
        <ele>580.59997558594</ele>
        <time>2022-10-31T15:52:33.000Z</time>
      </trkpt>
      <trkpt lat="47.95485" lon="6.96147">
        <ele>580.59997558594</ele>
        <time>2022-10-31T15:52:34.000Z</time>
      </trkpt>
      <trkpt lat="47.95482" lon="6.96151">
        <ele>580.59997558594</ele>
        <time>2022-10-31T15:52:40.000Z</time>
      </trkpt>
      <trkpt lat="47.95481" lon="6.96152">
        <ele>580.59997558594</ele>
        <time>2022-10-31T15:52:42.000Z</time>
      </trkpt>
      <trkpt lat="47.95479" lon="6.96151">
        <ele>580.59997558594</ele>
        <time>2022-10-31T15:52:46.000Z</time>
      </trkpt>
      <trkpt lat="47.95479" lon="6.96151">
        <ele>580.59997558594</ele>
        <time>2022-10-31T15:52:47.000Z</time>
      </trkpt>
      <trkpt lat="47.95476" lon="6.9615">
        <ele>580.59997558594</ele>
        <time>2022-10-31T15:52:52.000Z</time>
      </trkpt>
      <trkpt lat="47.95474" lon="6.96148">
        <ele>580.59997558594</ele>
        <time>2022-10-31T15:52:58.000Z</time>
      </trkpt>
      <trkpt lat="47.95475" lon="6.96149">
        <ele>580.59997558594</ele>
        <time>2022-10-31T15:52:59.000Z</time>
      </trkpt>
      <trkpt lat="47.95476" lon="6.96152">
        <ele>580.59997558594</ele>
        <time>2022-10-31T15:53:02.000Z</time>
      </trkpt>
      <trkpt lat="47.95475" lon="6.96152">
        <ele>580.59997558594</ele>
        <time>2022-10-31T15:53:04.000Z</time>
      </trkpt>
      <trkpt lat="47.95474" lon="6.96153">
        <ele>580.59997558594</ele>
        <time>2022-10-31T15:53:05.000Z</time>
      </trkpt>
      <trkpt lat="47.95476" lon="6.96152">
        <ele>580.59997558594</ele>
        <time>2022-10-31T15:53:10.000Z</time>
      </trkpt>
      <trkpt lat="47.95485" lon="6.96143">
        <ele>580.59997558594</ele>
        <time>2022-10-31T15:53:17.000Z</time>
      </trkpt>
      <trkpt lat="47.95482" lon="6.96145">
        <ele>580.59997558594</ele>
        <time>2022-10-31T15:53:18.000Z</time>
      </trkpt>
      <trkpt lat="47.95479" lon="6.9615">
        <ele>580.59997558594</ele>
        <time>2022-10-31T15:53:21.000Z</time>
      </trkpt>
      <trkpt lat="47.95478" lon="6.9615">
        <ele>580.59997558594</ele>
        <time>2022-10-31T15:53:23.000Z</time>
      </trkpt>
      <trkpt lat="47.95477" lon="6.96151">
        <ele>580.59997558594</ele>
        <time>2022-10-31T15:53:24.000Z</time>
      </trkpt>
      <trkpt lat="47.95474" lon="6.96151">
        <ele>580.59997558594</ele>
        <time>2022-10-31T15:53:28.000Z</time>
      </trkpt>
      <trkpt lat="47.95474" lon="6.96151">
        <ele>580.59997558594</ele>
        <time>2022-10-31T15:53:29.000Z</time>
      </trkpt>
      <trkpt lat="47.95473" lon="6.9615">
        <ele>580.59997558594</ele>
        <time>2022-10-31T15:53:30.000Z</time>
      </trkpt>
      <trkpt lat="47.95473" lon="6.9615">
        <ele>580.59997558594</ele>
        <time>2022-10-31T15:53:31.000Z</time>
      </trkpt>
      <trkpt lat="47.95473" lon="6.9615">
        <ele>580.59997558594</ele>
        <time>2022-10-31T15:53:34.000Z</time>
      </trkpt>
      <trkpt lat="47.95473" lon="6.96151">
        <ele>580.59997558594</ele>
        <time>2022-10-31T15:53:35.000Z</time>
      </trkpt>
      <trkpt lat="47.95469" lon="6.96159">
        <ele>580.59997558594</ele>
        <time>2022-10-31T15:53:40.000Z</time>
      </trkpt>
      <trkpt lat="47.95463" lon="6.96158">
        <ele>580.59997558594</ele>
        <time>2022-10-31T15:53:46.000Z</time>
      </trkpt>
      <trkpt lat="47.95462" lon="6.96157">
        <ele>580.59997558594</ele>
        <time>2022-10-31T15:53:48.000Z</time>
      </trkpt>
      <trkpt lat="47.9546" lon="6.96155">
        <ele>580.59997558594</ele>
        <time>2022-10-31T15:53:52.000Z</time>
      </trkpt>
      <trkpt lat="47.95458" lon="6.96153">
        <ele>580.59997558594</ele>
        <time>2022-10-31T15:53:55.000Z</time>
      </trkpt>
      <trkpt lat="47.95455" lon="6.96152">
        <ele>580.59997558594</ele>
        <time>2022-10-31T15:53:58.000Z</time>
      </trkpt>
      <trkpt lat="47.95454" lon="6.96152">
        <ele>580.59997558594</ele>
        <time>2022-10-31T15:53:59.000Z</time>
      </trkpt>
      <trkpt lat="47.95447" lon="6.96137">
        <ele>580.59997558594</ele>
        <time>2022-10-31T15:54:09.000Z</time>
      </trkpt>
      <trkpt lat="47.95443" lon="6.96137">
        <ele>580.59997558594</ele>
        <time>2022-10-31T15:54:13.000Z</time>
      </trkpt>
      <trkpt lat="47.95441" lon="6.96135">
        <ele>580.59997558594</ele>
        <time>2022-10-31T15:54:16.000Z</time>
      </trkpt>
      <trkpt lat="47.95441" lon="6.96134">
        <ele>580.59997558594</ele>
        <time>2022-10-31T15:54:17.000Z</time>
      </trkpt>
      <trkpt lat="47.95435" lon="6.96127">
        <ele>580.59997558594</ele>
        <time>2022-10-31T15:54:25.000Z</time>
      </trkpt>
      <trkpt lat="47.95428" lon="6.96122">
        <ele>580.59997558594</ele>
        <time>2022-10-31T15:54:33.000Z</time>
      </trkpt>
      <trkpt lat="47.95428" lon="6.96122">
        <ele>580.59997558594</ele>
        <time>2022-10-31T15:54:34.000Z</time>
      </trkpt>
      <trkpt lat="47.95423" lon="6.96118">
        <ele>580.59997558594</ele>
        <time>2022-10-31T15:54:39.000Z</time>
      </trkpt>
      <trkpt lat="47.95421" lon="6.96113">
        <ele>580.59997558594</ele>
        <time>2022-10-31T15:54:43.000Z</time>
      </trkpt>
      <trkpt lat="47.95418" lon="6.9611">
        <ele>580.59997558594</ele>
        <time>2022-10-31T15:54:46.000Z</time>
      </trkpt>
      <trkpt lat="47.95416" lon="6.96105">
        <ele>580.59997558594</ele>
        <time>2022-10-31T15:54:50.000Z</time>
      </trkpt>
      <trkpt lat="47.95415" lon="6.96102">
        <ele>580.59997558594</ele>
        <time>2022-10-31T15:54:52.000Z</time>
      </trkpt>
      <trkpt lat="47.95411" lon="6.96092">
        <ele>580.59997558594</ele>
        <time>2022-10-31T15:54:59.000Z</time>
      </trkpt>
      <trkpt lat="47.9541" lon="6.96084">
        <ele>580.59997558594</ele>
        <time>2022-10-31T15:55:02.000Z</time>
      </trkpt>
      <trkpt lat="47.95409" lon="6.9608">
        <ele>580.59997558594</ele>
        <time>2022-10-31T15:55:06.000Z</time>
      </trkpt>
      <trkpt lat="47.95409" lon="6.96079">
        <ele>580.59997558594</ele>
        <time>2022-10-31T15:55:07.000Z</time>
      </trkpt>
      <trkpt lat="47.95409" lon="6.96081">
        <ele>580.59997558594</ele>
        <time>2022-10-31T15:55:09.000Z</time>
      </trkpt>
      <trkpt lat="47.9541" lon="6.96083">
        <ele>580.59997558594</ele>
        <time>2022-10-31T15:55:11.000Z</time>
      </trkpt>
      <trkpt lat="47.95406" lon="6.96087">
        <ele>580.59997558594</ele>
        <time>2022-10-31T15:55:15.000Z</time>
      </trkpt>
      <trkpt lat="47.95404" lon="6.96086">
        <ele>580.59997558594</ele>
        <time>2022-10-31T15:55:18.000Z</time>
      </trkpt>
      <trkpt lat="47.95403" lon="6.96085">
        <ele>580.59997558594</ele>
        <time>2022-10-31T15:55:19.000Z</time>
      </trkpt>
      <trkpt lat="47.95403" lon="6.96081">
        <ele>580.59997558594</ele>
        <time>2022-10-31T15:55:23.000Z</time>
      </trkpt>
      <trkpt lat="47.95401" lon="6.96069">
        <ele>580.59997558594</ele>
        <time>2022-10-31T15:55:31.000Z</time>
      </trkpt>
      <trkpt lat="47.954" lon="6.96057">
        <ele>580.59997558594</ele>
        <time>2022-10-31T15:55:35.000Z</time>
      </trkpt>
      <trkpt lat="47.95401" lon="6.96052">
        <ele>580.59997558594</ele>
        <time>2022-10-31T15:55:38.000Z</time>
      </trkpt>
      <trkpt lat="47.95401" lon="6.96048">
        <ele>580.59997558594</ele>
        <time>2022-10-31T15:55:44.000Z</time>
      </trkpt>
      <trkpt lat="47.95401" lon="6.96046">
        <ele>580.59997558594</ele>
        <time>2022-10-31T15:55:45.000Z</time>
      </trkpt>
      <trkpt lat="47.95401" lon="6.9604">
        <ele>580.59997558594</ele>
        <time>2022-10-31T15:55:52.000Z</time>
      </trkpt>
      <trkpt lat="47.95403" lon="6.96039">
        <ele>580.59997558594</ele>
        <time>2022-10-31T15:55:58.000Z</time>
      </trkpt>
      <trkpt lat="47.95403" lon="6.96035">
        <ele>580.59997558594</ele>
        <time>2022-10-31T15:56:06.000Z</time>
      </trkpt>
      <trkpt lat="47.95403" lon="6.96033">
        <ele>580.59997558594</ele>
        <time>2022-10-31T15:56:08.000Z</time>
      </trkpt>
      <trkpt lat="47.95401" lon="6.96025">
        <ele>580.59997558594</ele>
        <time>2022-10-31T15:56:14.000Z</time>
      </trkpt>
      <trkpt lat="47.95398" lon="6.9602">
        <ele>580.59997558594</ele>
        <time>2022-10-31T15:56:20.000Z</time>
      </trkpt>
      <trkpt lat="47.95396" lon="6.96015">
        <ele>580.59997558594</ele>
        <time>2022-10-31T15:56:25.000Z</time>
      </trkpt>
      <trkpt lat="47.95394" lon="6.96006">
        <ele>580.59997558594</ele>
        <time>2022-10-31T15:56:31.000Z</time>
      </trkpt>
      <trkpt lat="47.95392" lon="6.96">
        <ele>580.59997558594</ele>
        <time>2022-10-31T15:56:36.000Z</time>
      </trkpt>
      <trkpt lat="47.95387" lon="6.95988">
        <ele>580.59997558594</ele>
        <time>2022-10-31T15:56:46.000Z</time>
      </trkpt>
      <trkpt lat="47.95385" lon="6.9598">
        <ele>580.59997558594</ele>
        <time>2022-10-31T15:56:52.000Z</time>
      </trkpt>
      <trkpt lat="47.95383" lon="6.95979">
        <ele>580.59997558594</ele>
        <time>2022-10-31T15:56:55.000Z</time>
      </trkpt>
      <trkpt lat="47.95382" lon="6.95979">
        <ele>580.59997558594</ele>
        <time>2022-10-31T15:56:56.000Z</time>
      </trkpt>
      <trkpt lat="47.95379" lon="6.9598">
        <ele>580.59997558594</ele>
        <time>2022-10-31T15:56:59.000Z</time>
      </trkpt>
      <trkpt lat="47.95379" lon="6.9598">
        <ele>580.59997558594</ele>
        <time>2022-10-31T15:57:06.000Z</time>
      </trkpt>
      <trkpt lat="47.95377" lon="6.95983">
        <ele>580.59997558594</ele>
        <time>2022-10-31T15:57:12.000Z</time>
      </trkpt>
      <trkpt lat="47.95375" lon="6.9599">
        <ele>580.59997558594</ele>
        <time>2022-10-31T15:57:18.000Z</time>
      </trkpt>
      <trkpt lat="47.95375" lon="6.95991">
        <ele>580.59997558594</ele>
        <time>2022-10-31T15:57:20.000Z</time>
      </trkpt>
      <trkpt lat="47.95375" lon="6.9599">
        <ele>580.59997558594</ele>
        <time>2022-10-31T15:57:21.000Z</time>
      </trkpt>
      <trkpt lat="47.95374" lon="6.95989">
        <ele>580.59997558594</ele>
        <time>2022-10-31T15:57:22.000Z</time>
      </trkpt>
      <trkpt lat="47.95374" lon="6.95978">
        <ele>580.59997558594</ele>
        <time>2022-10-31T15:57:29.000Z</time>
      </trkpt>
      <trkpt lat="47.95375" lon="6.95977">
        <ele>580.59997558594</ele>
        <time>2022-10-31T15:57:30.000Z</time>
      </trkpt>
      <trkpt lat="47.95376" lon="6.95973">
        <ele>580.59997558594</ele>
        <time>2022-10-31T15:57:35.000Z</time>
      </trkpt>
      <trkpt lat="47.95377" lon="6.9597">
        <ele>580.59997558594</ele>
        <time>2022-10-31T15:57:40.000Z</time>
      </trkpt>
      <trkpt lat="47.95376" lon="6.95968">
        <ele>580.59997558594</ele>
        <time>2022-10-31T15:57:47.000Z</time>
      </trkpt>
      <trkpt lat="47.95374" lon="6.95966">
        <ele>580.59997558594</ele>
        <time>2022-10-31T15:57:49.000Z</time>
      </trkpt>
      <trkpt lat="47.95374" lon="6.95966">
        <ele>580.59997558594</ele>
        <time>2022-10-31T15:57:50.000Z</time>
      </trkpt>
      <trkpt lat="47.95373" lon="6.95964">
        <ele>580.59997558594</ele>
        <time>2022-10-31T15:57:52.000Z</time>
      </trkpt>
      <trkpt lat="47.95373" lon="6.95963">
        <ele>580.59997558594</ele>
        <time>2022-10-31T15:57:53.000Z</time>
      </trkpt>
      <trkpt lat="47.95373" lon="6.95962">
        <ele>580.59997558594</ele>
        <time>2022-10-31T15:57:54.000Z</time>
      </trkpt>
      <trkpt lat="47.95374" lon="6.95962">
        <ele>580.59997558594</ele>
        <time>2022-10-31T15:57:55.000Z</time>
      </trkpt>
    </trkseg>
  </trk>
</gpx>